<?xml version="1.0" encoding="UTF-8" standalone="no" ?>
<gpx xmlns="http://www.topografix.com/GPX/1/1" xmlns:xsi="http://www.w3.org/2001/XMLSchema-instance" xsi:schemaLocation="http://www.topografix.com/GPX/1/1 http://www.topografix.com/GPX/1/1/gpx.xsd" version="1.1" creator="VisuGPX - https://www.visugpx.com">
  <metadata>
    <name>Sortie vélo du matin avant le boulot</name>
    <desc><![CDATA[Cycling]]></desc>
  </metadata>
  <trk>
    <name><![CDATA[05/09/2012 07:41]]></name>
    <trkseg>
      <trkpt lat="45.59061" lon="4.90915">
        <ele>284.5</ele>
        <time>2012-09-05T07:41:29.93</time>
      </trkpt>
      <trkpt lat="45.59061" lon="4.90915">
        <ele>284.5</ele>
        <time>2012-09-05T07:41:31.76</time>
      </trkpt>
      <trkpt lat="45.59061" lon="4.90915">
        <ele>284.5</ele>
        <time>2012-09-05T07:41:32.98</time>
      </trkpt>
      <trkpt lat="45.59061" lon="4.90915">
        <ele>284.5</ele>
        <time>2012-09-05T07:41:33.98</time>
      </trkpt>
      <trkpt lat="45.59061" lon="4.90916">
        <ele>284.5</ele>
        <time>2012-09-05T07:41:34.98</time>
      </trkpt>
      <trkpt lat="45.59059" lon="4.90915">
        <ele>286</ele>
        <time>2012-09-05T07:41:35.96</time>
      </trkpt>
      <trkpt lat="45.5906" lon="4.90914">
        <ele>286</ele>
        <time>2012-09-05T07:41:37.02</time>
      </trkpt>
      <trkpt lat="45.59058" lon="4.90911">
        <ele>287</ele>
        <time>2012-09-05T07:41:37.96</time>
      </trkpt>
      <trkpt lat="45.59059" lon="4.90911">
        <ele>287</ele>
        <time>2012-09-05T07:41:38.95</time>
      </trkpt>
      <trkpt lat="45.59059" lon="4.90911">
        <ele>286.5</ele>
        <time>2012-09-05T07:41:39.95</time>
      </trkpt>
      <trkpt lat="45.5906" lon="4.90912">
        <ele>285.5</ele>
        <time>2012-09-05T07:41:40.94</time>
      </trkpt>
      <trkpt lat="45.5906" lon="4.90911">
        <ele>285.5</ele>
        <time>2012-09-05T07:41:41.94</time>
      </trkpt>
      <trkpt lat="45.59059" lon="4.90909">
        <ele>286.5</ele>
        <time>2012-09-05T07:41:42.94</time>
      </trkpt>
      <trkpt lat="45.59059" lon="4.90909">
        <ele>287</ele>
        <time>2012-09-05T07:41:50.45</time>
      </trkpt>
      <trkpt lat="45.5906" lon="4.90912">
        <ele>285</ele>
        <time>2012-09-05T07:41:51.92</time>
      </trkpt>
      <trkpt lat="45.59059" lon="4.90912">
        <ele>285</ele>
        <time>2012-09-05T07:41:52.91</time>
      </trkpt>
      <trkpt lat="45.5906" lon="4.90913">
        <ele>284.5</ele>
        <time>2012-09-05T07:41:53.91</time>
      </trkpt>
      <trkpt lat="45.59061" lon="4.90914">
        <ele>284</ele>
        <time>2012-09-05T07:41:54.94</time>
      </trkpt>
      <trkpt lat="45.59061" lon="4.90913">
        <ele>284</ele>
        <time>2012-09-05T07:41:55.94</time>
      </trkpt>
      <trkpt lat="45.59061" lon="4.90913">
        <ele>284</ele>
        <time>2012-09-05T07:41:56.43</time>
      </trkpt>
      <trkpt lat="45.5906" lon="4.90914">
        <ele>284.5</ele>
        <time>2012-09-05T07:41:57.94</time>
      </trkpt>
      <trkpt lat="45.5906" lon="4.90914">
        <ele>284.5</ele>
        <time>2012-09-05T07:41:58.93</time>
      </trkpt>
      <trkpt lat="45.59061" lon="4.90914">
        <ele>285</ele>
        <time>2012-09-05T07:41:59.97</time>
      </trkpt>
      <trkpt lat="45.59061" lon="4.90914">
        <ele>285</ele>
        <time>2012-09-05T07:42:00.92</time>
      </trkpt>
      <trkpt lat="45.59062" lon="4.90916">
        <ele>284</ele>
        <time>2012-09-05T07:42:08.95</time>
      </trkpt>
      <trkpt lat="45.59062" lon="4.9092">
        <ele>282</ele>
        <time>2012-09-05T07:42:09.92</time>
      </trkpt>
      <trkpt lat="45.59062" lon="4.9092">
        <ele>282</ele>
        <time>2012-09-05T07:42:10.92</time>
      </trkpt>
      <trkpt lat="45.59062" lon="4.9092">
        <ele>282</ele>
        <time>2012-09-05T07:42:11.91</time>
      </trkpt>
      <trkpt lat="45.59062" lon="4.9092">
        <ele>282</ele>
        <time>2012-09-05T07:42:19.57</time>
      </trkpt>
      <trkpt lat="45.59062" lon="4.9092">
        <ele>282</ele>
        <time>2012-09-05T07:42:19.90</time>
      </trkpt>
      <trkpt lat="45.59062" lon="4.9092">
        <ele>282</ele>
        <time>2012-09-05T07:42:20.92</time>
      </trkpt>
      <trkpt lat="45.59062" lon="4.9092">
        <ele>282</ele>
        <time>2012-09-05T07:42:21.91</time>
      </trkpt>
      <trkpt lat="45.59062" lon="4.9092">
        <ele>282</ele>
        <time>2012-09-05T07:42:22.92</time>
      </trkpt>
      <trkpt lat="45.59062" lon="4.9092">
        <ele>282</ele>
        <time>2012-09-05T07:42:30.02</time>
      </trkpt>
      <trkpt lat="45.59055" lon="4.90918">
        <ele>281.5</ele>
        <time>2012-09-05T07:42:31.08</time>
      </trkpt>
      <trkpt lat="45.59053" lon="4.90917">
        <ele>283</ele>
        <time>2012-09-05T07:42:32.08</time>
      </trkpt>
      <trkpt lat="45.59051" lon="4.90917">
        <ele>284.5</ele>
        <time>2012-09-05T07:42:33.70</time>
      </trkpt>
      <trkpt lat="45.59025" lon="4.90909">
        <ele>287.5</ele>
        <time>2012-09-05T07:42:41.89</time>
      </trkpt>
      <trkpt lat="45.59022" lon="4.90906">
        <ele>286.5</ele>
        <time>2012-09-05T07:42:42.92</time>
      </trkpt>
      <trkpt lat="45.5902" lon="4.90902">
        <ele>287</ele>
        <time>2012-09-05T07:42:43.91</time>
      </trkpt>
      <trkpt lat="45.59019" lon="4.90898">
        <ele>289</ele>
        <time>2012-09-05T07:42:44.91</time>
      </trkpt>
      <trkpt lat="45.5902" lon="4.90895">
        <ele>290</ele>
        <time>2012-09-05T07:42:45.91</time>
      </trkpt>
      <trkpt lat="45.5902" lon="4.9089">
        <ele>290</ele>
        <time>2012-09-05T07:42:46.90</time>
      </trkpt>
      <trkpt lat="45.59021" lon="4.90886">
        <ele>290.5</ele>
        <time>2012-09-05T07:42:47.89</time>
      </trkpt>
      <trkpt lat="45.59021" lon="4.90883">
        <ele>291</ele>
        <time>2012-09-05T07:42:48.86</time>
      </trkpt>
      <trkpt lat="45.59021" lon="4.9088">
        <ele>292</ele>
        <time>2012-09-05T07:42:49.87</time>
      </trkpt>
      <trkpt lat="45.59021" lon="4.90877">
        <ele>292</ele>
        <time>2012-09-05T07:42:50.89</time>
      </trkpt>
      <trkpt lat="45.59021" lon="4.90876">
        <ele>293</ele>
        <time>2012-09-05T07:42:51.87</time>
      </trkpt>
      <trkpt lat="45.59021" lon="4.90874">
        <ele>293.5</ele>
        <time>2012-09-05T07:42:52.92</time>
      </trkpt>
      <trkpt lat="45.59021" lon="4.90871">
        <ele>293</ele>
        <time>2012-09-05T07:42:53.87</time>
      </trkpt>
      <trkpt lat="45.59019" lon="4.90869">
        <ele>293</ele>
        <time>2012-09-05T07:42:54.87</time>
      </trkpt>
      <trkpt lat="45.59018" lon="4.90866">
        <ele>292</ele>
        <time>2012-09-05T07:42:55.86</time>
      </trkpt>
      <trkpt lat="45.59016" lon="4.90864">
        <ele>292</ele>
        <time>2012-09-05T07:42:56.82</time>
      </trkpt>
      <trkpt lat="45.59013" lon="4.90863">
        <ele>291.5</ele>
        <time>2012-09-05T07:42:57.82</time>
      </trkpt>
      <trkpt lat="45.5901" lon="4.90863">
        <ele>292</ele>
        <time>2012-09-05T07:42:58.81</time>
      </trkpt>
      <trkpt lat="45.59007" lon="4.90862">
        <ele>292.5</ele>
        <time>2012-09-05T07:42:59.84</time>
      </trkpt>
      <trkpt lat="45.59004" lon="4.90862">
        <ele>292.5</ele>
        <time>2012-09-05T07:43:00.80</time>
      </trkpt>
      <trkpt lat="45.59001" lon="4.90861">
        <ele>292</ele>
        <time>2012-09-05T07:43:01.80</time>
      </trkpt>
      <trkpt lat="45.58998" lon="4.9086">
        <ele>291.5</ele>
        <time>2012-09-05T07:43:02.83</time>
      </trkpt>
      <trkpt lat="45.58994" lon="4.90859">
        <ele>291.5</ele>
        <time>2012-09-05T07:43:03.83</time>
      </trkpt>
      <trkpt lat="45.58989" lon="4.90858">
        <ele>291.5</ele>
        <time>2012-09-05T07:43:04.82</time>
      </trkpt>
      <trkpt lat="45.58985" lon="4.90857">
        <ele>291.5</ele>
        <time>2012-09-05T07:43:05.78</time>
      </trkpt>
      <trkpt lat="45.58979" lon="4.90856">
        <ele>291.5</ele>
        <time>2012-09-05T07:43:06.81</time>
      </trkpt>
      <trkpt lat="45.58974" lon="4.90855">
        <ele>290.5</ele>
        <time>2012-09-05T07:43:07.81</time>
      </trkpt>
      <trkpt lat="45.58968" lon="4.90853">
        <ele>290</ele>
        <time>2012-09-05T07:43:08.81</time>
      </trkpt>
      <trkpt lat="45.58963" lon="4.90852">
        <ele>290</ele>
        <time>2012-09-05T07:43:09.80</time>
      </trkpt>
      <trkpt lat="45.58957" lon="4.90851">
        <ele>289</ele>
        <time>2012-09-05T07:43:10.79</time>
      </trkpt>
      <trkpt lat="45.58951" lon="4.9085">
        <ele>288.5</ele>
        <time>2012-09-05T07:43:11.79</time>
      </trkpt>
      <trkpt lat="45.58914" lon="4.90844">
        <ele>286.5</ele>
        <time>2012-09-05T07:43:17.89</time>
      </trkpt>
      <trkpt lat="45.58907" lon="4.90843">
        <ele>285.5</ele>
        <time>2012-09-05T07:43:18.92</time>
      </trkpt>
      <trkpt lat="45.58901" lon="4.90842">
        <ele>285</ele>
        <time>2012-09-05T07:43:19.91</time>
      </trkpt>
      <trkpt lat="45.58895" lon="4.90841">
        <ele>284.5</ele>
        <time>2012-09-05T07:43:20.91</time>
      </trkpt>
      <trkpt lat="45.58889" lon="4.90841">
        <ele>284.5</ele>
        <time>2012-09-05T07:43:21.91</time>
      </trkpt>
      <trkpt lat="45.58882" lon="4.9084">
        <ele>284</ele>
        <time>2012-09-05T07:43:22.90</time>
      </trkpt>
      <trkpt lat="45.58876" lon="4.90839">
        <ele>283.5</ele>
        <time>2012-09-05T07:43:23.90</time>
      </trkpt>
      <trkpt lat="45.58871" lon="4.90838">
        <ele>283</ele>
        <time>2012-09-05T07:43:29.91</time>
      </trkpt>
      <trkpt lat="45.58835" lon="4.90836">
        <ele>281.5</ele>
        <time>2012-09-05T07:43:31.05</time>
      </trkpt>
      <trkpt lat="45.58829" lon="4.90835">
        <ele>282</ele>
        <time>2012-09-05T07:43:32.05</time>
      </trkpt>
      <trkpt lat="45.58824" lon="4.90835">
        <ele>282.5</ele>
        <time>2012-09-05T07:43:33.05</time>
      </trkpt>
      <trkpt lat="45.58818" lon="4.90835">
        <ele>282</ele>
        <time>2012-09-05T07:43:34.04</time>
      </trkpt>
      <trkpt lat="45.58812" lon="4.90835">
        <ele>281.5</ele>
        <time>2012-09-05T07:43:35.03</time>
      </trkpt>
      <trkpt lat="45.58806" lon="4.90834">
        <ele>281.5</ele>
        <time>2012-09-05T07:43:36.03</time>
      </trkpt>
      <trkpt lat="45.588" lon="4.90834">
        <ele>282</ele>
        <time>2012-09-05T07:43:42.45</time>
      </trkpt>
      <trkpt lat="45.58759" lon="4.90827">
        <ele>281.5</ele>
        <time>2012-09-05T07:43:43.32</time>
      </trkpt>
      <trkpt lat="45.58754" lon="4.90828">
        <ele>281.5</ele>
        <time>2012-09-05T07:43:44.31</time>
      </trkpt>
      <trkpt lat="45.58749" lon="4.90829">
        <ele>281.5</ele>
        <time>2012-09-05T07:43:45.31</time>
      </trkpt>
      <trkpt lat="45.58743" lon="4.90829">
        <ele>281</ele>
        <time>2012-09-05T07:43:46.30</time>
      </trkpt>
      <trkpt lat="45.58738" lon="4.90828">
        <ele>281</ele>
        <time>2012-09-05T07:43:47.30</time>
      </trkpt>
      <trkpt lat="45.58732" lon="4.90829">
        <ele>280.5</ele>
        <time>2012-09-05T07:43:48.30</time>
      </trkpt>
      <trkpt lat="45.58685" lon="4.90826">
        <ele>278</ele>
        <time>2012-09-05T07:43:55.90</time>
      </trkpt>
      <trkpt lat="45.58679" lon="4.90825">
        <ele>278</ele>
        <time>2012-09-05T07:43:56.93</time>
      </trkpt>
      <trkpt lat="45.58674" lon="4.90825">
        <ele>277</ele>
        <time>2012-09-05T07:43:57.92</time>
      </trkpt>
      <trkpt lat="45.58668" lon="4.90825">
        <ele>277</ele>
        <time>2012-09-05T07:43:58.91</time>
      </trkpt>
      <trkpt lat="45.58663" lon="4.90824">
        <ele>276.5</ele>
        <time>2012-09-05T07:44:06.28</time>
      </trkpt>
      <trkpt lat="45.58643" lon="4.90816">
        <ele>277</ele>
        <time>2012-09-05T07:44:07.01</time>
      </trkpt>
      <trkpt lat="45.58643" lon="4.90812">
        <ele>277.5</ele>
        <time>2012-09-05T07:44:08.00</time>
      </trkpt>
      <trkpt lat="45.58644" lon="4.90807">
        <ele>278.5</ele>
        <time>2012-09-05T07:44:09.00</time>
      </trkpt>
      <trkpt lat="45.58644" lon="4.90802">
        <ele>279.5</ele>
        <time>2012-09-05T07:44:09.99</time>
      </trkpt>
      <trkpt lat="45.58644" lon="4.90796">
        <ele>281.5</ele>
        <time>2012-09-05T07:44:10.99</time>
      </trkpt>
      <trkpt lat="45.58645" lon="4.9079">
        <ele>283.5</ele>
        <time>2012-09-05T07:44:11.98</time>
      </trkpt>
      <trkpt lat="45.58644" lon="4.90785">
        <ele>283.5</ele>
        <time>2012-09-05T07:44:12.98</time>
      </trkpt>
      <trkpt lat="45.58644" lon="4.90777">
        <ele>283.5</ele>
        <time>2012-09-05T07:44:13.97</time>
      </trkpt>
      <trkpt lat="45.58642" lon="4.90769">
        <ele>283</ele>
        <time>2012-09-05T07:44:14.97</time>
      </trkpt>
      <trkpt lat="45.58641" lon="4.9076">
        <ele>283</ele>
        <time>2012-09-05T07:44:15.97</time>
      </trkpt>
      <trkpt lat="45.5864" lon="4.9075">
        <ele>282.5</ele>
        <time>2012-09-05T07:44:16.97</time>
      </trkpt>
      <trkpt lat="45.58639" lon="4.90741">
        <ele>283</ele>
        <time>2012-09-05T07:44:17.97</time>
      </trkpt>
      <trkpt lat="45.58639" lon="4.90731">
        <ele>283</ele>
        <time>2012-09-05T07:44:18.97</time>
      </trkpt>
      <trkpt lat="45.58638" lon="4.90722">
        <ele>284</ele>
        <time>2012-09-05T07:44:19.96</time>
      </trkpt>
      <trkpt lat="45.58637" lon="4.90713">
        <ele>284</ele>
        <time>2012-09-05T07:44:20.96</time>
      </trkpt>
      <trkpt lat="45.58636" lon="4.90703">
        <ele>284</ele>
        <time>2012-09-05T07:44:21.95</time>
      </trkpt>
      <trkpt lat="45.58636" lon="4.90693">
        <ele>284</ele>
        <time>2012-09-05T07:44:22.94</time>
      </trkpt>
      <trkpt lat="45.58636" lon="4.90684">
        <ele>284</ele>
        <time>2012-09-05T07:44:23.93</time>
      </trkpt>
      <trkpt lat="45.58635" lon="4.90674">
        <ele>284.5</ele>
        <time>2012-09-05T07:44:24.93</time>
      </trkpt>
      <trkpt lat="45.58635" lon="4.90663">
        <ele>284</ele>
        <time>2012-09-05T07:44:25.93</time>
      </trkpt>
      <trkpt lat="45.58634" lon="4.90653">
        <ele>284</ele>
        <time>2012-09-05T07:44:31.80</time>
      </trkpt>
      <trkpt lat="45.58631" lon="4.90605">
        <ele>284</ele>
        <time>2012-09-05T07:44:32.28</time>
      </trkpt>
      <trkpt lat="45.5863" lon="4.90595">
        <ele>283.5</ele>
        <time>2012-09-05T07:44:33.28</time>
      </trkpt>
      <trkpt lat="45.5863" lon="4.90585">
        <ele>283.5</ele>
        <time>2012-09-05T07:44:34.28</time>
      </trkpt>
      <trkpt lat="45.58629" lon="4.90575">
        <ele>283.5</ele>
        <time>2012-09-05T07:44:35.27</time>
      </trkpt>
      <trkpt lat="45.58627" lon="4.90566">
        <ele>283.5</ele>
        <time>2012-09-05T07:44:36.26</time>
      </trkpt>
      <trkpt lat="45.58626" lon="4.90557">
        <ele>283</ele>
        <time>2012-09-05T07:44:37.26</time>
      </trkpt>
      <trkpt lat="45.58626" lon="4.90547">
        <ele>283</ele>
        <time>2012-09-05T07:44:38.27</time>
      </trkpt>
      <trkpt lat="45.58625" lon="4.90538">
        <ele>283</ele>
        <time>2012-09-05T07:44:45.18</time>
      </trkpt>
      <trkpt lat="45.58587" lon="4.90506">
        <ele>282</ele>
        <time>2012-09-05T07:44:45.92</time>
      </trkpt>
      <trkpt lat="45.5858" lon="4.90504">
        <ele>283</ele>
        <time>2012-09-05T07:44:46.95</time>
      </trkpt>
      <trkpt lat="45.58574" lon="4.90502">
        <ele>283</ele>
        <time>2012-09-05T07:44:47.95</time>
      </trkpt>
      <trkpt lat="45.58567" lon="4.90501">
        <ele>283</ele>
        <time>2012-09-05T07:44:48.95</time>
      </trkpt>
      <trkpt lat="45.5851" lon="4.90485">
        <ele>278.5</ele>
        <time>2012-09-05T07:44:56.98</time>
      </trkpt>
      <trkpt lat="45.58503" lon="4.90483">
        <ele>277.5</ele>
        <time>2012-09-05T07:44:57.97</time>
      </trkpt>
      <trkpt lat="45.58496" lon="4.90481">
        <ele>277.5</ele>
        <time>2012-09-05T07:44:58.96</time>
      </trkpt>
      <trkpt lat="45.5849" lon="4.9048">
        <ele>277.5</ele>
        <time>2012-09-05T07:45:06.76</time>
      </trkpt>
      <trkpt lat="45.58439" lon="4.90469">
        <ele>273.5</ele>
        <time>2012-09-05T07:45:07.23</time>
      </trkpt>
      <trkpt lat="45.58432" lon="4.90468">
        <ele>273.5</ele>
        <time>2012-09-05T07:45:08.23</time>
      </trkpt>
      <trkpt lat="45.58425" lon="4.90466">
        <ele>273</ele>
        <time>2012-09-05T07:45:09.24</time>
      </trkpt>
      <trkpt lat="45.5841" lon="4.90464">
        <ele>273</ele>
        <time>2012-09-05T07:45:11.33</time>
      </trkpt>
      <trkpt lat="45.58403" lon="4.90462">
        <ele>272.5</ele>
        <time>2012-09-05T07:45:12.33</time>
      </trkpt>
      <trkpt lat="45.58396" lon="4.90461">
        <ele>271.5</ele>
        <time>2012-09-05T07:45:13.32</time>
      </trkpt>
      <trkpt lat="45.58389" lon="4.9046">
        <ele>271.5</ele>
        <time>2012-09-05T07:45:14.32</time>
      </trkpt>
      <trkpt lat="45.58381" lon="4.90459">
        <ele>271</ele>
        <time>2012-09-05T07:45:15.31</time>
      </trkpt>
      <trkpt lat="45.58374" lon="4.90457">
        <ele>271</ele>
        <time>2012-09-05T07:45:16.31</time>
      </trkpt>
      <trkpt lat="45.58366" lon="4.90455">
        <ele>270.5</ele>
        <time>2012-09-05T07:45:17.30</time>
      </trkpt>
      <trkpt lat="45.58359" lon="4.90453">
        <ele>270.5</ele>
        <time>2012-09-05T07:45:18.29</time>
      </trkpt>
      <trkpt lat="45.58351" lon="4.90451">
        <ele>270</ele>
        <time>2012-09-05T07:45:19.30</time>
      </trkpt>
      <trkpt lat="45.58344" lon="4.9045">
        <ele>269.5</ele>
        <time>2012-09-05T07:45:20.29</time>
      </trkpt>
      <trkpt lat="45.58336" lon="4.90448">
        <ele>269.5</ele>
        <time>2012-09-05T07:45:21.29</time>
      </trkpt>
      <trkpt lat="45.58329" lon="4.90446">
        <ele>269</ele>
        <time>2012-09-05T07:45:23.41</time>
      </trkpt>
      <trkpt lat="45.58283" lon="4.90436">
        <ele>267.5</ele>
        <time>2012-09-05T07:45:27.95</time>
      </trkpt>
      <trkpt lat="45.58275" lon="4.90434">
        <ele>267</ele>
        <time>2012-09-05T07:45:28.97</time>
      </trkpt>
      <trkpt lat="45.58268" lon="4.90433">
        <ele>267</ele>
        <time>2012-09-05T07:45:29.92</time>
      </trkpt>
      <trkpt lat="45.5826" lon="4.90431">
        <ele>266.5</ele>
        <time>2012-09-05T07:45:30.92</time>
      </trkpt>
      <trkpt lat="45.58252" lon="4.9043">
        <ele>266</ele>
        <time>2012-09-05T07:45:31.94</time>
      </trkpt>
      <trkpt lat="45.58245" lon="4.90429">
        <ele>266</ele>
        <time>2012-09-05T07:45:32.92</time>
      </trkpt>
      <trkpt lat="45.58237" lon="4.90427">
        <ele>266</ele>
        <time>2012-09-05T07:45:33.94</time>
      </trkpt>
      <trkpt lat="45.58177" lon="4.9042">
        <ele>264</ele>
        <time>2012-09-05T07:45:41.96</time>
      </trkpt>
      <trkpt lat="45.5817" lon="4.9042">
        <ele>265.5</ele>
        <time>2012-09-05T07:45:42.92</time>
      </trkpt>
      <trkpt lat="45.58162" lon="4.90421">
        <ele>265</ele>
        <time>2012-09-05T07:45:43.95</time>
      </trkpt>
      <trkpt lat="45.58156" lon="4.90421">
        <ele>267</ele>
        <time>2012-09-05T07:45:50.82</time>
      </trkpt>
      <trkpt lat="45.58115" lon="4.90424">
        <ele>271.5</ele>
        <time>2012-09-05T07:45:51.07</time>
      </trkpt>
      <trkpt lat="45.58108" lon="4.90425">
        <ele>270.5</ele>
        <time>2012-09-05T07:45:52.07</time>
      </trkpt>
      <trkpt lat="45.581" lon="4.90425">
        <ele>270</ele>
        <time>2012-09-05T07:45:53.07</time>
      </trkpt>
      <trkpt lat="45.58093" lon="4.90426">
        <ele>269</ele>
        <time>2012-09-05T07:45:54.07</time>
      </trkpt>
      <trkpt lat="45.58086" lon="4.90426">
        <ele>269</ele>
        <time>2012-09-05T07:45:55.06</time>
      </trkpt>
      <trkpt lat="45.5808" lon="4.90427">
        <ele>271.5</ele>
        <time>2012-09-05T07:45:56.06</time>
      </trkpt>
      <trkpt lat="45.58074" lon="4.90428">
        <ele>272</ele>
        <time>2012-09-05T07:45:57.06</time>
      </trkpt>
      <trkpt lat="45.58067" lon="4.90428">
        <ele>272</ele>
        <time>2012-09-05T07:46:01.10</time>
      </trkpt>
      <trkpt lat="45.58048" lon="4.90417">
        <ele>276</ele>
        <time>2012-09-05T07:46:02.19</time>
      </trkpt>
      <trkpt lat="45.58048" lon="4.90409">
        <ele>275.5</ele>
        <time>2012-09-05T07:46:03.19</time>
      </trkpt>
      <trkpt lat="45.58048" lon="4.90401">
        <ele>275.5</ele>
        <time>2012-09-05T07:46:04.27</time>
      </trkpt>
      <trkpt lat="45.58049" lon="4.90394">
        <ele>275.5</ele>
        <time>2012-09-05T07:46:05.21</time>
      </trkpt>
      <trkpt lat="45.58049" lon="4.90388">
        <ele>276.5</ele>
        <time>2012-09-05T07:46:06.19</time>
      </trkpt>
      <trkpt lat="45.58049" lon="4.90381">
        <ele>277</ele>
        <time>2012-09-05T07:46:07.18</time>
      </trkpt>
      <trkpt lat="45.5805" lon="4.90375">
        <ele>277.5</ele>
        <time>2012-09-05T07:46:08.18</time>
      </trkpt>
      <trkpt lat="45.5805" lon="4.90368">
        <ele>278.5</ele>
        <time>2012-09-05T07:46:09.17</time>
      </trkpt>
      <trkpt lat="45.58049" lon="4.90362">
        <ele>278</ele>
        <time>2012-09-05T07:46:10.17</time>
      </trkpt>
      <trkpt lat="45.58047" lon="4.90355">
        <ele>277.5</ele>
        <time>2012-09-05T07:46:11.17</time>
      </trkpt>
      <trkpt lat="45.58045" lon="4.90348">
        <ele>277</ele>
        <time>2012-09-05T07:46:12.17</time>
      </trkpt>
      <trkpt lat="45.58026" lon="4.90285">
        <ele>277</ele>
        <time>2012-09-05T07:46:19.72</time>
      </trkpt>
      <trkpt lat="45.58024" lon="4.90277">
        <ele>277</ele>
        <time>2012-09-05T07:46:20.72</time>
      </trkpt>
      <trkpt lat="45.58023" lon="4.90269">
        <ele>277.5</ele>
        <time>2012-09-05T07:46:21.75</time>
      </trkpt>
      <trkpt lat="45.58021" lon="4.90262">
        <ele>277.5</ele>
        <time>2012-09-05T07:46:22.71</time>
      </trkpt>
      <trkpt lat="45.5802" lon="4.90254">
        <ele>277.5</ele>
        <time>2012-09-05T07:46:23.74</time>
      </trkpt>
      <trkpt lat="45.58019" lon="4.90246">
        <ele>277</ele>
        <time>2012-09-05T07:46:24.74</time>
      </trkpt>
      <trkpt lat="45.58019" lon="4.90239">
        <ele>277</ele>
        <time>2012-09-05T07:46:25.73</time>
      </trkpt>
      <trkpt lat="45.58018" lon="4.90231">
        <ele>277.5</ele>
        <time>2012-09-05T07:46:26.72</time>
      </trkpt>
      <trkpt lat="45.58017" lon="4.90223">
        <ele>277</ele>
        <time>2012-09-05T07:46:27.69</time>
      </trkpt>
      <trkpt lat="45.58016" lon="4.90217">
        <ele>279</ele>
        <time>2012-09-05T07:46:28.68</time>
      </trkpt>
      <trkpt lat="45.58015" lon="4.90208">
        <ele>278</ele>
        <time>2012-09-05T07:46:29.74</time>
      </trkpt>
      <trkpt lat="45.58014" lon="4.902">
        <ele>276.5</ele>
        <time>2012-09-05T07:46:30.71</time>
      </trkpt>
      <trkpt lat="45.58013" lon="4.90192">
        <ele>276.5</ele>
        <time>2012-09-05T07:46:31.67</time>
      </trkpt>
      <trkpt lat="45.58012" lon="4.90185">
        <ele>277</ele>
        <time>2012-09-05T07:46:32.70</time>
      </trkpt>
      <trkpt lat="45.5801" lon="4.90177">
        <ele>277.5</ele>
        <time>2012-09-05T07:46:40.54</time>
      </trkpt>
      <trkpt lat="45.57999" lon="4.90121">
        <ele>271.5</ele>
        <time>2012-09-05T07:46:40.82</time>
      </trkpt>
      <trkpt lat="45.57996" lon="4.90114">
        <ele>271</ele>
        <time>2012-09-05T07:46:41.82</time>
      </trkpt>
      <trkpt lat="45.57993" lon="4.90108">
        <ele>270.5</ele>
        <time>2012-09-05T07:46:42.82</time>
      </trkpt>
      <trkpt lat="45.5799" lon="4.90102">
        <ele>270.5</ele>
        <time>2012-09-05T07:46:43.81</time>
      </trkpt>
      <trkpt lat="45.57986" lon="4.90096">
        <ele>270</ele>
        <time>2012-09-05T07:46:45.76</time>
      </trkpt>
      <trkpt lat="45.57954" lon="4.90062">
        <ele>270</ele>
        <time>2012-09-05T07:46:51.76</time>
      </trkpt>
      <trkpt lat="45.5795" lon="4.90058">
        <ele>270</ele>
        <time>2012-09-05T07:46:52.75</time>
      </trkpt>
      <trkpt lat="45.57947" lon="4.90053">
        <ele>270</ele>
        <time>2012-09-05T07:46:53.74</time>
      </trkpt>
      <trkpt lat="45.57943" lon="4.90049">
        <ele>270.5</ele>
        <time>2012-09-05T07:46:54.74</time>
      </trkpt>
      <trkpt lat="45.57941" lon="4.90044">
        <ele>270.5</ele>
        <time>2012-09-05T07:46:55.71</time>
      </trkpt>
      <trkpt lat="45.57938" lon="4.9004">
        <ele>270.5</ele>
        <time>2012-09-05T07:46:56.73</time>
      </trkpt>
      <trkpt lat="45.57935" lon="4.90036">
        <ele>270.5</ele>
        <time>2012-09-05T07:47:04.64</time>
      </trkpt>
      <trkpt lat="45.57919" lon="4.9001">
        <ele>271</ele>
        <time>2012-09-05T07:47:05.74</time>
      </trkpt>
      <trkpt lat="45.57917" lon="4.90007">
        <ele>271.5</ele>
        <time>2012-09-05T07:47:06.78</time>
      </trkpt>
      <trkpt lat="45.57915" lon="4.90004">
        <ele>272</ele>
        <time>2012-09-05T07:47:07.74</time>
      </trkpt>
      <trkpt lat="45.57907" lon="4.89992">
        <ele>272.5</ele>
        <time>2012-09-05T07:47:11.80</time>
      </trkpt>
      <trkpt lat="45.57906" lon="4.89989">
        <ele>274</ele>
        <time>2012-09-05T07:47:12.78</time>
      </trkpt>
      <trkpt lat="45.57904" lon="4.89986">
        <ele>274.5</ele>
        <time>2012-09-05T07:47:13.78</time>
      </trkpt>
      <trkpt lat="45.57902" lon="4.89982">
        <ele>275</ele>
        <time>2012-09-05T07:47:14.77</time>
      </trkpt>
      <trkpt lat="45.579" lon="4.89979">
        <ele>275.5</ele>
        <time>2012-09-05T07:47:15.77</time>
      </trkpt>
      <trkpt lat="45.57898" lon="4.89975">
        <ele>276</ele>
        <time>2012-09-05T07:47:16.76</time>
      </trkpt>
      <trkpt lat="45.57897" lon="4.89971">
        <ele>276</ele>
        <time>2012-09-05T07:47:17.76</time>
      </trkpt>
      <trkpt lat="45.57895" lon="4.89968">
        <ele>277</ele>
        <time>2012-09-05T07:47:18.76</time>
      </trkpt>
      <trkpt lat="45.57893" lon="4.89965">
        <ele>277.5</ele>
        <time>2012-09-05T07:47:19.75</time>
      </trkpt>
      <trkpt lat="45.57891" lon="4.89961">
        <ele>277</ele>
        <time>2012-09-05T07:47:20.74</time>
      </trkpt>
      <trkpt lat="45.57889" lon="4.89957">
        <ele>277</ele>
        <time>2012-09-05T07:47:21.74</time>
      </trkpt>
      <trkpt lat="45.57887" lon="4.89954">
        <ele>277.5</ele>
        <time>2012-09-05T07:47:22.74</time>
      </trkpt>
      <trkpt lat="45.57885" lon="4.89949">
        <ele>276.5</ele>
        <time>2012-09-05T07:47:23.73</time>
      </trkpt>
      <trkpt lat="45.57883" lon="4.89946">
        <ele>278.5</ele>
        <time>2012-09-05T07:47:24.75</time>
      </trkpt>
      <trkpt lat="45.57864" lon="4.89912">
        <ele>278</ele>
        <time>2012-09-05T07:47:32.73</time>
      </trkpt>
      <trkpt lat="45.57861" lon="4.89908">
        <ele>277.5</ele>
        <time>2012-09-05T07:47:33.76</time>
      </trkpt>
      <trkpt lat="45.57857" lon="4.89905">
        <ele>277</ele>
        <time>2012-09-05T07:47:34.75</time>
      </trkpt>
      <trkpt lat="45.57854" lon="4.89902">
        <ele>277</ele>
        <time>2012-09-05T07:47:35.77</time>
      </trkpt>
      <trkpt lat="45.5785" lon="4.89901">
        <ele>277.5</ele>
        <time>2012-09-05T07:47:36.74</time>
      </trkpt>
      <trkpt lat="45.57846" lon="4.899">
        <ele>277.5</ele>
        <time>2012-09-05T07:47:37.74</time>
      </trkpt>
      <trkpt lat="45.57842" lon="4.89899">
        <ele>277.5</ele>
        <time>2012-09-05T07:47:38.73</time>
      </trkpt>
      <trkpt lat="45.57838" lon="4.89898">
        <ele>277.5</ele>
        <time>2012-09-05T07:47:39.74</time>
      </trkpt>
      <trkpt lat="45.57834" lon="4.89898">
        <ele>277.5</ele>
        <time>2012-09-05T07:47:40.72</time>
      </trkpt>
      <trkpt lat="45.5783" lon="4.89898">
        <ele>277.5</ele>
        <time>2012-09-05T07:47:41.73</time>
      </trkpt>
      <trkpt lat="45.57826" lon="4.89897">
        <ele>277</ele>
        <time>2012-09-05T07:47:49.66</time>
      </trkpt>
      <trkpt lat="45.57795" lon="4.89894">
        <ele>279</ele>
        <time>2012-09-05T07:47:50.83</time>
      </trkpt>
      <trkpt lat="45.57792" lon="4.89893">
        <ele>278.5</ele>
        <time>2012-09-05T07:47:51.74</time>
      </trkpt>
      <trkpt lat="45.57788" lon="4.89892">
        <ele>279.5</ele>
        <time>2012-09-05T07:47:52.75</time>
      </trkpt>
      <trkpt lat="45.57763" lon="4.89887">
        <ele>279</ele>
        <time>2012-09-05T07:48:01.07</time>
      </trkpt>
      <trkpt lat="45.5776" lon="4.89886">
        <ele>278.5</ele>
        <time>2012-09-05T07:48:02.05</time>
      </trkpt>
      <trkpt lat="45.57757" lon="4.89885">
        <ele>279</ele>
        <time>2012-09-05T07:48:03.05</time>
      </trkpt>
      <trkpt lat="45.57738" lon="4.89884">
        <ele>282</ele>
        <time>2012-09-05T07:48:10.73</time>
      </trkpt>
      <trkpt lat="45.57735" lon="4.89884">
        <ele>282.5</ele>
        <time>2012-09-05T07:48:11.75</time>
      </trkpt>
      <trkpt lat="45.57732" lon="4.89883">
        <ele>283</ele>
        <time>2012-09-05T07:48:12.76</time>
      </trkpt>
      <trkpt lat="45.57729" lon="4.89882">
        <ele>283.5</ele>
        <time>2012-09-05T07:48:13.74</time>
      </trkpt>
      <trkpt lat="45.57726" lon="4.89882">
        <ele>283.5</ele>
        <time>2012-09-05T07:48:20.98</time>
      </trkpt>
      <trkpt lat="45.57708" lon="4.89881">
        <ele>286.5</ele>
        <time>2012-09-05T07:48:21.76</time>
      </trkpt>
      <trkpt lat="45.57705" lon="4.89881">
        <ele>287.5</ele>
        <time>2012-09-05T07:48:22.75</time>
      </trkpt>
      <trkpt lat="45.57703" lon="4.8988">
        <ele>287.5</ele>
        <time>2012-09-05T07:48:23.76</time>
      </trkpt>
      <trkpt lat="45.577" lon="4.8988">
        <ele>288</ele>
        <time>2012-09-05T07:48:30.91</time>
      </trkpt>
      <trkpt lat="45.5768" lon="4.89879">
        <ele>288.5</ele>
        <time>2012-09-05T07:48:32.07</time>
      </trkpt>
      <trkpt lat="45.57677" lon="4.89879">
        <ele>288.5</ele>
        <time>2012-09-05T07:48:33.07</time>
      </trkpt>
      <trkpt lat="45.57675" lon="4.8988">
        <ele>291</ele>
        <time>2012-09-05T07:48:34.06</time>
      </trkpt>
      <trkpt lat="45.57672" lon="4.89879">
        <ele>291.5</ele>
        <time>2012-09-05T07:48:35.06</time>
      </trkpt>
      <trkpt lat="45.57669" lon="4.89879">
        <ele>291</ele>
        <time>2012-09-05T07:48:36.06</time>
      </trkpt>
      <trkpt lat="45.57667" lon="4.89879">
        <ele>291.5</ele>
        <time>2012-09-05T07:48:37.06</time>
      </trkpt>
      <trkpt lat="45.57664" lon="4.89878">
        <ele>292</ele>
        <time>2012-09-05T07:48:38.06</time>
      </trkpt>
      <trkpt lat="45.57661" lon="4.89877">
        <ele>292</ele>
        <time>2012-09-05T07:48:39.06</time>
      </trkpt>
      <trkpt lat="45.57657" lon="4.89876">
        <ele>292.5</ele>
        <time>2012-09-05T07:48:40.05</time>
      </trkpt>
      <trkpt lat="45.57654" lon="4.89876">
        <ele>293</ele>
        <time>2012-09-05T07:48:41.05</time>
      </trkpt>
      <trkpt lat="45.57651" lon="4.89876">
        <ele>293</ele>
        <time>2012-09-05T07:48:42.05</time>
      </trkpt>
      <trkpt lat="45.57649" lon="4.89875">
        <ele>293.5</ele>
        <time>2012-09-05T07:48:43.04</time>
      </trkpt>
      <trkpt lat="45.57646" lon="4.89875">
        <ele>294</ele>
        <time>2012-09-05T07:48:44.06</time>
      </trkpt>
      <trkpt lat="45.57643" lon="4.89874">
        <ele>294.5</ele>
        <time>2012-09-05T07:48:45.03</time>
      </trkpt>
      <trkpt lat="45.5764" lon="4.89873">
        <ele>294</ele>
        <time>2012-09-05T07:48:46.02</time>
      </trkpt>
      <trkpt lat="45.57637" lon="4.89872">
        <ele>294.5</ele>
        <time>2012-09-05T07:48:47.02</time>
      </trkpt>
      <trkpt lat="45.57634" lon="4.89872">
        <ele>294</ele>
        <time>2012-09-05T07:48:48.06</time>
      </trkpt>
      <trkpt lat="45.57631" lon="4.89872">
        <ele>294.5</ele>
        <time>2012-09-05T07:48:49.02</time>
      </trkpt>
      <trkpt lat="45.57628" lon="4.89871">
        <ele>294.5</ele>
        <time>2012-09-05T07:48:50.02</time>
      </trkpt>
      <trkpt lat="45.57624" lon="4.89871">
        <ele>295</ele>
        <time>2012-09-05T07:48:51.01</time>
      </trkpt>
      <trkpt lat="45.57621" lon="4.89871">
        <ele>294.5</ele>
        <time>2012-09-05T07:48:52.01</time>
      </trkpt>
      <trkpt lat="45.57617" lon="4.89871">
        <ele>294</ele>
        <time>2012-09-05T07:48:53.01</time>
      </trkpt>
      <trkpt lat="45.57593" lon="4.89874">
        <ele>295.5</ele>
        <time>2012-09-05T07:48:59.28</time>
      </trkpt>
      <trkpt lat="45.57584" lon="4.89876">
        <ele>296.5</ele>
        <time>2012-09-05T07:49:00.77</time>
      </trkpt>
      <trkpt lat="45.57578" lon="4.89877">
        <ele>296.5</ele>
        <time>2012-09-05T07:49:01.76</time>
      </trkpt>
      <trkpt lat="45.57573" lon="4.89877">
        <ele>296</ele>
        <time>2012-09-05T07:49:02.76</time>
      </trkpt>
      <trkpt lat="45.57567" lon="4.89879">
        <ele>295.5</ele>
        <time>2012-09-05T07:49:03.72</time>
      </trkpt>
      <trkpt lat="45.57561" lon="4.89879">
        <ele>295</ele>
        <time>2012-09-05T07:49:04.72</time>
      </trkpt>
      <trkpt lat="45.57556" lon="4.8988">
        <ele>294.5</ele>
        <time>2012-09-05T07:49:05.74</time>
      </trkpt>
      <trkpt lat="45.57549" lon="4.89881">
        <ele>294.5</ele>
        <time>2012-09-05T07:49:06.73</time>
      </trkpt>
      <trkpt lat="45.57543" lon="4.89882">
        <ele>294</ele>
        <time>2012-09-05T07:49:12.77</time>
      </trkpt>
      <trkpt lat="45.57506" lon="4.89887">
        <ele>293</ele>
        <time>2012-09-05T07:49:13.77</time>
      </trkpt>
      <trkpt lat="45.575" lon="4.89888">
        <ele>293</ele>
        <time>2012-09-05T07:49:14.74</time>
      </trkpt>
      <trkpt lat="45.57493" lon="4.89889">
        <ele>292.5</ele>
        <time>2012-09-05T07:49:15.76</time>
      </trkpt>
      <trkpt lat="45.57486" lon="4.89889">
        <ele>292</ele>
        <time>2012-09-05T07:49:16.75</time>
      </trkpt>
      <trkpt lat="45.5748" lon="4.8989">
        <ele>292</ele>
        <time>2012-09-05T07:49:17.75</time>
      </trkpt>
      <trkpt lat="45.57473" lon="4.89891">
        <ele>292</ele>
        <time>2012-09-05T07:49:18.75</time>
      </trkpt>
      <trkpt lat="45.57467" lon="4.89891">
        <ele>292.5</ele>
        <time>2012-09-05T07:49:24.84</time>
      </trkpt>
      <trkpt lat="45.5743" lon="4.89894">
        <ele>292.5</ele>
        <time>2012-09-05T07:49:26.03</time>
      </trkpt>
      <trkpt lat="45.57424" lon="4.89895">
        <ele>292.5</ele>
        <time>2012-09-05T07:49:27.03</time>
      </trkpt>
      <trkpt lat="45.57418" lon="4.89896">
        <ele>292.5</ele>
        <time>2012-09-05T07:49:28.03</time>
      </trkpt>
      <trkpt lat="45.57412" lon="4.89898">
        <ele>293</ele>
        <time>2012-09-05T07:49:29.03</time>
      </trkpt>
      <trkpt lat="45.57406" lon="4.89899">
        <ele>293.5</ele>
        <time>2012-09-05T07:49:30.03</time>
      </trkpt>
      <trkpt lat="45.57401" lon="4.899">
        <ele>294</ele>
        <time>2012-09-05T07:49:31.02</time>
      </trkpt>
      <trkpt lat="45.57396" lon="4.89903">
        <ele>294.5</ele>
        <time>2012-09-05T07:49:32.02</time>
      </trkpt>
      <trkpt lat="45.5739" lon="4.89905">
        <ele>294.5</ele>
        <time>2012-09-05T07:49:33.01</time>
      </trkpt>
      <trkpt lat="45.57385" lon="4.89907">
        <ele>295</ele>
        <time>2012-09-05T07:49:34.01</time>
      </trkpt>
      <trkpt lat="45.5738" lon="4.8991">
        <ele>295</ele>
        <time>2012-09-05T07:49:37.21</time>
      </trkpt>
      <trkpt lat="45.57366" lon="4.89917">
        <ele>297</ele>
        <time>2012-09-05T07:49:38.18</time>
      </trkpt>
      <trkpt lat="45.57362" lon="4.89919">
        <ele>297</ele>
        <time>2012-09-05T07:49:39.18</time>
      </trkpt>
      <trkpt lat="45.57358" lon="4.89921">
        <ele>298</ele>
        <time>2012-09-05T07:49:40.18</time>
      </trkpt>
      <trkpt lat="45.57354" lon="4.89922">
        <ele>298</ele>
        <time>2012-09-05T07:49:41.18</time>
      </trkpt>
      <trkpt lat="45.57351" lon="4.89924">
        <ele>298.5</ele>
        <time>2012-09-05T07:49:42.17</time>
      </trkpt>
      <trkpt lat="45.57347" lon="4.89926">
        <ele>299</ele>
        <time>2012-09-05T07:49:43.16</time>
      </trkpt>
      <trkpt lat="45.57339" lon="4.89931">
        <ele>301</ele>
        <time>2012-09-05T07:49:45.08</time>
      </trkpt>
      <trkpt lat="45.57334" lon="4.89934">
        <ele>301.5</ele>
        <time>2012-09-05T07:49:46.93</time>
      </trkpt>
      <trkpt lat="45.57332" lon="4.89935">
        <ele>302</ele>
        <time>2012-09-05T07:49:47.95</time>
      </trkpt>
      <trkpt lat="45.5733" lon="4.89937">
        <ele>302</ele>
        <time>2012-09-05T07:49:48.92</time>
      </trkpt>
      <trkpt lat="45.57327" lon="4.89938">
        <ele>302.5</ele>
        <time>2012-09-05T07:49:49.96</time>
      </trkpt>
      <trkpt lat="45.57325" lon="4.89941">
        <ele>303</ele>
        <time>2012-09-05T07:49:52.21</time>
      </trkpt>
      <trkpt lat="45.5732" lon="4.89943">
        <ele>304</ele>
        <time>2012-09-05T07:49:52.93</time>
      </trkpt>
      <trkpt lat="45.57316" lon="4.89945">
        <ele>304.5</ele>
        <time>2012-09-05T07:49:53.96</time>
      </trkpt>
      <trkpt lat="45.57313" lon="4.89947">
        <ele>304</ele>
        <time>2012-09-05T07:49:54.93</time>
      </trkpt>
      <trkpt lat="45.5731" lon="4.89948">
        <ele>304</ele>
        <time>2012-09-05T07:49:55.89</time>
      </trkpt>
      <trkpt lat="45.57307" lon="4.8995">
        <ele>304</ele>
        <time>2012-09-05T07:49:56.93</time>
      </trkpt>
      <trkpt lat="45.57304" lon="4.89952">
        <ele>304.5</ele>
        <time>2012-09-05T07:49:57.91</time>
      </trkpt>
      <trkpt lat="45.573" lon="4.89953">
        <ele>304</ele>
        <time>2012-09-05T07:49:58.91</time>
      </trkpt>
      <trkpt lat="45.57297" lon="4.89954">
        <ele>304.5</ele>
        <time>2012-09-05T07:49:59.88</time>
      </trkpt>
      <trkpt lat="45.57293" lon="4.89954">
        <ele>304</ele>
        <time>2012-09-05T07:50:00.92</time>
      </trkpt>
      <trkpt lat="45.5729" lon="4.89955">
        <ele>304</ele>
        <time>2012-09-05T07:50:01.87</time>
      </trkpt>
      <trkpt lat="45.57287" lon="4.89955">
        <ele>304</ele>
        <time>2012-09-05T07:50:02.90</time>
      </trkpt>
      <trkpt lat="45.57284" lon="4.89956">
        <ele>303.5</ele>
        <time>2012-09-05T07:50:03.89</time>
      </trkpt>
      <trkpt lat="45.57281" lon="4.89957">
        <ele>303.5</ele>
        <time>2012-09-05T07:50:04.89</time>
      </trkpt>
      <trkpt lat="45.57277" lon="4.89957">
        <ele>303</ele>
        <time>2012-09-05T07:50:05.88</time>
      </trkpt>
      <trkpt lat="45.57274" lon="4.89957">
        <ele>303</ele>
        <time>2012-09-05T07:50:12.53</time>
      </trkpt>
      <trkpt lat="45.57249" lon="4.89961">
        <ele>301.5</ele>
        <time>2012-09-05T07:50:13.39</time>
      </trkpt>
      <trkpt lat="45.57243" lon="4.89963">
        <ele>301</ele>
        <time>2012-09-05T07:50:14.39</time>
      </trkpt>
      <trkpt lat="45.57237" lon="4.89966">
        <ele>300.5</ele>
        <time>2012-09-05T07:50:15.38</time>
      </trkpt>
      <trkpt lat="45.57231" lon="4.89969">
        <ele>299.5</ele>
        <time>2012-09-05T07:50:16.38</time>
      </trkpt>
      <trkpt lat="45.57225" lon="4.89971">
        <ele>299</ele>
        <time>2012-09-05T07:50:17.43</time>
      </trkpt>
      <trkpt lat="45.57218" lon="4.89976">
        <ele>298</ele>
        <time>2012-09-05T07:50:18.37</time>
      </trkpt>
      <trkpt lat="45.57211" lon="4.89979">
        <ele>297</ele>
        <time>2012-09-05T07:50:19.37</time>
      </trkpt>
      <trkpt lat="45.57203" lon="4.89983">
        <ele>295.5</ele>
        <time>2012-09-05T07:50:20.37</time>
      </trkpt>
      <trkpt lat="45.57195" lon="4.89986">
        <ele>295.5</ele>
        <time>2012-09-05T07:50:21.36</time>
      </trkpt>
      <trkpt lat="45.57186" lon="4.8999">
        <ele>294.5</ele>
        <time>2012-09-05T07:50:22.36</time>
      </trkpt>
      <trkpt lat="45.57177" lon="4.89993">
        <ele>293.5</ele>
        <time>2012-09-05T07:50:23.35</time>
      </trkpt>
      <trkpt lat="45.57087" lon="4.90008">
        <ele>286</ele>
        <time>2012-09-05T07:50:30.96</time>
      </trkpt>
      <trkpt lat="45.57075" lon="4.90007">
        <ele>284</ele>
        <time>2012-09-05T07:50:31.97</time>
      </trkpt>
      <trkpt lat="45.57063" lon="4.90006">
        <ele>282.5</ele>
        <time>2012-09-05T07:50:32.98</time>
      </trkpt>
      <trkpt lat="45.57052" lon="4.90005">
        <ele>281</ele>
        <time>2012-09-05T07:50:33.98</time>
      </trkpt>
      <trkpt lat="45.57042" lon="4.90004">
        <ele>279.5</ele>
        <time>2012-09-05T07:50:41.77</time>
      </trkpt>
      <trkpt lat="45.57002" lon="4.90001">
        <ele>275</ele>
        <time>2012-09-05T07:50:42.18</time>
      </trkpt>
      <trkpt lat="45.56998" lon="4.90002">
        <ele>274.5</ele>
        <time>2012-09-05T07:50:43.18</time>
      </trkpt>
      <trkpt lat="45.56995" lon="4.90006">
        <ele>274.5</ele>
        <time>2012-09-05T07:50:44.17</time>
      </trkpt>
      <trkpt lat="45.56993" lon="4.90011">
        <ele>274</ele>
        <time>2012-09-05T07:50:45.17</time>
      </trkpt>
      <trkpt lat="45.56987" lon="4.90057">
        <ele>272</ele>
        <time>2012-09-05T07:50:51.97</time>
      </trkpt>
      <trkpt lat="45.56986" lon="4.90064">
        <ele>272</ele>
        <time>2012-09-05T07:50:52.99</time>
      </trkpt>
      <trkpt lat="45.56984" lon="4.90072">
        <ele>271.5</ele>
        <time>2012-09-05T07:50:53.96</time>
      </trkpt>
      <trkpt lat="45.56982" lon="4.9008">
        <ele>271.5</ele>
        <time>2012-09-05T07:50:54.98</time>
      </trkpt>
      <trkpt lat="45.56981" lon="4.90087">
        <ele>271</ele>
        <time>2012-09-05T07:50:55.98</time>
      </trkpt>
      <trkpt lat="45.56979" lon="4.90094">
        <ele>271</ele>
        <time>2012-09-05T07:50:56.98</time>
      </trkpt>
      <trkpt lat="45.56976" lon="4.90102">
        <ele>271</ele>
        <time>2012-09-05T07:50:57.98</time>
      </trkpt>
      <trkpt lat="45.56974" lon="4.9011">
        <ele>271</ele>
        <time>2012-09-05T07:50:58.97</time>
      </trkpt>
      <trkpt lat="45.56972" lon="4.90118">
        <ele>271</ele>
        <time>2012-09-05T07:51:04.28</time>
      </trkpt>
      <trkpt lat="45.5696" lon="4.90156">
        <ele>272</ele>
        <time>2012-09-05T07:51:05.02</time>
      </trkpt>
      <trkpt lat="45.56958" lon="4.90163">
        <ele>272</ele>
        <time>2012-09-05T07:51:06.01</time>
      </trkpt>
      <trkpt lat="45.56957" lon="4.90171">
        <ele>271.5</ele>
        <time>2012-09-05T07:51:07.01</time>
      </trkpt>
      <trkpt lat="45.56955" lon="4.90179">
        <ele>271.5</ele>
        <time>2012-09-05T07:51:08.01</time>
      </trkpt>
      <trkpt lat="45.56954" lon="4.90186">
        <ele>272</ele>
        <time>2012-09-05T07:51:09.00</time>
      </trkpt>
      <trkpt lat="45.56952" lon="4.90194">
        <ele>272.5</ele>
        <time>2012-09-05T07:51:10.00</time>
      </trkpt>
      <trkpt lat="45.56952" lon="4.90202">
        <ele>272.5</ele>
        <time>2012-09-05T07:51:11.00</time>
      </trkpt>
      <trkpt lat="45.56951" lon="4.90209">
        <ele>273</ele>
        <time>2012-09-05T07:51:12.00</time>
      </trkpt>
      <trkpt lat="45.5695" lon="4.90216">
        <ele>273</ele>
        <time>2012-09-05T07:51:12.99</time>
      </trkpt>
      <trkpt lat="45.56949" lon="4.90224">
        <ele>273</ele>
        <time>2012-09-05T07:51:13.99</time>
      </trkpt>
      <trkpt lat="45.56949" lon="4.90232">
        <ele>273</ele>
        <time>2012-09-05T07:51:14.99</time>
      </trkpt>
      <trkpt lat="45.56949" lon="4.9024">
        <ele>273.5</ele>
        <time>2012-09-05T07:51:15.99</time>
      </trkpt>
      <trkpt lat="45.56948" lon="4.90248">
        <ele>274</ele>
        <time>2012-09-05T07:51:16.99</time>
      </trkpt>
      <trkpt lat="45.56949" lon="4.90257">
        <ele>273.5</ele>
        <time>2012-09-05T07:51:17.99</time>
      </trkpt>
      <trkpt lat="45.56948" lon="4.90265">
        <ele>273.5</ele>
        <time>2012-09-05T07:51:19.00</time>
      </trkpt>
      <trkpt lat="45.56948" lon="4.90274">
        <ele>273.5</ele>
        <time>2012-09-05T07:51:19.98</time>
      </trkpt>
      <trkpt lat="45.56947" lon="4.90282">
        <ele>274</ele>
        <time>2012-09-05T07:51:20.97</time>
      </trkpt>
      <trkpt lat="45.56945" lon="4.90291">
        <ele>274</ele>
        <time>2012-09-05T07:51:21.97</time>
      </trkpt>
      <trkpt lat="45.56944" lon="4.903">
        <ele>275</ele>
        <time>2012-09-05T07:51:22.97</time>
      </trkpt>
      <trkpt lat="45.56941" lon="4.90308">
        <ele>274.5</ele>
        <time>2012-09-05T07:51:23.97</time>
      </trkpt>
      <trkpt lat="45.56939" lon="4.90315">
        <ele>275</ele>
        <time>2012-09-05T07:51:24.96</time>
      </trkpt>
      <trkpt lat="45.56935" lon="4.90323">
        <ele>275</ele>
        <time>2012-09-05T07:51:25.96</time>
      </trkpt>
      <trkpt lat="45.56933" lon="4.90332">
        <ele>275</ele>
        <time>2012-09-05T07:51:27.01</time>
      </trkpt>
      <trkpt lat="45.5693" lon="4.90341">
        <ele>275</ele>
        <time>2012-09-05T07:51:27.97</time>
      </trkpt>
      <trkpt lat="45.56927" lon="4.90349">
        <ele>274.5</ele>
        <time>2012-09-05T07:51:34.96</time>
      </trkpt>
      <trkpt lat="45.56907" lon="4.90405">
        <ele>277.5</ele>
        <time>2012-09-05T07:51:36.14</time>
      </trkpt>
      <trkpt lat="45.56905" lon="4.90413">
        <ele>277.5</ele>
        <time>2012-09-05T07:51:37.13</time>
      </trkpt>
      <trkpt lat="45.56902" lon="4.90421">
        <ele>278</ele>
        <time>2012-09-05T07:51:38.13</time>
      </trkpt>
      <trkpt lat="45.569" lon="4.90428">
        <ele>278</ele>
        <time>2012-09-05T07:51:39.12</time>
      </trkpt>
      <trkpt lat="45.56897" lon="4.90436">
        <ele>278</ele>
        <time>2012-09-05T07:51:40.12</time>
      </trkpt>
      <trkpt lat="45.56895" lon="4.90444">
        <ele>278.5</ele>
        <time>2012-09-05T07:51:41.12</time>
      </trkpt>
      <trkpt lat="45.56892" lon="4.90452">
        <ele>278.5</ele>
        <time>2012-09-05T07:51:42.12</time>
      </trkpt>
      <trkpt lat="45.5689" lon="4.9046">
        <ele>278.5</ele>
        <time>2012-09-05T07:51:43.12</time>
      </trkpt>
      <trkpt lat="45.56887" lon="4.90467">
        <ele>278.5</ele>
        <time>2012-09-05T07:51:50.40</time>
      </trkpt>
      <trkpt lat="45.56868" lon="4.90509">
        <ele>279.5</ele>
        <time>2012-09-05T07:51:51.43</time>
      </trkpt>
      <trkpt lat="45.56865" lon="4.90513">
        <ele>279.5</ele>
        <time>2012-09-05T07:51:52.42</time>
      </trkpt>
      <trkpt lat="45.56862" lon="4.90518">
        <ele>279</ele>
        <time>2012-09-05T07:51:53.42</time>
      </trkpt>
      <trkpt lat="45.56855" lon="4.90526">
        <ele>280</ele>
        <time>2012-09-05T07:51:55.09</time>
      </trkpt>
      <trkpt lat="45.56822" lon="4.90547">
        <ele>281</ele>
        <time>2012-09-05T07:52:01.84</time>
      </trkpt>
      <trkpt lat="45.56817" lon="4.90549">
        <ele>281</ele>
        <time>2012-09-05T07:52:02.87</time>
      </trkpt>
      <trkpt lat="45.56813" lon="4.90549">
        <ele>281.5</ele>
        <time>2012-09-05T07:52:03.85</time>
      </trkpt>
      <trkpt lat="45.56809" lon="4.9055">
        <ele>281.5</ele>
        <time>2012-09-05T07:52:11.13</time>
      </trkpt>
      <trkpt lat="45.5678" lon="4.90553">
        <ele>283</ele>
        <time>2012-09-05T07:52:12.12</time>
      </trkpt>
      <trkpt lat="45.56776" lon="4.90554">
        <ele>283</ele>
        <time>2012-09-05T07:52:13.12</time>
      </trkpt>
      <trkpt lat="45.56772" lon="4.90555">
        <ele>283.5</ele>
        <time>2012-09-05T07:52:14.12</time>
      </trkpt>
      <trkpt lat="45.56738" lon="4.90568">
        <ele>285</ele>
        <time>2012-09-05T07:52:21.87</time>
      </trkpt>
      <trkpt lat="45.56734" lon="4.90571">
        <ele>285</ele>
        <time>2012-09-05T07:52:22.87</time>
      </trkpt>
      <trkpt lat="45.56729" lon="4.90574">
        <ele>285.5</ele>
        <time>2012-09-05T07:52:23.87</time>
      </trkpt>
      <trkpt lat="45.56726" lon="4.90576">
        <ele>285.5</ele>
        <time>2012-09-05T07:52:24.87</time>
      </trkpt>
      <trkpt lat="45.56722" lon="4.90579">
        <ele>285.5</ele>
        <time>2012-09-05T07:52:25.83</time>
      </trkpt>
      <trkpt lat="45.56718" lon="4.90583">
        <ele>285.5</ele>
        <time>2012-09-05T07:52:26.86</time>
      </trkpt>
      <trkpt lat="45.56714" lon="4.90586">
        <ele>285.5</ele>
        <time>2012-09-05T07:52:27.86</time>
      </trkpt>
      <trkpt lat="45.56711" lon="4.9059">
        <ele>285.5</ele>
        <time>2012-09-05T07:52:28.86</time>
      </trkpt>
      <trkpt lat="45.56707" lon="4.90593">
        <ele>285.5</ele>
        <time>2012-09-05T07:52:29.85</time>
      </trkpt>
      <trkpt lat="45.56704" lon="4.90597">
        <ele>285.5</ele>
        <time>2012-09-05T07:52:30.83</time>
      </trkpt>
      <trkpt lat="45.56701" lon="4.90601">
        <ele>285.5</ele>
        <time>2012-09-05T07:52:31.80</time>
      </trkpt>
      <trkpt lat="45.56697" lon="4.90605">
        <ele>286</ele>
        <time>2012-09-05T07:52:32.82</time>
      </trkpt>
      <trkpt lat="45.56695" lon="4.90609">
        <ele>286.5</ele>
        <time>2012-09-05T07:52:33.82</time>
      </trkpt>
      <trkpt lat="45.56692" lon="4.90613">
        <ele>287</ele>
        <time>2012-09-05T07:52:34.82</time>
      </trkpt>
      <trkpt lat="45.56689" lon="4.90617">
        <ele>287</ele>
        <time>2012-09-05T07:52:35.82</time>
      </trkpt>
      <trkpt lat="45.56686" lon="4.90621">
        <ele>287.5</ele>
        <time>2012-09-05T07:52:36.78</time>
      </trkpt>
      <trkpt lat="45.56684" lon="4.90626">
        <ele>288</ele>
        <time>2012-09-05T07:52:37.81</time>
      </trkpt>
      <trkpt lat="45.56682" lon="4.9063">
        <ele>288</ele>
        <time>2012-09-05T07:52:38.80</time>
      </trkpt>
      <trkpt lat="45.56679" lon="4.90634">
        <ele>288</ele>
        <time>2012-09-05T07:52:39.80</time>
      </trkpt>
      <trkpt lat="45.56677" lon="4.90639">
        <ele>288</ele>
        <time>2012-09-05T07:52:40.79</time>
      </trkpt>
      <trkpt lat="45.56675" lon="4.90644">
        <ele>288</ele>
        <time>2012-09-05T07:52:41.79</time>
      </trkpt>
      <trkpt lat="45.56673" lon="4.90648">
        <ele>288.5</ele>
        <time>2012-09-05T07:52:42.78</time>
      </trkpt>
      <trkpt lat="45.56671" lon="4.90653">
        <ele>288.5</ele>
        <time>2012-09-05T07:52:43.76</time>
      </trkpt>
      <trkpt lat="45.56669" lon="4.90659">
        <ele>288.5</ele>
        <time>2012-09-05T07:52:44.77</time>
      </trkpt>
      <trkpt lat="45.56667" lon="4.90663">
        <ele>289</ele>
        <time>2012-09-05T07:52:45.75</time>
      </trkpt>
      <trkpt lat="45.56665" lon="4.90668">
        <ele>289.5</ele>
        <time>2012-09-05T07:52:46.75</time>
      </trkpt>
      <trkpt lat="45.56664" lon="4.90673">
        <ele>290</ele>
        <time>2012-09-05T07:52:47.75</time>
      </trkpt>
      <trkpt lat="45.56662" lon="4.90678">
        <ele>290.5</ele>
        <time>2012-09-05T07:52:48.75</time>
      </trkpt>
      <trkpt lat="45.56661" lon="4.90683">
        <ele>291</ele>
        <time>2012-09-05T07:52:49.74</time>
      </trkpt>
      <trkpt lat="45.5666" lon="4.90688">
        <ele>291</ele>
        <time>2012-09-05T07:52:50.74</time>
      </trkpt>
      <trkpt lat="45.56659" lon="4.90694">
        <ele>291</ele>
        <time>2012-09-05T07:52:51.74</time>
      </trkpt>
      <trkpt lat="45.56658" lon="4.907">
        <ele>291</ele>
        <time>2012-09-05T07:52:52.74</time>
      </trkpt>
      <trkpt lat="45.56657" lon="4.90705">
        <ele>291</ele>
        <time>2012-09-05T07:52:53.73</time>
      </trkpt>
      <trkpt lat="45.56656" lon="4.90711">
        <ele>291.5</ele>
        <time>2012-09-05T07:52:54.73</time>
      </trkpt>
      <trkpt lat="45.56655" lon="4.90717">
        <ele>292</ele>
        <time>2012-09-05T07:52:55.72</time>
      </trkpt>
      <trkpt lat="45.56654" lon="4.90723">
        <ele>292</ele>
        <time>2012-09-05T07:52:56.70</time>
      </trkpt>
      <trkpt lat="45.56653" lon="4.90729">
        <ele>292</ele>
        <time>2012-09-05T07:52:57.71</time>
      </trkpt>
      <trkpt lat="45.56653" lon="4.90735">
        <ele>292</ele>
        <time>2012-09-05T07:52:58.70</time>
      </trkpt>
      <trkpt lat="45.56653" lon="4.90742">
        <ele>292</ele>
        <time>2012-09-05T07:52:59.72</time>
      </trkpt>
      <trkpt lat="45.56653" lon="4.90748">
        <ele>292</ele>
        <time>2012-09-05T07:53:00.72</time>
      </trkpt>
      <trkpt lat="45.56652" lon="4.90754">
        <ele>292</ele>
        <time>2012-09-05T07:53:01.70</time>
      </trkpt>
      <trkpt lat="45.56653" lon="4.90761">
        <ele>291.5</ele>
        <time>2012-09-05T07:53:02.69</time>
      </trkpt>
      <trkpt lat="45.56652" lon="4.90768">
        <ele>291.5</ele>
        <time>2012-09-05T07:53:03.69</time>
      </trkpt>
      <trkpt lat="45.56652" lon="4.90775">
        <ele>292</ele>
        <time>2012-09-05T07:53:04.69</time>
      </trkpt>
      <trkpt lat="45.56652" lon="4.90782">
        <ele>291.5</ele>
        <time>2012-09-05T07:53:05.69</time>
      </trkpt>
      <trkpt lat="45.56652" lon="4.9079">
        <ele>291.5</ele>
        <time>2012-09-05T07:53:06.68</time>
      </trkpt>
      <trkpt lat="45.56652" lon="4.90797">
        <ele>291</ele>
        <time>2012-09-05T07:53:07.68</time>
      </trkpt>
      <trkpt lat="45.56651" lon="4.90804">
        <ele>291.5</ele>
        <time>2012-09-05T07:53:08.68</time>
      </trkpt>
      <trkpt lat="45.56651" lon="4.90811">
        <ele>291</ele>
        <time>2012-09-05T07:53:09.66</time>
      </trkpt>
      <trkpt lat="45.56651" lon="4.90818">
        <ele>291</ele>
        <time>2012-09-05T07:53:10.67</time>
      </trkpt>
      <trkpt lat="45.56651" lon="4.90825">
        <ele>291</ele>
        <time>2012-09-05T07:53:11.63</time>
      </trkpt>
      <trkpt lat="45.5665" lon="4.90833">
        <ele>290.5</ele>
        <time>2012-09-05T07:53:12.68</time>
      </trkpt>
      <trkpt lat="45.5665" lon="4.90841">
        <ele>290</ele>
        <time>2012-09-05T07:53:13.67</time>
      </trkpt>
      <trkpt lat="45.5665" lon="4.90849">
        <ele>289.5</ele>
        <time>2012-09-05T07:53:14.66</time>
      </trkpt>
      <trkpt lat="45.5665" lon="4.90857">
        <ele>290</ele>
        <time>2012-09-05T07:53:15.65</time>
      </trkpt>
      <trkpt lat="45.56649" lon="4.90865">
        <ele>290</ele>
        <time>2012-09-05T07:53:16.62</time>
      </trkpt>
      <trkpt lat="45.56649" lon="4.90874">
        <ele>290.5</ele>
        <time>2012-09-05T07:53:17.65</time>
      </trkpt>
      <trkpt lat="45.56649" lon="4.90882">
        <ele>290.5</ele>
        <time>2012-09-05T07:53:18.64</time>
      </trkpt>
      <trkpt lat="45.56649" lon="4.90889">
        <ele>290.5</ele>
        <time>2012-09-05T07:53:19.63</time>
      </trkpt>
      <trkpt lat="45.56648" lon="4.90897">
        <ele>291</ele>
        <time>2012-09-05T07:53:20.62</time>
      </trkpt>
      <trkpt lat="45.56648" lon="4.90905">
        <ele>290.5</ele>
        <time>2012-09-05T07:53:21.60</time>
      </trkpt>
      <trkpt lat="45.56648" lon="4.90913">
        <ele>291</ele>
        <time>2012-09-05T07:53:22.59</time>
      </trkpt>
      <trkpt lat="45.56648" lon="4.9092">
        <ele>291.5</ele>
        <time>2012-09-05T07:53:23.60</time>
      </trkpt>
      <trkpt lat="45.56648" lon="4.90928">
        <ele>291</ele>
        <time>2012-09-05T07:53:24.59</time>
      </trkpt>
      <trkpt lat="45.56648" lon="4.90936">
        <ele>291.5</ele>
        <time>2012-09-05T07:53:25.59</time>
      </trkpt>
      <trkpt lat="45.56648" lon="4.90944">
        <ele>291.5</ele>
        <time>2012-09-05T07:53:26.58</time>
      </trkpt>
      <trkpt lat="45.56647" lon="4.90951">
        <ele>291.5</ele>
        <time>2012-09-05T07:53:27.58</time>
      </trkpt>
      <trkpt lat="45.56644" lon="4.90958">
        <ele>292</ele>
        <time>2012-09-05T07:53:28.57</time>
      </trkpt>
      <trkpt lat="45.56642" lon="4.90965">
        <ele>292.5</ele>
        <time>2012-09-05T07:53:29.58</time>
      </trkpt>
      <trkpt lat="45.56641" lon="4.90972">
        <ele>292.5</ele>
        <time>2012-09-05T07:53:30.56</time>
      </trkpt>
      <trkpt lat="45.56641" lon="4.90979">
        <ele>293</ele>
        <time>2012-09-05T07:53:31.55</time>
      </trkpt>
      <trkpt lat="45.56643" lon="4.90985">
        <ele>293</ele>
        <time>2012-09-05T07:53:32.54</time>
      </trkpt>
      <trkpt lat="45.56644" lon="4.90992">
        <ele>293</ele>
        <time>2012-09-05T07:53:33.54</time>
      </trkpt>
      <trkpt lat="45.56643" lon="4.90999">
        <ele>294.5</ele>
        <time>2012-09-05T07:53:34.54</time>
      </trkpt>
      <trkpt lat="45.56641" lon="4.91006">
        <ele>294</ele>
        <time>2012-09-05T07:53:35.53</time>
      </trkpt>
      <trkpt lat="45.56637" lon="4.91011">
        <ele>294</ele>
        <time>2012-09-05T07:53:36.53</time>
      </trkpt>
      <trkpt lat="45.56633" lon="4.91013">
        <ele>294.5</ele>
        <time>2012-09-05T07:53:37.52</time>
      </trkpt>
      <trkpt lat="45.56628" lon="4.91014">
        <ele>294.5</ele>
        <time>2012-09-05T07:53:38.52</time>
      </trkpt>
      <trkpt lat="45.56623" lon="4.91014">
        <ele>294.5</ele>
        <time>2012-09-05T07:53:39.51</time>
      </trkpt>
      <trkpt lat="45.56618" lon="4.91014">
        <ele>294.5</ele>
        <time>2012-09-05T07:53:40.51</time>
      </trkpt>
      <trkpt lat="45.56614" lon="4.91016">
        <ele>294.5</ele>
        <time>2012-09-05T07:53:41.50</time>
      </trkpt>
      <trkpt lat="45.5661" lon="4.91019">
        <ele>295</ele>
        <time>2012-09-05T07:53:42.50</time>
      </trkpt>
      <trkpt lat="45.56605" lon="4.91021">
        <ele>294.5</ele>
        <time>2012-09-05T07:53:43.50</time>
      </trkpt>
      <trkpt lat="45.56601" lon="4.91024">
        <ele>295</ele>
        <time>2012-09-05T07:53:44.49</time>
      </trkpt>
      <trkpt lat="45.56597" lon="4.91027">
        <ele>294.5</ele>
        <time>2012-09-05T07:53:45.48</time>
      </trkpt>
      <trkpt lat="45.56593" lon="4.9103">
        <ele>294.5</ele>
        <time>2012-09-05T07:53:46.48</time>
      </trkpt>
      <trkpt lat="45.56589" lon="4.91033">
        <ele>295</ele>
        <time>2012-09-05T07:53:47.48</time>
      </trkpt>
      <trkpt lat="45.56585" lon="4.91035">
        <ele>295</ele>
        <time>2012-09-05T07:53:48.48</time>
      </trkpt>
      <trkpt lat="45.56581" lon="4.91037">
        <ele>295.5</ele>
        <time>2012-09-05T07:53:49.47</time>
      </trkpt>
      <trkpt lat="45.56577" lon="4.9104">
        <ele>295.5</ele>
        <time>2012-09-05T07:53:50.46</time>
      </trkpt>
      <trkpt lat="45.56574" lon="4.91042">
        <ele>296.5</ele>
        <time>2012-09-05T07:53:51.46</time>
      </trkpt>
      <trkpt lat="45.56571" lon="4.91045">
        <ele>297</ele>
        <time>2012-09-05T07:53:52.45</time>
      </trkpt>
      <trkpt lat="45.56568" lon="4.91046">
        <ele>298</ele>
        <time>2012-09-05T07:53:53.45</time>
      </trkpt>
      <trkpt lat="45.56564" lon="4.91049">
        <ele>297.5</ele>
        <time>2012-09-05T07:53:54.44</time>
      </trkpt>
      <trkpt lat="45.5656" lon="4.91051">
        <ele>297.5</ele>
        <time>2012-09-05T07:53:55.44</time>
      </trkpt>
      <trkpt lat="45.56556" lon="4.91053">
        <ele>297.5</ele>
        <time>2012-09-05T07:53:56.43</time>
      </trkpt>
      <trkpt lat="45.56553" lon="4.91056">
        <ele>298.5</ele>
        <time>2012-09-05T07:53:57.43</time>
      </trkpt>
      <trkpt lat="45.56549" lon="4.91057">
        <ele>298.5</ele>
        <time>2012-09-05T07:53:58.42</time>
      </trkpt>
      <trkpt lat="45.56546" lon="4.91059">
        <ele>297.5</ele>
        <time>2012-09-05T07:53:59.42</time>
      </trkpt>
      <trkpt lat="45.56542" lon="4.91061">
        <ele>298</ele>
        <time>2012-09-05T07:54:00.38</time>
      </trkpt>
      <trkpt lat="45.56539" lon="4.91063">
        <ele>299</ele>
        <time>2012-09-05T07:54:01.40</time>
      </trkpt>
      <trkpt lat="45.56536" lon="4.91066">
        <ele>299.5</ele>
        <time>2012-09-05T07:54:02.41</time>
      </trkpt>
      <trkpt lat="45.56533" lon="4.91067">
        <ele>300</ele>
        <time>2012-09-05T07:54:03.40</time>
      </trkpt>
      <trkpt lat="45.5653" lon="4.91069">
        <ele>301</ele>
        <time>2012-09-05T07:54:04.37</time>
      </trkpt>
      <trkpt lat="45.56528" lon="4.91071">
        <ele>301.5</ele>
        <time>2012-09-05T07:54:05.39</time>
      </trkpt>
      <trkpt lat="45.56525" lon="4.91073">
        <ele>302.5</ele>
        <time>2012-09-05T07:54:06.39</time>
      </trkpt>
      <trkpt lat="45.56522" lon="4.91074">
        <ele>302</ele>
        <time>2012-09-05T07:54:07.38</time>
      </trkpt>
      <trkpt lat="45.56519" lon="4.91076">
        <ele>303</ele>
        <time>2012-09-05T07:54:08.38</time>
      </trkpt>
      <trkpt lat="45.56516" lon="4.91077">
        <ele>303.5</ele>
        <time>2012-09-05T07:54:09.34</time>
      </trkpt>
      <trkpt lat="45.56513" lon="4.91079">
        <ele>304</ele>
        <time>2012-09-05T07:54:10.37</time>
      </trkpt>
      <trkpt lat="45.5651" lon="4.9108">
        <ele>304.5</ele>
        <time>2012-09-05T07:54:11.36</time>
      </trkpt>
      <trkpt lat="45.56507" lon="4.91083">
        <ele>306</ele>
        <time>2012-09-05T07:54:12.36</time>
      </trkpt>
      <trkpt lat="45.56505" lon="4.91084">
        <ele>307</ele>
        <time>2012-09-05T07:54:13.36</time>
      </trkpt>
      <trkpt lat="45.56502" lon="4.91086">
        <ele>306.5</ele>
        <time>2012-09-05T07:54:14.34</time>
      </trkpt>
      <trkpt lat="45.56499" lon="4.91087">
        <ele>308</ele>
        <time>2012-09-05T07:54:15.35</time>
      </trkpt>
      <trkpt lat="45.56496" lon="4.91089">
        <ele>309</ele>
        <time>2012-09-05T07:54:16.33</time>
      </trkpt>
      <trkpt lat="45.56494" lon="4.91092">
        <ele>310.5</ele>
        <time>2012-09-05T07:54:17.33</time>
      </trkpt>
      <trkpt lat="45.56491" lon="4.91094">
        <ele>311</ele>
        <time>2012-09-05T07:54:18.32</time>
      </trkpt>
      <trkpt lat="45.56488" lon="4.91097">
        <ele>311.5</ele>
        <time>2012-09-05T07:54:19.32</time>
      </trkpt>
      <trkpt lat="45.56485" lon="4.91099">
        <ele>311.5</ele>
        <time>2012-09-05T07:54:20.31</time>
      </trkpt>
      <trkpt lat="45.56483" lon="4.91102">
        <ele>312.5</ele>
        <time>2012-09-05T07:54:21.31</time>
      </trkpt>
      <trkpt lat="45.5648" lon="4.91105">
        <ele>313</ele>
        <time>2012-09-05T07:54:22.30</time>
      </trkpt>
      <trkpt lat="45.56478" lon="4.91107">
        <ele>314.5</ele>
        <time>2012-09-05T07:54:23.30</time>
      </trkpt>
      <trkpt lat="45.56475" lon="4.91109">
        <ele>313.5</ele>
        <time>2012-09-05T07:54:24.30</time>
      </trkpt>
      <trkpt lat="45.56472" lon="4.91112">
        <ele>314.5</ele>
        <time>2012-09-05T07:54:25.29</time>
      </trkpt>
      <trkpt lat="45.5647" lon="4.91115">
        <ele>315</ele>
        <time>2012-09-05T07:54:26.30</time>
      </trkpt>
      <trkpt lat="45.56468" lon="4.91118">
        <ele>315</ele>
        <time>2012-09-05T07:54:27.29</time>
      </trkpt>
      <trkpt lat="45.56465" lon="4.91121">
        <ele>316</ele>
        <time>2012-09-05T07:54:28.29</time>
      </trkpt>
      <trkpt lat="45.56462" lon="4.91123">
        <ele>317</ele>
        <time>2012-09-05T07:54:29.28</time>
      </trkpt>
      <trkpt lat="45.5646" lon="4.91127">
        <ele>317</ele>
        <time>2012-09-05T07:54:35.83</time>
      </trkpt>
      <trkpt lat="45.56459" lon="4.9113">
        <ele>317</ele>
        <time>2012-09-05T07:54:36.86</time>
      </trkpt>
      <trkpt lat="45.56457" lon="4.91134">
        <ele>318.5</ele>
        <time>2012-09-05T07:54:37.82</time>
      </trkpt>
      <trkpt lat="45.56455" lon="4.91138">
        <ele>319.5</ele>
        <time>2012-09-05T07:54:38.85</time>
      </trkpt>
      <trkpt lat="45.56453" lon="4.91141">
        <ele>320.5</ele>
        <time>2012-09-05T07:54:39.84</time>
      </trkpt>
      <trkpt lat="45.5645" lon="4.91145">
        <ele>321</ele>
        <time>2012-09-05T07:54:40.84</time>
      </trkpt>
      <trkpt lat="45.56447" lon="4.91149">
        <ele>321.5</ele>
        <time>2012-09-05T07:54:41.84</time>
      </trkpt>
      <trkpt lat="45.56445" lon="4.91153">
        <ele>321.5</ele>
        <time>2012-09-05T07:54:42.83</time>
      </trkpt>
      <trkpt lat="45.56442" lon="4.91158">
        <ele>322</ele>
        <time>2012-09-05T07:54:43.82</time>
      </trkpt>
      <trkpt lat="45.56439" lon="4.91163">
        <ele>322</ele>
        <time>2012-09-05T07:54:44.82</time>
      </trkpt>
      <trkpt lat="45.56437" lon="4.91167">
        <ele>322.5</ele>
        <time>2012-09-05T07:54:45.81</time>
      </trkpt>
      <trkpt lat="45.56434" lon="4.91171">
        <ele>323</ele>
        <time>2012-09-05T07:54:46.84</time>
      </trkpt>
      <trkpt lat="45.56431" lon="4.91176">
        <ele>323.5</ele>
        <time>2012-09-05T07:54:47.81</time>
      </trkpt>
      <trkpt lat="45.56429" lon="4.9118">
        <ele>323.5</ele>
        <time>2012-09-05T07:54:48.80</time>
      </trkpt>
      <trkpt lat="45.56426" lon="4.91185">
        <ele>324</ele>
        <time>2012-09-05T07:54:49.80</time>
      </trkpt>
      <trkpt lat="45.56424" lon="4.91188">
        <ele>325</ele>
        <time>2012-09-05T07:54:50.82</time>
      </trkpt>
      <trkpt lat="45.56422" lon="4.91193">
        <ele>325.5</ele>
        <time>2012-09-05T07:54:51.76</time>
      </trkpt>
      <trkpt lat="45.56419" lon="4.91197">
        <ele>326.5</ele>
        <time>2012-09-05T07:54:52.78</time>
      </trkpt>
      <trkpt lat="45.56417" lon="4.91201">
        <ele>327</ele>
        <time>2012-09-05T07:54:53.78</time>
      </trkpt>
      <trkpt lat="45.56415" lon="4.91205">
        <ele>327</ele>
        <time>2012-09-05T07:54:54.79</time>
      </trkpt>
      <trkpt lat="45.56412" lon="4.91209">
        <ele>327</ele>
        <time>2012-09-05T07:54:55.77</time>
      </trkpt>
      <trkpt lat="45.56409" lon="4.91214">
        <ele>327.5</ele>
        <time>2012-09-05T07:54:56.79</time>
      </trkpt>
      <trkpt lat="45.56406" lon="4.91219">
        <ele>327.5</ele>
        <time>2012-09-05T07:54:57.77</time>
      </trkpt>
      <trkpt lat="45.56404" lon="4.91223">
        <ele>327</ele>
        <time>2012-09-05T07:54:58.78</time>
      </trkpt>
      <trkpt lat="45.56401" lon="4.91227">
        <ele>327.5</ele>
        <time>2012-09-05T07:54:59.76</time>
      </trkpt>
      <trkpt lat="45.56398" lon="4.91231">
        <ele>327.5</ele>
        <time>2012-09-05T07:55:00.74</time>
      </trkpt>
      <trkpt lat="45.56395" lon="4.91234">
        <ele>328</ele>
        <time>2012-09-05T07:55:01.71</time>
      </trkpt>
      <trkpt lat="45.56393" lon="4.91239">
        <ele>328.5</ele>
        <time>2012-09-05T07:55:02.75</time>
      </trkpt>
      <trkpt lat="45.56391" lon="4.91243">
        <ele>329.5</ele>
        <time>2012-09-05T07:55:03.73</time>
      </trkpt>
      <trkpt lat="45.56388" lon="4.91247">
        <ele>329.5</ele>
        <time>2012-09-05T07:55:04.74</time>
      </trkpt>
      <trkpt lat="45.56386" lon="4.91252">
        <ele>329</ele>
        <time>2012-09-05T07:55:05.70</time>
      </trkpt>
      <trkpt lat="45.56383" lon="4.91256">
        <ele>329</ele>
        <time>2012-09-05T07:55:06.73</time>
      </trkpt>
      <trkpt lat="45.5638" lon="4.9126">
        <ele>329</ele>
        <time>2012-09-05T07:55:07.71</time>
      </trkpt>
      <trkpt lat="45.56378" lon="4.91264">
        <ele>329.5</ele>
        <time>2012-09-05T07:55:08.77</time>
      </trkpt>
      <trkpt lat="45.56375" lon="4.91268">
        <ele>330</ele>
        <time>2012-09-05T07:55:09.83</time>
      </trkpt>
      <trkpt lat="45.56373" lon="4.91272">
        <ele>330</ele>
        <time>2012-09-05T07:55:10.68</time>
      </trkpt>
      <trkpt lat="45.56371" lon="4.91276">
        <ele>330.5</ele>
        <time>2012-09-05T07:55:11.68</time>
      </trkpt>
      <trkpt lat="45.56368" lon="4.9128">
        <ele>330.5</ele>
        <time>2012-09-05T07:55:12.74</time>
      </trkpt>
      <trkpt lat="45.56366" lon="4.91284">
        <ele>331</ele>
        <time>2012-09-05T07:55:13.64</time>
      </trkpt>
      <trkpt lat="45.56364" lon="4.91288">
        <ele>331</ele>
        <time>2012-09-05T07:55:14.70</time>
      </trkpt>
      <trkpt lat="45.56362" lon="4.91291">
        <ele>332</ele>
        <time>2012-09-05T07:55:15.66</time>
      </trkpt>
      <trkpt lat="45.5636" lon="4.91295">
        <ele>332</ele>
        <time>2012-09-05T07:55:16.66</time>
      </trkpt>
      <trkpt lat="45.56357" lon="4.91299">
        <ele>332</ele>
        <time>2012-09-05T07:55:17.63</time>
      </trkpt>
      <trkpt lat="45.56354" lon="4.91303">
        <ele>332.5</ele>
        <time>2012-09-05T07:55:18.70</time>
      </trkpt>
      <trkpt lat="45.56352" lon="4.91306">
        <ele>332.5</ele>
        <time>2012-09-05T07:55:19.63</time>
      </trkpt>
      <trkpt lat="45.56349" lon="4.9131">
        <ele>333</ele>
        <time>2012-09-05T07:55:20.67</time>
      </trkpt>
      <trkpt lat="45.56347" lon="4.91314">
        <ele>333.5</ele>
        <time>2012-09-05T07:55:21.73</time>
      </trkpt>
      <trkpt lat="45.56344" lon="4.91318">
        <ele>333.5</ele>
        <time>2012-09-05T07:55:22.84</time>
      </trkpt>
      <trkpt lat="45.56342" lon="4.91322">
        <ele>333.5</ele>
        <time>2012-09-05T07:55:23.61</time>
      </trkpt>
      <trkpt lat="45.5634" lon="4.91325">
        <ele>334</ele>
        <time>2012-09-05T07:55:24.63</time>
      </trkpt>
      <trkpt lat="45.56337" lon="4.91328">
        <ele>333.5</ele>
        <time>2012-09-05T07:55:25.60</time>
      </trkpt>
      <trkpt lat="45.56334" lon="4.91332">
        <ele>333.5</ele>
        <time>2012-09-05T07:55:26.66</time>
      </trkpt>
      <trkpt lat="45.56331" lon="4.91336">
        <ele>334</ele>
        <time>2012-09-05T07:55:27.58</time>
      </trkpt>
      <trkpt lat="45.56328" lon="4.9134">
        <ele>334.5</ele>
        <time>2012-09-05T07:55:28.68</time>
      </trkpt>
      <trkpt lat="45.56326" lon="4.91344">
        <ele>334.5</ele>
        <time>2012-09-05T07:55:29.57</time>
      </trkpt>
      <trkpt lat="45.56323" lon="4.91348">
        <ele>334.5</ele>
        <time>2012-09-05T07:55:30.57</time>
      </trkpt>
      <trkpt lat="45.56321" lon="4.91352">
        <ele>334</ele>
        <time>2012-09-05T07:55:31.56</time>
      </trkpt>
      <trkpt lat="45.56318" lon="4.91356">
        <ele>334</ele>
        <time>2012-09-05T07:55:32.59</time>
      </trkpt>
      <trkpt lat="45.56316" lon="4.9136">
        <ele>334</ele>
        <time>2012-09-05T07:55:33.58</time>
      </trkpt>
      <trkpt lat="45.56313" lon="4.91364">
        <ele>333.5</ele>
        <time>2012-09-05T07:55:34.54</time>
      </trkpt>
      <trkpt lat="45.5631" lon="4.91368">
        <ele>333.5</ele>
        <time>2012-09-05T07:55:35.57</time>
      </trkpt>
      <trkpt lat="45.56308" lon="4.91371">
        <ele>334</ele>
        <time>2012-09-05T07:55:36.57</time>
      </trkpt>
      <trkpt lat="45.56305" lon="4.91375">
        <ele>334</ele>
        <time>2012-09-05T07:55:37.65</time>
      </trkpt>
      <trkpt lat="45.56302" lon="4.91379">
        <ele>334</ele>
        <time>2012-09-05T07:55:38.53</time>
      </trkpt>
      <trkpt lat="45.56299" lon="4.91383">
        <ele>334.5</ele>
        <time>2012-09-05T07:55:39.55</time>
      </trkpt>
      <trkpt lat="45.56296" lon="4.91387">
        <ele>334.5</ele>
        <time>2012-09-05T07:55:40.54</time>
      </trkpt>
      <trkpt lat="45.56294" lon="4.91391">
        <ele>334.5</ele>
        <time>2012-09-05T07:55:41.54</time>
      </trkpt>
      <trkpt lat="45.56291" lon="4.91395">
        <ele>334</ele>
        <time>2012-09-05T07:55:42.50</time>
      </trkpt>
      <trkpt lat="45.56288" lon="4.914">
        <ele>334</ele>
        <time>2012-09-05T07:55:43.53</time>
      </trkpt>
      <trkpt lat="45.56286" lon="4.91404">
        <ele>334</ele>
        <time>2012-09-05T07:55:44.49</time>
      </trkpt>
      <trkpt lat="45.56284" lon="4.91409">
        <ele>334.5</ele>
        <time>2012-09-05T07:55:45.52</time>
      </trkpt>
      <trkpt lat="45.56281" lon="4.91413">
        <ele>334</ele>
        <time>2012-09-05T07:55:46.60</time>
      </trkpt>
      <trkpt lat="45.56279" lon="4.91418">
        <ele>334</ele>
        <time>2012-09-05T07:55:47.48</time>
      </trkpt>
      <trkpt lat="45.56277" lon="4.91423">
        <ele>334</ele>
        <time>2012-09-05T07:55:48.47</time>
      </trkpt>
      <trkpt lat="45.56275" lon="4.91427">
        <ele>334.5</ele>
        <time>2012-09-05T07:55:49.50</time>
      </trkpt>
      <trkpt lat="45.56272" lon="4.91432">
        <ele>334</ele>
        <time>2012-09-05T07:55:50.55</time>
      </trkpt>
      <trkpt lat="45.5627" lon="4.91436">
        <ele>334</ele>
        <time>2012-09-05T07:55:51.46</time>
      </trkpt>
      <trkpt lat="45.56268" lon="4.9144">
        <ele>334.5</ele>
        <time>2012-09-05T07:55:52.49</time>
      </trkpt>
      <trkpt lat="45.56266" lon="4.91444">
        <ele>334.5</ele>
        <time>2012-09-05T07:55:53.45</time>
      </trkpt>
      <trkpt lat="45.56264" lon="4.91449">
        <ele>334.5</ele>
        <time>2012-09-05T07:55:54.48</time>
      </trkpt>
      <trkpt lat="45.56262" lon="4.91453">
        <ele>334.5</ele>
        <time>2012-09-05T07:55:55.47</time>
      </trkpt>
      <trkpt lat="45.5626" lon="4.91458">
        <ele>334.5</ele>
        <time>2012-09-05T07:55:56.44</time>
      </trkpt>
      <trkpt lat="45.56259" lon="4.91463">
        <ele>334</ele>
        <time>2012-09-05T07:55:57.47</time>
      </trkpt>
      <trkpt lat="45.56257" lon="4.91468">
        <ele>334.5</ele>
        <time>2012-09-05T07:55:58.47</time>
      </trkpt>
      <trkpt lat="45.56256" lon="4.91473">
        <ele>334</ele>
        <time>2012-09-05T07:55:59.76</time>
      </trkpt>
      <trkpt lat="45.56254" lon="4.91478">
        <ele>334</ele>
        <time>2012-09-05T07:56:00.43</time>
      </trkpt>
      <trkpt lat="45.56253" lon="4.91482">
        <ele>334</ele>
        <time>2012-09-05T07:56:01.47</time>
      </trkpt>
      <trkpt lat="45.56252" lon="4.91487">
        <ele>334.5</ele>
        <time>2012-09-05T07:56:02.42</time>
      </trkpt>
      <trkpt lat="45.56251" lon="4.91492">
        <ele>333</ele>
        <time>2012-09-05T07:56:03.45</time>
      </trkpt>
      <trkpt lat="45.5625" lon="4.91497">
        <ele>333</ele>
        <time>2012-09-05T07:56:04.42</time>
      </trkpt>
      <trkpt lat="45.5625" lon="4.91502">
        <ele>333</ele>
        <time>2012-09-05T07:56:05.44</time>
      </trkpt>
      <trkpt lat="45.56249" lon="4.91507">
        <ele>332.5</ele>
        <time>2012-09-05T07:56:06.40</time>
      </trkpt>
      <trkpt lat="45.56248" lon="4.91511">
        <ele>333</ele>
        <time>2012-09-05T07:56:07.44</time>
      </trkpt>
      <trkpt lat="45.56248" lon="4.91517">
        <ele>333.5</ele>
        <time>2012-09-05T07:56:08.69</time>
      </trkpt>
      <trkpt lat="45.56248" lon="4.91521">
        <ele>333.5</ele>
        <time>2012-09-05T07:56:09.39</time>
      </trkpt>
      <trkpt lat="45.56248" lon="4.91526">
        <ele>334</ele>
        <time>2012-09-05T07:56:10.42</time>
      </trkpt>
      <trkpt lat="45.56248" lon="4.91531">
        <ele>334.5</ele>
        <time>2012-09-05T07:56:11.39</time>
      </trkpt>
      <trkpt lat="45.56248" lon="4.91536">
        <ele>334</ele>
        <time>2012-09-05T07:56:12.41</time>
      </trkpt>
      <trkpt lat="45.56249" lon="4.91541">
        <ele>334.5</ele>
        <time>2012-09-05T07:56:13.41</time>
      </trkpt>
      <trkpt lat="45.5625" lon="4.91545">
        <ele>335</ele>
        <time>2012-09-05T07:56:14.38</time>
      </trkpt>
      <trkpt lat="45.56251" lon="4.91551">
        <ele>334.5</ele>
        <time>2012-09-05T07:56:15.53</time>
      </trkpt>
      <trkpt lat="45.56252" lon="4.91556">
        <ele>335</ele>
        <time>2012-09-05T07:56:16.37</time>
      </trkpt>
      <trkpt lat="45.56253" lon="4.91561">
        <ele>335.5</ele>
        <time>2012-09-05T07:56:17.43</time>
      </trkpt>
      <trkpt lat="45.56254" lon="4.91566">
        <ele>335</ele>
        <time>2012-09-05T07:56:18.47</time>
      </trkpt>
      <trkpt lat="45.56255" lon="4.9157">
        <ele>335</ele>
        <time>2012-09-05T07:56:19.50</time>
      </trkpt>
      <trkpt lat="45.56255" lon="4.91575">
        <ele>336</ele>
        <time>2012-09-05T07:56:20.35</time>
      </trkpt>
      <trkpt lat="45.56256" lon="4.91579">
        <ele>336</ele>
        <time>2012-09-05T07:56:21.37</time>
      </trkpt>
      <trkpt lat="45.56256" lon="4.91584">
        <ele>336.5</ele>
        <time>2012-09-05T07:56:22.34</time>
      </trkpt>
      <trkpt lat="45.56256" lon="4.91589">
        <ele>337</ele>
        <time>2012-09-05T07:56:23.36</time>
      </trkpt>
      <trkpt lat="45.56256" lon="4.91594">
        <ele>337</ele>
        <time>2012-09-05T07:56:24.35</time>
      </trkpt>
      <trkpt lat="45.56256" lon="4.91599">
        <ele>336.5</ele>
        <time>2012-09-05T07:56:25.35</time>
      </trkpt>
      <trkpt lat="45.56254" lon="4.91604">
        <ele>337</ele>
        <time>2012-09-05T07:56:26.40</time>
      </trkpt>
      <trkpt lat="45.56253" lon="4.91608">
        <ele>336.5</ele>
        <time>2012-09-05T07:56:27.31</time>
      </trkpt>
      <trkpt lat="45.56251" lon="4.91612">
        <ele>337</ele>
        <time>2012-09-05T07:56:28.33</time>
      </trkpt>
      <trkpt lat="45.56248" lon="4.91617">
        <ele>336.5</ele>
        <time>2012-09-05T07:56:29.32</time>
      </trkpt>
      <trkpt lat="45.56245" lon="4.91621">
        <ele>336.5</ele>
        <time>2012-09-05T07:56:30.32</time>
      </trkpt>
      <trkpt lat="45.56242" lon="4.91624">
        <ele>337</ele>
        <time>2012-09-05T07:56:31.39</time>
      </trkpt>
      <trkpt lat="45.56238" lon="4.91626">
        <ele>337</ele>
        <time>2012-09-05T07:56:32.27</time>
      </trkpt>
      <trkpt lat="45.56234" lon="4.91628">
        <ele>337</ele>
        <time>2012-09-05T07:56:33.31</time>
      </trkpt>
      <trkpt lat="45.5623" lon="4.9163">
        <ele>337</ele>
        <time>2012-09-05T07:56:34.29</time>
      </trkpt>
      <trkpt lat="45.56227" lon="4.91633">
        <ele>337</ele>
        <time>2012-09-05T07:56:35.27</time>
      </trkpt>
      <trkpt lat="45.56223" lon="4.91635">
        <ele>337.5</ele>
        <time>2012-09-05T07:56:36.27</time>
      </trkpt>
      <trkpt lat="45.56219" lon="4.91637">
        <ele>338</ele>
        <time>2012-09-05T07:56:37.28</time>
      </trkpt>
      <trkpt lat="45.56215" lon="4.9164">
        <ele>338</ele>
        <time>2012-09-05T07:56:38.27</time>
      </trkpt>
      <trkpt lat="45.56211" lon="4.91641">
        <ele>338</ele>
        <time>2012-09-05T07:56:39.24</time>
      </trkpt>
      <trkpt lat="45.56208" lon="4.91644">
        <ele>338.5</ele>
        <time>2012-09-05T07:56:40.26</time>
      </trkpt>
      <trkpt lat="45.56204" lon="4.91646">
        <ele>338.5</ele>
        <time>2012-09-05T07:56:41.26</time>
      </trkpt>
      <trkpt lat="45.562" lon="4.91648">
        <ele>338.5</ele>
        <time>2012-09-05T07:56:42.23</time>
      </trkpt>
      <trkpt lat="45.56196" lon="4.9165">
        <ele>339</ele>
        <time>2012-09-05T07:56:43.25</time>
      </trkpt>
      <trkpt lat="45.56192" lon="4.91652">
        <ele>338.5</ele>
        <time>2012-09-05T07:56:44.22</time>
      </trkpt>
      <trkpt lat="45.56188" lon="4.91654">
        <ele>338.5</ele>
        <time>2012-09-05T07:56:45.26</time>
      </trkpt>
      <trkpt lat="45.56184" lon="4.91656">
        <ele>338.5</ele>
        <time>2012-09-05T07:56:46.34</time>
      </trkpt>
      <trkpt lat="45.5618" lon="4.91658">
        <ele>338</ele>
        <time>2012-09-05T07:56:47.53</time>
      </trkpt>
      <trkpt lat="45.56176" lon="4.9166">
        <ele>338.5</ele>
        <time>2012-09-05T07:56:48.22</time>
      </trkpt>
      <trkpt lat="45.56173" lon="4.91663">
        <ele>339</ele>
        <time>2012-09-05T07:56:49.29</time>
      </trkpt>
      <trkpt lat="45.5617" lon="4.91665">
        <ele>338.5</ele>
        <time>2012-09-05T07:56:50.37</time>
      </trkpt>
      <trkpt lat="45.56168" lon="4.91667">
        <ele>338.5</ele>
        <time>2012-09-05T07:56:51.21</time>
      </trkpt>
      <trkpt lat="45.56166" lon="4.9167">
        <ele>338.5</ele>
        <time>2012-09-05T07:56:52.24</time>
      </trkpt>
      <trkpt lat="45.56164" lon="4.91673">
        <ele>338</ele>
        <time>2012-09-05T07:56:53.23</time>
      </trkpt>
      <trkpt lat="45.56161" lon="4.91675">
        <ele>338.5</ele>
        <time>2012-09-05T07:56:54.20</time>
      </trkpt>
      <trkpt lat="45.56159" lon="4.91678">
        <ele>339</ele>
        <time>2012-09-05T07:56:55.22</time>
      </trkpt>
      <trkpt lat="45.56156" lon="4.91682">
        <ele>339.5</ele>
        <time>2012-09-05T07:56:56.20</time>
      </trkpt>
      <trkpt lat="45.56154" lon="4.91684">
        <ele>340.5</ele>
        <time>2012-09-05T07:56:57.26</time>
      </trkpt>
      <trkpt lat="45.56152" lon="4.91687">
        <ele>340.5</ele>
        <time>2012-09-05T07:56:58.17</time>
      </trkpt>
      <trkpt lat="45.5615" lon="4.9169">
        <ele>340.5</ele>
        <time>2012-09-05T07:56:59.20</time>
      </trkpt>
      <trkpt lat="45.56148" lon="4.91693">
        <ele>340.5</ele>
        <time>2012-09-05T07:57:00.32</time>
      </trkpt>
      <trkpt lat="45.56145" lon="4.91696">
        <ele>341</ele>
        <time>2012-09-05T07:57:01.15</time>
      </trkpt>
      <trkpt lat="45.56143" lon="4.917">
        <ele>341.5</ele>
        <time>2012-09-05T07:57:02.22</time>
      </trkpt>
      <trkpt lat="45.56141" lon="4.91703">
        <ele>341.5</ele>
        <time>2012-09-05T07:57:03.11</time>
      </trkpt>
      <trkpt lat="45.5614" lon="4.91705">
        <ele>342</ele>
        <time>2012-09-05T07:57:04.18</time>
      </trkpt>
      <trkpt lat="45.56137" lon="4.91708">
        <ele>342.5</ele>
        <time>2012-09-05T07:57:05.11</time>
      </trkpt>
      <trkpt lat="45.56135" lon="4.9171">
        <ele>343</ele>
        <time>2012-09-05T07:57:06.13</time>
      </trkpt>
      <trkpt lat="45.56133" lon="4.91713">
        <ele>343.5</ele>
        <time>2012-09-05T07:57:07.18</time>
      </trkpt>
      <trkpt lat="45.56132" lon="4.91715">
        <ele>345</ele>
        <time>2012-09-05T07:57:08.09</time>
      </trkpt>
      <trkpt lat="45.56131" lon="4.91717">
        <ele>345.5</ele>
        <time>2012-09-05T07:57:09.15</time>
      </trkpt>
      <trkpt lat="45.5613" lon="4.9172">
        <ele>346</ele>
        <time>2012-09-05T07:57:10.19</time>
      </trkpt>
      <trkpt lat="45.56128" lon="4.91722">
        <ele>346</ele>
        <time>2012-09-05T07:57:11.23</time>
      </trkpt>
      <trkpt lat="45.56127" lon="4.91724">
        <ele>346.5</ele>
        <time>2012-09-05T07:57:12.27</time>
      </trkpt>
      <trkpt lat="45.56124" lon="4.91726">
        <ele>347</ele>
        <time>2012-09-05T07:57:13.32</time>
      </trkpt>
      <trkpt lat="45.56122" lon="4.91728">
        <ele>347</ele>
        <time>2012-09-05T07:57:14.36</time>
      </trkpt>
      <trkpt lat="45.5612" lon="4.9173">
        <ele>348</ele>
        <time>2012-09-05T07:57:15.43</time>
      </trkpt>
      <trkpt lat="45.56118" lon="4.91731">
        <ele>347.5</ele>
        <time>2012-09-05T07:57:16.47</time>
      </trkpt>
      <trkpt lat="45.56114" lon="4.91735">
        <ele>349</ele>
        <time>2012-09-05T07:57:18.08</time>
      </trkpt>
      <trkpt lat="45.56112" lon="4.91737">
        <ele>349.5</ele>
        <time>2012-09-05T07:57:19.15</time>
      </trkpt>
      <trkpt lat="45.56111" lon="4.91739">
        <ele>350</ele>
        <time>2012-09-05T07:57:20.19</time>
      </trkpt>
      <trkpt lat="45.56109" lon="4.91742">
        <ele>350.5</ele>
        <time>2012-09-05T07:57:21.22</time>
      </trkpt>
      <trkpt lat="45.56108" lon="4.91744">
        <ele>351</ele>
        <time>2012-09-05T07:57:22.26</time>
      </trkpt>
      <trkpt lat="45.56106" lon="4.91746">
        <ele>351</ele>
        <time>2012-09-05T07:57:23.29</time>
      </trkpt>
      <trkpt lat="45.56105" lon="4.91748">
        <ele>352</ele>
        <time>2012-09-05T07:57:24.32</time>
      </trkpt>
      <trkpt lat="45.56102" lon="4.9175">
        <ele>352</ele>
        <time>2012-09-05T07:57:25.36</time>
      </trkpt>
      <trkpt lat="45.561" lon="4.91752">
        <ele>352</ele>
        <time>2012-09-05T07:57:26.40</time>
      </trkpt>
      <trkpt lat="45.56095" lon="4.91755">
        <ele>352</ele>
        <time>2012-09-05T07:57:28.36</time>
      </trkpt>
      <trkpt lat="45.56093" lon="4.91756">
        <ele>352</ele>
        <time>2012-09-05T07:57:28.99</time>
      </trkpt>
      <trkpt lat="45.5609" lon="4.91758">
        <ele>352.5</ele>
        <time>2012-09-05T07:57:30.04</time>
      </trkpt>
      <trkpt lat="45.56089" lon="4.9176">
        <ele>353</ele>
        <time>2012-09-05T07:57:31.10</time>
      </trkpt>
      <trkpt lat="45.56087" lon="4.91762">
        <ele>353.5</ele>
        <time>2012-09-05T07:57:32.14</time>
      </trkpt>
      <trkpt lat="45.56086" lon="4.91765">
        <ele>353.5</ele>
        <time>2012-09-05T07:57:33.19</time>
      </trkpt>
      <trkpt lat="45.56084" lon="4.91767">
        <ele>353.5</ele>
        <time>2012-09-05T07:57:34.23</time>
      </trkpt>
      <trkpt lat="45.56082" lon="4.91769">
        <ele>354</ele>
        <time>2012-09-05T07:57:35.30</time>
      </trkpt>
      <trkpt lat="45.5608" lon="4.91771">
        <ele>355</ele>
        <time>2012-09-05T07:57:36.35</time>
      </trkpt>
      <trkpt lat="45.56075" lon="4.91774">
        <ele>355.5</ele>
        <time>2012-09-05T07:57:38.06</time>
      </trkpt>
      <trkpt lat="45.56073" lon="4.91775">
        <ele>355.5</ele>
        <time>2012-09-05T07:57:39.21</time>
      </trkpt>
      <trkpt lat="45.56071" lon="4.91777">
        <ele>355.5</ele>
        <time>2012-09-05T07:57:40.32</time>
      </trkpt>
      <trkpt lat="45.56066" lon="4.91781">
        <ele>356.5</ele>
        <time>2012-09-05T07:57:42.42</time>
      </trkpt>
      <trkpt lat="45.56061" lon="4.91786">
        <ele>357</ele>
        <time>2012-09-05T07:57:44.31</time>
      </trkpt>
      <trkpt lat="45.56055" lon="4.9179">
        <ele>357</ele>
        <time>2012-09-05T07:57:45.99</time>
      </trkpt>
      <trkpt lat="45.56053" lon="4.91792">
        <ele>357</ele>
        <time>2012-09-05T07:57:46.98</time>
      </trkpt>
      <trkpt lat="45.5605" lon="4.91794">
        <ele>357.5</ele>
        <time>2012-09-05T07:57:48.37</time>
      </trkpt>
      <trkpt lat="45.56044" lon="4.91799">
        <ele>357.5</ele>
        <time>2012-09-05T07:57:49.97</time>
      </trkpt>
      <trkpt lat="45.56041" lon="4.91801">
        <ele>358</ele>
        <time>2012-09-05T07:57:50.97</time>
      </trkpt>
      <trkpt lat="45.56039" lon="4.91804">
        <ele>357.5</ele>
        <time>2012-09-05T07:57:51.93</time>
      </trkpt>
      <trkpt lat="45.56036" lon="4.91806">
        <ele>357.5</ele>
        <time>2012-09-05T07:57:52.95</time>
      </trkpt>
      <trkpt lat="45.56033" lon="4.91808">
        <ele>358</ele>
        <time>2012-09-05T07:57:53.91</time>
      </trkpt>
      <trkpt lat="45.56031" lon="4.91811">
        <ele>358</ele>
        <time>2012-09-05T07:57:54.94</time>
      </trkpt>
      <trkpt lat="45.56028" lon="4.91814">
        <ele>357.5</ele>
        <time>2012-09-05T07:57:55.93</time>
      </trkpt>
      <trkpt lat="45.56025" lon="4.91816">
        <ele>357.5</ele>
        <time>2012-09-05T07:57:56.90</time>
      </trkpt>
      <trkpt lat="45.56022" lon="4.91819">
        <ele>357.5</ele>
        <time>2012-09-05T07:57:57.92</time>
      </trkpt>
      <trkpt lat="45.56019" lon="4.91821">
        <ele>357</ele>
        <time>2012-09-05T07:57:58.97</time>
      </trkpt>
      <trkpt lat="45.56016" lon="4.91824">
        <ele>357.5</ele>
        <time>2012-09-05T07:57:59.88</time>
      </trkpt>
      <trkpt lat="45.56014" lon="4.91827">
        <ele>357</ele>
        <time>2012-09-05T07:58:00.90</time>
      </trkpt>
      <trkpt lat="45.56011" lon="4.9183">
        <ele>357.5</ele>
        <time>2012-09-05T07:58:01.87</time>
      </trkpt>
      <trkpt lat="45.56009" lon="4.91833">
        <ele>357.5</ele>
        <time>2012-09-05T07:58:02.90</time>
      </trkpt>
      <trkpt lat="45.56006" lon="4.91835">
        <ele>357</ele>
        <time>2012-09-05T07:58:03.90</time>
      </trkpt>
      <trkpt lat="45.56004" lon="4.91839">
        <ele>357</ele>
        <time>2012-09-05T07:58:04.89</time>
      </trkpt>
      <trkpt lat="45.56002" lon="4.91842">
        <ele>357.5</ele>
        <time>2012-09-05T07:58:05.87</time>
      </trkpt>
      <trkpt lat="45.55999" lon="4.91846">
        <ele>357</ele>
        <time>2012-09-05T07:58:06.93</time>
      </trkpt>
      <trkpt lat="45.55996" lon="4.91849">
        <ele>357</ele>
        <time>2012-09-05T07:58:07.85</time>
      </trkpt>
      <trkpt lat="45.55993" lon="4.91852">
        <ele>357</ele>
        <time>2012-09-05T07:58:08.87</time>
      </trkpt>
      <trkpt lat="45.55991" lon="4.91856">
        <ele>357.5</ele>
        <time>2012-09-05T07:58:09.86</time>
      </trkpt>
      <trkpt lat="45.55988" lon="4.91859">
        <ele>357.5</ele>
        <time>2012-09-05T07:58:10.83</time>
      </trkpt>
      <trkpt lat="45.55986" lon="4.91863">
        <ele>357.5</ele>
        <time>2012-09-05T07:58:11.85</time>
      </trkpt>
      <trkpt lat="45.55984" lon="4.91866">
        <ele>357.5</ele>
        <time>2012-09-05T07:58:12.85</time>
      </trkpt>
      <trkpt lat="45.55982" lon="4.91869">
        <ele>358</ele>
        <time>2012-09-05T07:58:13.85</time>
      </trkpt>
      <trkpt lat="45.55979" lon="4.91873">
        <ele>358</ele>
        <time>2012-09-05T07:58:14.82</time>
      </trkpt>
      <trkpt lat="45.55978" lon="4.91877">
        <ele>358</ele>
        <time>2012-09-05T07:58:15.85</time>
      </trkpt>
      <trkpt lat="45.55975" lon="4.91881">
        <ele>358</ele>
        <time>2012-09-05T07:58:16.81</time>
      </trkpt>
      <trkpt lat="45.55973" lon="4.91885">
        <ele>358.5</ele>
        <time>2012-09-05T07:58:17.82</time>
      </trkpt>
      <trkpt lat="45.55971" lon="4.91889">
        <ele>359</ele>
        <time>2012-09-05T07:58:18.80</time>
      </trkpt>
      <trkpt lat="45.55968" lon="4.91893">
        <ele>358.5</ele>
        <time>2012-09-05T07:58:20.25</time>
      </trkpt>
      <trkpt lat="45.55962" lon="4.91902">
        <ele>357.5</ele>
        <time>2012-09-05T07:58:21.84</time>
      </trkpt>
      <trkpt lat="45.5596" lon="4.91906">
        <ele>357.5</ele>
        <time>2012-09-05T07:58:22.83</time>
      </trkpt>
      <trkpt lat="45.55957" lon="4.9191">
        <ele>357.5</ele>
        <time>2012-09-05T07:58:23.77</time>
      </trkpt>
      <trkpt lat="45.55955" lon="4.91914">
        <ele>357.5</ele>
        <time>2012-09-05T07:58:24.80</time>
      </trkpt>
      <trkpt lat="45.55953" lon="4.91918">
        <ele>357.5</ele>
        <time>2012-09-05T07:58:25.79</time>
      </trkpt>
      <trkpt lat="45.55951" lon="4.91922">
        <ele>358</ele>
        <time>2012-09-05T07:58:26.78</time>
      </trkpt>
      <trkpt lat="45.55948" lon="4.91925">
        <ele>358.5</ele>
        <time>2012-09-05T07:58:27.75</time>
      </trkpt>
      <trkpt lat="45.55946" lon="4.91929">
        <ele>358</ele>
        <time>2012-09-05T07:58:28.77</time>
      </trkpt>
      <trkpt lat="45.55943" lon="4.91932">
        <ele>358.5</ele>
        <time>2012-09-05T07:58:29.77</time>
      </trkpt>
      <trkpt lat="45.55941" lon="4.91935">
        <ele>358</ele>
        <time>2012-09-05T07:58:30.76</time>
      </trkpt>
      <trkpt lat="45.55938" lon="4.91939">
        <ele>358.5</ele>
        <time>2012-09-05T07:58:31.74</time>
      </trkpt>
      <trkpt lat="45.55935" lon="4.91942">
        <ele>359</ele>
        <time>2012-09-05T07:58:32.76</time>
      </trkpt>
      <trkpt lat="45.55933" lon="4.91945">
        <ele>359</ele>
        <time>2012-09-05T07:58:33.75</time>
      </trkpt>
      <trkpt lat="45.5593" lon="4.91948">
        <ele>359.5</ele>
        <time>2012-09-05T07:58:34.75</time>
      </trkpt>
      <trkpt lat="45.55926" lon="4.91951">
        <ele>359.5</ele>
        <time>2012-09-05T07:58:35.73</time>
      </trkpt>
      <trkpt lat="45.55923" lon="4.91954">
        <ele>359.5</ele>
        <time>2012-09-05T07:58:36.74</time>
      </trkpt>
      <trkpt lat="45.55919" lon="4.91956">
        <ele>360</ele>
        <time>2012-09-05T07:58:37.74</time>
      </trkpt>
      <trkpt lat="45.55915" lon="4.91958">
        <ele>360</ele>
        <time>2012-09-05T07:58:38.73</time>
      </trkpt>
      <trkpt lat="45.55911" lon="4.91961">
        <ele>360</ele>
        <time>2012-09-05T07:58:39.70</time>
      </trkpt>
      <trkpt lat="45.55907" lon="4.91963">
        <ele>360</ele>
        <time>2012-09-05T07:58:40.72</time>
      </trkpt>
      <trkpt lat="45.55904" lon="4.91965">
        <ele>360.5</ele>
        <time>2012-09-05T07:58:41.70</time>
      </trkpt>
      <trkpt lat="45.559" lon="4.91967">
        <ele>360</ele>
        <time>2012-09-05T07:58:42.71</time>
      </trkpt>
      <trkpt lat="45.55896" lon="4.91969">
        <ele>360</ele>
        <time>2012-09-05T07:58:43.70</time>
      </trkpt>
      <trkpt lat="45.55893" lon="4.9197">
        <ele>360.5</ele>
        <time>2012-09-05T07:58:44.70</time>
      </trkpt>
      <trkpt lat="45.55889" lon="4.9197">
        <ele>360</ele>
        <time>2012-09-05T07:58:45.76</time>
      </trkpt>
      <trkpt lat="45.55886" lon="4.9197">
        <ele>360.5</ele>
        <time>2012-09-05T07:58:46.66</time>
      </trkpt>
      <trkpt lat="45.55882" lon="4.91972">
        <ele>360</ele>
        <time>2012-09-05T07:58:47.68</time>
      </trkpt>
      <trkpt lat="45.55879" lon="4.91974">
        <ele>360</ele>
        <time>2012-09-05T07:58:48.66</time>
      </trkpt>
      <trkpt lat="45.55876" lon="4.91977">
        <ele>360</ele>
        <time>2012-09-05T07:58:49.67</time>
      </trkpt>
      <trkpt lat="45.55872" lon="4.9198">
        <ele>360</ele>
        <time>2012-09-05T07:58:50.67</time>
      </trkpt>
      <trkpt lat="45.55869" lon="4.91982">
        <ele>360.5</ele>
        <time>2012-09-05T07:58:51.66</time>
      </trkpt>
      <trkpt lat="45.55865" lon="4.91984">
        <ele>361.5</ele>
        <time>2012-09-05T07:58:52.63</time>
      </trkpt>
      <trkpt lat="45.55861" lon="4.91985">
        <ele>361.5</ele>
        <time>2012-09-05T07:58:53.65</time>
      </trkpt>
      <trkpt lat="45.55856" lon="4.91986">
        <ele>362</ele>
        <time>2012-09-05T07:58:54.82</time>
      </trkpt>
      <trkpt lat="45.55852" lon="4.91987">
        <ele>362</ele>
        <time>2012-09-05T07:58:55.61</time>
      </trkpt>
      <trkpt lat="45.55847" lon="4.91988">
        <ele>362</ele>
        <time>2012-09-05T07:58:56.82</time>
      </trkpt>
      <trkpt lat="45.55842" lon="4.91989">
        <ele>361.5</ele>
        <time>2012-09-05T07:58:57.60</time>
      </trkpt>
      <trkpt lat="45.55838" lon="4.9199">
        <ele>362.5</ele>
        <time>2012-09-05T07:58:58.59</time>
      </trkpt>
      <trkpt lat="45.55833" lon="4.91991">
        <ele>362.5</ele>
        <time>2012-09-05T07:58:59.64</time>
      </trkpt>
      <trkpt lat="45.55828" lon="4.91993">
        <ele>363</ele>
        <time>2012-09-05T07:59:00.71</time>
      </trkpt>
      <trkpt lat="45.55823" lon="4.91993">
        <ele>362.5</ele>
        <time>2012-09-05T07:59:01.58</time>
      </trkpt>
      <trkpt lat="45.55818" lon="4.91995">
        <ele>363</ele>
        <time>2012-09-05T07:59:02.60</time>
      </trkpt>
      <trkpt lat="45.55813" lon="4.91998">
        <ele>363</ele>
        <time>2012-09-05T07:59:03.59</time>
      </trkpt>
      <trkpt lat="45.55808" lon="4.92">
        <ele>363</ele>
        <time>2012-09-05T07:59:04.59</time>
      </trkpt>
      <trkpt lat="45.55804" lon="4.92003">
        <ele>363</ele>
        <time>2012-09-05T07:59:05.59</time>
      </trkpt>
      <trkpt lat="45.55799" lon="4.92006">
        <ele>363</ele>
        <time>2012-09-05T07:59:06.56</time>
      </trkpt>
      <trkpt lat="45.55795" lon="4.9201">
        <ele>362.5</ele>
        <time>2012-09-05T07:59:07.58</time>
      </trkpt>
      <trkpt lat="45.5579" lon="4.92013">
        <ele>362.5</ele>
        <time>2012-09-05T07:59:08.57</time>
      </trkpt>
      <trkpt lat="45.55787" lon="4.92019">
        <ele>362.5</ele>
        <time>2012-09-05T07:59:09.56</time>
      </trkpt>
      <trkpt lat="45.55783" lon="4.92023">
        <ele>362</ele>
        <time>2012-09-05T07:59:10.54</time>
      </trkpt>
      <trkpt lat="45.55779" lon="4.92029">
        <ele>361.5</ele>
        <time>2012-09-05T07:59:11.56</time>
      </trkpt>
      <trkpt lat="45.55776" lon="4.92034">
        <ele>361.5</ele>
        <time>2012-09-05T07:59:12.55</time>
      </trkpt>
      <trkpt lat="45.55772" lon="4.9204">
        <ele>361.5</ele>
        <time>2012-09-05T07:59:13.54</time>
      </trkpt>
      <trkpt lat="45.55768" lon="4.92046">
        <ele>362</ele>
        <time>2012-09-05T07:59:14.52</time>
      </trkpt>
      <trkpt lat="45.55763" lon="4.92051">
        <ele>361</ele>
        <time>2012-09-05T07:59:15.53</time>
      </trkpt>
      <trkpt lat="45.55759" lon="4.92057">
        <ele>361</ele>
        <time>2012-09-05T07:59:16.68</time>
      </trkpt>
      <trkpt lat="45.55755" lon="4.92062">
        <ele>360.5</ele>
        <time>2012-09-05T07:59:17.49</time>
      </trkpt>
      <trkpt lat="45.55751" lon="4.92068">
        <ele>360.5</ele>
        <time>2012-09-05T07:59:18.52</time>
      </trkpt>
      <trkpt lat="45.55746" lon="4.92074">
        <ele>361</ele>
        <time>2012-09-05T07:59:19.49</time>
      </trkpt>
      <trkpt lat="45.55742" lon="4.9208">
        <ele>361</ele>
        <time>2012-09-05T07:59:20.51</time>
      </trkpt>
      <trkpt lat="45.55738" lon="4.92086">
        <ele>361.5</ele>
        <time>2012-09-05T07:59:21.50</time>
      </trkpt>
      <trkpt lat="45.55734" lon="4.92092">
        <ele>361</ele>
        <time>2012-09-05T07:59:22.49</time>
      </trkpt>
      <trkpt lat="45.5573" lon="4.92098">
        <ele>361</ele>
        <time>2012-09-05T07:59:23.47</time>
      </trkpt>
      <trkpt lat="45.55726" lon="4.92104">
        <ele>361</ele>
        <time>2012-09-05T07:59:24.50</time>
      </trkpt>
      <trkpt lat="45.55722" lon="4.9211">
        <ele>361</ele>
        <time>2012-09-05T07:59:25.48</time>
      </trkpt>
      <trkpt lat="45.55717" lon="4.92116">
        <ele>360.5</ele>
        <time>2012-09-05T07:59:26.47</time>
      </trkpt>
      <trkpt lat="45.55713" lon="4.92122">
        <ele>361</ele>
        <time>2012-09-05T07:59:27.47</time>
      </trkpt>
      <trkpt lat="45.5571" lon="4.92128">
        <ele>361</ele>
        <time>2012-09-05T07:59:28.44</time>
      </trkpt>
      <trkpt lat="45.55706" lon="4.92133">
        <ele>361.5</ele>
        <time>2012-09-05T07:59:29.46</time>
      </trkpt>
      <trkpt lat="45.55702" lon="4.9214">
        <ele>361.5</ele>
        <time>2012-09-05T07:59:30.46</time>
      </trkpt>
      <trkpt lat="45.55698" lon="4.92146">
        <ele>361.5</ele>
        <time>2012-09-05T07:59:31.45</time>
      </trkpt>
      <trkpt lat="45.55695" lon="4.92152">
        <ele>361.5</ele>
        <time>2012-09-05T07:59:32.42</time>
      </trkpt>
      <trkpt lat="45.55692" lon="4.92159">
        <ele>361.5</ele>
        <time>2012-09-05T07:59:33.44</time>
      </trkpt>
      <trkpt lat="45.55689" lon="4.92166">
        <ele>361.5</ele>
        <time>2012-09-05T07:59:34.44</time>
      </trkpt>
      <trkpt lat="45.55688" lon="4.92174">
        <ele>362.5</ele>
        <time>2012-09-05T07:59:35.41</time>
      </trkpt>
      <trkpt lat="45.55686" lon="4.92182">
        <ele>362.5</ele>
        <time>2012-09-05T07:59:36.43</time>
      </trkpt>
      <trkpt lat="45.55684" lon="4.9219">
        <ele>362.5</ele>
        <time>2012-09-05T07:59:37.39</time>
      </trkpt>
      <trkpt lat="45.55682" lon="4.92197">
        <ele>363</ele>
        <time>2012-09-05T07:59:38.45</time>
      </trkpt>
      <trkpt lat="45.5568" lon="4.92204">
        <ele>363</ele>
        <time>2012-09-05T07:59:39.41</time>
      </trkpt>
      <trkpt lat="45.55679" lon="4.92212">
        <ele>363</ele>
        <time>2012-09-05T07:59:40.43</time>
      </trkpt>
      <trkpt lat="45.55679" lon="4.92221">
        <ele>363</ele>
        <time>2012-09-05T07:59:41.43</time>
      </trkpt>
      <trkpt lat="45.55678" lon="4.9223">
        <ele>362.5</ele>
        <time>2012-09-05T07:59:42.41</time>
      </trkpt>
      <trkpt lat="45.55677" lon="4.92239">
        <ele>362</ele>
        <time>2012-09-05T07:59:43.42</time>
      </trkpt>
      <trkpt lat="45.55675" lon="4.92248">
        <ele>361.5</ele>
        <time>2012-09-05T07:59:44.41</time>
      </trkpt>
      <trkpt lat="45.55674" lon="4.92256">
        <ele>361.5</ele>
        <time>2012-09-05T07:59:45.41</time>
      </trkpt>
      <trkpt lat="45.55674" lon="4.92265">
        <ele>361.5</ele>
        <time>2012-09-05T07:59:46.38</time>
      </trkpt>
      <trkpt lat="45.55673" lon="4.92274">
        <ele>361</ele>
        <time>2012-09-05T07:59:47.41</time>
      </trkpt>
      <trkpt lat="45.55672" lon="4.92284">
        <ele>361</ele>
        <time>2012-09-05T07:59:48.37</time>
      </trkpt>
      <trkpt lat="45.55671" lon="4.92293">
        <ele>360.5</ele>
        <time>2012-09-05T07:59:49.40</time>
      </trkpt>
      <trkpt lat="45.55669" lon="4.92302">
        <ele>361</ele>
        <time>2012-09-05T07:59:50.33</time>
      </trkpt>
      <trkpt lat="45.55668" lon="4.92311">
        <ele>361</ele>
        <time>2012-09-05T07:59:51.36</time>
      </trkpt>
      <trkpt lat="45.55668" lon="4.9232">
        <ele>360.5</ele>
        <time>2012-09-05T07:59:52.35</time>
      </trkpt>
      <trkpt lat="45.55666" lon="4.92329">
        <ele>360.5</ele>
        <time>2012-09-05T07:59:53.33</time>
      </trkpt>
      <trkpt lat="45.55665" lon="4.92338">
        <ele>360.5</ele>
        <time>2012-09-05T07:59:54.35</time>
      </trkpt>
      <trkpt lat="45.55664" lon="4.92348">
        <ele>360.5</ele>
        <time>2012-09-05T07:59:55.35</time>
      </trkpt>
      <trkpt lat="45.55663" lon="4.92356">
        <ele>360.5</ele>
        <time>2012-09-05T07:59:56.35</time>
      </trkpt>
      <trkpt lat="45.5566" lon="4.92365">
        <ele>360.5</ele>
        <time>2012-09-05T07:59:57.32</time>
      </trkpt>
      <trkpt lat="45.55657" lon="4.92372">
        <ele>360.5</ele>
        <time>2012-09-05T07:59:58.34</time>
      </trkpt>
      <trkpt lat="45.55654" lon="4.9238">
        <ele>360.5</ele>
        <time>2012-09-05T07:59:59.32</time>
      </trkpt>
      <trkpt lat="45.55651" lon="4.92386">
        <ele>360</ele>
        <time>2012-09-05T08:00:00.33</time>
      </trkpt>
      <trkpt lat="45.55646" lon="4.92392">
        <ele>359.5</ele>
        <time>2012-09-05T08:00:01.29</time>
      </trkpt>
      <trkpt lat="45.55643" lon="4.92399">
        <ele>360</ele>
        <time>2012-09-05T08:00:02.29</time>
      </trkpt>
      <trkpt lat="45.55639" lon="4.92406">
        <ele>360</ele>
        <time>2012-09-05T08:00:03.28</time>
      </trkpt>
      <trkpt lat="45.55635" lon="4.92412">
        <ele>360.5</ele>
        <time>2012-09-05T08:00:04.28</time>
      </trkpt>
      <trkpt lat="45.55631" lon="4.92418">
        <ele>360.5</ele>
        <time>2012-09-05T08:00:05.28</time>
      </trkpt>
      <trkpt lat="45.55627" lon="4.92425">
        <ele>360</ele>
        <time>2012-09-05T08:00:06.27</time>
      </trkpt>
      <trkpt lat="45.55622" lon="4.92432">
        <ele>359.5</ele>
        <time>2012-09-05T08:00:07.27</time>
      </trkpt>
      <trkpt lat="45.55617" lon="4.92439">
        <ele>359.5</ele>
        <time>2012-09-05T08:00:08.34</time>
      </trkpt>
      <trkpt lat="45.55611" lon="4.92447">
        <ele>359.5</ele>
        <time>2012-09-05T08:00:09.38</time>
      </trkpt>
      <trkpt lat="45.55605" lon="4.92454">
        <ele>359.5</ele>
        <time>2012-09-05T08:00:10.25</time>
      </trkpt>
      <trkpt lat="45.55598" lon="4.92459">
        <ele>359</ele>
        <time>2012-09-05T08:00:11.33</time>
      </trkpt>
      <trkpt lat="45.5559" lon="4.92463">
        <ele>360</ele>
        <time>2012-09-05T08:00:12.36</time>
      </trkpt>
      <trkpt lat="45.55582" lon="4.92466">
        <ele>360</ele>
        <time>2012-09-05T08:00:13.40</time>
      </trkpt>
      <trkpt lat="45.55573" lon="4.92469">
        <ele>359.5</ele>
        <time>2012-09-05T08:00:14.22</time>
      </trkpt>
      <trkpt lat="45.55564" lon="4.92471">
        <ele>359</ele>
        <time>2012-09-05T08:00:15.44</time>
      </trkpt>
      <trkpt lat="45.55544" lon="4.92474">
        <ele>357.5</ele>
        <time>2012-09-05T08:00:17.21</time>
      </trkpt>
      <trkpt lat="45.55535" lon="4.92476">
        <ele>357</ele>
        <time>2012-09-05T08:00:18.35</time>
      </trkpt>
      <trkpt lat="45.55514" lon="4.9248">
        <ele>356</ele>
        <time>2012-09-05T08:00:20.22</time>
      </trkpt>
      <trkpt lat="45.55504" lon="4.92483">
        <ele>355.5</ele>
        <time>2012-09-05T08:00:21.19</time>
      </trkpt>
      <trkpt lat="45.55494" lon="4.92487">
        <ele>355</ele>
        <time>2012-09-05T08:00:22.26</time>
      </trkpt>
      <trkpt lat="45.55475" lon="4.92496">
        <ele>354</ele>
        <time>2012-09-05T08:00:24.27</time>
      </trkpt>
      <trkpt lat="45.55457" lon="4.92509">
        <ele>353.5</ele>
        <time>2012-09-05T08:00:26.22</time>
      </trkpt>
      <trkpt lat="45.55448" lon="4.92516">
        <ele>353.5</ele>
        <time>2012-09-05T08:00:27.32</time>
      </trkpt>
      <trkpt lat="45.5544" lon="4.92523">
        <ele>353</ele>
        <time>2012-09-05T08:00:28.33</time>
      </trkpt>
      <trkpt lat="45.55432" lon="4.9253">
        <ele>352</ele>
        <time>2012-09-05T08:00:29.34</time>
      </trkpt>
      <trkpt lat="45.55423" lon="4.92536">
        <ele>351</ele>
        <time>2012-09-05T08:00:30.42</time>
      </trkpt>
      <trkpt lat="45.55414" lon="4.92543">
        <ele>350</ele>
        <time>2012-09-05T08:00:31.61</time>
      </trkpt>
      <trkpt lat="45.55387" lon="4.92564">
        <ele>348</ele>
        <time>2012-09-05T08:00:35.89</time>
      </trkpt>
      <trkpt lat="45.55369" lon="4.92578">
        <ele>347</ele>
        <time>2012-09-05T08:00:38.54</time>
      </trkpt>
      <trkpt lat="45.55352" lon="4.92595">
        <ele>346</ele>
        <time>2012-09-05T08:00:40.39</time>
      </trkpt>
      <trkpt lat="45.55323" lon="4.92622">
        <ele>341.5</ele>
        <time>2012-09-05T08:00:42.83</time>
      </trkpt>
      <trkpt lat="45.55313" lon="4.92631">
        <ele>341.5</ele>
        <time>2012-09-05T08:00:43.99</time>
      </trkpt>
      <trkpt lat="45.5529" lon="4.92648">
        <ele>340.5</ele>
        <time>2012-09-05T08:00:45.82</time>
      </trkpt>
      <trkpt lat="45.5528" lon="4.92656">
        <ele>341</ele>
        <time>2012-09-05T08:00:46.82</time>
      </trkpt>
      <trkpt lat="45.5526" lon="4.9267">
        <ele>340</ele>
        <time>2012-09-05T08:00:48.81</time>
      </trkpt>
      <trkpt lat="45.5525" lon="4.92675">
        <ele>339.5</ele>
        <time>2012-09-05T08:00:50.18</time>
      </trkpt>
      <trkpt lat="45.5523" lon="4.92685">
        <ele>340</ele>
        <time>2012-09-05T08:00:51.80</time>
      </trkpt>
      <trkpt lat="45.5522" lon="4.92688">
        <ele>339.5</ele>
        <time>2012-09-05T08:00:53.02</time>
      </trkpt>
      <trkpt lat="45.55201" lon="4.92695">
        <ele>339</ele>
        <time>2012-09-05T08:00:55.30</time>
      </trkpt>
      <trkpt lat="45.55182" lon="4.92699">
        <ele>341</ele>
        <time>2012-09-05T08:00:56.78</time>
      </trkpt>
      <trkpt lat="45.55161" lon="4.92699">
        <ele>339.5</ele>
        <time>2012-09-05T08:00:58.77</time>
      </trkpt>
      <trkpt lat="45.55151" lon="4.92697">
        <ele>339</ele>
        <time>2012-09-05T08:00:59.81</time>
      </trkpt>
      <trkpt lat="45.5514" lon="4.92696">
        <ele>339</ele>
        <time>2012-09-05T08:01:00.95</time>
      </trkpt>
      <trkpt lat="45.5513" lon="4.92695">
        <ele>338.5</ele>
        <time>2012-09-05T08:01:02.57</time>
      </trkpt>
      <trkpt lat="45.55112" lon="4.92693">
        <ele>337</ele>
        <time>2012-09-05T08:01:04.11</time>
      </trkpt>
      <trkpt lat="45.55104" lon="4.92693">
        <ele>337</ele>
        <time>2012-09-05T08:01:05.11</time>
      </trkpt>
      <trkpt lat="45.55089" lon="4.92691">
        <ele>337.5</ele>
        <time>2012-09-05T08:01:07.11</time>
      </trkpt>
      <trkpt lat="45.55068" lon="4.92677">
        <ele>338.5</ele>
        <time>2012-09-05T08:01:09.91</time>
      </trkpt>
      <trkpt lat="45.55063" lon="4.9267">
        <ele>339</ele>
        <time>2012-09-05T08:01:10.83</time>
      </trkpt>
      <trkpt lat="45.55059" lon="4.92663">
        <ele>339.5</ele>
        <time>2012-09-05T08:01:11.86</time>
      </trkpt>
      <trkpt lat="45.55052" lon="4.92646">
        <ele>341</ele>
        <time>2012-09-05T08:01:13.83</time>
      </trkpt>
      <trkpt lat="45.55043" lon="4.9263">
        <ele>342</ele>
        <time>2012-09-05T08:01:15.85</time>
      </trkpt>
      <trkpt lat="45.55037" lon="4.92621">
        <ele>342</ele>
        <time>2012-09-05T08:01:16.81</time>
      </trkpt>
      <trkpt lat="45.5503" lon="4.92614">
        <ele>340.5</ele>
        <time>2012-09-05T08:01:17.81</time>
      </trkpt>
      <trkpt lat="45.55023" lon="4.92607">
        <ele>339</ele>
        <time>2012-09-05T08:01:18.82</time>
      </trkpt>
      <trkpt lat="45.55014" lon="4.926">
        <ele>337</ele>
        <time>2012-09-05T08:01:20.11</time>
      </trkpt>
      <trkpt lat="45.54996" lon="4.92586">
        <ele>334.5</ele>
        <time>2012-09-05T08:01:21.79</time>
      </trkpt>
      <trkpt lat="45.54986" lon="4.9258">
        <ele>335</ele>
        <time>2012-09-05T08:01:22.85</time>
      </trkpt>
      <trkpt lat="45.54976" lon="4.92574">
        <ele>334</ele>
        <time>2012-09-05T08:01:23.78</time>
      </trkpt>
      <trkpt lat="45.54965" lon="4.92569">
        <ele>332</ele>
        <time>2012-09-05T08:01:24.78</time>
      </trkpt>
      <trkpt lat="45.54953" lon="4.92563">
        <ele>330.5</ele>
        <time>2012-09-05T08:01:25.87</time>
      </trkpt>
      <trkpt lat="45.54942" lon="4.92557">
        <ele>329</ele>
        <time>2012-09-05T08:01:26.76</time>
      </trkpt>
      <trkpt lat="45.54932" lon="4.92552">
        <ele>327.5</ele>
        <time>2012-09-05T08:01:27.87</time>
      </trkpt>
      <trkpt lat="45.54921" lon="4.92546">
        <ele>326</ele>
        <time>2012-09-05T08:01:28.75</time>
      </trkpt>
      <trkpt lat="45.54909" lon="4.9254">
        <ele>325</ele>
        <time>2012-09-05T08:01:29.74</time>
      </trkpt>
      <trkpt lat="45.54898" lon="4.92534">
        <ele>324</ele>
        <time>2012-09-05T08:01:30.73</time>
      </trkpt>
      <trkpt lat="45.54887" lon="4.92527">
        <ele>323</ele>
        <time>2012-09-05T08:01:31.72</time>
      </trkpt>
      <trkpt lat="45.54877" lon="4.92522">
        <ele>321.5</ele>
        <time>2012-09-05T08:01:32.73</time>
      </trkpt>
      <trkpt lat="45.54866" lon="4.92517">
        <ele>320.5</ele>
        <time>2012-09-05T08:01:33.71</time>
      </trkpt>
      <trkpt lat="45.54856" lon="4.92513">
        <ele>320.5</ele>
        <time>2012-09-05T08:01:34.70</time>
      </trkpt>
      <trkpt lat="45.54848" lon="4.92507">
        <ele>320</ele>
        <time>2012-09-05T08:01:35.70</time>
      </trkpt>
      <trkpt lat="45.54834" lon="4.92495">
        <ele>320.5</ele>
        <time>2012-09-05T08:01:37.70</time>
      </trkpt>
      <trkpt lat="45.54828" lon="4.92488">
        <ele>319</ele>
        <time>2012-09-05T08:01:38.70</time>
      </trkpt>
      <trkpt lat="45.54823" lon="4.92481">
        <ele>319.5</ele>
        <time>2012-09-05T08:01:39.70</time>
      </trkpt>
      <trkpt lat="45.54814" lon="4.9246">
        <ele>319.5</ele>
        <time>2012-09-05T08:01:41.69</time>
      </trkpt>
      <trkpt lat="45.54812" lon="4.9245">
        <ele>320.5</ele>
        <time>2012-09-05T08:01:42.70</time>
      </trkpt>
      <trkpt lat="45.5481" lon="4.92437">
        <ele>321</ele>
        <time>2012-09-05T08:01:43.68</time>
      </trkpt>
      <trkpt lat="45.54808" lon="4.92423">
        <ele>320</ele>
        <time>2012-09-05T08:01:44.69</time>
      </trkpt>
      <trkpt lat="45.54802" lon="4.92395">
        <ele>317</ele>
        <time>2012-09-05T08:01:46.67</time>
      </trkpt>
      <trkpt lat="45.54798" lon="4.92381">
        <ele>314.5</ele>
        <time>2012-09-05T08:01:47.67</time>
      </trkpt>
      <trkpt lat="45.54793" lon="4.92368">
        <ele>313.5</ele>
        <time>2012-09-05T08:01:48.67</time>
      </trkpt>
      <trkpt lat="45.54786" lon="4.92355">
        <ele>312</ele>
        <time>2012-09-05T08:01:49.67</time>
      </trkpt>
      <trkpt lat="45.54779" lon="4.92342">
        <ele>311</ele>
        <time>2012-09-05T08:01:50.67</time>
      </trkpt>
      <trkpt lat="45.54765" lon="4.92317">
        <ele>309</ele>
        <time>2012-09-05T08:01:52.65</time>
      </trkpt>
      <trkpt lat="45.5476" lon="4.92302">
        <ele>307.5</ele>
        <time>2012-09-05T08:01:53.65</time>
      </trkpt>
      <trkpt lat="45.54757" lon="4.92288">
        <ele>306</ele>
        <time>2012-09-05T08:01:54.67</time>
      </trkpt>
      <trkpt lat="45.54757" lon="4.92273">
        <ele>304.5</ele>
        <time>2012-09-05T08:01:55.64</time>
      </trkpt>
      <trkpt lat="45.54762" lon="4.92245">
        <ele>302.5</ele>
        <time>2012-09-05T08:01:57.63</time>
      </trkpt>
      <trkpt lat="45.54768" lon="4.92228">
        <ele>300.5</ele>
        <time>2012-09-05T08:01:58.62</time>
      </trkpt>
      <trkpt lat="45.54772" lon="4.9221">
        <ele>298</ele>
        <time>2012-09-05T08:01:59.61</time>
      </trkpt>
      <trkpt lat="45.54777" lon="4.92192">
        <ele>297</ele>
        <time>2012-09-05T08:02:00.60</time>
      </trkpt>
      <trkpt lat="45.54783" lon="4.92176">
        <ele>295.5</ele>
        <time>2012-09-05T08:02:01.60</time>
      </trkpt>
      <trkpt lat="45.54794" lon="4.92148">
        <ele>294</ele>
        <time>2012-09-05T08:02:03.69</time>
      </trkpt>
      <trkpt lat="45.54803" lon="4.92128">
        <ele>294.5</ele>
        <time>2012-09-05T08:02:05.59</time>
      </trkpt>
      <trkpt lat="45.54809" lon="4.92119">
        <ele>293.5</ele>
        <time>2012-09-05T08:02:06.60</time>
      </trkpt>
      <trkpt lat="45.54813" lon="4.9211">
        <ele>292.5</ele>
        <time>2012-09-05T08:02:07.58</time>
      </trkpt>
      <trkpt lat="45.54816" lon="4.92102">
        <ele>291.5</ele>
        <time>2012-09-05T08:02:08.60</time>
      </trkpt>
      <trkpt lat="45.54817" lon="4.92093">
        <ele>290</ele>
        <time>2012-09-05T08:02:09.58</time>
      </trkpt>
      <trkpt lat="45.54816" lon="4.92086">
        <ele>289</ele>
        <time>2012-09-05T08:02:10.57</time>
      </trkpt>
      <trkpt lat="45.54812" lon="4.9208">
        <ele>289</ele>
        <time>2012-09-05T08:02:11.57</time>
      </trkpt>
      <trkpt lat="45.54805" lon="4.92076">
        <ele>288.5</ele>
        <time>2012-09-05T08:02:12.85</time>
      </trkpt>
      <trkpt lat="45.54798" lon="4.92073">
        <ele>288</ele>
        <time>2012-09-05T08:02:13.57</time>
      </trkpt>
      <trkpt lat="45.5479" lon="4.9207">
        <ele>286</ele>
        <time>2012-09-05T08:02:14.56</time>
      </trkpt>
      <trkpt lat="45.5478" lon="4.92066">
        <ele>285</ele>
        <time>2012-09-05T08:02:15.56</time>
      </trkpt>
      <trkpt lat="45.5477" lon="4.92063">
        <ele>283</ele>
        <time>2012-09-05T08:02:16.89</time>
      </trkpt>
      <trkpt lat="45.54748" lon="4.92056">
        <ele>281</ele>
        <time>2012-09-05T08:02:18.56</time>
      </trkpt>
      <trkpt lat="45.54722" lon="4.92044">
        <ele>279</ele>
        <time>2012-09-05T08:02:21.84</time>
      </trkpt>
      <trkpt lat="45.5471" lon="4.9204">
        <ele>277.5</ele>
        <time>2012-09-05T08:02:22.84</time>
      </trkpt>
      <trkpt lat="45.54683" lon="4.92038">
        <ele>275.5</ele>
        <time>2012-09-05T08:02:24.83</time>
      </trkpt>
      <trkpt lat="45.54671" lon="4.9204">
        <ele>275.5</ele>
        <time>2012-09-05T08:02:25.84</time>
      </trkpt>
      <trkpt lat="45.54648" lon="4.9205">
        <ele>274.5</ele>
        <time>2012-09-05T08:02:27.83</time>
      </trkpt>
      <trkpt lat="45.54638" lon="4.92057">
        <ele>274.5</ele>
        <time>2012-09-05T08:02:28.82</time>
      </trkpt>
      <trkpt lat="45.54629" lon="4.92064">
        <ele>273.5</ele>
        <time>2012-09-05T08:02:29.82</time>
      </trkpt>
      <trkpt lat="45.5462" lon="4.92072">
        <ele>273</ele>
        <time>2012-09-05T08:02:30.82</time>
      </trkpt>
      <trkpt lat="45.54612" lon="4.92081">
        <ele>272.5</ele>
        <time>2012-09-05T08:02:31.81</time>
      </trkpt>
      <trkpt lat="45.54603" lon="4.92089">
        <ele>272</ele>
        <time>2012-09-05T08:02:32.80</time>
      </trkpt>
      <trkpt lat="45.54595" lon="4.92097">
        <ele>271.5</ele>
        <time>2012-09-05T08:02:33.79</time>
      </trkpt>
      <trkpt lat="45.54586" lon="4.92105">
        <ele>270.5</ele>
        <time>2012-09-05T08:02:34.78</time>
      </trkpt>
      <trkpt lat="45.54577" lon="4.92112">
        <ele>270</ele>
        <time>2012-09-05T08:02:35.78</time>
      </trkpt>
      <trkpt lat="45.54568" lon="4.92119">
        <ele>270</ele>
        <time>2012-09-05T08:02:36.77</time>
      </trkpt>
      <trkpt lat="45.5456" lon="4.92125">
        <ele>269.5</ele>
        <time>2012-09-05T08:02:37.77</time>
      </trkpt>
      <trkpt lat="45.54551" lon="4.9213">
        <ele>269</ele>
        <time>2012-09-05T08:02:38.78</time>
      </trkpt>
      <trkpt lat="45.54542" lon="4.92135">
        <ele>268.5</ele>
        <time>2012-09-05T08:02:39.78</time>
      </trkpt>
      <trkpt lat="45.54534" lon="4.9214">
        <ele>268.5</ele>
        <time>2012-09-05T08:02:40.80</time>
      </trkpt>
      <trkpt lat="45.54526" lon="4.92145">
        <ele>268</ele>
        <time>2012-09-05T08:02:41.75</time>
      </trkpt>
      <trkpt lat="45.54519" lon="4.92149">
        <ele>267.5</ele>
        <time>2012-09-05T08:02:42.77</time>
      </trkpt>
      <trkpt lat="45.54512" lon="4.92153">
        <ele>267.5</ele>
        <time>2012-09-05T08:02:43.74</time>
      </trkpt>
      <trkpt lat="45.54506" lon="4.92157">
        <ele>267.5</ele>
        <time>2012-09-05T08:02:44.73</time>
      </trkpt>
      <trkpt lat="45.545" lon="4.92161">
        <ele>267.5</ele>
        <time>2012-09-05T08:02:45.72</time>
      </trkpt>
      <trkpt lat="45.54496" lon="4.92164">
        <ele>267</ele>
        <time>2012-09-05T08:02:46.73</time>
      </trkpt>
      <trkpt lat="45.54492" lon="4.92166">
        <ele>267</ele>
        <time>2012-09-05T08:02:47.71</time>
      </trkpt>
      <trkpt lat="45.54489" lon="4.92168">
        <ele>266</ele>
        <time>2012-09-05T08:02:48.70</time>
      </trkpt>
      <trkpt lat="45.54486" lon="4.92169">
        <ele>265.5</ele>
        <time>2012-09-05T08:02:49.69</time>
      </trkpt>
      <trkpt lat="45.54484" lon="4.92169">
        <ele>265.5</ele>
        <time>2012-09-05T08:02:50.69</time>
      </trkpt>
      <trkpt lat="45.54483" lon="4.9217">
        <ele>265</ele>
        <time>2012-09-05T08:02:51.68</time>
      </trkpt>
      <trkpt lat="45.54483" lon="4.9217">
        <ele>265</ele>
        <time>2012-09-05T08:02:52.68</time>
      </trkpt>
      <trkpt lat="45.54482" lon="4.9217">
        <ele>265</ele>
        <time>2012-09-05T08:02:53.67</time>
      </trkpt>
      <trkpt lat="45.54482" lon="4.9217">
        <ele>265</ele>
        <time>2012-09-05T08:02:54.67</time>
      </trkpt>
      <trkpt lat="45.54483" lon="4.9217">
        <ele>265</ele>
        <time>2012-09-05T08:02:55.68</time>
      </trkpt>
      <trkpt lat="45.54483" lon="4.9217">
        <ele>264.5</ele>
        <time>2012-09-05T08:02:56.66</time>
      </trkpt>
      <trkpt lat="45.54481" lon="4.92171">
        <ele>264.5</ele>
        <time>2012-09-05T08:02:57.66</time>
      </trkpt>
      <trkpt lat="45.5448" lon="4.92173">
        <ele>264</ele>
        <time>2012-09-05T08:02:58.65</time>
      </trkpt>
      <trkpt lat="45.54479" lon="4.92174">
        <ele>264</ele>
        <time>2012-09-05T08:02:59.68</time>
      </trkpt>
      <trkpt lat="45.54478" lon="4.92177">
        <ele>264.5</ele>
        <time>2012-09-05T08:03:00.65</time>
      </trkpt>
      <trkpt lat="45.54478" lon="4.9218">
        <ele>264.5</ele>
        <time>2012-09-05T08:03:01.68</time>
      </trkpt>
      <trkpt lat="45.54479" lon="4.92183">
        <ele>264.5</ele>
        <time>2012-09-05T08:03:02.64</time>
      </trkpt>
      <trkpt lat="45.54479" lon="4.92186">
        <ele>264</ele>
        <time>2012-09-05T08:03:03.63</time>
      </trkpt>
      <trkpt lat="45.54479" lon="4.9219">
        <ele>265</ele>
        <time>2012-09-05T08:03:04.64</time>
      </trkpt>
      <trkpt lat="45.5448" lon="4.92194">
        <ele>265</ele>
        <time>2012-09-05T08:03:05.64</time>
      </trkpt>
      <trkpt lat="45.54481" lon="4.92199">
        <ele>264.5</ele>
        <time>2012-09-05T08:03:06.64</time>
      </trkpt>
      <trkpt lat="45.54482" lon="4.92203">
        <ele>264</ele>
        <time>2012-09-05T08:03:07.61</time>
      </trkpt>
      <trkpt lat="45.54483" lon="4.92209">
        <ele>265</ele>
        <time>2012-09-05T08:03:08.62</time>
      </trkpt>
      <trkpt lat="45.54484" lon="4.92214">
        <ele>264.5</ele>
        <time>2012-09-05T08:03:09.61</time>
      </trkpt>
      <trkpt lat="45.54486" lon="4.9222">
        <ele>264</ele>
        <time>2012-09-05T08:03:10.61</time>
      </trkpt>
      <trkpt lat="45.54488" lon="4.92226">
        <ele>264</ele>
        <time>2012-09-05T08:03:11.61</time>
      </trkpt>
      <trkpt lat="45.5449" lon="4.92233">
        <ele>263.5</ele>
        <time>2012-09-05T08:03:12.65</time>
      </trkpt>
      <trkpt lat="45.54492" lon="4.9224">
        <ele>263</ele>
        <time>2012-09-05T08:03:13.60</time>
      </trkpt>
      <trkpt lat="45.54495" lon="4.92247">
        <ele>263</ele>
        <time>2012-09-05T08:03:14.59</time>
      </trkpt>
      <trkpt lat="45.54498" lon="4.92254">
        <ele>262.5</ele>
        <time>2012-09-05T08:03:15.59</time>
      </trkpt>
      <trkpt lat="45.54501" lon="4.92262">
        <ele>261.5</ele>
        <time>2012-09-05T08:03:16.58</time>
      </trkpt>
      <trkpt lat="45.54503" lon="4.92269">
        <ele>262</ele>
        <time>2012-09-05T08:03:17.58</time>
      </trkpt>
      <trkpt lat="45.54505" lon="4.92276">
        <ele>262</ele>
        <time>2012-09-05T08:03:18.58</time>
      </trkpt>
      <trkpt lat="45.54507" lon="4.92284">
        <ele>262</ele>
        <time>2012-09-05T08:03:19.58</time>
      </trkpt>
      <trkpt lat="45.5451" lon="4.92291">
        <ele>262</ele>
        <time>2012-09-05T08:03:20.57</time>
      </trkpt>
      <trkpt lat="45.54512" lon="4.92298">
        <ele>262</ele>
        <time>2012-09-05T08:03:21.57</time>
      </trkpt>
      <trkpt lat="45.54515" lon="4.92305">
        <ele>262</ele>
        <time>2012-09-05T08:03:22.56</time>
      </trkpt>
      <trkpt lat="45.54517" lon="4.92312">
        <ele>262</ele>
        <time>2012-09-05T08:03:23.57</time>
      </trkpt>
      <trkpt lat="45.54519" lon="4.92319">
        <ele>262</ele>
        <time>2012-09-05T08:03:24.57</time>
      </trkpt>
      <trkpt lat="45.5452" lon="4.92326">
        <ele>262.5</ele>
        <time>2012-09-05T08:03:25.56</time>
      </trkpt>
      <trkpt lat="45.54521" lon="4.92334">
        <ele>262.5</ele>
        <time>2012-09-05T08:03:26.56</time>
      </trkpt>
      <trkpt lat="45.54522" lon="4.92341">
        <ele>263</ele>
        <time>2012-09-05T08:03:27.56</time>
      </trkpt>
      <trkpt lat="45.54523" lon="4.92348">
        <ele>263.5</ele>
        <time>2012-09-05T08:03:28.56</time>
      </trkpt>
      <trkpt lat="45.54523" lon="4.92356">
        <ele>263.5</ele>
        <time>2012-09-05T08:03:29.56</time>
      </trkpt>
      <trkpt lat="45.54524" lon="4.92363">
        <ele>263.5</ele>
        <time>2012-09-05T08:03:30.56</time>
      </trkpt>
      <trkpt lat="45.54523" lon="4.9237">
        <ele>264</ele>
        <time>2012-09-05T08:03:31.55</time>
      </trkpt>
      <trkpt lat="45.54523" lon="4.92377">
        <ele>264</ele>
        <time>2012-09-05T08:03:32.55</time>
      </trkpt>
      <trkpt lat="45.54523" lon="4.92383">
        <ele>264</ele>
        <time>2012-09-05T08:03:33.55</time>
      </trkpt>
      <trkpt lat="45.54523" lon="4.92389">
        <ele>264</ele>
        <time>2012-09-05T08:03:34.54</time>
      </trkpt>
      <trkpt lat="45.54523" lon="4.92395">
        <ele>264</ele>
        <time>2012-09-05T08:03:35.54</time>
      </trkpt>
      <trkpt lat="45.54523" lon="4.92402">
        <ele>264</ele>
        <time>2012-09-05T08:03:36.53</time>
      </trkpt>
      <trkpt lat="45.54523" lon="4.92409">
        <ele>264</ele>
        <time>2012-09-05T08:03:37.53</time>
      </trkpt>
      <trkpt lat="45.54524" lon="4.92416">
        <ele>264</ele>
        <time>2012-09-05T08:03:38.52</time>
      </trkpt>
      <trkpt lat="45.54524" lon="4.92423">
        <ele>264</ele>
        <time>2012-09-05T08:03:39.52</time>
      </trkpt>
      <trkpt lat="45.54525" lon="4.9243">
        <ele>264</ele>
        <time>2012-09-05T08:03:40.51</time>
      </trkpt>
      <trkpt lat="45.54526" lon="4.92437">
        <ele>263.5</ele>
        <time>2012-09-05T08:03:41.51</time>
      </trkpt>
      <trkpt lat="45.54527" lon="4.92444">
        <ele>263.5</ele>
        <time>2012-09-05T08:03:42.50</time>
      </trkpt>
      <trkpt lat="45.54529" lon="4.92452">
        <ele>263</ele>
        <time>2012-09-05T08:03:43.50</time>
      </trkpt>
      <trkpt lat="45.54531" lon="4.92459">
        <ele>262.5</ele>
        <time>2012-09-05T08:03:44.50</time>
      </trkpt>
      <trkpt lat="45.54533" lon="4.92467">
        <ele>262</ele>
        <time>2012-09-05T08:03:45.50</time>
      </trkpt>
      <trkpt lat="45.54535" lon="4.92474">
        <ele>262</ele>
        <time>2012-09-05T08:03:46.50</time>
      </trkpt>
      <trkpt lat="45.54538" lon="4.9248">
        <ele>261.5</ele>
        <time>2012-09-05T08:03:47.49</time>
      </trkpt>
      <trkpt lat="45.5454" lon="4.92488">
        <ele>261.5</ele>
        <time>2012-09-05T08:03:48.49</time>
      </trkpt>
      <trkpt lat="45.54546" lon="4.92502">
        <ele>261</ele>
        <time>2012-09-05T08:03:49.78</time>
      </trkpt>
      <trkpt lat="45.54549" lon="4.92509">
        <ele>261</ele>
        <time>2012-09-05T08:03:50.15</time>
      </trkpt>
      <trkpt lat="45.54553" lon="4.92516">
        <ele>260.5</ele>
        <time>2012-09-05T08:03:51.09</time>
      </trkpt>
      <trkpt lat="45.54556" lon="4.92523">
        <ele>260</ele>
        <time>2012-09-05T08:03:52.09</time>
      </trkpt>
      <trkpt lat="45.54559" lon="4.9253">
        <ele>260</ele>
        <time>2012-09-05T08:03:53.09</time>
      </trkpt>
      <trkpt lat="45.54563" lon="4.92536">
        <ele>260.5</ele>
        <time>2012-09-05T08:03:54.09</time>
      </trkpt>
      <trkpt lat="45.54566" lon="4.92543">
        <ele>260.5</ele>
        <time>2012-09-05T08:03:55.08</time>
      </trkpt>
      <trkpt lat="45.54569" lon="4.9255">
        <ele>260</ele>
        <time>2012-09-05T08:03:56.08</time>
      </trkpt>
      <trkpt lat="45.54573" lon="4.92557">
        <ele>260</ele>
        <time>2012-09-05T08:03:57.08</time>
      </trkpt>
      <trkpt lat="45.54576" lon="4.92565">
        <ele>260</ele>
        <time>2012-09-05T08:03:58.08</time>
      </trkpt>
      <trkpt lat="45.5458" lon="4.92572">
        <ele>259.5</ele>
        <time>2012-09-05T08:03:59.08</time>
      </trkpt>
      <trkpt lat="45.54583" lon="4.92579">
        <ele>259.5</ele>
        <time>2012-09-05T08:04:00.08</time>
      </trkpt>
      <trkpt lat="45.54587" lon="4.92586">
        <ele>259.5</ele>
        <time>2012-09-05T08:04:01.08</time>
      </trkpt>
      <trkpt lat="45.5459" lon="4.92593">
        <ele>259.5</ele>
        <time>2012-09-05T08:04:02.07</time>
      </trkpt>
      <trkpt lat="45.54594" lon="4.926">
        <ele>259.5</ele>
        <time>2012-09-05T08:04:03.07</time>
      </trkpt>
      <trkpt lat="45.54598" lon="4.92607">
        <ele>259.5</ele>
        <time>2012-09-05T08:04:04.07</time>
      </trkpt>
      <trkpt lat="45.54601" lon="4.92614">
        <ele>259</ele>
        <time>2012-09-05T08:04:05.07</time>
      </trkpt>
      <trkpt lat="45.54605" lon="4.92621">
        <ele>259</ele>
        <time>2012-09-05T08:04:06.06</time>
      </trkpt>
      <trkpt lat="45.54609" lon="4.92628">
        <ele>259.5</ele>
        <time>2012-09-05T08:04:07.05</time>
      </trkpt>
      <trkpt lat="45.54612" lon="4.92636">
        <ele>260</ele>
        <time>2012-09-05T08:04:08.05</time>
      </trkpt>
      <trkpt lat="45.54616" lon="4.92643">
        <ele>259.5</ele>
        <time>2012-09-05T08:04:09.05</time>
      </trkpt>
      <trkpt lat="45.54619" lon="4.9265">
        <ele>259</ele>
        <time>2012-09-05T08:04:10.04</time>
      </trkpt>
      <trkpt lat="45.54623" lon="4.92658">
        <ele>259.5</ele>
        <time>2012-09-05T08:04:11.03</time>
      </trkpt>
      <trkpt lat="45.54626" lon="4.92665">
        <ele>259.5</ele>
        <time>2012-09-05T08:04:12.03</time>
      </trkpt>
      <trkpt lat="45.5463" lon="4.92673">
        <ele>259.5</ele>
        <time>2012-09-05T08:04:13.52</time>
      </trkpt>
      <trkpt lat="45.54634" lon="4.92681">
        <ele>259</ele>
        <time>2012-09-05T08:04:14.08</time>
      </trkpt>
      <trkpt lat="45.54637" lon="4.92689">
        <ele>259.5</ele>
        <time>2012-09-05T08:04:15.08</time>
      </trkpt>
      <trkpt lat="45.54641" lon="4.92696">
        <ele>259.5</ele>
        <time>2012-09-05T08:04:16.07</time>
      </trkpt>
      <trkpt lat="45.54644" lon="4.92704">
        <ele>259</ele>
        <time>2012-09-05T08:04:17.07</time>
      </trkpt>
      <trkpt lat="45.54647" lon="4.92712">
        <ele>259</ele>
        <time>2012-09-05T08:04:18.07</time>
      </trkpt>
      <trkpt lat="45.54657" lon="4.92736">
        <ele>260</ele>
        <time>2012-09-05T08:04:21.12</time>
      </trkpt>
      <trkpt lat="45.54666" lon="4.92761">
        <ele>259.5</ele>
        <time>2012-09-05T08:04:23.16</time>
      </trkpt>
      <trkpt lat="45.54669" lon="4.92769">
        <ele>259.5</ele>
        <time>2012-09-05T08:04:24.16</time>
      </trkpt>
      <trkpt lat="45.54672" lon="4.92777">
        <ele>259.5</ele>
        <time>2012-09-05T08:04:25.16</time>
      </trkpt>
      <trkpt lat="45.54675" lon="4.92786">
        <ele>259.5</ele>
        <time>2012-09-05T08:04:26.16</time>
      </trkpt>
      <trkpt lat="45.54678" lon="4.92794">
        <ele>259.5</ele>
        <time>2012-09-05T08:04:27.16</time>
      </trkpt>
      <trkpt lat="45.54681" lon="4.92802">
        <ele>259.5</ele>
        <time>2012-09-05T08:04:28.16</time>
      </trkpt>
      <trkpt lat="45.54684" lon="4.9281">
        <ele>259.5</ele>
        <time>2012-09-05T08:04:29.16</time>
      </trkpt>
      <trkpt lat="45.54687" lon="4.92818">
        <ele>259.5</ele>
        <time>2012-09-05T08:04:30.16</time>
      </trkpt>
      <trkpt lat="45.5469" lon="4.92826">
        <ele>260</ele>
        <time>2012-09-05T08:04:31.15</time>
      </trkpt>
      <trkpt lat="45.54692" lon="4.92833">
        <ele>261</ele>
        <time>2012-09-05T08:04:32.15</time>
      </trkpt>
      <trkpt lat="45.54696" lon="4.92841">
        <ele>260.5</ele>
        <time>2012-09-05T08:04:33.14</time>
      </trkpt>
      <trkpt lat="45.547" lon="4.92847">
        <ele>260.5</ele>
        <time>2012-09-05T08:04:34.14</time>
      </trkpt>
      <trkpt lat="45.54703" lon="4.92854">
        <ele>259.5</ele>
        <time>2012-09-05T08:04:35.14</time>
      </trkpt>
      <trkpt lat="45.54705" lon="4.9286">
        <ele>259</ele>
        <time>2012-09-05T08:04:36.14</time>
      </trkpt>
      <trkpt lat="45.54706" lon="4.92866">
        <ele>259</ele>
        <time>2012-09-05T08:04:37.14</time>
      </trkpt>
      <trkpt lat="45.54707" lon="4.92871">
        <ele>259.5</ele>
        <time>2012-09-05T08:04:38.14</time>
      </trkpt>
      <trkpt lat="45.54707" lon="4.92875">
        <ele>259.5</ele>
        <time>2012-09-05T08:04:39.14</time>
      </trkpt>
      <trkpt lat="45.54707" lon="4.9288">
        <ele>259</ele>
        <time>2012-09-05T08:04:40.14</time>
      </trkpt>
      <trkpt lat="45.54707" lon="4.92884">
        <ele>258.5</ele>
        <time>2012-09-05T08:04:41.14</time>
      </trkpt>
      <trkpt lat="45.54706" lon="4.92887">
        <ele>258.5</ele>
        <time>2012-09-05T08:04:42.14</time>
      </trkpt>
      <trkpt lat="45.54706" lon="4.9289">
        <ele>258.5</ele>
        <time>2012-09-05T08:04:43.14</time>
      </trkpt>
      <trkpt lat="45.54706" lon="4.92893">
        <ele>258.5</ele>
        <time>2012-09-05T08:04:44.13</time>
      </trkpt>
      <trkpt lat="45.54705" lon="4.92895">
        <ele>258</ele>
        <time>2012-09-05T08:04:45.13</time>
      </trkpt>
      <trkpt lat="45.54705" lon="4.92897">
        <ele>258.5</ele>
        <time>2012-09-05T08:04:46.12</time>
      </trkpt>
      <trkpt lat="45.54704" lon="4.92897">
        <ele>259</ele>
        <time>2012-09-05T08:04:47.12</time>
      </trkpt>
      <trkpt lat="45.54704" lon="4.92897">
        <ele>259</ele>
        <time>2012-09-05T08:04:48.12</time>
      </trkpt>
      <trkpt lat="45.54704" lon="4.92897">
        <ele>259</ele>
        <time>2012-09-05T08:04:49.12</time>
      </trkpt>
      <trkpt lat="45.54704" lon="4.92897">
        <ele>258.5</ele>
        <time>2012-09-05T08:04:52.39</time>
      </trkpt>
      <trkpt lat="45.54704" lon="4.92897">
        <ele>258.5</ele>
        <time>2012-09-05T08:04:53.13</time>
      </trkpt>
      <trkpt lat="45.54704" lon="4.92897">
        <ele>258.5</ele>
        <time>2012-09-05T08:04:54.13</time>
      </trkpt>
      <trkpt lat="45.54704" lon="4.92897">
        <ele>258.5</ele>
        <time>2012-09-05T08:04:55.13</time>
      </trkpt>
      <trkpt lat="45.54704" lon="4.92897">
        <ele>258.5</ele>
        <time>2012-09-05T08:04:56.12</time>
      </trkpt>
      <trkpt lat="45.54704" lon="4.92897">
        <ele>258</ele>
        <time>2012-09-05T08:04:57.12</time>
      </trkpt>
      <trkpt lat="45.54704" lon="4.92897">
        <ele>258</ele>
        <time>2012-09-05T08:04:58.11</time>
      </trkpt>
      <trkpt lat="45.54704" lon="4.92897">
        <ele>259</ele>
        <time>2012-09-05T08:04:59.11</time>
      </trkpt>
      <trkpt lat="45.54704" lon="4.92899">
        <ele>259.5</ele>
        <time>2012-09-05T08:05:00.10</time>
      </trkpt>
      <trkpt lat="45.54703" lon="4.92902">
        <ele>259</ele>
        <time>2012-09-05T08:05:01.10</time>
      </trkpt>
      <trkpt lat="45.54702" lon="4.92906">
        <ele>259</ele>
        <time>2012-09-05T08:05:02.10</time>
      </trkpt>
      <trkpt lat="45.54701" lon="4.9291">
        <ele>258.5</ele>
        <time>2012-09-05T08:05:03.10</time>
      </trkpt>
      <trkpt lat="45.54701" lon="4.92916">
        <ele>259</ele>
        <time>2012-09-05T08:05:04.10</time>
      </trkpt>
      <trkpt lat="45.54702" lon="4.9292">
        <ele>258.5</ele>
        <time>2012-09-05T08:05:05.10</time>
      </trkpt>
      <trkpt lat="45.54705" lon="4.92924">
        <ele>258.5</ele>
        <time>2012-09-05T08:05:06.10</time>
      </trkpt>
      <trkpt lat="45.54708" lon="4.92926">
        <ele>258.5</ele>
        <time>2012-09-05T08:05:07.09</time>
      </trkpt>
      <trkpt lat="45.54712" lon="4.92929">
        <ele>258.5</ele>
        <time>2012-09-05T08:05:08.09</time>
      </trkpt>
      <trkpt lat="45.54716" lon="4.92932">
        <ele>258.5</ele>
        <time>2012-09-05T08:05:09.08</time>
      </trkpt>
      <trkpt lat="45.54721" lon="4.92936">
        <ele>258.5</ele>
        <time>2012-09-05T08:05:10.08</time>
      </trkpt>
      <trkpt lat="45.54726" lon="4.9294">
        <ele>258.5</ele>
        <time>2012-09-05T08:05:11.07</time>
      </trkpt>
      <trkpt lat="45.54731" lon="4.92944">
        <ele>259.5</ele>
        <time>2012-09-05T08:05:12.07</time>
      </trkpt>
      <trkpt lat="45.54736" lon="4.92949">
        <ele>259.5</ele>
        <time>2012-09-05T08:05:13.07</time>
      </trkpt>
      <trkpt lat="45.54742" lon="4.92953">
        <ele>260</ele>
        <time>2012-09-05T08:05:14.07</time>
      </trkpt>
      <trkpt lat="45.54747" lon="4.92957">
        <ele>260</ele>
        <time>2012-09-05T08:05:15.07</time>
      </trkpt>
      <trkpt lat="45.54753" lon="4.92962">
        <ele>259.5</ele>
        <time>2012-09-05T08:05:16.06</time>
      </trkpt>
      <trkpt lat="45.54758" lon="4.92967">
        <ele>259.5</ele>
        <time>2012-09-05T08:05:17.06</time>
      </trkpt>
      <trkpt lat="45.54763" lon="4.92971">
        <ele>259</ele>
        <time>2012-09-05T08:05:18.06</time>
      </trkpt>
      <trkpt lat="45.54769" lon="4.92976">
        <ele>259</ele>
        <time>2012-09-05T08:05:19.06</time>
      </trkpt>
      <trkpt lat="45.54774" lon="4.9298">
        <ele>259</ele>
        <time>2012-09-05T08:05:20.06</time>
      </trkpt>
      <trkpt lat="45.5478" lon="4.92984">
        <ele>259</ele>
        <time>2012-09-05T08:05:21.14</time>
      </trkpt>
      <trkpt lat="45.54791" lon="4.92994">
        <ele>259</ele>
        <time>2012-09-05T08:05:22.25</time>
      </trkpt>
      <trkpt lat="45.54797" lon="4.92998">
        <ele>259</ele>
        <time>2012-09-05T08:05:22.30</time>
      </trkpt>
      <trkpt lat="45.54802" lon="4.93003">
        <ele>259.5</ele>
        <time>2012-09-05T08:05:23.30</time>
      </trkpt>
      <trkpt lat="45.54808" lon="4.93007">
        <ele>259</ele>
        <time>2012-09-05T08:05:24.30</time>
      </trkpt>
      <trkpt lat="45.54814" lon="4.93012">
        <ele>259</ele>
        <time>2012-09-05T08:05:25.30</time>
      </trkpt>
      <trkpt lat="45.54819" lon="4.93016">
        <ele>258.5</ele>
        <time>2012-09-05T08:05:26.29</time>
      </trkpt>
      <trkpt lat="45.54825" lon="4.93021">
        <ele>259</ele>
        <time>2012-09-05T08:05:27.29</time>
      </trkpt>
      <trkpt lat="45.54831" lon="4.93025">
        <ele>259</ele>
        <time>2012-09-05T08:05:28.29</time>
      </trkpt>
      <trkpt lat="45.54836" lon="4.93029">
        <ele>259</ele>
        <time>2012-09-05T08:05:29.28</time>
      </trkpt>
      <trkpt lat="45.54842" lon="4.93034">
        <ele>259</ele>
        <time>2012-09-05T08:05:30.28</time>
      </trkpt>
      <trkpt lat="45.54847" lon="4.93039">
        <ele>259.5</ele>
        <time>2012-09-05T08:05:31.27</time>
      </trkpt>
      <trkpt lat="45.54853" lon="4.93043">
        <ele>259.5</ele>
        <time>2012-09-05T08:05:32.27</time>
      </trkpt>
      <trkpt lat="45.54859" lon="4.93049">
        <ele>259</ele>
        <time>2012-09-05T08:05:33.26</time>
      </trkpt>
      <trkpt lat="45.54864" lon="4.93054">
        <ele>259.5</ele>
        <time>2012-09-05T08:05:34.26</time>
      </trkpt>
      <trkpt lat="45.54869" lon="4.9306">
        <ele>260</ele>
        <time>2012-09-05T08:05:35.26</time>
      </trkpt>
      <trkpt lat="45.54874" lon="4.93065">
        <ele>260</ele>
        <time>2012-09-05T08:05:36.25</time>
      </trkpt>
      <trkpt lat="45.54879" lon="4.93071">
        <ele>260.5</ele>
        <time>2012-09-05T08:05:37.25</time>
      </trkpt>
      <trkpt lat="45.54884" lon="4.93078">
        <ele>260</ele>
        <time>2012-09-05T08:05:38.25</time>
      </trkpt>
      <trkpt lat="45.54889" lon="4.93084">
        <ele>260.5</ele>
        <time>2012-09-05T08:05:39.24</time>
      </trkpt>
      <trkpt lat="45.54893" lon="4.9309">
        <ele>261</ele>
        <time>2012-09-05T08:05:40.24</time>
      </trkpt>
      <trkpt lat="45.54898" lon="4.93097">
        <ele>261</ele>
        <time>2012-09-05T08:05:41.24</time>
      </trkpt>
      <trkpt lat="45.54902" lon="4.93104">
        <ele>261</ele>
        <time>2012-09-05T08:05:42.23</time>
      </trkpt>
      <trkpt lat="45.54906" lon="4.93111">
        <ele>261</ele>
        <time>2012-09-05T08:05:43.23</time>
      </trkpt>
      <trkpt lat="45.5491" lon="4.93118">
        <ele>261.5</ele>
        <time>2012-09-05T08:05:44.22</time>
      </trkpt>
      <trkpt lat="45.54914" lon="4.93125">
        <ele>261</ele>
        <time>2012-09-05T08:05:45.22</time>
      </trkpt>
      <trkpt lat="45.54918" lon="4.93132">
        <ele>261</ele>
        <time>2012-09-05T08:05:46.22</time>
      </trkpt>
      <trkpt lat="45.54922" lon="4.9314">
        <ele>261</ele>
        <time>2012-09-05T08:05:47.22</time>
      </trkpt>
      <trkpt lat="45.54926" lon="4.93148">
        <ele>261</ele>
        <time>2012-09-05T08:05:48.22</time>
      </trkpt>
      <trkpt lat="45.5493" lon="4.93155">
        <ele>260.5</ele>
        <time>2012-09-05T08:05:49.22</time>
      </trkpt>
      <trkpt lat="45.54934" lon="4.93163">
        <ele>260.5</ele>
        <time>2012-09-05T08:05:50.21</time>
      </trkpt>
      <trkpt lat="45.54945" lon="4.93185">
        <ele>260</ele>
        <time>2012-09-05T08:05:53.10</time>
      </trkpt>
      <trkpt lat="45.54949" lon="4.93192">
        <ele>261</ele>
        <time>2012-09-05T08:05:54.27</time>
      </trkpt>
      <trkpt lat="45.54952" lon="4.932">
        <ele>261</ele>
        <time>2012-09-05T08:05:55.27</time>
      </trkpt>
      <trkpt lat="45.54956" lon="4.93208">
        <ele>260.5</ele>
        <time>2012-09-05T08:05:56.26</time>
      </trkpt>
      <trkpt lat="45.54959" lon="4.93215">
        <ele>261</ele>
        <time>2012-09-05T08:05:57.26</time>
      </trkpt>
      <trkpt lat="45.54963" lon="4.93223">
        <ele>261</ele>
        <time>2012-09-05T08:05:58.25</time>
      </trkpt>
      <trkpt lat="45.54967" lon="4.9323">
        <ele>262</ele>
        <time>2012-09-05T08:05:59.25</time>
      </trkpt>
      <trkpt lat="45.54971" lon="4.93238">
        <ele>261.5</ele>
        <time>2012-09-05T08:06:00.24</time>
      </trkpt>
      <trkpt lat="45.54975" lon="4.93245">
        <ele>261.5</ele>
        <time>2012-09-05T08:06:01.24</time>
      </trkpt>
      <trkpt lat="45.54978" lon="4.93253">
        <ele>261.5</ele>
        <time>2012-09-05T08:06:02.23</time>
      </trkpt>
      <trkpt lat="45.54982" lon="4.9326">
        <ele>261.5</ele>
        <time>2012-09-05T08:06:03.23</time>
      </trkpt>
      <trkpt lat="45.54986" lon="4.93267">
        <ele>262</ele>
        <time>2012-09-05T08:06:04.23</time>
      </trkpt>
      <trkpt lat="45.5499" lon="4.93275">
        <ele>263</ele>
        <time>2012-09-05T08:06:05.22</time>
      </trkpt>
      <trkpt lat="45.54993" lon="4.93282">
        <ele>263.5</ele>
        <time>2012-09-05T08:06:06.22</time>
      </trkpt>
      <trkpt lat="45.54997" lon="4.93289">
        <ele>263</ele>
        <time>2012-09-05T08:06:07.22</time>
      </trkpt>
      <trkpt lat="45.55001" lon="4.93296">
        <ele>263</ele>
        <time>2012-09-05T08:06:08.22</time>
      </trkpt>
      <trkpt lat="45.55005" lon="4.93304">
        <ele>263.5</ele>
        <time>2012-09-05T08:06:09.22</time>
      </trkpt>
      <trkpt lat="45.55008" lon="4.93312">
        <ele>264</ele>
        <time>2012-09-05T08:06:10.21</time>
      </trkpt>
      <trkpt lat="45.55012" lon="4.93319">
        <ele>264.5</ele>
        <time>2012-09-05T08:06:11.21</time>
      </trkpt>
      <trkpt lat="45.55015" lon="4.93326">
        <ele>265</ele>
        <time>2012-09-05T08:06:12.21</time>
      </trkpt>
      <trkpt lat="45.55019" lon="4.93334">
        <ele>265</ele>
        <time>2012-09-05T08:06:13.22</time>
      </trkpt>
      <trkpt lat="45.55023" lon="4.93342">
        <ele>265</ele>
        <time>2012-09-05T08:06:14.21</time>
      </trkpt>
      <trkpt lat="45.55026" lon="4.93351">
        <ele>265</ele>
        <time>2012-09-05T08:06:15.20</time>
      </trkpt>
      <trkpt lat="45.5503" lon="4.93359">
        <ele>264.5</ele>
        <time>2012-09-05T08:06:16.20</time>
      </trkpt>
      <trkpt lat="45.55032" lon="4.93369">
        <ele>264.5</ele>
        <time>2012-09-05T08:06:17.20</time>
      </trkpt>
      <trkpt lat="45.55035" lon="4.93378">
        <ele>264.5</ele>
        <time>2012-09-05T08:06:18.20</time>
      </trkpt>
      <trkpt lat="45.55038" lon="4.93388">
        <ele>264.5</ele>
        <time>2012-09-05T08:06:19.19</time>
      </trkpt>
      <trkpt lat="45.5504" lon="4.93397">
        <ele>264.5</ele>
        <time>2012-09-05T08:06:20.19</time>
      </trkpt>
      <trkpt lat="45.55042" lon="4.93407">
        <ele>264.5</ele>
        <time>2012-09-05T08:06:21.19</time>
      </trkpt>
      <trkpt lat="45.55044" lon="4.93417">
        <ele>264.5</ele>
        <time>2012-09-05T08:06:22.25</time>
      </trkpt>
      <trkpt lat="45.55097" lon="4.9356">
        <ele>260</ele>
        <time>2012-09-05T08:06:36.95</time>
      </trkpt>
      <trkpt lat="45.55104" lon="4.93575">
        <ele>261</ele>
        <time>2012-09-05T08:06:39.00</time>
      </trkpt>
      <trkpt lat="45.55108" lon="4.93583">
        <ele>261</ele>
        <time>2012-09-05T08:06:39.97</time>
      </trkpt>
      <trkpt lat="45.55117" lon="4.93604">
        <ele>261.5</ele>
        <time>2012-09-05T08:06:41.96</time>
      </trkpt>
      <trkpt lat="45.55121" lon="4.93612">
        <ele>262.5</ele>
        <time>2012-09-05T08:06:42.97</time>
      </trkpt>
      <trkpt lat="45.55125" lon="4.9362">
        <ele>262</ele>
        <time>2012-09-05T08:06:43.96</time>
      </trkpt>
      <trkpt lat="45.55128" lon="4.93628">
        <ele>262</ele>
        <time>2012-09-05T08:06:44.99</time>
      </trkpt>
      <trkpt lat="45.55132" lon="4.93637">
        <ele>262</ele>
        <time>2012-09-05T08:06:45.95</time>
      </trkpt>
      <trkpt lat="45.55136" lon="4.93645">
        <ele>262</ele>
        <time>2012-09-05T08:06:46.96</time>
      </trkpt>
      <trkpt lat="45.55142" lon="4.93662">
        <ele>262</ele>
        <time>2012-09-05T08:06:49.43</time>
      </trkpt>
      <trkpt lat="45.55145" lon="4.93671">
        <ele>262</ele>
        <time>2012-09-05T08:06:50.69</time>
      </trkpt>
      <trkpt lat="45.55148" lon="4.93679">
        <ele>262</ele>
        <time>2012-09-05T08:06:51.69</time>
      </trkpt>
      <trkpt lat="45.55151" lon="4.93688">
        <ele>262</ele>
        <time>2012-09-05T08:06:52.68</time>
      </trkpt>
      <trkpt lat="45.55153" lon="4.93696">
        <ele>262.5</ele>
        <time>2012-09-05T08:06:53.68</time>
      </trkpt>
      <trkpt lat="45.55156" lon="4.93705">
        <ele>262</ele>
        <time>2012-09-05T08:06:54.68</time>
      </trkpt>
      <trkpt lat="45.55159" lon="4.93714">
        <ele>262</ele>
        <time>2012-09-05T08:06:55.68</time>
      </trkpt>
      <trkpt lat="45.55162" lon="4.93723">
        <ele>262.5</ele>
        <time>2012-09-05T08:06:56.68</time>
      </trkpt>
      <trkpt lat="45.55164" lon="4.93732">
        <ele>262</ele>
        <time>2012-09-05T08:06:57.68</time>
      </trkpt>
      <trkpt lat="45.55167" lon="4.93741">
        <ele>262.5</ele>
        <time>2012-09-05T08:06:58.68</time>
      </trkpt>
      <trkpt lat="45.5517" lon="4.9375">
        <ele>262.5</ele>
        <time>2012-09-05T08:06:59.68</time>
      </trkpt>
      <trkpt lat="45.55172" lon="4.93759">
        <ele>262.5</ele>
        <time>2012-09-05T08:07:00.68</time>
      </trkpt>
      <trkpt lat="45.55175" lon="4.93769">
        <ele>262.5</ele>
        <time>2012-09-05T08:07:01.67</time>
      </trkpt>
      <trkpt lat="45.55178" lon="4.93778">
        <ele>262.5</ele>
        <time>2012-09-05T08:07:02.67</time>
      </trkpt>
      <trkpt lat="45.55181" lon="4.93787">
        <ele>262.5</ele>
        <time>2012-09-05T08:07:03.78</time>
      </trkpt>
      <trkpt lat="45.55183" lon="4.93796">
        <ele>262.5</ele>
        <time>2012-09-05T08:07:04.66</time>
      </trkpt>
      <trkpt lat="45.55186" lon="4.93806">
        <ele>262</ele>
        <time>2012-09-05T08:07:05.65</time>
      </trkpt>
      <trkpt lat="45.55189" lon="4.93815">
        <ele>262.5</ele>
        <time>2012-09-05T08:07:06.65</time>
      </trkpt>
      <trkpt lat="45.55192" lon="4.93824">
        <ele>263</ele>
        <time>2012-09-05T08:07:07.65</time>
      </trkpt>
      <trkpt lat="45.55194" lon="4.93834">
        <ele>263</ele>
        <time>2012-09-05T08:07:08.65</time>
      </trkpt>
      <trkpt lat="45.55197" lon="4.93843">
        <ele>263.5</ele>
        <time>2012-09-05T08:07:09.65</time>
      </trkpt>
      <trkpt lat="45.552" lon="4.93853">
        <ele>264</ele>
        <time>2012-09-05T08:07:10.64</time>
      </trkpt>
      <trkpt lat="45.55202" lon="4.93863">
        <ele>264.5</ele>
        <time>2012-09-05T08:07:11.64</time>
      </trkpt>
      <trkpt lat="45.55205" lon="4.93872">
        <ele>265</ele>
        <time>2012-09-05T08:07:12.64</time>
      </trkpt>
      <trkpt lat="45.55208" lon="4.93882">
        <ele>265</ele>
        <time>2012-09-05T08:07:13.64</time>
      </trkpt>
      <trkpt lat="45.55211" lon="4.93892">
        <ele>265</ele>
        <time>2012-09-05T08:07:14.64</time>
      </trkpt>
      <trkpt lat="45.55214" lon="4.93902">
        <ele>265</ele>
        <time>2012-09-05T08:07:15.64</time>
      </trkpt>
      <trkpt lat="45.55216" lon="4.93913">
        <ele>265</ele>
        <time>2012-09-05T08:07:16.64</time>
      </trkpt>
      <trkpt lat="45.55219" lon="4.93923">
        <ele>265.5</ele>
        <time>2012-09-05T08:07:17.64</time>
      </trkpt>
      <trkpt lat="45.55221" lon="4.93934">
        <ele>265.5</ele>
        <time>2012-09-05T08:07:18.64</time>
      </trkpt>
      <trkpt lat="45.55224" lon="4.93945">
        <ele>265.5</ele>
        <time>2012-09-05T08:07:19.64</time>
      </trkpt>
      <trkpt lat="45.55226" lon="4.93956">
        <ele>266</ele>
        <time>2012-09-05T08:07:20.64</time>
      </trkpt>
      <trkpt lat="45.55229" lon="4.93966">
        <ele>265.5</ele>
        <time>2012-09-05T08:07:21.63</time>
      </trkpt>
      <trkpt lat="45.55234" lon="4.93987">
        <ele>267</ele>
        <time>2012-09-05T08:07:23.05</time>
      </trkpt>
      <trkpt lat="45.55236" lon="4.93998">
        <ele>267</ele>
        <time>2012-09-05T08:07:23.21</time>
      </trkpt>
      <trkpt lat="45.55238" lon="4.94008">
        <ele>267.5</ele>
        <time>2012-09-05T08:07:24.20</time>
      </trkpt>
      <trkpt lat="45.55241" lon="4.94019">
        <ele>268</ele>
        <time>2012-09-05T08:07:25.20</time>
      </trkpt>
      <trkpt lat="45.55244" lon="4.94029">
        <ele>267.5</ele>
        <time>2012-09-05T08:07:26.20</time>
      </trkpt>
      <trkpt lat="45.55246" lon="4.94039">
        <ele>268</ele>
        <time>2012-09-05T08:07:27.20</time>
      </trkpt>
      <trkpt lat="45.55249" lon="4.9405">
        <ele>268</ele>
        <time>2012-09-05T08:07:28.20</time>
      </trkpt>
      <trkpt lat="45.55251" lon="4.9406">
        <ele>268</ele>
        <time>2012-09-05T08:07:29.20</time>
      </trkpt>
      <trkpt lat="45.55254" lon="4.9407">
        <ele>268</ele>
        <time>2012-09-05T08:07:30.20</time>
      </trkpt>
      <trkpt lat="45.55257" lon="4.9408">
        <ele>268.5</ele>
        <time>2012-09-05T08:07:31.20</time>
      </trkpt>
      <trkpt lat="45.55261" lon="4.9409">
        <ele>268.5</ele>
        <time>2012-09-05T08:07:32.19</time>
      </trkpt>
      <trkpt lat="45.55264" lon="4.941">
        <ele>268.5</ele>
        <time>2012-09-05T08:07:33.19</time>
      </trkpt>
      <trkpt lat="45.55267" lon="4.9411">
        <ele>269</ele>
        <time>2012-09-05T08:07:34.18</time>
      </trkpt>
      <trkpt lat="45.55271" lon="4.9412">
        <ele>269</ele>
        <time>2012-09-05T08:07:35.18</time>
      </trkpt>
      <trkpt lat="45.55275" lon="4.94129">
        <ele>269.5</ele>
        <time>2012-09-05T08:07:36.17</time>
      </trkpt>
      <trkpt lat="45.55279" lon="4.94138">
        <ele>269.5</ele>
        <time>2012-09-05T08:07:37.16</time>
      </trkpt>
      <trkpt lat="45.55282" lon="4.94148">
        <ele>269.5</ele>
        <time>2012-09-05T08:07:38.16</time>
      </trkpt>
      <trkpt lat="45.55285" lon="4.94157">
        <ele>269.5</ele>
        <time>2012-09-05T08:07:39.15</time>
      </trkpt>
      <trkpt lat="45.55287" lon="4.94166">
        <ele>270.5</ele>
        <time>2012-09-05T08:07:40.15</time>
      </trkpt>
      <trkpt lat="45.55291" lon="4.94174">
        <ele>271</ele>
        <time>2012-09-05T08:07:41.15</time>
      </trkpt>
      <trkpt lat="45.55294" lon="4.94183">
        <ele>271</ele>
        <time>2012-09-05T08:07:42.15</time>
      </trkpt>
      <trkpt lat="45.55297" lon="4.94192">
        <ele>271.5</ele>
        <time>2012-09-05T08:07:43.15</time>
      </trkpt>
      <trkpt lat="45.553" lon="4.942">
        <ele>272</ele>
        <time>2012-09-05T08:07:44.15</time>
      </trkpt>
      <trkpt lat="45.55303" lon="4.94208">
        <ele>272</ele>
        <time>2012-09-05T08:07:45.15</time>
      </trkpt>
      <trkpt lat="45.55307" lon="4.94216">
        <ele>273</ele>
        <time>2012-09-05T08:07:46.15</time>
      </trkpt>
      <trkpt lat="45.55311" lon="4.94224">
        <ele>272.5</ele>
        <time>2012-09-05T08:07:47.15</time>
      </trkpt>
      <trkpt lat="45.55315" lon="4.94232">
        <ele>273</ele>
        <time>2012-09-05T08:07:48.15</time>
      </trkpt>
      <trkpt lat="45.5532" lon="4.94241">
        <ele>273</ele>
        <time>2012-09-05T08:07:49.14</time>
      </trkpt>
      <trkpt lat="45.55324" lon="4.94249">
        <ele>273</ele>
        <time>2012-09-05T08:07:50.13</time>
      </trkpt>
      <trkpt lat="45.55328" lon="4.94257">
        <ele>273.5</ele>
        <time>2012-09-05T08:07:51.13</time>
      </trkpt>
      <trkpt lat="45.55339" lon="4.94282">
        <ele>273.5</ele>
        <time>2012-09-05T08:07:54.35</time>
      </trkpt>
      <trkpt lat="45.55342" lon="4.94291">
        <ele>274</ele>
        <time>2012-09-05T08:07:55.28</time>
      </trkpt>
      <trkpt lat="45.55345" lon="4.94299">
        <ele>274.5</ele>
        <time>2012-09-05T08:07:56.28</time>
      </trkpt>
      <trkpt lat="45.55348" lon="4.94307">
        <ele>274.5</ele>
        <time>2012-09-05T08:07:57.27</time>
      </trkpt>
      <trkpt lat="45.55351" lon="4.94316">
        <ele>274.5</ele>
        <time>2012-09-05T08:07:58.27</time>
      </trkpt>
      <trkpt lat="45.55354" lon="4.94324">
        <ele>274.5</ele>
        <time>2012-09-05T08:07:59.27</time>
      </trkpt>
      <trkpt lat="45.55356" lon="4.94333">
        <ele>275</ele>
        <time>2012-09-05T08:08:00.27</time>
      </trkpt>
      <trkpt lat="45.55358" lon="4.94342">
        <ele>275</ele>
        <time>2012-09-05T08:08:01.27</time>
      </trkpt>
      <trkpt lat="45.5536" lon="4.9435">
        <ele>275</ele>
        <time>2012-09-05T08:08:02.27</time>
      </trkpt>
      <trkpt lat="45.55363" lon="4.94359">
        <ele>275.5</ele>
        <time>2012-09-05T08:08:03.26</time>
      </trkpt>
      <trkpt lat="45.55365" lon="4.94367">
        <ele>276</ele>
        <time>2012-09-05T08:08:04.25</time>
      </trkpt>
      <trkpt lat="45.55367" lon="4.94375">
        <ele>276.5</ele>
        <time>2012-09-05T08:08:05.25</time>
      </trkpt>
      <trkpt lat="45.55369" lon="4.94383">
        <ele>277</ele>
        <time>2012-09-05T08:08:06.25</time>
      </trkpt>
      <trkpt lat="45.55371" lon="4.94391">
        <ele>277</ele>
        <time>2012-09-05T08:08:07.25</time>
      </trkpt>
      <trkpt lat="45.55374" lon="4.94399">
        <ele>276</ele>
        <time>2012-09-05T08:08:08.25</time>
      </trkpt>
      <trkpt lat="45.55377" lon="4.94406">
        <ele>275.5</ele>
        <time>2012-09-05T08:08:09.24</time>
      </trkpt>
      <trkpt lat="45.5538" lon="4.94413">
        <ele>275</ele>
        <time>2012-09-05T08:08:10.24</time>
      </trkpt>
      <trkpt lat="45.55382" lon="4.94421">
        <ele>274.5</ele>
        <time>2012-09-05T08:08:11.24</time>
      </trkpt>
      <trkpt lat="45.55385" lon="4.94429">
        <ele>274</ele>
        <time>2012-09-05T08:08:12.24</time>
      </trkpt>
      <trkpt lat="45.55389" lon="4.94437">
        <ele>274</ele>
        <time>2012-09-05T08:08:13.24</time>
      </trkpt>
      <trkpt lat="45.55391" lon="4.94445">
        <ele>273.5</ele>
        <time>2012-09-05T08:08:14.24</time>
      </trkpt>
      <trkpt lat="45.55394" lon="4.94453">
        <ele>273</ele>
        <time>2012-09-05T08:08:15.24</time>
      </trkpt>
      <trkpt lat="45.55398" lon="4.9446">
        <ele>273.5</ele>
        <time>2012-09-05T08:08:16.23</time>
      </trkpt>
      <trkpt lat="45.55401" lon="4.94468">
        <ele>273.5</ele>
        <time>2012-09-05T08:08:17.23</time>
      </trkpt>
      <trkpt lat="45.55404" lon="4.94476">
        <ele>273</ele>
        <time>2012-09-05T08:08:18.22</time>
      </trkpt>
      <trkpt lat="45.55407" lon="4.94484">
        <ele>272.5</ele>
        <time>2012-09-05T08:08:19.22</time>
      </trkpt>
      <trkpt lat="45.5541" lon="4.94492">
        <ele>272.5</ele>
        <time>2012-09-05T08:08:20.22</time>
      </trkpt>
      <trkpt lat="45.55413" lon="4.94501">
        <ele>272.5</ele>
        <time>2012-09-05T08:08:21.22</time>
      </trkpt>
      <trkpt lat="45.55416" lon="4.94509">
        <ele>272.5</ele>
        <time>2012-09-05T08:08:22.22</time>
      </trkpt>
      <trkpt lat="45.55419" lon="4.94518">
        <ele>273.5</ele>
        <time>2012-09-05T08:08:23.21</time>
      </trkpt>
      <trkpt lat="45.55424" lon="4.94534">
        <ele>273.5</ele>
        <time>2012-09-05T08:08:25.14</time>
      </trkpt>
      <trkpt lat="45.55434" lon="4.94559">
        <ele>273.5</ele>
        <time>2012-09-05T08:08:27.23</time>
      </trkpt>
      <trkpt lat="45.55436" lon="4.94567">
        <ele>273.5</ele>
        <time>2012-09-05T08:08:28.23</time>
      </trkpt>
      <trkpt lat="45.55439" lon="4.94575">
        <ele>273</ele>
        <time>2012-09-05T08:08:29.22</time>
      </trkpt>
      <trkpt lat="45.55442" lon="4.94584">
        <ele>274</ele>
        <time>2012-09-05T08:08:30.22</time>
      </trkpt>
      <trkpt lat="45.55444" lon="4.94592">
        <ele>274</ele>
        <time>2012-09-05T08:08:31.21</time>
      </trkpt>
      <trkpt lat="45.55445" lon="4.94601">
        <ele>274</ele>
        <time>2012-09-05T08:08:32.20</time>
      </trkpt>
      <trkpt lat="45.55447" lon="4.94611">
        <ele>274</ele>
        <time>2012-09-05T08:08:33.20</time>
      </trkpt>
      <trkpt lat="45.55448" lon="4.94621">
        <ele>273.5</ele>
        <time>2012-09-05T08:08:34.19</time>
      </trkpt>
      <trkpt lat="45.55449" lon="4.94631">
        <ele>273.5</ele>
        <time>2012-09-05T08:08:35.19</time>
      </trkpt>
      <trkpt lat="45.55451" lon="4.94641">
        <ele>273.5</ele>
        <time>2012-09-05T08:08:36.18</time>
      </trkpt>
      <trkpt lat="45.55452" lon="4.94652">
        <ele>273.5</ele>
        <time>2012-09-05T08:08:37.17</time>
      </trkpt>
      <trkpt lat="45.55454" lon="4.94662">
        <ele>273</ele>
        <time>2012-09-05T08:08:38.17</time>
      </trkpt>
      <trkpt lat="45.55455" lon="4.94672">
        <ele>273</ele>
        <time>2012-09-05T08:08:39.17</time>
      </trkpt>
      <trkpt lat="45.55456" lon="4.94683">
        <ele>273.5</ele>
        <time>2012-09-05T08:08:40.17</time>
      </trkpt>
      <trkpt lat="45.55458" lon="4.94693">
        <ele>274.5</ele>
        <time>2012-09-05T08:08:41.17</time>
      </trkpt>
      <trkpt lat="45.55459" lon="4.94703">
        <ele>274.5</ele>
        <time>2012-09-05T08:08:42.17</time>
      </trkpt>
      <trkpt lat="45.55461" lon="4.94713">
        <ele>275</ele>
        <time>2012-09-05T08:08:43.17</time>
      </trkpt>
      <trkpt lat="45.55464" lon="4.94723">
        <ele>275</ele>
        <time>2012-09-05T08:08:44.17</time>
      </trkpt>
      <trkpt lat="45.55466" lon="4.94733">
        <ele>275.5</ele>
        <time>2012-09-05T08:08:45.17</time>
      </trkpt>
      <trkpt lat="45.55469" lon="4.94743">
        <ele>275.5</ele>
        <time>2012-09-05T08:08:46.17</time>
      </trkpt>
      <trkpt lat="45.55472" lon="4.94754">
        <ele>275</ele>
        <time>2012-09-05T08:08:47.16</time>
      </trkpt>
      <trkpt lat="45.55476" lon="4.94764">
        <ele>275</ele>
        <time>2012-09-05T08:08:48.16</time>
      </trkpt>
      <trkpt lat="45.55479" lon="4.94774">
        <ele>275</ele>
        <time>2012-09-05T08:08:49.15</time>
      </trkpt>
      <trkpt lat="45.55483" lon="4.94784">
        <ele>275</ele>
        <time>2012-09-05T08:08:50.14</time>
      </trkpt>
      <trkpt lat="45.55487" lon="4.94794">
        <ele>275</ele>
        <time>2012-09-05T08:08:51.14</time>
      </trkpt>
      <trkpt lat="45.5549" lon="4.94803">
        <ele>275.5</ele>
        <time>2012-09-05T08:08:52.14</time>
      </trkpt>
      <trkpt lat="45.55494" lon="4.94813">
        <ele>275.5</ele>
        <time>2012-09-05T08:08:53.14</time>
      </trkpt>
      <trkpt lat="45.55506" lon="4.94843">
        <ele>276</ele>
        <time>2012-09-05T08:08:56.38</time>
      </trkpt>
      <trkpt lat="45.55509" lon="4.94853">
        <ele>276</ele>
        <time>2012-09-05T08:08:57.29</time>
      </trkpt>
      <trkpt lat="45.55513" lon="4.94864">
        <ele>275.5</ele>
        <time>2012-09-05T08:08:58.29</time>
      </trkpt>
      <trkpt lat="45.55517" lon="4.94874">
        <ele>274</ele>
        <time>2012-09-05T08:08:59.29</time>
      </trkpt>
      <trkpt lat="45.5552" lon="4.94885">
        <ele>274</ele>
        <time>2012-09-05T08:09:00.29</time>
      </trkpt>
      <trkpt lat="45.55524" lon="4.94895">
        <ele>273.5</ele>
        <time>2012-09-05T08:09:01.29</time>
      </trkpt>
      <trkpt lat="45.55527" lon="4.94905">
        <ele>273</ele>
        <time>2012-09-05T08:09:02.28</time>
      </trkpt>
      <trkpt lat="45.5553" lon="4.94915">
        <ele>272</ele>
        <time>2012-09-05T08:09:03.28</time>
      </trkpt>
      <trkpt lat="45.55532" lon="4.94925">
        <ele>272.5</ele>
        <time>2012-09-05T08:09:04.28</time>
      </trkpt>
      <trkpt lat="45.55535" lon="4.94936">
        <ele>272.5</ele>
        <time>2012-09-05T08:09:05.28</time>
      </trkpt>
      <trkpt lat="45.55538" lon="4.94946">
        <ele>272.5</ele>
        <time>2012-09-05T08:09:06.28</time>
      </trkpt>
      <trkpt lat="45.5554" lon="4.94956">
        <ele>272.5</ele>
        <time>2012-09-05T08:09:07.27</time>
      </trkpt>
      <trkpt lat="45.55542" lon="4.94965">
        <ele>273.5</ele>
        <time>2012-09-05T08:09:08.27</time>
      </trkpt>
      <trkpt lat="45.55545" lon="4.94975">
        <ele>274.5</ele>
        <time>2012-09-05T08:09:09.26</time>
      </trkpt>
      <trkpt lat="45.55548" lon="4.94984">
        <ele>274.5</ele>
        <time>2012-09-05T08:09:10.26</time>
      </trkpt>
      <trkpt lat="45.55551" lon="4.94994">
        <ele>274.5</ele>
        <time>2012-09-05T08:09:11.26</time>
      </trkpt>
      <trkpt lat="45.55555" lon="4.95004">
        <ele>274</ele>
        <time>2012-09-05T08:09:12.28</time>
      </trkpt>
      <trkpt lat="45.55558" lon="4.95014">
        <ele>274</ele>
        <time>2012-09-05T08:09:13.26</time>
      </trkpt>
      <trkpt lat="45.55561" lon="4.95024">
        <ele>274</ele>
        <time>2012-09-05T08:09:14.25</time>
      </trkpt>
      <trkpt lat="45.55564" lon="4.95033">
        <ele>274.5</ele>
        <time>2012-09-05T08:09:15.24</time>
      </trkpt>
      <trkpt lat="45.55567" lon="4.95043">
        <ele>275</ele>
        <time>2012-09-05T08:09:16.24</time>
      </trkpt>
      <trkpt lat="45.5557" lon="4.95053">
        <ele>275</ele>
        <time>2012-09-05T08:09:17.24</time>
      </trkpt>
      <trkpt lat="45.55572" lon="4.95063">
        <ele>275</ele>
        <time>2012-09-05T08:09:18.24</time>
      </trkpt>
      <trkpt lat="45.55575" lon="4.95073">
        <ele>274.5</ele>
        <time>2012-09-05T08:09:19.24</time>
      </trkpt>
      <trkpt lat="45.55578" lon="4.95084">
        <ele>273.5</ele>
        <time>2012-09-05T08:09:20.24</time>
      </trkpt>
      <trkpt lat="45.5558" lon="4.95095">
        <ele>273.5</ele>
        <time>2012-09-05T08:09:21.24</time>
      </trkpt>
      <trkpt lat="45.55582" lon="4.95107">
        <ele>274</ele>
        <time>2012-09-05T08:09:22.24</time>
      </trkpt>
      <trkpt lat="45.55584" lon="4.95118">
        <ele>274</ele>
        <time>2012-09-05T08:09:23.24</time>
      </trkpt>
      <trkpt lat="45.55586" lon="4.95129">
        <ele>274.5</ele>
        <time>2012-09-05T08:09:24.24</time>
      </trkpt>
      <trkpt lat="45.55588" lon="4.95139">
        <ele>275.5</ele>
        <time>2012-09-05T08:09:25.24</time>
      </trkpt>
      <trkpt lat="45.55591" lon="4.95161">
        <ele>275.5</ele>
        <time>2012-09-05T08:09:27.15</time>
      </trkpt>
      <trkpt lat="45.55599" lon="4.95195">
        <ele>275.5</ele>
        <time>2012-09-05T08:09:29.30</time>
      </trkpt>
      <trkpt lat="45.55602" lon="4.95206">
        <ele>276</ele>
        <time>2012-09-05T08:09:30.29</time>
      </trkpt>
      <trkpt lat="45.55606" lon="4.95217">
        <ele>276</ele>
        <time>2012-09-05T08:09:31.29</time>
      </trkpt>
      <trkpt lat="45.55609" lon="4.95227">
        <ele>276.5</ele>
        <time>2012-09-05T08:09:32.29</time>
      </trkpt>
      <trkpt lat="45.55612" lon="4.95236">
        <ele>277</ele>
        <time>2012-09-05T08:09:33.29</time>
      </trkpt>
      <trkpt lat="45.55616" lon="4.95247">
        <ele>276.5</ele>
        <time>2012-09-05T08:09:34.29</time>
      </trkpt>
      <trkpt lat="45.5562" lon="4.95257">
        <ele>276.5</ele>
        <time>2012-09-05T08:09:35.29</time>
      </trkpt>
      <trkpt lat="45.55624" lon="4.95267">
        <ele>276</ele>
        <time>2012-09-05T08:09:36.29</time>
      </trkpt>
      <trkpt lat="45.55628" lon="4.95277">
        <ele>276</ele>
        <time>2012-09-05T08:09:37.28</time>
      </trkpt>
      <trkpt lat="45.55632" lon="4.95286">
        <ele>276</ele>
        <time>2012-09-05T08:09:38.28</time>
      </trkpt>
      <trkpt lat="45.55636" lon="4.95295">
        <ele>276</ele>
        <time>2012-09-05T08:09:39.28</time>
      </trkpt>
      <trkpt lat="45.55639" lon="4.95303">
        <ele>276</ele>
        <time>2012-09-05T08:09:40.28</time>
      </trkpt>
      <trkpt lat="45.55643" lon="4.95312">
        <ele>275.5</ele>
        <time>2012-09-05T08:09:41.28</time>
      </trkpt>
      <trkpt lat="45.55647" lon="4.95321">
        <ele>276</ele>
        <time>2012-09-05T08:09:42.28</time>
      </trkpt>
      <trkpt lat="45.55651" lon="4.95329">
        <ele>276.5</ele>
        <time>2012-09-05T08:09:43.28</time>
      </trkpt>
      <trkpt lat="45.55655" lon="4.95338">
        <ele>276.5</ele>
        <time>2012-09-05T08:09:44.28</time>
      </trkpt>
      <trkpt lat="45.55659" lon="4.95346">
        <ele>276.5</ele>
        <time>2012-09-05T08:09:45.28</time>
      </trkpt>
      <trkpt lat="45.55663" lon="4.95355">
        <ele>276.5</ele>
        <time>2012-09-05T08:09:46.28</time>
      </trkpt>
      <trkpt lat="45.55666" lon="4.95364">
        <ele>276</ele>
        <time>2012-09-05T08:09:47.28</time>
      </trkpt>
      <trkpt lat="45.5567" lon="4.95373">
        <ele>276</ele>
        <time>2012-09-05T08:09:48.28</time>
      </trkpt>
      <trkpt lat="45.55673" lon="4.95382">
        <ele>276</ele>
        <time>2012-09-05T08:09:49.28</time>
      </trkpt>
      <trkpt lat="45.55676" lon="4.95391">
        <ele>276</ele>
        <time>2012-09-05T08:09:50.28</time>
      </trkpt>
      <trkpt lat="45.55678" lon="4.954">
        <ele>275</ele>
        <time>2012-09-05T08:09:51.28</time>
      </trkpt>
      <trkpt lat="45.5568" lon="4.95408">
        <ele>276</ele>
        <time>2012-09-05T08:09:52.28</time>
      </trkpt>
      <trkpt lat="45.55682" lon="4.95415">
        <ele>276.5</ele>
        <time>2012-09-05T08:09:53.28</time>
      </trkpt>
      <trkpt lat="45.55683" lon="4.95421">
        <ele>277</ele>
        <time>2012-09-05T08:09:54.27</time>
      </trkpt>
      <trkpt lat="45.55685" lon="4.95426">
        <ele>277.5</ele>
        <time>2012-09-05T08:09:55.27</time>
      </trkpt>
      <trkpt lat="45.5569" lon="4.95438">
        <ele>276</ele>
        <time>2012-09-05T08:09:58.10</time>
      </trkpt>
      <trkpt lat="45.5569" lon="4.95439">
        <ele>275.5</ele>
        <time>2012-09-05T08:09:59.32</time>
      </trkpt>
      <trkpt lat="45.5569" lon="4.95441">
        <ele>275</ele>
        <time>2012-09-05T08:10:00.32</time>
      </trkpt>
      <trkpt lat="45.5569" lon="4.95442">
        <ele>274.5</ele>
        <time>2012-09-05T08:10:01.31</time>
      </trkpt>
      <trkpt lat="45.5569" lon="4.95442">
        <ele>274.5</ele>
        <time>2012-09-05T08:10:02.31</time>
      </trkpt>
      <trkpt lat="45.5569" lon="4.95443">
        <ele>273.5</ele>
        <time>2012-09-05T08:10:03.31</time>
      </trkpt>
      <trkpt lat="45.55691" lon="4.95445">
        <ele>274</ele>
        <time>2012-09-05T08:10:04.31</time>
      </trkpt>
      <trkpt lat="45.55692" lon="4.95448">
        <ele>273</ele>
        <time>2012-09-05T08:10:05.32</time>
      </trkpt>
      <trkpt lat="45.55692" lon="4.95449">
        <ele>272</ele>
        <time>2012-09-05T08:10:06.30</time>
      </trkpt>
      <trkpt lat="45.55693" lon="4.95449">
        <ele>271.5</ele>
        <time>2012-09-05T08:10:07.30</time>
      </trkpt>
      <trkpt lat="45.55693" lon="4.95449">
        <ele>271</ele>
        <time>2012-09-05T08:10:08.40</time>
      </trkpt>
      <trkpt lat="45.55693" lon="4.95449">
        <ele>271</ele>
        <time>2012-09-05T08:10:09.28</time>
      </trkpt>
      <trkpt lat="45.55692" lon="4.95449">
        <ele>272</ele>
        <time>2012-09-05T08:10:10.28</time>
      </trkpt>
      <trkpt lat="45.55692" lon="4.95449">
        <ele>272</ele>
        <time>2012-09-05T08:10:11.28</time>
      </trkpt>
      <trkpt lat="45.55692" lon="4.95449">
        <ele>273</ele>
        <time>2012-09-05T08:10:12.36</time>
      </trkpt>
      <trkpt lat="45.55692" lon="4.95449">
        <ele>273</ele>
        <time>2012-09-05T08:10:13.27</time>
      </trkpt>
      <trkpt lat="45.55692" lon="4.95449">
        <ele>272.5</ele>
        <time>2012-09-05T08:10:14.27</time>
      </trkpt>
      <trkpt lat="45.55693" lon="4.9545">
        <ele>271</ele>
        <time>2012-09-05T08:10:15.27</time>
      </trkpt>
      <trkpt lat="45.55693" lon="4.95449">
        <ele>272</ele>
        <time>2012-09-05T08:10:16.27</time>
      </trkpt>
      <trkpt lat="45.55693" lon="4.95449">
        <ele>272</ele>
        <time>2012-09-05T08:10:17.27</time>
      </trkpt>
      <trkpt lat="45.55693" lon="4.95449">
        <ele>272</ele>
        <time>2012-09-05T08:10:18.27</time>
      </trkpt>
      <trkpt lat="45.55693" lon="4.95449">
        <ele>272</ele>
        <time>2012-09-05T08:10:19.27</time>
      </trkpt>
      <trkpt lat="45.55693" lon="4.95449">
        <ele>272</ele>
        <time>2012-09-05T08:10:20.27</time>
      </trkpt>
      <trkpt lat="45.55693" lon="4.95449">
        <ele>272</ele>
        <time>2012-09-05T08:10:21.27</time>
      </trkpt>
      <trkpt lat="45.55693" lon="4.95449">
        <ele>272</ele>
        <time>2012-09-05T08:10:22.27</time>
      </trkpt>
      <trkpt lat="45.55693" lon="4.95449">
        <ele>271.5</ele>
        <time>2012-09-05T08:10:23.27</time>
      </trkpt>
      <trkpt lat="45.55693" lon="4.95449">
        <ele>271.5</ele>
        <time>2012-09-05T08:10:24.27</time>
      </trkpt>
      <trkpt lat="45.55693" lon="4.95449">
        <ele>271.5</ele>
        <time>2012-09-05T08:10:25.27</time>
      </trkpt>
      <trkpt lat="45.55693" lon="4.95449">
        <ele>271.5</ele>
        <time>2012-09-05T08:10:26.26</time>
      </trkpt>
      <trkpt lat="45.55693" lon="4.95449">
        <ele>271.5</ele>
        <time>2012-09-05T08:10:27.34</time>
      </trkpt>
      <trkpt lat="45.55699" lon="4.95461">
        <ele>262.5</ele>
        <time>2012-09-05T08:10:40.09</time>
      </trkpt>
      <trkpt lat="45.55704" lon="4.95461">
        <ele>268.5</ele>
        <time>2012-09-05T08:10:42.00</time>
      </trkpt>
      <trkpt lat="45.55704" lon="4.95466">
        <ele>271</ele>
        <time>2012-09-05T08:10:42.97</time>
      </trkpt>
      <trkpt lat="45.55705" lon="4.95472">
        <ele>271.5</ele>
        <time>2012-09-05T08:10:43.96</time>
      </trkpt>
      <trkpt lat="45.55707" lon="4.95477">
        <ele>271.5</ele>
        <time>2012-09-05T08:10:44.95</time>
      </trkpt>
      <trkpt lat="45.55709" lon="4.95482">
        <ele>272</ele>
        <time>2012-09-05T08:10:45.96</time>
      </trkpt>
      <trkpt lat="45.55713" lon="4.95484">
        <ele>272.5</ele>
        <time>2012-09-05T08:10:46.94</time>
      </trkpt>
      <trkpt lat="45.55717" lon="4.95485">
        <ele>273.5</ele>
        <time>2012-09-05T08:10:47.91</time>
      </trkpt>
      <trkpt lat="45.55721" lon="4.95483">
        <ele>273.5</ele>
        <time>2012-09-05T08:10:48.93</time>
      </trkpt>
      <trkpt lat="45.55724" lon="4.95481">
        <ele>274</ele>
        <time>2012-09-05T08:10:49.94</time>
      </trkpt>
      <trkpt lat="45.55731" lon="4.95479">
        <ele>274.5</ele>
        <time>2012-09-05T08:10:52.36</time>
      </trkpt>
      <trkpt lat="45.55734" lon="4.95478">
        <ele>274.5</ele>
        <time>2012-09-05T08:10:53.70</time>
      </trkpt>
      <trkpt lat="45.55738" lon="4.95478">
        <ele>274.5</ele>
        <time>2012-09-05T08:10:54.70</time>
      </trkpt>
      <trkpt lat="45.55741" lon="4.95477">
        <ele>275</ele>
        <time>2012-09-05T08:10:55.70</time>
      </trkpt>
      <trkpt lat="45.55744" lon="4.95477">
        <ele>275</ele>
        <time>2012-09-05T08:10:56.70</time>
      </trkpt>
      <trkpt lat="45.55747" lon="4.95476">
        <ele>276</ele>
        <time>2012-09-05T08:10:57.69</time>
      </trkpt>
      <trkpt lat="45.5575" lon="4.95475">
        <ele>276.5</ele>
        <time>2012-09-05T08:10:58.68</time>
      </trkpt>
      <trkpt lat="45.55753" lon="4.95474">
        <ele>277</ele>
        <time>2012-09-05T08:10:59.68</time>
      </trkpt>
      <trkpt lat="45.55756" lon="4.95473">
        <ele>277.5</ele>
        <time>2012-09-05T08:11:00.67</time>
      </trkpt>
      <trkpt lat="45.55759" lon="4.95473">
        <ele>278</ele>
        <time>2012-09-05T08:11:01.67</time>
      </trkpt>
      <trkpt lat="45.55762" lon="4.95471">
        <ele>279.5</ele>
        <time>2012-09-05T08:11:02.66</time>
      </trkpt>
      <trkpt lat="45.55765" lon="4.95471">
        <ele>280</ele>
        <time>2012-09-05T08:11:03.66</time>
      </trkpt>
      <trkpt lat="45.55767" lon="4.9547">
        <ele>280.5</ele>
        <time>2012-09-05T08:11:04.65</time>
      </trkpt>
      <trkpt lat="45.5577" lon="4.95469">
        <ele>281.5</ele>
        <time>2012-09-05T08:11:05.65</time>
      </trkpt>
      <trkpt lat="45.55773" lon="4.95469">
        <ele>281.5</ele>
        <time>2012-09-05T08:11:06.65</time>
      </trkpt>
      <trkpt lat="45.55772" lon="4.95466">
        <ele>282</ele>
        <time>2012-09-05T08:11:07.64</time>
      </trkpt>
      <trkpt lat="45.55776" lon="4.95462">
        <ele>283</ele>
        <time>2012-09-05T08:11:09.64</time>
      </trkpt>
      <trkpt lat="45.55779" lon="4.95462">
        <ele>284</ele>
        <time>2012-09-05T08:11:10.64</time>
      </trkpt>
      <trkpt lat="45.55781" lon="4.95461">
        <ele>285</ele>
        <time>2012-09-05T08:11:11.64</time>
      </trkpt>
      <trkpt lat="45.55783" lon="4.95461">
        <ele>285.5</ele>
        <time>2012-09-05T08:11:12.64</time>
      </trkpt>
      <trkpt lat="45.55785" lon="4.9546">
        <ele>286</ele>
        <time>2012-09-05T08:11:13.65</time>
      </trkpt>
      <trkpt lat="45.55787" lon="4.95461">
        <ele>286.5</ele>
        <time>2012-09-05T08:11:14.63</time>
      </trkpt>
      <trkpt lat="45.5579" lon="4.95461">
        <ele>286.5</ele>
        <time>2012-09-05T08:11:15.62</time>
      </trkpt>
      <trkpt lat="45.55793" lon="4.95462">
        <ele>286.5</ele>
        <time>2012-09-05T08:11:16.62</time>
      </trkpt>
      <trkpt lat="45.55795" lon="4.95462">
        <ele>287</ele>
        <time>2012-09-05T08:11:17.62</time>
      </trkpt>
      <trkpt lat="45.55798" lon="4.95462">
        <ele>287.5</ele>
        <time>2012-09-05T08:11:18.62</time>
      </trkpt>
      <trkpt lat="45.55801" lon="4.95461">
        <ele>288</ele>
        <time>2012-09-05T08:11:19.62</time>
      </trkpt>
      <trkpt lat="45.55805" lon="4.95462">
        <ele>288</ele>
        <time>2012-09-05T08:11:20.62</time>
      </trkpt>
      <trkpt lat="45.55809" lon="4.95462">
        <ele>288.5</ele>
        <time>2012-09-05T08:11:21.62</time>
      </trkpt>
      <trkpt lat="45.55812" lon="4.95462">
        <ele>289</ele>
        <time>2012-09-05T08:11:22.62</time>
      </trkpt>
      <trkpt lat="45.55816" lon="4.95462">
        <ele>289</ele>
        <time>2012-09-05T08:11:23.62</time>
      </trkpt>
      <trkpt lat="45.55819" lon="4.95462">
        <ele>290</ele>
        <time>2012-09-05T08:11:24.61</time>
      </trkpt>
      <trkpt lat="45.55822" lon="4.95462">
        <ele>291.5</ele>
        <time>2012-09-05T08:11:25.61</time>
      </trkpt>
      <trkpt lat="45.5583" lon="4.95467">
        <ele>293</ele>
        <time>2012-09-05T08:11:28.38</time>
      </trkpt>
      <trkpt lat="45.55829" lon="4.95467">
        <ele>293</ele>
        <time>2012-09-05T08:11:28.37</time>
      </trkpt>
      <trkpt lat="45.55832" lon="4.95467">
        <ele>295</ele>
        <time>2012-09-05T08:11:29.36</time>
      </trkpt>
      <trkpt lat="45.5584" lon="4.9547">
        <ele>296.5</ele>
        <time>2012-09-05T08:11:31.36</time>
      </trkpt>
      <trkpt lat="45.55841" lon="4.9547">
        <ele>296.5</ele>
        <time>2012-09-05T08:11:32.35</time>
      </trkpt>
      <trkpt lat="45.55843" lon="4.95473">
        <ele>296.5</ele>
        <time>2012-09-05T08:11:33.35</time>
      </trkpt>
      <trkpt lat="45.55846" lon="4.95476">
        <ele>298.5</ele>
        <time>2012-09-05T08:11:34.35</time>
      </trkpt>
      <trkpt lat="45.55852" lon="4.95485">
        <ele>298.5</ele>
        <time>2012-09-05T08:11:36.34</time>
      </trkpt>
      <trkpt lat="45.55854" lon="4.95487">
        <ele>300.5</ele>
        <time>2012-09-05T08:11:37.34</time>
      </trkpt>
      <trkpt lat="45.55859" lon="4.95488">
        <ele>301</ele>
        <time>2012-09-05T08:11:39.34</time>
      </trkpt>
      <trkpt lat="45.55862" lon="4.95488">
        <ele>303.5</ele>
        <time>2012-09-05T08:11:40.34</time>
      </trkpt>
      <trkpt lat="45.5587" lon="4.95489">
        <ele>305.5</ele>
        <time>2012-09-05T08:11:42.34</time>
      </trkpt>
      <trkpt lat="45.55873" lon="4.95488">
        <ele>305.5</ele>
        <time>2012-09-05T08:11:43.33</time>
      </trkpt>
      <trkpt lat="45.55874" lon="4.95485">
        <ele>307</ele>
        <time>2012-09-05T08:11:44.33</time>
      </trkpt>
      <trkpt lat="45.55875" lon="4.95487">
        <ele>307</ele>
        <time>2012-09-05T08:11:45.33</time>
      </trkpt>
      <trkpt lat="45.55886" lon="4.95485">
        <ele>307.5</ele>
        <time>2012-09-05T08:11:47.41</time>
      </trkpt>
      <trkpt lat="45.55897" lon="4.95487">
        <ele>308</ele>
        <time>2012-09-05T08:11:49.41</time>
      </trkpt>
      <trkpt lat="45.55901" lon="4.95487">
        <ele>308.5</ele>
        <time>2012-09-05T08:11:50.41</time>
      </trkpt>
      <trkpt lat="45.55906" lon="4.95487">
        <ele>309</ele>
        <time>2012-09-05T08:11:51.41</time>
      </trkpt>
      <trkpt lat="45.55908" lon="4.95488">
        <ele>309.5</ele>
        <time>2012-09-05T08:11:52.40</time>
      </trkpt>
      <trkpt lat="45.5591" lon="4.9549">
        <ele>309</ele>
        <time>2012-09-05T08:11:53.40</time>
      </trkpt>
      <trkpt lat="45.55913" lon="4.95489">
        <ele>309.5</ele>
        <time>2012-09-05T08:11:54.40</time>
      </trkpt>
      <trkpt lat="45.55917" lon="4.9549">
        <ele>310.5</ele>
        <time>2012-09-05T08:11:55.39</time>
      </trkpt>
      <trkpt lat="45.55921" lon="4.95491">
        <ele>311</ele>
        <time>2012-09-05T08:11:56.39</time>
      </trkpt>
      <trkpt lat="45.55926" lon="4.9549">
        <ele>311.5</ele>
        <time>2012-09-05T08:11:57.39</time>
      </trkpt>
      <trkpt lat="45.55928" lon="4.9549">
        <ele>312</ele>
        <time>2012-09-05T08:11:58.39</time>
      </trkpt>
      <trkpt lat="45.55932" lon="4.95491">
        <ele>312.5</ele>
        <time>2012-09-05T08:11:59.39</time>
      </trkpt>
      <trkpt lat="45.55935" lon="4.9549">
        <ele>313.5</ele>
        <time>2012-09-05T08:12:00.39</time>
      </trkpt>
      <trkpt lat="45.55939" lon="4.9549">
        <ele>314.5</ele>
        <time>2012-09-05T08:12:01.39</time>
      </trkpt>
      <trkpt lat="45.55941" lon="4.95492">
        <ele>314.5</ele>
        <time>2012-09-05T08:12:02.39</time>
      </trkpt>
      <trkpt lat="45.55961" lon="4.95492">
        <ele>316</ele>
        <time>2012-09-05T08:12:05.47</time>
      </trkpt>
      <trkpt lat="45.55966" lon="4.95491">
        <ele>316.5</ele>
        <time>2012-09-05T08:12:06.46</time>
      </trkpt>
      <trkpt lat="45.55971" lon="4.95492">
        <ele>317.5</ele>
        <time>2012-09-05T08:12:07.46</time>
      </trkpt>
      <trkpt lat="45.55973" lon="4.95491">
        <ele>318</ele>
        <time>2012-09-05T08:12:08.45</time>
      </trkpt>
      <trkpt lat="45.55981" lon="4.95491">
        <ele>317.5</ele>
        <time>2012-09-05T08:12:10.45</time>
      </trkpt>
      <trkpt lat="45.55985" lon="4.95489">
        <ele>318</ele>
        <time>2012-09-05T08:12:11.46</time>
      </trkpt>
      <trkpt lat="45.55989" lon="4.95489">
        <ele>318</ele>
        <time>2012-09-05T08:12:12.45</time>
      </trkpt>
      <trkpt lat="45.55993" lon="4.95487">
        <ele>318.5</ele>
        <time>2012-09-05T08:12:13.45</time>
      </trkpt>
      <trkpt lat="45.55996" lon="4.95487">
        <ele>319</ele>
        <time>2012-09-05T08:12:14.45</time>
      </trkpt>
      <trkpt lat="45.56" lon="4.95487">
        <ele>319.5</ele>
        <time>2012-09-05T08:12:15.45</time>
      </trkpt>
      <trkpt lat="45.56003" lon="4.95485">
        <ele>320.5</ele>
        <time>2012-09-05T08:12:16.44</time>
      </trkpt>
      <trkpt lat="45.56006" lon="4.95485">
        <ele>321.5</ele>
        <time>2012-09-05T08:12:17.44</time>
      </trkpt>
      <trkpt lat="45.5601" lon="4.95485">
        <ele>321.5</ele>
        <time>2012-09-05T08:12:18.44</time>
      </trkpt>
      <trkpt lat="45.56014" lon="4.95486">
        <ele>321.5</ele>
        <time>2012-09-05T08:12:19.43</time>
      </trkpt>
      <trkpt lat="45.56017" lon="4.95486">
        <ele>321.5</ele>
        <time>2012-09-05T08:12:20.43</time>
      </trkpt>
      <trkpt lat="45.56021" lon="4.95486">
        <ele>322</ele>
        <time>2012-09-05T08:12:21.42</time>
      </trkpt>
      <trkpt lat="45.56025" lon="4.95487">
        <ele>322</ele>
        <time>2012-09-05T08:12:22.42</time>
      </trkpt>
      <trkpt lat="45.56029" lon="4.95488">
        <ele>322</ele>
        <time>2012-09-05T08:12:23.42</time>
      </trkpt>
      <trkpt lat="45.56033" lon="4.95488">
        <ele>321.5</ele>
        <time>2012-09-05T08:12:24.42</time>
      </trkpt>
      <trkpt lat="45.56036" lon="4.95489">
        <ele>321.5</ele>
        <time>2012-09-05T08:12:25.42</time>
      </trkpt>
      <trkpt lat="45.5604" lon="4.95489">
        <ele>321.5</ele>
        <time>2012-09-05T08:12:26.42</time>
      </trkpt>
      <trkpt lat="45.56042" lon="4.95489">
        <ele>323</ele>
        <time>2012-09-05T08:12:27.42</time>
      </trkpt>
      <trkpt lat="45.56045" lon="4.9549">
        <ele>324</ele>
        <time>2012-09-05T08:12:28.42</time>
      </trkpt>
      <trkpt lat="45.56048" lon="4.95491">
        <ele>324.5</ele>
        <time>2012-09-05T08:12:29.42</time>
      </trkpt>
      <trkpt lat="45.56051" lon="4.95492">
        <ele>325</ele>
        <time>2012-09-05T08:12:30.42</time>
      </trkpt>
      <trkpt lat="45.56054" lon="4.95493">
        <ele>326</ele>
        <time>2012-09-05T08:12:31.42</time>
      </trkpt>
      <trkpt lat="45.56058" lon="4.95493">
        <ele>326.5</ele>
        <time>2012-09-05T08:12:32.42</time>
      </trkpt>
      <trkpt lat="45.56061" lon="4.95494">
        <ele>327</ele>
        <time>2012-09-05T08:12:33.41</time>
      </trkpt>
      <trkpt lat="45.56064" lon="4.95494">
        <ele>328</ele>
        <time>2012-09-05T08:12:34.41</time>
      </trkpt>
      <trkpt lat="45.56068" lon="4.95494">
        <ele>328.5</ele>
        <time>2012-09-05T08:12:35.41</time>
      </trkpt>
      <trkpt lat="45.56072" lon="4.95496">
        <ele>329</ele>
        <time>2012-09-05T08:12:36.41</time>
      </trkpt>
      <trkpt lat="45.56075" lon="4.95497">
        <ele>330</ele>
        <time>2012-09-05T08:12:37.41</time>
      </trkpt>
      <trkpt lat="45.56078" lon="4.95498">
        <ele>331</ele>
        <time>2012-09-05T08:12:38.41</time>
      </trkpt>
      <trkpt lat="45.56081" lon="4.955">
        <ele>331.5</ele>
        <time>2012-09-05T08:12:39.41</time>
      </trkpt>
      <trkpt lat="45.56083" lon="4.95501">
        <ele>332.5</ele>
        <time>2012-09-05T08:12:40.41</time>
      </trkpt>
      <trkpt lat="45.56086" lon="4.95501">
        <ele>333</ele>
        <time>2012-09-05T08:12:41.41</time>
      </trkpt>
      <trkpt lat="45.56088" lon="4.95503">
        <ele>334</ele>
        <time>2012-09-05T08:12:42.41</time>
      </trkpt>
      <trkpt lat="45.56092" lon="4.95503">
        <ele>334</ele>
        <time>2012-09-05T08:12:43.41</time>
      </trkpt>
      <trkpt lat="45.561" lon="4.95506">
        <ele>335</ele>
        <time>2012-09-05T08:12:46.33</time>
      </trkpt>
      <trkpt lat="45.56106" lon="4.9551">
        <ele>335</ele>
        <time>2012-09-05T08:12:47.46</time>
      </trkpt>
      <trkpt lat="45.56109" lon="4.95511">
        <ele>335.5</ele>
        <time>2012-09-05T08:12:48.46</time>
      </trkpt>
      <trkpt lat="45.56112" lon="4.95511">
        <ele>336.5</ele>
        <time>2012-09-05T08:12:49.46</time>
      </trkpt>
      <trkpt lat="45.56115" lon="4.95512">
        <ele>338</ele>
        <time>2012-09-05T08:12:50.46</time>
      </trkpt>
      <trkpt lat="45.56116" lon="4.95513">
        <ele>339.5</ele>
        <time>2012-09-05T08:12:51.45</time>
      </trkpt>
      <trkpt lat="45.56118" lon="4.95514">
        <ele>340.5</ele>
        <time>2012-09-05T08:12:52.44</time>
      </trkpt>
      <trkpt lat="45.56121" lon="4.95515">
        <ele>341.5</ele>
        <time>2012-09-05T08:12:53.44</time>
      </trkpt>
      <trkpt lat="45.56124" lon="4.95516">
        <ele>343</ele>
        <time>2012-09-05T08:12:54.44</time>
      </trkpt>
      <trkpt lat="45.56127" lon="4.95517">
        <ele>343.5</ele>
        <time>2012-09-05T08:12:55.44</time>
      </trkpt>
      <trkpt lat="45.56131" lon="4.95517">
        <ele>344</ele>
        <time>2012-09-05T08:12:56.44</time>
      </trkpt>
      <trkpt lat="45.56133" lon="4.9552">
        <ele>343.5</ele>
        <time>2012-09-05T08:12:57.44</time>
      </trkpt>
      <trkpt lat="45.56138" lon="4.95522">
        <ele>345</ele>
        <time>2012-09-05T08:12:58.44</time>
      </trkpt>
      <trkpt lat="45.5614" lon="4.95525">
        <ele>345</ele>
        <time>2012-09-05T08:12:59.43</time>
      </trkpt>
      <trkpt lat="45.5616" lon="4.95535">
        <ele>348</ele>
        <time>2012-09-05T08:13:02.47</time>
      </trkpt>
      <trkpt lat="45.56165" lon="4.95536">
        <ele>350</ele>
        <time>2012-09-05T08:13:03.47</time>
      </trkpt>
      <trkpt lat="45.56172" lon="4.9554">
        <ele>353</ele>
        <time>2012-09-05T08:13:05.47</time>
      </trkpt>
      <trkpt lat="45.56176" lon="4.95542">
        <ele>353</ele>
        <time>2012-09-05T08:13:06.47</time>
      </trkpt>
      <trkpt lat="45.56179" lon="4.95543">
        <ele>353</ele>
        <time>2012-09-05T08:13:07.46</time>
      </trkpt>
      <trkpt lat="45.56181" lon="4.95546">
        <ele>353</ele>
        <time>2012-09-05T08:13:08.46</time>
      </trkpt>
      <trkpt lat="45.56185" lon="4.95549">
        <ele>354.5</ele>
        <time>2012-09-05T08:13:09.46</time>
      </trkpt>
      <trkpt lat="45.56187" lon="4.95552">
        <ele>356</ele>
        <time>2012-09-05T08:13:10.45</time>
      </trkpt>
      <trkpt lat="45.5619" lon="4.95554">
        <ele>356</ele>
        <time>2012-09-05T08:13:11.45</time>
      </trkpt>
      <trkpt lat="45.56193" lon="4.95556">
        <ele>357.5</ele>
        <time>2012-09-05T08:13:12.44</time>
      </trkpt>
      <trkpt lat="45.56195" lon="4.95558">
        <ele>359</ele>
        <time>2012-09-05T08:13:13.44</time>
      </trkpt>
      <trkpt lat="45.56199" lon="4.9556">
        <ele>361</ele>
        <time>2012-09-05T08:13:14.44</time>
      </trkpt>
      <trkpt lat="45.5621" lon="4.9557">
        <ele>361.5</ele>
        <time>2012-09-05T08:13:17.17</time>
      </trkpt>
      <trkpt lat="45.56215" lon="4.95572">
        <ele>362</ele>
        <time>2012-09-05T08:13:18.43</time>
      </trkpt>
      <trkpt lat="45.56221" lon="4.95578">
        <ele>365</ele>
        <time>2012-09-05T08:13:19.99</time>
      </trkpt>
      <trkpt lat="45.56222" lon="4.95587">
        <ele>366.5</ele>
        <time>2012-09-05T08:13:21.95</time>
      </trkpt>
      <trkpt lat="45.56228" lon="4.95592">
        <ele>370</ele>
        <time>2012-09-05T08:13:23.94</time>
      </trkpt>
      <trkpt lat="45.56235" lon="4.956">
        <ele>371.5</ele>
        <time>2012-09-05T08:13:25.95</time>
      </trkpt>
      <trkpt lat="45.56238" lon="4.95613">
        <ele>373</ele>
        <time>2012-09-05T08:13:27.92</time>
      </trkpt>
      <trkpt lat="45.5624" lon="4.95616">
        <ele>374.5</ele>
        <time>2012-09-05T08:13:28.89</time>
      </trkpt>
      <trkpt lat="45.5624" lon="4.9562">
        <ele>376.5</ele>
        <time>2012-09-05T08:13:29.92</time>
      </trkpt>
      <trkpt lat="45.5624" lon="4.95623">
        <ele>378.5</ele>
        <time>2012-09-05T08:13:30.89</time>
      </trkpt>
      <trkpt lat="45.56241" lon="4.95626">
        <ele>378</ele>
        <time>2012-09-05T08:13:31.91</time>
      </trkpt>
      <trkpt lat="45.56242" lon="4.95632">
        <ele>380</ele>
        <time>2012-09-05T08:13:33.93</time>
      </trkpt>
      <trkpt lat="45.56242" lon="4.95636">
        <ele>382</ele>
        <time>2012-09-05T08:13:34.91</time>
      </trkpt>
      <trkpt lat="45.56243" lon="4.9565">
        <ele>386</ele>
        <time>2012-09-05T08:13:36.91</time>
      </trkpt>
      <trkpt lat="45.56247" lon="4.9566">
        <ele>387.5</ele>
        <time>2012-09-05T08:13:38.91</time>
      </trkpt>
      <trkpt lat="45.56248" lon="4.95666">
        <ele>390.5</ele>
        <time>2012-09-05T08:13:40.89</time>
      </trkpt>
      <trkpt lat="45.56249" lon="4.95671">
        <ele>390</ele>
        <time>2012-09-05T08:13:42.39</time>
      </trkpt>
      <trkpt lat="45.56265" lon="4.95685">
        <ele>390</ele>
        <time>2012-09-05T08:13:45.98</time>
      </trkpt>
      <trkpt lat="45.56272" lon="4.9568">
        <ele>391</ele>
        <time>2012-09-05T08:13:47.98</time>
      </trkpt>
      <trkpt lat="45.56277" lon="4.9568">
        <ele>391.5</ele>
        <time>2012-09-05T08:13:50.01</time>
      </trkpt>
      <trkpt lat="45.56283" lon="4.95675">
        <ele>392</ele>
        <time>2012-09-05T08:13:51.97</time>
      </trkpt>
      <trkpt lat="45.5629" lon="4.95667">
        <ele>393.5</ele>
        <time>2012-09-05T08:13:53.97</time>
      </trkpt>
      <trkpt lat="45.56298" lon="4.95663">
        <ele>394</ele>
        <time>2012-09-05T08:13:55.99</time>
      </trkpt>
      <trkpt lat="45.56305" lon="4.9566">
        <ele>394.5</ele>
        <time>2012-09-05T08:13:57.96</time>
      </trkpt>
      <trkpt lat="45.56309" lon="4.95659">
        <ele>395</ele>
        <time>2012-09-05T08:13:58.95</time>
      </trkpt>
      <trkpt lat="45.56316" lon="4.95658">
        <ele>396</ele>
        <time>2012-09-05T08:14:00.94</time>
      </trkpt>
      <trkpt lat="45.5632" lon="4.95657">
        <ele>396.5</ele>
        <time>2012-09-05T08:14:01.98</time>
      </trkpt>
      <trkpt lat="45.56328" lon="4.95657">
        <ele>398.5</ele>
        <time>2012-09-05T08:14:03.93</time>
      </trkpt>
      <trkpt lat="45.56332" lon="4.95657">
        <ele>399</ele>
        <time>2012-09-05T08:14:04.94</time>
      </trkpt>
      <trkpt lat="45.5634" lon="4.95655">
        <ele>401</ele>
        <time>2012-09-05T08:14:06.93</time>
      </trkpt>
      <trkpt lat="45.56348" lon="4.95655">
        <ele>403</ele>
        <time>2012-09-05T08:14:08.91</time>
      </trkpt>
      <trkpt lat="45.56351" lon="4.95656">
        <ele>401.5</ele>
        <time>2012-09-05T08:14:09.89</time>
      </trkpt>
      <trkpt lat="45.56355" lon="4.95656">
        <ele>402</ele>
        <time>2012-09-05T08:14:10.90</time>
      </trkpt>
      <trkpt lat="45.56362" lon="4.95656">
        <ele>404.5</ele>
        <time>2012-09-05T08:14:12.89</time>
      </trkpt>
      <trkpt lat="45.56366" lon="4.95657">
        <ele>405.5</ele>
        <time>2012-09-05T08:14:13.93</time>
      </trkpt>
      <trkpt lat="45.56374" lon="4.95658">
        <ele>407</ele>
        <time>2012-09-05T08:14:15.90</time>
      </trkpt>
      <trkpt lat="45.56381" lon="4.95658">
        <ele>410</ele>
        <time>2012-09-05T08:14:17.89</time>
      </trkpt>
      <trkpt lat="45.5639" lon="4.95662">
        <ele>409.5</ele>
        <time>2012-09-05T08:14:19.92</time>
      </trkpt>
      <trkpt lat="45.56396" lon="4.95663">
        <ele>411</ele>
        <time>2012-09-05T08:14:21.88</time>
      </trkpt>
      <trkpt lat="45.56402" lon="4.95666">
        <ele>411.5</ele>
        <time>2012-09-05T08:14:23.87</time>
      </trkpt>
      <trkpt lat="45.5641" lon="4.95668">
        <ele>412.5</ele>
        <time>2012-09-05T08:14:25.87</time>
      </trkpt>
      <trkpt lat="45.56418" lon="4.9567">
        <ele>412</ele>
        <time>2012-09-05T08:14:27.82</time>
      </trkpt>
      <trkpt lat="45.56421" lon="4.95671">
        <ele>412</ele>
        <time>2012-09-05T08:14:28.82</time>
      </trkpt>
      <trkpt lat="45.56425" lon="4.95671">
        <ele>412.5</ele>
        <time>2012-09-05T08:14:29.81</time>
      </trkpt>
      <trkpt lat="45.56429" lon="4.95672">
        <ele>412.5</ele>
        <time>2012-09-05T08:14:30.81</time>
      </trkpt>
      <trkpt lat="45.56432" lon="4.95672">
        <ele>412.5</ele>
        <time>2012-09-05T08:14:31.82</time>
      </trkpt>
      <trkpt lat="45.56436" lon="4.95672">
        <ele>412.5</ele>
        <time>2012-09-05T08:14:32.80</time>
      </trkpt>
      <trkpt lat="45.56439" lon="4.95673">
        <ele>413</ele>
        <time>2012-09-05T08:14:33.79</time>
      </trkpt>
      <trkpt lat="45.56443" lon="4.95673">
        <ele>414</ele>
        <time>2012-09-05T08:14:34.79</time>
      </trkpt>
      <trkpt lat="45.56446" lon="4.95673">
        <ele>415</ele>
        <time>2012-09-05T08:14:35.78</time>
      </trkpt>
      <trkpt lat="45.56448" lon="4.95676">
        <ele>414.5</ele>
        <time>2012-09-05T08:14:36.78</time>
      </trkpt>
      <trkpt lat="45.56456" lon="4.95684">
        <ele>416</ele>
        <time>2012-09-05T08:14:38.77</time>
      </trkpt>
      <trkpt lat="45.56463" lon="4.95679">
        <ele>417</ele>
        <time>2012-09-05T08:14:40.77</time>
      </trkpt>
      <trkpt lat="45.56475" lon="4.95686">
        <ele>418</ele>
        <time>2012-09-05T08:14:42.80</time>
      </trkpt>
      <trkpt lat="45.56482" lon="4.95686">
        <ele>419.5</ele>
        <time>2012-09-05T08:14:44.29</time>
      </trkpt>
      <trkpt lat="45.56497" lon="4.95683">
        <ele>417.5</ele>
        <time>2012-09-05T08:14:46.78</time>
      </trkpt>
      <trkpt lat="45.56502" lon="4.95682">
        <ele>418</ele>
        <time>2012-09-05T08:14:47.79</time>
      </trkpt>
      <trkpt lat="45.56511" lon="4.9568">
        <ele>417.5</ele>
        <time>2012-09-05T08:14:49.81</time>
      </trkpt>
      <trkpt lat="45.56518" lon="4.95676">
        <ele>415.5</ele>
        <time>2012-09-05T08:14:51.75</time>
      </trkpt>
      <trkpt lat="45.56523" lon="4.95674">
        <ele>416</ele>
        <time>2012-09-05T08:14:52.78</time>
      </trkpt>
      <trkpt lat="45.56527" lon="4.95671">
        <ele>416</ele>
        <time>2012-09-05T08:14:53.77</time>
      </trkpt>
      <trkpt lat="45.5653" lon="4.95669">
        <ele>416</ele>
        <time>2012-09-05T08:14:54.77</time>
      </trkpt>
      <trkpt lat="45.56534" lon="4.95666">
        <ele>413</ele>
        <time>2012-09-05T08:14:55.76</time>
      </trkpt>
      <trkpt lat="45.56537" lon="4.95663">
        <ele>413</ele>
        <time>2012-09-05T08:14:56.76</time>
      </trkpt>
      <trkpt lat="45.5654" lon="4.95661">
        <ele>413</ele>
        <time>2012-09-05T08:14:57.75</time>
      </trkpt>
      <trkpt lat="45.56543" lon="4.95661">
        <ele>413.5</ele>
        <time>2012-09-05T08:14:58.75</time>
      </trkpt>
      <trkpt lat="45.56547" lon="4.95661">
        <ele>413.5</ele>
        <time>2012-09-05T08:14:59.75</time>
      </trkpt>
      <trkpt lat="45.56549" lon="4.95663">
        <ele>411</ele>
        <time>2012-09-05T08:15:00.74</time>
      </trkpt>
      <trkpt lat="45.5655" lon="4.95665">
        <ele>411</ele>
        <time>2012-09-05T08:15:01.73</time>
      </trkpt>
      <trkpt lat="45.56551" lon="4.95668">
        <ele>409.5</ele>
        <time>2012-09-05T08:15:02.73</time>
      </trkpt>
      <trkpt lat="45.56552" lon="4.9567">
        <ele>407</ele>
        <time>2012-09-05T08:15:03.73</time>
      </trkpt>
      <trkpt lat="45.56553" lon="4.95675">
        <ele>406</ele>
        <time>2012-09-05T08:15:05.68</time>
      </trkpt>
      <trkpt lat="45.56553" lon="4.95678">
        <ele>406</ele>
        <time>2012-09-05T08:15:06.68</time>
      </trkpt>
      <trkpt lat="45.56552" lon="4.95682">
        <ele>407</ele>
        <time>2012-09-05T08:15:07.67</time>
      </trkpt>
      <trkpt lat="45.56552" lon="4.95685">
        <ele>407</ele>
        <time>2012-09-05T08:15:08.67</time>
      </trkpt>
      <trkpt lat="45.56552" lon="4.95688">
        <ele>408</ele>
        <time>2012-09-05T08:15:09.67</time>
      </trkpt>
      <trkpt lat="45.56551" lon="4.95691">
        <ele>409</ele>
        <time>2012-09-05T08:15:10.67</time>
      </trkpt>
      <trkpt lat="45.56551" lon="4.95695">
        <ele>409.5</ele>
        <time>2012-09-05T08:15:11.67</time>
      </trkpt>
      <trkpt lat="45.5655" lon="4.95699">
        <ele>410.5</ele>
        <time>2012-09-05T08:15:12.66</time>
      </trkpt>
      <trkpt lat="45.5655" lon="4.95702">
        <ele>411.5</ele>
        <time>2012-09-05T08:15:13.67</time>
      </trkpt>
      <trkpt lat="45.56549" lon="4.95705">
        <ele>412</ele>
        <time>2012-09-05T08:15:14.65</time>
      </trkpt>
      <trkpt lat="45.56549" lon="4.95707">
        <ele>412.5</ele>
        <time>2012-09-05T08:15:15.65</time>
      </trkpt>
      <trkpt lat="45.56549" lon="4.9571">
        <ele>413</ele>
        <time>2012-09-05T08:15:16.65</time>
      </trkpt>
      <trkpt lat="45.56548" lon="4.95713">
        <ele>413</ele>
        <time>2012-09-05T08:15:17.69</time>
      </trkpt>
      <trkpt lat="45.56548" lon="4.95716">
        <ele>414</ele>
        <time>2012-09-05T08:15:18.67</time>
      </trkpt>
      <trkpt lat="45.56548" lon="4.95719">
        <ele>414</ele>
        <time>2012-09-05T08:15:19.67</time>
      </trkpt>
      <trkpt lat="45.56548" lon="4.95723">
        <ele>414</ele>
        <time>2012-09-05T08:15:20.66</time>
      </trkpt>
      <trkpt lat="45.56547" lon="4.95727">
        <ele>414</ele>
        <time>2012-09-05T08:15:21.65</time>
      </trkpt>
      <trkpt lat="45.56546" lon="4.95731">
        <ele>415</ele>
        <time>2012-09-05T08:15:22.64</time>
      </trkpt>
      <trkpt lat="45.56546" lon="4.95734">
        <ele>415</ele>
        <time>2012-09-05T08:15:23.61</time>
      </trkpt>
      <trkpt lat="45.56545" lon="4.95738">
        <ele>414.5</ele>
        <time>2012-09-05T08:15:24.67</time>
      </trkpt>
      <trkpt lat="45.56545" lon="4.95742">
        <ele>414.5</ele>
        <time>2012-09-05T08:15:25.62</time>
      </trkpt>
      <trkpt lat="45.56545" lon="4.95746">
        <ele>415</ele>
        <time>2012-09-05T08:15:26.58</time>
      </trkpt>
      <trkpt lat="45.56544" lon="4.95751">
        <ele>414</ele>
        <time>2012-09-05T08:15:27.60</time>
      </trkpt>
      <trkpt lat="45.56543" lon="4.95755">
        <ele>414</ele>
        <time>2012-09-05T08:15:28.57</time>
      </trkpt>
      <trkpt lat="45.56542" lon="4.95759">
        <ele>414.5</ele>
        <time>2012-09-05T08:15:29.57</time>
      </trkpt>
      <trkpt lat="45.56541" lon="4.95763">
        <ele>413</ele>
        <time>2012-09-05T08:15:30.56</time>
      </trkpt>
      <trkpt lat="45.56541" lon="4.95767">
        <ele>412.5</ele>
        <time>2012-09-05T08:15:31.58</time>
      </trkpt>
      <trkpt lat="45.56541" lon="4.9577">
        <ele>410.5</ele>
        <time>2012-09-05T08:15:32.58</time>
      </trkpt>
      <trkpt lat="45.56541" lon="4.95774">
        <ele>409</ele>
        <time>2012-09-05T08:15:33.59</time>
      </trkpt>
      <trkpt lat="45.56541" lon="4.95779">
        <ele>408</ele>
        <time>2012-09-05T08:15:34.57</time>
      </trkpt>
      <trkpt lat="45.5654" lon="4.95783">
        <ele>408</ele>
        <time>2012-09-05T08:15:35.57</time>
      </trkpt>
      <trkpt lat="45.5654" lon="4.95788">
        <ele>407.5</ele>
        <time>2012-09-05T08:15:36.57</time>
      </trkpt>
      <trkpt lat="45.56538" lon="4.95791">
        <ele>408.5</ele>
        <time>2012-09-05T08:15:37.53</time>
      </trkpt>
      <trkpt lat="45.56538" lon="4.95795">
        <ele>409</ele>
        <time>2012-09-05T08:15:38.52</time>
      </trkpt>
      <trkpt lat="45.56538" lon="4.95799">
        <ele>408.5</ele>
        <time>2012-09-05T08:15:39.52</time>
      </trkpt>
      <trkpt lat="45.56538" lon="4.95803">
        <ele>408</ele>
        <time>2012-09-05T08:15:40.51</time>
      </trkpt>
      <trkpt lat="45.56538" lon="4.95808">
        <ele>406</ele>
        <time>2012-09-05T08:15:41.51</time>
      </trkpt>
      <trkpt lat="45.56537" lon="4.95812">
        <ele>405.5</ele>
        <time>2012-09-05T08:15:42.50</time>
      </trkpt>
      <trkpt lat="45.56537" lon="4.95815">
        <ele>406.5</ele>
        <time>2012-09-05T08:15:43.50</time>
      </trkpt>
      <trkpt lat="45.56536" lon="4.9582">
        <ele>407</ele>
        <time>2012-09-05T08:15:44.50</time>
      </trkpt>
      <trkpt lat="45.56536" lon="4.95824">
        <ele>406</ele>
        <time>2012-09-05T08:15:45.52</time>
      </trkpt>
      <trkpt lat="45.56535" lon="4.95828">
        <ele>406.5</ele>
        <time>2012-09-05T08:15:46.52</time>
      </trkpt>
      <trkpt lat="45.56535" lon="4.95832">
        <ele>406.5</ele>
        <time>2012-09-05T08:15:47.49</time>
      </trkpt>
      <trkpt lat="45.56535" lon="4.95837">
        <ele>407</ele>
        <time>2012-09-05T08:15:48.51</time>
      </trkpt>
      <trkpt lat="45.56534" lon="4.95841">
        <ele>406.5</ele>
        <time>2012-09-05T08:15:49.51</time>
      </trkpt>
      <trkpt lat="45.56533" lon="4.95846">
        <ele>405</ele>
        <time>2012-09-05T08:15:50.50</time>
      </trkpt>
      <trkpt lat="45.56533" lon="4.9585">
        <ele>404.5</ele>
        <time>2012-09-05T08:15:51.50</time>
      </trkpt>
      <trkpt lat="45.56532" lon="4.95855">
        <ele>404</ele>
        <time>2012-09-05T08:15:52.49</time>
      </trkpt>
      <trkpt lat="45.56531" lon="4.95859">
        <ele>403</ele>
        <time>2012-09-05T08:15:53.49</time>
      </trkpt>
      <trkpt lat="45.5653" lon="4.95864">
        <ele>403</ele>
        <time>2012-09-05T08:15:54.48</time>
      </trkpt>
      <trkpt lat="45.56529" lon="4.95868">
        <ele>403</ele>
        <time>2012-09-05T08:15:55.47</time>
      </trkpt>
      <trkpt lat="45.56527" lon="4.95873">
        <ele>403</ele>
        <time>2012-09-05T08:15:56.47</time>
      </trkpt>
      <trkpt lat="45.56526" lon="4.95877">
        <ele>403.5</ele>
        <time>2012-09-05T08:15:57.46</time>
      </trkpt>
      <trkpt lat="45.56524" lon="4.95882">
        <ele>403</ele>
        <time>2012-09-05T08:15:58.46</time>
      </trkpt>
      <trkpt lat="45.56523" lon="4.95887">
        <ele>402.5</ele>
        <time>2012-09-05T08:15:59.45</time>
      </trkpt>
      <trkpt lat="45.56521" lon="4.95892">
        <ele>403</ele>
        <time>2012-09-05T08:16:00.45</time>
      </trkpt>
      <trkpt lat="45.56519" lon="4.95897">
        <ele>402</ele>
        <time>2012-09-05T08:16:01.44</time>
      </trkpt>
      <trkpt lat="45.56517" lon="4.95902">
        <ele>401.5</ele>
        <time>2012-09-05T08:16:02.44</time>
      </trkpt>
      <trkpt lat="45.56515" lon="4.95907">
        <ele>402</ele>
        <time>2012-09-05T08:16:03.43</time>
      </trkpt>
      <trkpt lat="45.56514" lon="4.95912">
        <ele>400.5</ele>
        <time>2012-09-05T08:16:04.42</time>
      </trkpt>
      <trkpt lat="45.56512" lon="4.95916">
        <ele>400</ele>
        <time>2012-09-05T08:16:05.42</time>
      </trkpt>
      <trkpt lat="45.5651" lon="4.95921">
        <ele>400.5</ele>
        <time>2012-09-05T08:16:06.42</time>
      </trkpt>
      <trkpt lat="45.56507" lon="4.95926">
        <ele>400</ele>
        <time>2012-09-05T08:16:07.43</time>
      </trkpt>
      <trkpt lat="45.56505" lon="4.95931">
        <ele>400</ele>
        <time>2012-09-05T08:16:08.42</time>
      </trkpt>
      <trkpt lat="45.56503" lon="4.95936">
        <ele>400</ele>
        <time>2012-09-05T08:16:09.38</time>
      </trkpt>
      <trkpt lat="45.56501" lon="4.95941">
        <ele>400.5</ele>
        <time>2012-09-05T08:16:10.40</time>
      </trkpt>
      <trkpt lat="45.56499" lon="4.95946">
        <ele>400.5</ele>
        <time>2012-09-05T08:16:11.40</time>
      </trkpt>
      <trkpt lat="45.56497" lon="4.95951">
        <ele>401</ele>
        <time>2012-09-05T08:16:12.39</time>
      </trkpt>
      <trkpt lat="45.56495" lon="4.95956">
        <ele>401</ele>
        <time>2012-09-05T08:16:13.40</time>
      </trkpt>
      <trkpt lat="45.56493" lon="4.95961">
        <ele>401</ele>
        <time>2012-09-05T08:16:14.38</time>
      </trkpt>
      <trkpt lat="45.56492" lon="4.95966">
        <ele>401.5</ele>
        <time>2012-09-05T08:16:15.39</time>
      </trkpt>
      <trkpt lat="45.5649" lon="4.9597">
        <ele>401.5</ele>
        <time>2012-09-05T08:16:16.37</time>
      </trkpt>
      <trkpt lat="45.56488" lon="4.95975">
        <ele>401.5</ele>
        <time>2012-09-05T08:16:17.37</time>
      </trkpt>
      <trkpt lat="45.56487" lon="4.9598">
        <ele>402</ele>
        <time>2012-09-05T08:16:18.36</time>
      </trkpt>
      <trkpt lat="45.56485" lon="4.95984">
        <ele>402</ele>
        <time>2012-09-05T08:16:19.36</time>
      </trkpt>
      <trkpt lat="45.56484" lon="4.95989">
        <ele>402</ele>
        <time>2012-09-05T08:16:20.35</time>
      </trkpt>
      <trkpt lat="45.56483" lon="4.95994">
        <ele>402</ele>
        <time>2012-09-05T08:16:21.34</time>
      </trkpt>
      <trkpt lat="45.56482" lon="4.95999">
        <ele>402.5</ele>
        <time>2012-09-05T08:16:22.34</time>
      </trkpt>
      <trkpt lat="45.5648" lon="4.96004">
        <ele>402</ele>
        <time>2012-09-05T08:16:23.32</time>
      </trkpt>
      <trkpt lat="45.56479" lon="4.96009">
        <ele>402.5</ele>
        <time>2012-09-05T08:16:24.32</time>
      </trkpt>
      <trkpt lat="45.56478" lon="4.96014">
        <ele>402</ele>
        <time>2012-09-05T08:16:25.31</time>
      </trkpt>
      <trkpt lat="45.56477" lon="4.96018">
        <ele>401.5</ele>
        <time>2012-09-05T08:16:26.31</time>
      </trkpt>
      <trkpt lat="45.56476" lon="4.96022">
        <ele>402</ele>
        <time>2012-09-05T08:16:27.30</time>
      </trkpt>
      <trkpt lat="45.56475" lon="4.96026">
        <ele>401</ele>
        <time>2012-09-05T08:16:28.30</time>
      </trkpt>
      <trkpt lat="45.56474" lon="4.9603">
        <ele>401</ele>
        <time>2012-09-05T08:16:29.30</time>
      </trkpt>
      <trkpt lat="45.56473" lon="4.96034">
        <ele>400</ele>
        <time>2012-09-05T08:16:30.30</time>
      </trkpt>
      <trkpt lat="45.56472" lon="4.96038">
        <ele>400</ele>
        <time>2012-09-05T08:16:31.30</time>
      </trkpt>
      <trkpt lat="45.56472" lon="4.96041">
        <ele>401.5</ele>
        <time>2012-09-05T08:16:32.31</time>
      </trkpt>
      <trkpt lat="45.56471" lon="4.96046">
        <ele>401.5</ele>
        <time>2012-09-05T08:16:33.29</time>
      </trkpt>
      <trkpt lat="45.56471" lon="4.96049">
        <ele>402.5</ele>
        <time>2012-09-05T08:16:34.28</time>
      </trkpt>
      <trkpt lat="45.56471" lon="4.96054">
        <ele>400.5</ele>
        <time>2012-09-05T08:16:35.28</time>
      </trkpt>
      <trkpt lat="45.5647" lon="4.96057">
        <ele>401.5</ele>
        <time>2012-09-05T08:16:36.27</time>
      </trkpt>
      <trkpt lat="45.56469" lon="4.96061">
        <ele>401.5</ele>
        <time>2012-09-05T08:16:37.27</time>
      </trkpt>
      <trkpt lat="45.56468" lon="4.96065">
        <ele>401.5</ele>
        <time>2012-09-05T08:16:38.26</time>
      </trkpt>
      <trkpt lat="45.56467" lon="4.96069">
        <ele>402</ele>
        <time>2012-09-05T08:16:39.26</time>
      </trkpt>
      <trkpt lat="45.56467" lon="4.96072">
        <ele>402</ele>
        <time>2012-09-05T08:16:40.28</time>
      </trkpt>
      <trkpt lat="45.56466" lon="4.96076">
        <ele>401.5</ele>
        <time>2012-09-05T08:16:41.25</time>
      </trkpt>
      <trkpt lat="45.56466" lon="4.96079">
        <ele>401.5</ele>
        <time>2012-09-05T08:16:42.24</time>
      </trkpt>
      <trkpt lat="45.56466" lon="4.96083">
        <ele>401</ele>
        <time>2012-09-05T08:16:43.24</time>
      </trkpt>
      <trkpt lat="45.56465" lon="4.96087">
        <ele>401.5</ele>
        <time>2012-09-05T08:16:44.24</time>
      </trkpt>
      <trkpt lat="45.56465" lon="4.9609">
        <ele>401</ele>
        <time>2012-09-05T08:16:45.25</time>
      </trkpt>
      <trkpt lat="45.56465" lon="4.96094">
        <ele>401</ele>
        <time>2012-09-05T08:16:46.22</time>
      </trkpt>
      <trkpt lat="45.56465" lon="4.96097">
        <ele>400</ele>
        <time>2012-09-05T08:16:47.21</time>
      </trkpt>
      <trkpt lat="45.56464" lon="4.96101">
        <ele>401</ele>
        <time>2012-09-05T08:16:48.21</time>
      </trkpt>
      <trkpt lat="45.56464" lon="4.96105">
        <ele>400</ele>
        <time>2012-09-05T08:16:49.20</time>
      </trkpt>
      <trkpt lat="45.56463" lon="4.96108">
        <ele>399.5</ele>
        <time>2012-09-05T08:16:50.20</time>
      </trkpt>
      <trkpt lat="45.56463" lon="4.96112">
        <ele>399</ele>
        <time>2012-09-05T08:16:51.19</time>
      </trkpt>
      <trkpt lat="45.56462" lon="4.96116">
        <ele>399.5</ele>
        <time>2012-09-05T08:16:52.19</time>
      </trkpt>
      <trkpt lat="45.56462" lon="4.96119">
        <ele>399.5</ele>
        <time>2012-09-05T08:16:53.18</time>
      </trkpt>
      <trkpt lat="45.56462" lon="4.96123">
        <ele>399.5</ele>
        <time>2012-09-05T08:16:54.19</time>
      </trkpt>
      <trkpt lat="45.56461" lon="4.96126">
        <ele>399</ele>
        <time>2012-09-05T08:16:55.18</time>
      </trkpt>
      <trkpt lat="45.56461" lon="4.9613">
        <ele>399.5</ele>
        <time>2012-09-05T08:16:56.18</time>
      </trkpt>
      <trkpt lat="45.5646" lon="4.96134">
        <ele>399</ele>
        <time>2012-09-05T08:16:57.17</time>
      </trkpt>
      <trkpt lat="45.5646" lon="4.96137">
        <ele>399</ele>
        <time>2012-09-05T08:16:58.17</time>
      </trkpt>
      <trkpt lat="45.5646" lon="4.96141">
        <ele>398.5</ele>
        <time>2012-09-05T08:16:59.16</time>
      </trkpt>
      <trkpt lat="45.5646" lon="4.96145">
        <ele>398.5</ele>
        <time>2012-09-05T08:17:00.15</time>
      </trkpt>
      <trkpt lat="45.56461" lon="4.96149">
        <ele>398</ele>
        <time>2012-09-05T08:17:01.15</time>
      </trkpt>
      <trkpt lat="45.56462" lon="4.96153">
        <ele>398.5</ele>
        <time>2012-09-05T08:17:02.14</time>
      </trkpt>
      <trkpt lat="45.56463" lon="4.96158">
        <ele>398</ele>
        <time>2012-09-05T08:17:03.14</time>
      </trkpt>
      <trkpt lat="45.56464" lon="4.96162">
        <ele>397.5</ele>
        <time>2012-09-05T08:17:04.13</time>
      </trkpt>
      <trkpt lat="45.56465" lon="4.96167">
        <ele>398</ele>
        <time>2012-09-05T08:17:05.13</time>
      </trkpt>
      <trkpt lat="45.56466" lon="4.96172">
        <ele>397</ele>
        <time>2012-09-05T08:17:06.12</time>
      </trkpt>
      <trkpt lat="45.56467" lon="4.96177">
        <ele>397.5</ele>
        <time>2012-09-05T08:17:07.12</time>
      </trkpt>
      <trkpt lat="45.56468" lon="4.96181">
        <ele>398.5</ele>
        <time>2012-09-05T08:17:08.11</time>
      </trkpt>
      <trkpt lat="45.56469" lon="4.96186">
        <ele>399</ele>
        <time>2012-09-05T08:17:09.11</time>
      </trkpt>
      <trkpt lat="45.5647" lon="4.9619">
        <ele>400</ele>
        <time>2012-09-05T08:17:10.10</time>
      </trkpt>
      <trkpt lat="45.56471" lon="4.96195">
        <ele>399</ele>
        <time>2012-09-05T08:17:11.11</time>
      </trkpt>
      <trkpt lat="45.56472" lon="4.96199">
        <ele>399</ele>
        <time>2012-09-05T08:17:12.10</time>
      </trkpt>
      <trkpt lat="45.56473" lon="4.96204">
        <ele>398</ele>
        <time>2012-09-05T08:17:13.10</time>
      </trkpt>
      <trkpt lat="45.56474" lon="4.96209">
        <ele>398.5</ele>
        <time>2012-09-05T08:17:14.09</time>
      </trkpt>
      <trkpt lat="45.56475" lon="4.96214">
        <ele>399</ele>
        <time>2012-09-05T08:17:15.07</time>
      </trkpt>
      <trkpt lat="45.56476" lon="4.96218">
        <ele>399.5</ele>
        <time>2012-09-05T08:17:16.07</time>
      </trkpt>
      <trkpt lat="45.56478" lon="4.96222">
        <ele>398</ele>
        <time>2012-09-05T08:17:17.06</time>
      </trkpt>
      <trkpt lat="45.56479" lon="4.96225">
        <ele>398</ele>
        <time>2012-09-05T08:17:18.07</time>
      </trkpt>
      <trkpt lat="45.5648" lon="4.96229">
        <ele>398</ele>
        <time>2012-09-05T08:17:19.08</time>
      </trkpt>
      <trkpt lat="45.56481" lon="4.96233">
        <ele>398.5</ele>
        <time>2012-09-05T08:17:20.06</time>
      </trkpt>
      <trkpt lat="45.56482" lon="4.96238">
        <ele>398.5</ele>
        <time>2012-09-05T08:17:21.05</time>
      </trkpt>
      <trkpt lat="45.56482" lon="4.96242">
        <ele>398.5</ele>
        <time>2012-09-05T08:17:22.05</time>
      </trkpt>
      <trkpt lat="45.56483" lon="4.96246">
        <ele>398.5</ele>
        <time>2012-09-05T08:17:23.03</time>
      </trkpt>
      <trkpt lat="45.56484" lon="4.96249">
        <ele>397.5</ele>
        <time>2012-09-05T08:17:24.03</time>
      </trkpt>
      <trkpt lat="45.56485" lon="4.96253">
        <ele>398</ele>
        <time>2012-09-05T08:17:25.05</time>
      </trkpt>
      <trkpt lat="45.56486" lon="4.96256">
        <ele>398</ele>
        <time>2012-09-05T08:17:26.02</time>
      </trkpt>
      <trkpt lat="45.56487" lon="4.9626">
        <ele>398</ele>
        <time>2012-09-05T08:17:27.01</time>
      </trkpt>
      <trkpt lat="45.56488" lon="4.96264">
        <ele>398.5</ele>
        <time>2012-09-05T08:17:28.01</time>
      </trkpt>
      <trkpt lat="45.56489" lon="4.96268">
        <ele>398.5</ele>
        <time>2012-09-05T08:17:29.00</time>
      </trkpt>
      <trkpt lat="45.56491" lon="4.96272">
        <ele>398</ele>
        <time>2012-09-05T08:17:29.99</time>
      </trkpt>
      <trkpt lat="45.56492" lon="4.96276">
        <ele>397.5</ele>
        <time>2012-09-05T08:17:31.02</time>
      </trkpt>
      <trkpt lat="45.56493" lon="4.96281">
        <ele>397.5</ele>
        <time>2012-09-05T08:17:31.98</time>
      </trkpt>
      <trkpt lat="45.56495" lon="4.96285">
        <ele>398</ele>
        <time>2012-09-05T08:17:32.98</time>
      </trkpt>
      <trkpt lat="45.56496" lon="4.9629">
        <ele>397.5</ele>
        <time>2012-09-05T08:17:33.97</time>
      </trkpt>
      <trkpt lat="45.56497" lon="4.96294">
        <ele>397.5</ele>
        <time>2012-09-05T08:17:34.97</time>
      </trkpt>
      <trkpt lat="45.56498" lon="4.96299">
        <ele>397.5</ele>
        <time>2012-09-05T08:17:35.96</time>
      </trkpt>
      <trkpt lat="45.56498" lon="4.96304">
        <ele>398</ele>
        <time>2012-09-05T08:17:36.98</time>
      </trkpt>
      <trkpt lat="45.56498" lon="4.96309">
        <ele>398.5</ele>
        <time>2012-09-05T08:17:37.95</time>
      </trkpt>
      <trkpt lat="45.56499" lon="4.96313">
        <ele>398.5</ele>
        <time>2012-09-05T08:17:38.92</time>
      </trkpt>
      <trkpt lat="45.56499" lon="4.96318">
        <ele>399</ele>
        <time>2012-09-05T08:17:39.96</time>
      </trkpt>
      <trkpt lat="45.565" lon="4.96323">
        <ele>399.5</ele>
        <time>2012-09-05T08:17:40.97</time>
      </trkpt>
      <trkpt lat="45.56501" lon="4.96327">
        <ele>400</ele>
        <time>2012-09-05T08:17:41.93</time>
      </trkpt>
      <trkpt lat="45.56501" lon="4.96331">
        <ele>401</ele>
        <time>2012-09-05T08:17:42.96</time>
      </trkpt>
      <trkpt lat="45.56501" lon="4.96335">
        <ele>401.5</ele>
        <time>2012-09-05T08:17:43.93</time>
      </trkpt>
      <trkpt lat="45.56502" lon="4.9634">
        <ele>402</ele>
        <time>2012-09-05T08:17:44.89</time>
      </trkpt>
      <trkpt lat="45.56503" lon="4.96345">
        <ele>402</ele>
        <time>2012-09-05T08:17:45.92</time>
      </trkpt>
      <trkpt lat="45.56503" lon="4.96349">
        <ele>401.5</ele>
        <time>2012-09-05T08:17:46.91</time>
      </trkpt>
      <trkpt lat="45.56502" lon="4.96353">
        <ele>402</ele>
        <time>2012-09-05T08:17:47.88</time>
      </trkpt>
      <trkpt lat="45.56502" lon="4.96357">
        <ele>402.5</ele>
        <time>2012-09-05T08:17:48.93</time>
      </trkpt>
      <trkpt lat="45.56501" lon="4.96362">
        <ele>403</ele>
        <time>2012-09-05T08:17:49.91</time>
      </trkpt>
      <trkpt lat="45.56501" lon="4.96366">
        <ele>404</ele>
        <time>2012-09-05T08:17:50.91</time>
      </trkpt>
      <trkpt lat="45.56501" lon="4.96369">
        <ele>405</ele>
        <time>2012-09-05T08:17:51.91</time>
      </trkpt>
      <trkpt lat="45.56501" lon="4.96372">
        <ele>406.5</ele>
        <time>2012-09-05T08:17:52.90</time>
      </trkpt>
      <trkpt lat="45.56501" lon="4.96376">
        <ele>407.5</ele>
        <time>2012-09-05T08:17:53.90</time>
      </trkpt>
      <trkpt lat="45.565" lon="4.9638">
        <ele>409</ele>
        <time>2012-09-05T08:17:54.89</time>
      </trkpt>
      <trkpt lat="45.565" lon="4.96382">
        <ele>410</ele>
        <time>2012-09-05T08:17:55.89</time>
      </trkpt>
      <trkpt lat="45.565" lon="4.96386">
        <ele>410.5</ele>
        <time>2012-09-05T08:17:56.88</time>
      </trkpt>
      <trkpt lat="45.56499" lon="4.96389">
        <ele>412</ele>
        <time>2012-09-05T08:17:57.87</time>
      </trkpt>
      <trkpt lat="45.56499" lon="4.96393">
        <ele>411.5</ele>
        <time>2012-09-05T08:17:58.87</time>
      </trkpt>
      <trkpt lat="45.56499" lon="4.96395">
        <ele>411.5</ele>
        <time>2012-09-05T08:17:59.86</time>
      </trkpt>
      <trkpt lat="45.56499" lon="4.96397">
        <ele>413</ele>
        <time>2012-09-05T08:18:00.87</time>
      </trkpt>
      <trkpt lat="45.56498" lon="4.96399">
        <ele>414.5</ele>
        <time>2012-09-05T08:18:01.85</time>
      </trkpt>
      <trkpt lat="45.56501" lon="4.96405">
        <ele>415.5</ele>
        <time>2012-09-05T08:18:03.85</time>
      </trkpt>
      <trkpt lat="45.56503" lon="4.9641">
        <ele>417</ele>
        <time>2012-09-05T08:18:04.84</time>
      </trkpt>
      <trkpt lat="45.56503" lon="4.96415">
        <ele>418.5</ele>
        <time>2012-09-05T08:18:05.83</time>
      </trkpt>
      <trkpt lat="45.56504" lon="4.9643">
        <ele>420.5</ele>
        <time>2012-09-05T08:18:07.83</time>
      </trkpt>
      <trkpt lat="45.56503" lon="4.96438">
        <ele>419.5</ele>
        <time>2012-09-05T08:18:08.83</time>
      </trkpt>
      <trkpt lat="45.56504" lon="4.96471">
        <ele>415.5</ele>
        <time>2012-09-05T08:18:12.99</time>
      </trkpt>
      <trkpt lat="45.56504" lon="4.9648">
        <ele>414.5</ele>
        <time>2012-09-05T08:18:14.01</time>
      </trkpt>
      <trkpt lat="45.56504" lon="4.96489">
        <ele>413.5</ele>
        <time>2012-09-05T08:18:14.98</time>
      </trkpt>
      <trkpt lat="45.56503" lon="4.96499">
        <ele>412.5</ele>
        <time>2012-09-05T08:18:15.97</time>
      </trkpt>
      <trkpt lat="45.56503" lon="4.96509">
        <ele>411.5</ele>
        <time>2012-09-05T08:18:16.97</time>
      </trkpt>
      <trkpt lat="45.56502" lon="4.96519">
        <ele>410.5</ele>
        <time>2012-09-05T08:18:17.96</time>
      </trkpt>
      <trkpt lat="45.56502" lon="4.9653">
        <ele>409.5</ele>
        <time>2012-09-05T08:18:18.96</time>
      </trkpt>
      <trkpt lat="45.56501" lon="4.96541">
        <ele>408</ele>
        <time>2012-09-05T08:18:19.95</time>
      </trkpt>
      <trkpt lat="45.565" lon="4.96552">
        <ele>407</ele>
        <time>2012-09-05T08:18:20.95</time>
      </trkpt>
      <trkpt lat="45.56499" lon="4.96563">
        <ele>406.5</ele>
        <time>2012-09-05T08:18:21.94</time>
      </trkpt>
      <trkpt lat="45.56498" lon="4.96574">
        <ele>406</ele>
        <time>2012-09-05T08:18:22.93</time>
      </trkpt>
      <trkpt lat="45.56496" lon="4.96585">
        <ele>404.5</ele>
        <time>2012-09-05T08:18:23.93</time>
      </trkpt>
      <trkpt lat="45.56495" lon="4.96596">
        <ele>403.5</ele>
        <time>2012-09-05T08:18:24.93</time>
      </trkpt>
      <trkpt lat="45.56493" lon="4.96606">
        <ele>403</ele>
        <time>2012-09-05T08:18:25.92</time>
      </trkpt>
      <trkpt lat="45.56491" lon="4.96616">
        <ele>403</ele>
        <time>2012-09-05T08:18:26.92</time>
      </trkpt>
      <trkpt lat="45.5649" lon="4.96627">
        <ele>402.5</ele>
        <time>2012-09-05T08:18:27.88</time>
      </trkpt>
      <trkpt lat="45.56488" lon="4.96638">
        <ele>402</ele>
        <time>2012-09-05T08:18:28.91</time>
      </trkpt>
      <trkpt lat="45.56486" lon="4.96648">
        <ele>402</ele>
        <time>2012-09-05T08:18:29.89</time>
      </trkpt>
      <trkpt lat="45.56485" lon="4.96658">
        <ele>401.5</ele>
        <time>2012-09-05T08:18:30.89</time>
      </trkpt>
      <trkpt lat="45.56484" lon="4.96669">
        <ele>400.5</ele>
        <time>2012-09-05T08:18:31.88</time>
      </trkpt>
      <trkpt lat="45.56484" lon="4.96679">
        <ele>400</ele>
        <time>2012-09-05T08:18:32.88</time>
      </trkpt>
      <trkpt lat="45.56484" lon="4.9669">
        <ele>399.5</ele>
        <time>2012-09-05T08:18:33.87</time>
      </trkpt>
      <trkpt lat="45.56483" lon="4.96699">
        <ele>398.5</ele>
        <time>2012-09-05T08:18:34.87</time>
      </trkpt>
      <trkpt lat="45.56483" lon="4.9671">
        <ele>397</ele>
        <time>2012-09-05T08:18:35.84</time>
      </trkpt>
      <trkpt lat="45.56483" lon="4.9672">
        <ele>396.5</ele>
        <time>2012-09-05T08:18:36.87</time>
      </trkpt>
      <trkpt lat="45.56483" lon="4.96729">
        <ele>396</ele>
        <time>2012-09-05T08:18:37.87</time>
      </trkpt>
      <trkpt lat="45.56483" lon="4.96739">
        <ele>395.5</ele>
        <time>2012-09-05T08:18:38.87</time>
      </trkpt>
      <trkpt lat="45.56484" lon="4.96748">
        <ele>395</ele>
        <time>2012-09-05T08:18:39.86</time>
      </trkpt>
      <trkpt lat="45.56484" lon="4.96758">
        <ele>394.5</ele>
        <time>2012-09-05T08:18:40.86</time>
      </trkpt>
      <trkpt lat="45.56484" lon="4.96767">
        <ele>394</ele>
        <time>2012-09-05T08:18:41.86</time>
      </trkpt>
      <trkpt lat="45.56485" lon="4.96776">
        <ele>393.5</ele>
        <time>2012-09-05T08:18:42.82</time>
      </trkpt>
      <trkpt lat="45.56485" lon="4.96786">
        <ele>394</ele>
        <time>2012-09-05T08:18:43.85</time>
      </trkpt>
      <trkpt lat="45.56485" lon="4.96795">
        <ele>393.5</ele>
        <time>2012-09-05T08:18:44.83</time>
      </trkpt>
      <trkpt lat="45.56486" lon="4.96803">
        <ele>393.5</ele>
        <time>2012-09-05T08:18:45.83</time>
      </trkpt>
      <trkpt lat="45.56486" lon="4.96812">
        <ele>393.5</ele>
        <time>2012-09-05T08:18:46.82</time>
      </trkpt>
      <trkpt lat="45.56486" lon="4.96821">
        <ele>393</ele>
        <time>2012-09-05T08:18:47.83</time>
      </trkpt>
      <trkpt lat="45.56486" lon="4.9683">
        <ele>393</ele>
        <time>2012-09-05T08:18:48.82</time>
      </trkpt>
      <trkpt lat="45.56486" lon="4.96839">
        <ele>392.5</ele>
        <time>2012-09-05T08:18:49.82</time>
      </trkpt>
      <trkpt lat="45.56487" lon="4.96847">
        <ele>391.5</ele>
        <time>2012-09-05T08:18:50.82</time>
      </trkpt>
      <trkpt lat="45.56487" lon="4.96856">
        <ele>391</ele>
        <time>2012-09-05T08:18:51.82</time>
      </trkpt>
      <trkpt lat="45.56488" lon="4.96865">
        <ele>390.5</ele>
        <time>2012-09-05T08:18:52.81</time>
      </trkpt>
      <trkpt lat="45.56488" lon="4.96873">
        <ele>390</ele>
        <time>2012-09-05T08:18:53.81</time>
      </trkpt>
      <trkpt lat="45.56489" lon="4.96882">
        <ele>390.5</ele>
        <time>2012-09-05T08:18:54.80</time>
      </trkpt>
      <trkpt lat="45.5649" lon="4.96891">
        <ele>389.5</ele>
        <time>2012-09-05T08:18:55.79</time>
      </trkpt>
      <trkpt lat="45.56491" lon="4.96899">
        <ele>389</ele>
        <time>2012-09-05T08:18:56.80</time>
      </trkpt>
      <trkpt lat="45.56493" lon="4.96908">
        <ele>388.5</ele>
        <time>2012-09-05T08:18:57.79</time>
      </trkpt>
      <trkpt lat="45.56494" lon="4.96917">
        <ele>388</ele>
        <time>2012-09-05T08:18:58.80</time>
      </trkpt>
      <trkpt lat="45.56495" lon="4.96926">
        <ele>388</ele>
        <time>2012-09-05T08:18:59.79</time>
      </trkpt>
      <trkpt lat="45.56497" lon="4.96935">
        <ele>388</ele>
        <time>2012-09-05T08:19:00.79</time>
      </trkpt>
      <trkpt lat="45.56499" lon="4.96944">
        <ele>387.5</ele>
        <time>2012-09-05T08:19:01.78</time>
      </trkpt>
      <trkpt lat="45.56501" lon="4.96953">
        <ele>387</ele>
        <time>2012-09-05T08:19:02.78</time>
      </trkpt>
      <trkpt lat="45.56504" lon="4.96962">
        <ele>386.5</ele>
        <time>2012-09-05T08:19:03.77</time>
      </trkpt>
      <trkpt lat="45.56507" lon="4.96972">
        <ele>385.5</ele>
        <time>2012-09-05T08:19:04.77</time>
      </trkpt>
      <trkpt lat="45.56511" lon="4.9698">
        <ele>385</ele>
        <time>2012-09-05T08:19:05.76</time>
      </trkpt>
      <trkpt lat="45.56516" lon="4.96989">
        <ele>383.5</ele>
        <time>2012-09-05T08:19:06.76</time>
      </trkpt>
      <trkpt lat="45.56521" lon="4.96999">
        <ele>382.5</ele>
        <time>2012-09-05T08:19:07.76</time>
      </trkpt>
      <trkpt lat="45.56526" lon="4.97009">
        <ele>381.5</ele>
        <time>2012-09-05T08:19:08.74</time>
      </trkpt>
      <trkpt lat="45.56532" lon="4.9702">
        <ele>380.5</ele>
        <time>2012-09-05T08:19:09.74</time>
      </trkpt>
      <trkpt lat="45.56537" lon="4.97032">
        <ele>379</ele>
        <time>2012-09-05T08:19:10.73</time>
      </trkpt>
      <trkpt lat="45.56542" lon="4.97044">
        <ele>378</ele>
        <time>2012-09-05T08:19:11.71</time>
      </trkpt>
      <trkpt lat="45.56547" lon="4.97056">
        <ele>377</ele>
        <time>2012-09-05T08:19:12.69</time>
      </trkpt>
      <trkpt lat="45.56551" lon="4.97068">
        <ele>375.5</ele>
        <time>2012-09-05T08:19:13.71</time>
      </trkpt>
      <trkpt lat="45.56555" lon="4.97081">
        <ele>375</ele>
        <time>2012-09-05T08:19:14.70</time>
      </trkpt>
      <trkpt lat="45.56559" lon="4.97093">
        <ele>374</ele>
        <time>2012-09-05T08:19:15.70</time>
      </trkpt>
      <trkpt lat="45.56564" lon="4.97103">
        <ele>373.5</ele>
        <time>2012-09-05T08:19:16.70</time>
      </trkpt>
      <trkpt lat="45.56568" lon="4.97112">
        <ele>372.5</ele>
        <time>2012-09-05T08:19:17.69</time>
      </trkpt>
      <trkpt lat="45.56573" lon="4.97121">
        <ele>372.5</ele>
        <time>2012-09-05T08:19:18.69</time>
      </trkpt>
      <trkpt lat="45.56579" lon="4.97127">
        <ele>373</ele>
        <time>2012-09-05T08:19:19.67</time>
      </trkpt>
      <trkpt lat="45.56585" lon="4.97134">
        <ele>372</ele>
        <time>2012-09-05T08:19:20.68</time>
      </trkpt>
      <trkpt lat="45.56591" lon="4.9714">
        <ele>371.5</ele>
        <time>2012-09-05T08:19:21.67</time>
      </trkpt>
      <trkpt lat="45.56597" lon="4.97145">
        <ele>370.5</ele>
        <time>2012-09-05T08:19:22.67</time>
      </trkpt>
      <trkpt lat="45.56603" lon="4.97151">
        <ele>370</ele>
        <time>2012-09-05T08:19:23.66</time>
      </trkpt>
      <trkpt lat="45.56609" lon="4.97157">
        <ele>369.5</ele>
        <time>2012-09-05T08:19:24.63</time>
      </trkpt>
      <trkpt lat="45.56615" lon="4.97163">
        <ele>369.5</ele>
        <time>2012-09-05T08:19:25.65</time>
      </trkpt>
      <trkpt lat="45.56622" lon="4.97169">
        <ele>368</ele>
        <time>2012-09-05T08:19:26.65</time>
      </trkpt>
      <trkpt lat="45.56627" lon="4.97176">
        <ele>368</ele>
        <time>2012-09-05T08:19:27.64</time>
      </trkpt>
      <trkpt lat="45.56633" lon="4.97182">
        <ele>368.5</ele>
        <time>2012-09-05T08:19:28.64</time>
      </trkpt>
      <trkpt lat="45.56638" lon="4.97188">
        <ele>368.5</ele>
        <time>2012-09-05T08:19:29.64</time>
      </trkpt>
      <trkpt lat="45.56644" lon="4.97193">
        <ele>368.5</ele>
        <time>2012-09-05T08:19:30.63</time>
      </trkpt>
      <trkpt lat="45.56648" lon="4.97199">
        <ele>368.5</ele>
        <time>2012-09-05T08:19:31.63</time>
      </trkpt>
      <trkpt lat="45.56653" lon="4.97204">
        <ele>367.5</ele>
        <time>2012-09-05T08:19:32.63</time>
      </trkpt>
      <trkpt lat="45.56657" lon="4.97208">
        <ele>367.5</ele>
        <time>2012-09-05T08:19:33.63</time>
      </trkpt>
      <trkpt lat="45.56662" lon="4.97212">
        <ele>366.5</ele>
        <time>2012-09-05T08:19:34.62</time>
      </trkpt>
      <trkpt lat="45.56665" lon="4.97215">
        <ele>366</ele>
        <time>2012-09-05T08:19:35.62</time>
      </trkpt>
      <trkpt lat="45.56667" lon="4.97218">
        <ele>366</ele>
        <time>2012-09-05T08:19:36.62</time>
      </trkpt>
      <trkpt lat="45.5667" lon="4.97221">
        <ele>365</ele>
        <time>2012-09-05T08:19:37.63</time>
      </trkpt>
      <trkpt lat="45.56671" lon="4.97223">
        <ele>365</ele>
        <time>2012-09-05T08:19:38.62</time>
      </trkpt>
      <trkpt lat="45.56672" lon="4.97226">
        <ele>365</ele>
        <time>2012-09-05T08:19:39.62</time>
      </trkpt>
      <trkpt lat="45.56672" lon="4.9723">
        <ele>365.5</ele>
        <time>2012-09-05T08:19:40.61</time>
      </trkpt>
      <trkpt lat="45.5667" lon="4.97234">
        <ele>366</ele>
        <time>2012-09-05T08:19:41.60</time>
      </trkpt>
      <trkpt lat="45.56667" lon="4.97239">
        <ele>366</ele>
        <time>2012-09-05T08:19:42.59</time>
      </trkpt>
      <trkpt lat="45.56665" lon="4.97244">
        <ele>366</ele>
        <time>2012-09-05T08:19:43.62</time>
      </trkpt>
      <trkpt lat="45.56663" lon="4.97251">
        <ele>366</ele>
        <time>2012-09-05T08:19:44.58</time>
      </trkpt>
      <trkpt lat="45.56662" lon="4.97258">
        <ele>365.5</ele>
        <time>2012-09-05T08:19:45.58</time>
      </trkpt>
      <trkpt lat="45.56661" lon="4.97266">
        <ele>366.5</ele>
        <time>2012-09-05T08:19:46.57</time>
      </trkpt>
      <trkpt lat="45.5666" lon="4.97273">
        <ele>367</ele>
        <time>2012-09-05T08:19:47.57</time>
      </trkpt>
      <trkpt lat="45.5666" lon="4.9728">
        <ele>367</ele>
        <time>2012-09-05T08:19:48.57</time>
      </trkpt>
      <trkpt lat="45.5666" lon="4.97289">
        <ele>366.5</ele>
        <time>2012-09-05T08:19:49.58</time>
      </trkpt>
      <trkpt lat="45.56662" lon="4.97297">
        <ele>365.5</ele>
        <time>2012-09-05T08:19:50.55</time>
      </trkpt>
      <trkpt lat="45.56661" lon="4.97307">
        <ele>364.5</ele>
        <time>2012-09-05T08:19:51.54</time>
      </trkpt>
      <trkpt lat="45.5666" lon="4.97315">
        <ele>365</ele>
        <time>2012-09-05T08:19:52.54</time>
      </trkpt>
      <trkpt lat="45.5666" lon="4.97323">
        <ele>365</ele>
        <time>2012-09-05T08:19:53.54</time>
      </trkpt>
      <trkpt lat="45.56658" lon="4.97332">
        <ele>365</ele>
        <time>2012-09-05T08:19:54.54</time>
      </trkpt>
      <trkpt lat="45.56657" lon="4.97342">
        <ele>365</ele>
        <time>2012-09-05T08:19:55.56</time>
      </trkpt>
      <trkpt lat="45.56656" lon="4.97351">
        <ele>364.5</ele>
        <time>2012-09-05T08:19:56.53</time>
      </trkpt>
      <trkpt lat="45.56654" lon="4.97359">
        <ele>365.5</ele>
        <time>2012-09-05T08:19:57.53</time>
      </trkpt>
      <trkpt lat="45.56654" lon="4.97367">
        <ele>365.5</ele>
        <time>2012-09-05T08:19:58.52</time>
      </trkpt>
      <trkpt lat="45.56652" lon="4.97375">
        <ele>366</ele>
        <time>2012-09-05T08:19:59.51</time>
      </trkpt>
      <trkpt lat="45.5665" lon="4.97383">
        <ele>366</ele>
        <time>2012-09-05T08:20:00.51</time>
      </trkpt>
      <trkpt lat="45.56649" lon="4.97391">
        <ele>365.5</ele>
        <time>2012-09-05T08:20:01.53</time>
      </trkpt>
      <trkpt lat="45.56648" lon="4.97399">
        <ele>365.5</ele>
        <time>2012-09-05T08:20:02.49</time>
      </trkpt>
      <trkpt lat="45.56646" lon="4.97407">
        <ele>365.5</ele>
        <time>2012-09-05T08:20:03.50</time>
      </trkpt>
      <trkpt lat="45.56645" lon="4.97415">
        <ele>365.5</ele>
        <time>2012-09-05T08:20:04.48</time>
      </trkpt>
      <trkpt lat="45.56644" lon="4.97423">
        <ele>365.5</ele>
        <time>2012-09-05T08:20:05.48</time>
      </trkpt>
      <trkpt lat="45.56643" lon="4.97431">
        <ele>365</ele>
        <time>2012-09-05T08:20:06.47</time>
      </trkpt>
      <trkpt lat="45.56642" lon="4.9744">
        <ele>365</ele>
        <time>2012-09-05T08:20:07.47</time>
      </trkpt>
      <trkpt lat="45.56641" lon="4.97447">
        <ele>364.5</ele>
        <time>2012-09-05T08:20:08.46</time>
      </trkpt>
      <trkpt lat="45.5664" lon="4.97455">
        <ele>364</ele>
        <time>2012-09-05T08:20:09.46</time>
      </trkpt>
      <trkpt lat="45.56639" lon="4.97462">
        <ele>364</ele>
        <time>2012-09-05T08:20:10.45</time>
      </trkpt>
      <trkpt lat="45.56639" lon="4.9747">
        <ele>363.5</ele>
        <time>2012-09-05T08:20:11.42</time>
      </trkpt>
      <trkpt lat="45.56638" lon="4.97477">
        <ele>363.5</ele>
        <time>2012-09-05T08:20:12.44</time>
      </trkpt>
      <trkpt lat="45.56637" lon="4.97483">
        <ele>363.5</ele>
        <time>2012-09-05T08:20:13.43</time>
      </trkpt>
      <trkpt lat="45.56635" lon="4.97487">
        <ele>365</ele>
        <time>2012-09-05T08:20:14.43</time>
      </trkpt>
      <trkpt lat="45.56635" lon="4.97491">
        <ele>365.5</ele>
        <time>2012-09-05T08:20:15.42</time>
      </trkpt>
      <trkpt lat="45.56634" lon="4.97495">
        <ele>366</ele>
        <time>2012-09-05T08:20:16.42</time>
      </trkpt>
      <trkpt lat="45.56633" lon="4.97498">
        <ele>366.5</ele>
        <time>2012-09-05T08:20:17.39</time>
      </trkpt>
      <trkpt lat="45.56633" lon="4.97501">
        <ele>367</ele>
        <time>2012-09-05T08:20:18.41</time>
      </trkpt>
      <trkpt lat="45.56632" lon="4.97504">
        <ele>367</ele>
        <time>2012-09-05T08:20:19.41</time>
      </trkpt>
      <trkpt lat="45.56631" lon="4.97508">
        <ele>367</ele>
        <time>2012-09-05T08:20:20.41</time>
      </trkpt>
      <trkpt lat="45.56632" lon="4.9751">
        <ele>367</ele>
        <time>2012-09-05T08:20:21.41</time>
      </trkpt>
      <trkpt lat="45.56631" lon="4.97512">
        <ele>367.5</ele>
        <time>2012-09-05T08:20:22.39</time>
      </trkpt>
      <trkpt lat="45.56631" lon="4.97516">
        <ele>367.5</ele>
        <time>2012-09-05T08:20:23.40</time>
      </trkpt>
      <trkpt lat="45.5663" lon="4.97519">
        <ele>368</ele>
        <time>2012-09-05T08:20:24.41</time>
      </trkpt>
      <trkpt lat="45.5663" lon="4.97521">
        <ele>368.5</ele>
        <time>2012-09-05T08:20:25.40</time>
      </trkpt>
      <trkpt lat="45.56629" lon="4.97525">
        <ele>368</ele>
        <time>2012-09-05T08:20:26.36</time>
      </trkpt>
      <trkpt lat="45.56628" lon="4.97528">
        <ele>369</ele>
        <time>2012-09-05T08:20:27.39</time>
      </trkpt>
      <trkpt lat="45.56628" lon="4.97531">
        <ele>369.5</ele>
        <time>2012-09-05T08:20:28.38</time>
      </trkpt>
      <trkpt lat="45.56628" lon="4.97534">
        <ele>370</ele>
        <time>2012-09-05T08:20:29.38</time>
      </trkpt>
      <trkpt lat="45.56627" lon="4.97538">
        <ele>370</ele>
        <time>2012-09-05T08:20:30.35</time>
      </trkpt>
      <trkpt lat="45.56627" lon="4.97541">
        <ele>369.5</ele>
        <time>2012-09-05T08:20:31.37</time>
      </trkpt>
      <trkpt lat="45.56627" lon="4.97545">
        <ele>369.5</ele>
        <time>2012-09-05T08:20:32.36</time>
      </trkpt>
      <trkpt lat="45.56627" lon="4.97548">
        <ele>369.5</ele>
        <time>2012-09-05T08:20:33.36</time>
      </trkpt>
      <trkpt lat="45.56626" lon="4.97552">
        <ele>369.5</ele>
        <time>2012-09-05T08:20:34.33</time>
      </trkpt>
      <trkpt lat="45.56626" lon="4.97556">
        <ele>369.5</ele>
        <time>2012-09-05T08:20:35.32</time>
      </trkpt>
      <trkpt lat="45.56625" lon="4.9756">
        <ele>370.5</ele>
        <time>2012-09-05T08:20:36.35</time>
      </trkpt>
      <trkpt lat="45.56624" lon="4.97564">
        <ele>371</ele>
        <time>2012-09-05T08:20:37.34</time>
      </trkpt>
      <trkpt lat="45.56624" lon="4.97567">
        <ele>371.5</ele>
        <time>2012-09-05T08:20:38.33</time>
      </trkpt>
      <trkpt lat="45.56624" lon="4.9757">
        <ele>371.5</ele>
        <time>2012-09-05T08:20:39.34</time>
      </trkpt>
      <trkpt lat="45.56624" lon="4.97574">
        <ele>372.5</ele>
        <time>2012-09-05T08:20:40.32</time>
      </trkpt>
      <trkpt lat="45.56624" lon="4.97578">
        <ele>372.5</ele>
        <time>2012-09-05T08:20:41.31</time>
      </trkpt>
      <trkpt lat="45.56624" lon="4.97581">
        <ele>374</ele>
        <time>2012-09-05T08:20:42.31</time>
      </trkpt>
      <trkpt lat="45.56623" lon="4.97585">
        <ele>374.5</ele>
        <time>2012-09-05T08:20:43.27</time>
      </trkpt>
      <trkpt lat="45.56623" lon="4.9759">
        <ele>374</ele>
        <time>2012-09-05T08:20:44.27</time>
      </trkpt>
      <trkpt lat="45.56622" lon="4.97594">
        <ele>374</ele>
        <time>2012-09-05T08:20:45.26</time>
      </trkpt>
      <trkpt lat="45.56621" lon="4.97597">
        <ele>374.5</ele>
        <time>2012-09-05T08:20:46.31</time>
      </trkpt>
      <trkpt lat="45.56621" lon="4.97601">
        <ele>374.5</ele>
        <time>2012-09-05T08:20:47.28</time>
      </trkpt>
      <trkpt lat="45.56621" lon="4.97605">
        <ele>374.5</ele>
        <time>2012-09-05T08:20:48.28</time>
      </trkpt>
      <trkpt lat="45.56621" lon="4.97609">
        <ele>374.5</ele>
        <time>2012-09-05T08:20:49.28</time>
      </trkpt>
      <trkpt lat="45.56621" lon="4.97613">
        <ele>375.5</ele>
        <time>2012-09-05T08:20:50.28</time>
      </trkpt>
      <trkpt lat="45.56621" lon="4.97617">
        <ele>375.5</ele>
        <time>2012-09-05T08:20:51.27</time>
      </trkpt>
      <trkpt lat="45.56622" lon="4.9762">
        <ele>376.5</ele>
        <time>2012-09-05T08:20:52.26</time>
      </trkpt>
      <trkpt lat="45.56623" lon="4.97623">
        <ele>377.5</ele>
        <time>2012-09-05T08:20:53.23</time>
      </trkpt>
      <trkpt lat="45.56624" lon="4.97626">
        <ele>377</ele>
        <time>2012-09-05T08:20:54.22</time>
      </trkpt>
      <trkpt lat="45.56626" lon="4.97628">
        <ele>377.5</ele>
        <time>2012-09-05T08:20:55.22</time>
      </trkpt>
      <trkpt lat="45.56628" lon="4.97629">
        <ele>378</ele>
        <time>2012-09-05T08:20:56.25</time>
      </trkpt>
      <trkpt lat="45.5663" lon="4.97629">
        <ele>378.5</ele>
        <time>2012-09-05T08:20:57.24</time>
      </trkpt>
      <trkpt lat="45.56633" lon="4.97629">
        <ele>378</ele>
        <time>2012-09-05T08:20:58.24</time>
      </trkpt>
      <trkpt lat="45.56636" lon="4.97629">
        <ele>378</ele>
        <time>2012-09-05T08:20:59.24</time>
      </trkpt>
      <trkpt lat="45.56639" lon="4.97631">
        <ele>378</ele>
        <time>2012-09-05T08:21:00.23</time>
      </trkpt>
      <trkpt lat="45.56642" lon="4.97632">
        <ele>378</ele>
        <time>2012-09-05T08:21:01.23</time>
      </trkpt>
      <trkpt lat="45.56645" lon="4.97632">
        <ele>377.5</ele>
        <time>2012-09-05T08:21:02.22</time>
      </trkpt>
      <trkpt lat="45.56649" lon="4.97632">
        <ele>377.5</ele>
        <time>2012-09-05T08:21:03.22</time>
      </trkpt>
      <trkpt lat="45.56653" lon="4.97634">
        <ele>377.5</ele>
        <time>2012-09-05T08:21:04.22</time>
      </trkpt>
      <trkpt lat="45.56658" lon="4.97635">
        <ele>377.5</ele>
        <time>2012-09-05T08:21:05.22</time>
      </trkpt>
      <trkpt lat="45.56662" lon="4.97637">
        <ele>377.5</ele>
        <time>2012-09-05T08:21:06.21</time>
      </trkpt>
      <trkpt lat="45.56666" lon="4.97637">
        <ele>377.5</ele>
        <time>2012-09-05T08:21:07.20</time>
      </trkpt>
      <trkpt lat="45.5667" lon="4.97638">
        <ele>377.5</ele>
        <time>2012-09-05T08:21:08.20</time>
      </trkpt>
      <trkpt lat="45.56675" lon="4.97639">
        <ele>376.5</ele>
        <time>2012-09-05T08:21:09.20</time>
      </trkpt>
      <trkpt lat="45.5668" lon="4.9764">
        <ele>376</ele>
        <time>2012-09-05T08:21:10.19</time>
      </trkpt>
      <trkpt lat="45.56685" lon="4.97641">
        <ele>375.5</ele>
        <time>2012-09-05T08:21:11.18</time>
      </trkpt>
      <trkpt lat="45.5669" lon="4.97642">
        <ele>375.5</ele>
        <time>2012-09-05T08:21:12.18</time>
      </trkpt>
      <trkpt lat="45.56696" lon="4.97643">
        <ele>375</ele>
        <time>2012-09-05T08:21:13.18</time>
      </trkpt>
      <trkpt lat="45.56701" lon="4.97644">
        <ele>375</ele>
        <time>2012-09-05T08:21:14.18</time>
      </trkpt>
      <trkpt lat="45.56707" lon="4.97645">
        <ele>374.5</ele>
        <time>2012-09-05T08:21:15.17</time>
      </trkpt>
      <trkpt lat="45.56713" lon="4.97646">
        <ele>373</ele>
        <time>2012-09-05T08:21:16.17</time>
      </trkpt>
      <trkpt lat="45.5672" lon="4.97648">
        <ele>374</ele>
        <time>2012-09-05T08:21:17.17</time>
      </trkpt>
      <trkpt lat="45.56727" lon="4.9765">
        <ele>374</ele>
        <time>2012-09-05T08:21:18.16</time>
      </trkpt>
      <trkpt lat="45.56734" lon="4.97651">
        <ele>373.5</ele>
        <time>2012-09-05T08:21:19.15</time>
      </trkpt>
      <trkpt lat="45.56741" lon="4.97654">
        <ele>373</ele>
        <time>2012-09-05T08:21:20.15</time>
      </trkpt>
      <trkpt lat="45.56748" lon="4.97655">
        <ele>372.5</ele>
        <time>2012-09-05T08:21:21.14</time>
      </trkpt>
      <trkpt lat="45.56756" lon="4.97657">
        <ele>372.5</ele>
        <time>2012-09-05T08:21:22.14</time>
      </trkpt>
      <trkpt lat="45.56763" lon="4.97659">
        <ele>371.5</ele>
        <time>2012-09-05T08:21:23.13</time>
      </trkpt>
      <trkpt lat="45.56771" lon="4.97661">
        <ele>371</ele>
        <time>2012-09-05T08:21:24.12</time>
      </trkpt>
      <trkpt lat="45.56779" lon="4.97663">
        <ele>370.5</ele>
        <time>2012-09-05T08:21:25.12</time>
      </trkpt>
      <trkpt lat="45.56787" lon="4.97665">
        <ele>370.5</ele>
        <time>2012-09-05T08:21:26.11</time>
      </trkpt>
      <trkpt lat="45.56795" lon="4.97667">
        <ele>370</ele>
        <time>2012-09-05T08:21:27.11</time>
      </trkpt>
      <trkpt lat="45.56803" lon="4.97669">
        <ele>369.5</ele>
        <time>2012-09-05T08:21:28.10</time>
      </trkpt>
      <trkpt lat="45.5681" lon="4.97671">
        <ele>369.5</ele>
        <time>2012-09-05T08:21:29.10</time>
      </trkpt>
      <trkpt lat="45.56818" lon="4.97675">
        <ele>369</ele>
        <time>2012-09-05T08:21:30.09</time>
      </trkpt>
      <trkpt lat="45.56825" lon="4.97679">
        <ele>369</ele>
        <time>2012-09-05T08:21:31.09</time>
      </trkpt>
      <trkpt lat="45.56831" lon="4.97685">
        <ele>369</ele>
        <time>2012-09-05T08:21:32.08</time>
      </trkpt>
      <trkpt lat="45.56836" lon="4.97692">
        <ele>369</ele>
        <time>2012-09-05T08:21:33.07</time>
      </trkpt>
      <trkpt lat="45.5684" lon="4.977">
        <ele>369.5</ele>
        <time>2012-09-05T08:21:34.07</time>
      </trkpt>
      <trkpt lat="45.56843" lon="4.97708">
        <ele>369.5</ele>
        <time>2012-09-05T08:21:35.07</time>
      </trkpt>
      <trkpt lat="45.56844" lon="4.97716">
        <ele>369</ele>
        <time>2012-09-05T08:21:36.06</time>
      </trkpt>
      <trkpt lat="45.56846" lon="4.97722">
        <ele>369</ele>
        <time>2012-09-05T08:21:37.05</time>
      </trkpt>
      <trkpt lat="45.56848" lon="4.97728">
        <ele>369.5</ele>
        <time>2012-09-05T08:21:38.05</time>
      </trkpt>
      <trkpt lat="45.5685" lon="4.97733">
        <ele>369.5</ele>
        <time>2012-09-05T08:21:39.04</time>
      </trkpt>
      <trkpt lat="45.56853" lon="4.97737">
        <ele>370</ele>
        <time>2012-09-05T08:21:40.04</time>
      </trkpt>
      <trkpt lat="45.56856" lon="4.97739">
        <ele>369.5</ele>
        <time>2012-09-05T08:21:41.04</time>
      </trkpt>
      <trkpt lat="45.5686" lon="4.9774">
        <ele>369.5</ele>
        <time>2012-09-05T08:21:42.03</time>
      </trkpt>
      <trkpt lat="45.56864" lon="4.9774">
        <ele>368.5</ele>
        <time>2012-09-05T08:21:43.03</time>
      </trkpt>
      <trkpt lat="45.56869" lon="4.9774">
        <ele>369</ele>
        <time>2012-09-05T08:21:44.03</time>
      </trkpt>
      <trkpt lat="45.56874" lon="4.97739">
        <ele>368.5</ele>
        <time>2012-09-05T08:21:45.02</time>
      </trkpt>
      <trkpt lat="45.56879" lon="4.97737">
        <ele>368</ele>
        <time>2012-09-05T08:21:46.01</time>
      </trkpt>
      <trkpt lat="45.56885" lon="4.97735">
        <ele>367.5</ele>
        <time>2012-09-05T08:21:47.01</time>
      </trkpt>
      <trkpt lat="45.56892" lon="4.97732">
        <ele>366.5</ele>
        <time>2012-09-05T08:21:48.01</time>
      </trkpt>
      <trkpt lat="45.569" lon="4.9773">
        <ele>365</ele>
        <time>2012-09-05T08:21:49.01</time>
      </trkpt>
      <trkpt lat="45.56907" lon="4.97727">
        <ele>363</ele>
        <time>2012-09-05T08:21:50.00</time>
      </trkpt>
      <trkpt lat="45.56914" lon="4.97726">
        <ele>361.5</ele>
        <time>2012-09-05T08:21:50.96</time>
      </trkpt>
      <trkpt lat="45.56923" lon="4.97727">
        <ele>360.5</ele>
        <time>2012-09-05T08:21:51.96</time>
      </trkpt>
      <trkpt lat="45.56931" lon="4.9773">
        <ele>359.5</ele>
        <time>2012-09-05T08:21:52.95</time>
      </trkpt>
      <trkpt lat="45.56939" lon="4.97736">
        <ele>359.5</ele>
        <time>2012-09-05T08:21:53.98</time>
      </trkpt>
      <trkpt lat="45.56946" lon="4.97742">
        <ele>359</ele>
        <time>2012-09-05T08:21:54.97</time>
      </trkpt>
      <trkpt lat="45.56953" lon="4.9775">
        <ele>358</ele>
        <time>2012-09-05T08:21:55.97</time>
      </trkpt>
      <trkpt lat="45.56959" lon="4.97758">
        <ele>357.5</ele>
        <time>2012-09-05T08:21:56.96</time>
      </trkpt>
      <trkpt lat="45.56965" lon="4.97766">
        <ele>357</ele>
        <time>2012-09-05T08:21:57.96</time>
      </trkpt>
      <trkpt lat="45.5697" lon="4.97774">
        <ele>355.5</ele>
        <time>2012-09-05T08:21:58.95</time>
      </trkpt>
      <trkpt lat="45.56975" lon="4.97783">
        <ele>354</ele>
        <time>2012-09-05T08:21:59.95</time>
      </trkpt>
      <trkpt lat="45.56981" lon="4.97794">
        <ele>352.5</ele>
        <time>2012-09-05T08:22:00.94</time>
      </trkpt>
      <trkpt lat="45.56987" lon="4.97805">
        <ele>351.5</ele>
        <time>2012-09-05T08:22:01.94</time>
      </trkpt>
      <trkpt lat="45.56992" lon="4.97816">
        <ele>350.5</ele>
        <time>2012-09-05T08:22:02.93</time>
      </trkpt>
      <trkpt lat="45.56998" lon="4.97827">
        <ele>349.5</ele>
        <time>2012-09-05T08:22:03.93</time>
      </trkpt>
      <trkpt lat="45.57005" lon="4.97838">
        <ele>348</ele>
        <time>2012-09-05T08:22:04.92</time>
      </trkpt>
      <trkpt lat="45.57014" lon="4.97847">
        <ele>346</ele>
        <time>2012-09-05T08:22:05.89</time>
      </trkpt>
      <trkpt lat="45.57026" lon="4.97853">
        <ele>344.5</ele>
        <time>2012-09-05T08:22:06.88</time>
      </trkpt>
      <trkpt lat="45.57043" lon="4.97867">
        <ele>346</ele>
        <time>2012-09-05T08:22:08.87</time>
      </trkpt>
      <trkpt lat="45.57051" lon="4.97872">
        <ele>346.5</ele>
        <time>2012-09-05T08:22:09.87</time>
      </trkpt>
      <trkpt lat="45.5706" lon="4.97875">
        <ele>345.5</ele>
        <time>2012-09-05T08:22:10.86</time>
      </trkpt>
      <trkpt lat="45.57068" lon="4.97877">
        <ele>344</ele>
        <time>2012-09-05T08:22:11.86</time>
      </trkpt>
      <trkpt lat="45.57075" lon="4.97876">
        <ele>343.5</ele>
        <time>2012-09-05T08:22:12.86</time>
      </trkpt>
      <trkpt lat="45.57083" lon="4.97873">
        <ele>343</ele>
        <time>2012-09-05T08:22:13.85</time>
      </trkpt>
      <trkpt lat="45.5709" lon="4.97869">
        <ele>341.5</ele>
        <time>2012-09-05T08:22:14.84</time>
      </trkpt>
      <trkpt lat="45.57097" lon="4.97864">
        <ele>339.5</ele>
        <time>2012-09-05T08:22:15.84</time>
      </trkpt>
      <trkpt lat="45.57105" lon="4.97858">
        <ele>338.5</ele>
        <time>2012-09-05T08:22:16.83</time>
      </trkpt>
      <trkpt lat="45.57113" lon="4.9785">
        <ele>336</ele>
        <time>2012-09-05T08:22:17.82</time>
      </trkpt>
      <trkpt lat="45.57122" lon="4.97841">
        <ele>334</ele>
        <time>2012-09-05T08:22:18.85</time>
      </trkpt>
      <trkpt lat="45.57132" lon="4.97832">
        <ele>331.5</ele>
        <time>2012-09-05T08:22:19.81</time>
      </trkpt>
      <trkpt lat="45.57142" lon="4.97822">
        <ele>329</ele>
        <time>2012-09-05T08:22:20.84</time>
      </trkpt>
      <trkpt lat="45.57154" lon="4.97812">
        <ele>326.5</ele>
        <time>2012-09-05T08:22:21.83</time>
      </trkpt>
      <trkpt lat="45.57166" lon="4.97802">
        <ele>324</ele>
        <time>2012-09-05T08:22:22.84</time>
      </trkpt>
      <trkpt lat="45.57178" lon="4.97791">
        <ele>322</ele>
        <time>2012-09-05T08:22:23.82</time>
      </trkpt>
      <trkpt lat="45.5719" lon="4.97782">
        <ele>320.5</ele>
        <time>2012-09-05T08:22:24.82</time>
      </trkpt>
      <trkpt lat="45.572" lon="4.97773">
        <ele>319.5</ele>
        <time>2012-09-05T08:22:25.81</time>
      </trkpt>
      <trkpt lat="45.5721" lon="4.97766">
        <ele>318</ele>
        <time>2012-09-05T08:22:26.81</time>
      </trkpt>
      <trkpt lat="45.57219" lon="4.97758">
        <ele>316.5</ele>
        <time>2012-09-05T08:22:27.80</time>
      </trkpt>
      <trkpt lat="45.57228" lon="4.97751">
        <ele>316</ele>
        <time>2012-09-05T08:22:28.80</time>
      </trkpt>
      <trkpt lat="45.57236" lon="4.97743">
        <ele>315</ele>
        <time>2012-09-05T08:22:29.79</time>
      </trkpt>
      <trkpt lat="45.5725" lon="4.97731">
        <ele>315</ele>
        <time>2012-09-05T08:22:31.79</time>
      </trkpt>
      <trkpt lat="45.57263" lon="4.97718">
        <ele>312.5</ele>
        <time>2012-09-05T08:22:33.79</time>
      </trkpt>
      <trkpt lat="45.57268" lon="4.97714">
        <ele>311.5</ele>
        <time>2012-09-05T08:22:34.79</time>
      </trkpt>
      <trkpt lat="45.57274" lon="4.97712">
        <ele>312</ele>
        <time>2012-09-05T08:22:35.82</time>
      </trkpt>
      <trkpt lat="45.57279" lon="4.97712">
        <ele>312.5</ele>
        <time>2012-09-05T08:22:36.78</time>
      </trkpt>
      <trkpt lat="45.57284" lon="4.97716">
        <ele>312.5</ele>
        <time>2012-09-05T08:22:37.77</time>
      </trkpt>
      <trkpt lat="45.57288" lon="4.97722">
        <ele>314.5</ele>
        <time>2012-09-05T08:22:38.77</time>
      </trkpt>
      <trkpt lat="45.57292" lon="4.9773">
        <ele>314</ele>
        <time>2012-09-05T08:22:39.76</time>
      </trkpt>
      <trkpt lat="45.57296" lon="4.97739">
        <ele>313.5</ele>
        <time>2012-09-05T08:22:40.76</time>
      </trkpt>
      <trkpt lat="45.573" lon="4.97747">
        <ele>312.5</ele>
        <time>2012-09-05T08:22:41.75</time>
      </trkpt>
      <trkpt lat="45.57305" lon="4.97753">
        <ele>311.5</ele>
        <time>2012-09-05T08:22:42.77</time>
      </trkpt>
      <trkpt lat="45.5731" lon="4.97757">
        <ele>311</ele>
        <time>2012-09-05T08:22:43.74</time>
      </trkpt>
      <trkpt lat="45.57316" lon="4.9776">
        <ele>310</ele>
        <time>2012-09-05T08:22:44.74</time>
      </trkpt>
      <trkpt lat="45.57324" lon="4.97761">
        <ele>309.5</ele>
        <time>2012-09-05T08:22:45.72</time>
      </trkpt>
      <trkpt lat="45.57332" lon="4.97761">
        <ele>309</ele>
        <time>2012-09-05T08:22:46.72</time>
      </trkpt>
      <trkpt lat="45.5734" lon="4.9776">
        <ele>309</ele>
        <time>2012-09-05T08:22:47.71</time>
      </trkpt>
      <trkpt lat="45.5735" lon="4.97759">
        <ele>308</ele>
        <time>2012-09-05T08:22:48.69</time>
      </trkpt>
      <trkpt lat="45.5736" lon="4.97759">
        <ele>307</ele>
        <time>2012-09-05T08:22:49.70</time>
      </trkpt>
      <trkpt lat="45.57369" lon="4.97758">
        <ele>306.5</ele>
        <time>2012-09-05T08:22:50.69</time>
      </trkpt>
      <trkpt lat="45.57379" lon="4.97757">
        <ele>305.5</ele>
        <time>2012-09-05T08:22:51.75</time>
      </trkpt>
      <trkpt lat="45.57389" lon="4.97756">
        <ele>305</ele>
        <time>2012-09-05T08:22:52.68</time>
      </trkpt>
      <trkpt lat="45.574" lon="4.97755">
        <ele>304</ele>
        <time>2012-09-05T08:22:53.68</time>
      </trkpt>
      <trkpt lat="45.57411" lon="4.97754">
        <ele>303.5</ele>
        <time>2012-09-05T08:22:54.67</time>
      </trkpt>
      <trkpt lat="45.57422" lon="4.97754">
        <ele>302</ele>
        <time>2012-09-05T08:22:55.68</time>
      </trkpt>
      <trkpt lat="45.57432" lon="4.97753">
        <ele>301.5</ele>
        <time>2012-09-05T08:22:56.63</time>
      </trkpt>
      <trkpt lat="45.57443" lon="4.97752">
        <ele>301</ele>
        <time>2012-09-05T08:22:57.63</time>
      </trkpt>
      <trkpt lat="45.57453" lon="4.97751">
        <ele>300.5</ele>
        <time>2012-09-05T08:22:58.66</time>
      </trkpt>
      <trkpt lat="45.57464" lon="4.9775">
        <ele>300</ele>
        <time>2012-09-05T08:22:59.63</time>
      </trkpt>
      <trkpt lat="45.57474" lon="4.97748">
        <ele>300.5</ele>
        <time>2012-09-05T08:23:00.62</time>
      </trkpt>
      <trkpt lat="45.57484" lon="4.97748">
        <ele>300.5</ele>
        <time>2012-09-05T08:23:01.61</time>
      </trkpt>
      <trkpt lat="45.57494" lon="4.97747">
        <ele>299.5</ele>
        <time>2012-09-05T08:23:02.61</time>
      </trkpt>
      <trkpt lat="45.57503" lon="4.97746">
        <ele>299.5</ele>
        <time>2012-09-05T08:23:03.60</time>
      </trkpt>
      <trkpt lat="45.57511" lon="4.97745">
        <ele>298.5</ele>
        <time>2012-09-05T08:23:04.60</time>
      </trkpt>
      <trkpt lat="45.57517" lon="4.97745">
        <ele>299</ele>
        <time>2012-09-05T08:23:05.60</time>
      </trkpt>
      <trkpt lat="45.57522" lon="4.97745">
        <ele>298.5</ele>
        <time>2012-09-05T08:23:06.59</time>
      </trkpt>
      <trkpt lat="45.57526" lon="4.97748">
        <ele>299</ele>
        <time>2012-09-05T08:23:07.59</time>
      </trkpt>
      <trkpt lat="45.57529" lon="4.97752">
        <ele>298.5</ele>
        <time>2012-09-05T08:23:08.58</time>
      </trkpt>
      <trkpt lat="45.57532" lon="4.97757">
        <ele>298</ele>
        <time>2012-09-05T08:23:09.61</time>
      </trkpt>
      <trkpt lat="45.57534" lon="4.97763">
        <ele>297.5</ele>
        <time>2012-09-05T08:23:10.61</time>
      </trkpt>
      <trkpt lat="45.57537" lon="4.97768">
        <ele>297.5</ele>
        <time>2012-09-05T08:23:11.62</time>
      </trkpt>
      <trkpt lat="45.57539" lon="4.97774">
        <ele>297</ele>
        <time>2012-09-05T08:23:12.59</time>
      </trkpt>
      <trkpt lat="45.57542" lon="4.9778">
        <ele>297</ele>
        <time>2012-09-05T08:23:13.59</time>
      </trkpt>
      <trkpt lat="45.57544" lon="4.97786">
        <ele>296.5</ele>
        <time>2012-09-05T08:23:14.58</time>
      </trkpt>
      <trkpt lat="45.57546" lon="4.97791">
        <ele>296.5</ele>
        <time>2012-09-05T08:23:15.58</time>
      </trkpt>
      <trkpt lat="45.57548" lon="4.97798">
        <ele>296</ele>
        <time>2012-09-05T08:23:16.58</time>
      </trkpt>
      <trkpt lat="45.57549" lon="4.97804">
        <ele>295.5</ele>
        <time>2012-09-05T08:23:17.57</time>
      </trkpt>
      <trkpt lat="45.57551" lon="4.97811">
        <ele>295.5</ele>
        <time>2012-09-05T08:23:18.56</time>
      </trkpt>
      <trkpt lat="45.57553" lon="4.97818">
        <ele>295.5</ele>
        <time>2012-09-05T08:23:19.56</time>
      </trkpt>
      <trkpt lat="45.57554" lon="4.97825">
        <ele>295.5</ele>
        <time>2012-09-05T08:23:20.55</time>
      </trkpt>
      <trkpt lat="45.57556" lon="4.97832">
        <ele>295.5</ele>
        <time>2012-09-05T08:23:21.55</time>
      </trkpt>
      <trkpt lat="45.57557" lon="4.9784">
        <ele>295.5</ele>
        <time>2012-09-05T08:23:22.55</time>
      </trkpt>
      <trkpt lat="45.57558" lon="4.97848">
        <ele>295.5</ele>
        <time>2012-09-05T08:23:23.54</time>
      </trkpt>
      <trkpt lat="45.57559" lon="4.97855">
        <ele>295</ele>
        <time>2012-09-05T08:23:24.54</time>
      </trkpt>
      <trkpt lat="45.57558" lon="4.97864">
        <ele>294.5</ele>
        <time>2012-09-05T08:23:26.53</time>
      </trkpt>
      <trkpt lat="45.57558" lon="4.97866">
        <ele>294</ele>
        <time>2012-09-05T08:23:27.50</time>
      </trkpt>
      <trkpt lat="45.5756" lon="4.97868">
        <ele>294</ele>
        <time>2012-09-05T08:23:28.50</time>
      </trkpt>
      <trkpt lat="45.57562" lon="4.97868">
        <ele>294.5</ele>
        <time>2012-09-05T08:23:29.50</time>
      </trkpt>
      <trkpt lat="45.57562" lon="4.97864">
        <ele>294</ele>
        <time>2012-09-05T08:23:30.49</time>
      </trkpt>
      <trkpt lat="45.57562" lon="4.9786">
        <ele>294</ele>
        <time>2012-09-05T08:23:31.48</time>
      </trkpt>
      <trkpt lat="45.57563" lon="4.97855">
        <ele>293.5</ele>
        <time>2012-09-05T08:23:32.48</time>
      </trkpt>
      <trkpt lat="45.57562" lon="4.97849">
        <ele>293.5</ele>
        <time>2012-09-05T08:23:33.48</time>
      </trkpt>
      <trkpt lat="45.57562" lon="4.97843">
        <ele>293</ele>
        <time>2012-09-05T08:23:34.47</time>
      </trkpt>
      <trkpt lat="45.57561" lon="4.97835">
        <ele>293</ele>
        <time>2012-09-05T08:23:35.47</time>
      </trkpt>
      <trkpt lat="45.5756" lon="4.97827">
        <ele>292.5</ele>
        <time>2012-09-05T08:23:36.49</time>
      </trkpt>
      <trkpt lat="45.57559" lon="4.97818">
        <ele>292</ele>
        <time>2012-09-05T08:23:37.49</time>
      </trkpt>
      <trkpt lat="45.57557" lon="4.9781">
        <ele>292</ele>
        <time>2012-09-05T08:23:38.48</time>
      </trkpt>
      <trkpt lat="45.57555" lon="4.97802">
        <ele>292</ele>
        <time>2012-09-05T08:23:39.48</time>
      </trkpt>
      <trkpt lat="45.57552" lon="4.97793">
        <ele>291.5</ele>
        <time>2012-09-05T08:23:40.48</time>
      </trkpt>
      <trkpt lat="45.5755" lon="4.97785">
        <ele>291</ele>
        <time>2012-09-05T08:23:41.47</time>
      </trkpt>
      <trkpt lat="45.57548" lon="4.97777">
        <ele>291</ele>
        <time>2012-09-05T08:23:42.47</time>
      </trkpt>
      <trkpt lat="45.57545" lon="4.97769">
        <ele>291.5</ele>
        <time>2012-09-05T08:23:43.48</time>
      </trkpt>
      <trkpt lat="45.57543" lon="4.97762">
        <ele>291.5</ele>
        <time>2012-09-05T08:23:44.46</time>
      </trkpt>
      <trkpt lat="45.57541" lon="4.97755">
        <ele>291</ele>
        <time>2012-09-05T08:23:45.45</time>
      </trkpt>
      <trkpt lat="45.57539" lon="4.97748">
        <ele>291</ele>
        <time>2012-09-05T08:23:46.45</time>
      </trkpt>
      <trkpt lat="45.57538" lon="4.97741">
        <ele>292</ele>
        <time>2012-09-05T08:23:47.44</time>
      </trkpt>
      <trkpt lat="45.57537" lon="4.97734">
        <ele>291</ele>
        <time>2012-09-05T08:23:48.44</time>
      </trkpt>
      <trkpt lat="45.57538" lon="4.97726">
        <ele>290</ele>
        <time>2012-09-05T08:23:49.44</time>
      </trkpt>
      <trkpt lat="45.57538" lon="4.97719">
        <ele>289.5</ele>
        <time>2012-09-05T08:23:50.44</time>
      </trkpt>
      <trkpt lat="45.57539" lon="4.97711">
        <ele>289</ele>
        <time>2012-09-05T08:23:51.43</time>
      </trkpt>
      <trkpt lat="45.57541" lon="4.97702">
        <ele>288</ele>
        <time>2012-09-05T08:23:52.43</time>
      </trkpt>
      <trkpt lat="45.57542" lon="4.97693">
        <ele>287.5</ele>
        <time>2012-09-05T08:23:53.43</time>
      </trkpt>
      <trkpt lat="45.57543" lon="4.97684">
        <ele>286.5</ele>
        <time>2012-09-05T08:23:54.43</time>
      </trkpt>
      <trkpt lat="45.57545" lon="4.97675">
        <ele>286</ele>
        <time>2012-09-05T08:23:55.42</time>
      </trkpt>
      <trkpt lat="45.57549" lon="4.97667">
        <ele>286.5</ele>
        <time>2012-09-05T08:23:56.41</time>
      </trkpt>
      <trkpt lat="45.57552" lon="4.97659">
        <ele>286.5</ele>
        <time>2012-09-05T08:23:57.47</time>
      </trkpt>
      <trkpt lat="45.57554" lon="4.9765">
        <ele>286</ele>
        <time>2012-09-05T08:23:58.40</time>
      </trkpt>
      <trkpt lat="45.57557" lon="4.97641">
        <ele>285.5</ele>
        <time>2012-09-05T08:23:59.40</time>
      </trkpt>
      <trkpt lat="45.57559" lon="4.97631">
        <ele>285</ele>
        <time>2012-09-05T08:24:00.36</time>
      </trkpt>
      <trkpt lat="45.5756" lon="4.97622">
        <ele>285</ele>
        <time>2012-09-05T08:24:01.39</time>
      </trkpt>
      <trkpt lat="45.5756" lon="4.97612">
        <ele>285</ele>
        <time>2012-09-05T08:24:02.38</time>
      </trkpt>
      <trkpt lat="45.57559" lon="4.97602">
        <ele>285</ele>
        <time>2012-09-05T08:24:03.38</time>
      </trkpt>
      <trkpt lat="45.57559" lon="4.97593">
        <ele>285</ele>
        <time>2012-09-05T08:24:04.38</time>
      </trkpt>
      <trkpt lat="45.57558" lon="4.97583">
        <ele>285</ele>
        <time>2012-09-05T08:24:05.38</time>
      </trkpt>
      <trkpt lat="45.57557" lon="4.97574">
        <ele>285</ele>
        <time>2012-09-05T08:24:06.37</time>
      </trkpt>
      <trkpt lat="45.57556" lon="4.97563">
        <ele>284.5</ele>
        <time>2012-09-05T08:24:07.37</time>
      </trkpt>
      <trkpt lat="45.57555" lon="4.97554">
        <ele>284.5</ele>
        <time>2012-09-05T08:24:08.37</time>
      </trkpt>
      <trkpt lat="45.57554" lon="4.97544">
        <ele>284.5</ele>
        <time>2012-09-05T08:24:09.36</time>
      </trkpt>
      <trkpt lat="45.57554" lon="4.97534">
        <ele>285</ele>
        <time>2012-09-05T08:24:10.36</time>
      </trkpt>
      <trkpt lat="45.57552" lon="4.97524">
        <ele>284.5</ele>
        <time>2012-09-05T08:24:11.35</time>
      </trkpt>
      <trkpt lat="45.57551" lon="4.97515">
        <ele>285.5</ele>
        <time>2012-09-05T08:24:12.35</time>
      </trkpt>
      <trkpt lat="45.5755" lon="4.97506">
        <ele>286</ele>
        <time>2012-09-05T08:24:13.35</time>
      </trkpt>
      <trkpt lat="45.57548" lon="4.97496">
        <ele>286.5</ele>
        <time>2012-09-05T08:24:14.34</time>
      </trkpt>
      <trkpt lat="45.57547" lon="4.97485">
        <ele>286</ele>
        <time>2012-09-05T08:24:15.31</time>
      </trkpt>
      <trkpt lat="45.57545" lon="4.97475">
        <ele>285.5</ele>
        <time>2012-09-05T08:24:16.34</time>
      </trkpt>
      <trkpt lat="45.57543" lon="4.97465">
        <ele>285.5</ele>
        <time>2012-09-05T08:24:17.55</time>
      </trkpt>
      <trkpt lat="45.5754" lon="4.97455">
        <ele>285.5</ele>
        <time>2012-09-05T08:24:18.30</time>
      </trkpt>
      <trkpt lat="45.57538" lon="4.97445">
        <ele>285</ele>
        <time>2012-09-05T08:24:19.32</time>
      </trkpt>
      <trkpt lat="45.57534" lon="4.97436">
        <ele>285.5</ele>
        <time>2012-09-05T08:24:20.28</time>
      </trkpt>
      <trkpt lat="45.57531" lon="4.97426">
        <ele>285</ele>
        <time>2012-09-05T08:24:35.87</time>
      </trkpt>
      <trkpt lat="45.57527" lon="4.97417">
        <ele>285</ele>
        <time>2012-09-05T08:24:36.90</time>
      </trkpt>
      <trkpt lat="45.57523" lon="4.97408">
        <ele>285.5</ele>
        <time>2012-09-05T08:24:37.87</time>
      </trkpt>
      <trkpt lat="45.57519" lon="4.97399">
        <ele>285.5</ele>
        <time>2012-09-05T08:24:38.88</time>
      </trkpt>
      <trkpt lat="45.57515" lon="4.97389">
        <ele>285.5</ele>
        <time>2012-09-05T08:24:39.88</time>
      </trkpt>
      <trkpt lat="45.57511" lon="4.9738">
        <ele>285.5</ele>
        <time>2012-09-05T08:24:40.84</time>
      </trkpt>
      <trkpt lat="45.57508" lon="4.9737">
        <ele>285.5</ele>
        <time>2012-09-05T08:24:42.03</time>
      </trkpt>
      <trkpt lat="45.57504" lon="4.9736">
        <ele>286</ele>
        <time>2012-09-05T08:24:42.83</time>
      </trkpt>
      <trkpt lat="45.57501" lon="4.97351">
        <ele>286</ele>
        <time>2012-09-05T08:24:43.85</time>
      </trkpt>
      <trkpt lat="45.57498" lon="4.97341">
        <ele>286.5</ele>
        <time>2012-09-05T08:24:44.82</time>
      </trkpt>
      <trkpt lat="45.57496" lon="4.97331">
        <ele>287</ele>
        <time>2012-09-05T08:24:45.84</time>
      </trkpt>
      <trkpt lat="45.57494" lon="4.9732">
        <ele>287</ele>
        <time>2012-09-05T08:24:46.84</time>
      </trkpt>
      <trkpt lat="45.57492" lon="4.97309">
        <ele>287</ele>
        <time>2012-09-05T08:24:47.80</time>
      </trkpt>
      <trkpt lat="45.5749" lon="4.97299">
        <ele>287.5</ele>
        <time>2012-09-05T08:24:48.83</time>
      </trkpt>
      <trkpt lat="45.57489" lon="4.97288">
        <ele>287.5</ele>
        <time>2012-09-05T08:24:49.90</time>
      </trkpt>
      <trkpt lat="45.57488" lon="4.97278">
        <ele>289</ele>
        <time>2012-09-05T08:24:50.79</time>
      </trkpt>
      <trkpt lat="45.57487" lon="4.97267">
        <ele>289.5</ele>
        <time>2012-09-05T08:24:52.17</time>
      </trkpt>
      <trkpt lat="45.57489" lon="4.97243">
        <ele>288</ele>
        <time>2012-09-05T08:24:53.78</time>
      </trkpt>
      <trkpt lat="45.5749" lon="4.97231">
        <ele>287.5</ele>
        <time>2012-09-05T08:24:54.80</time>
      </trkpt>
      <trkpt lat="45.57492" lon="4.97223">
        <ele>289</ele>
        <time>2012-09-05T08:24:55.77</time>
      </trkpt>
      <trkpt lat="45.57494" lon="4.97213">
        <ele>289.5</ele>
        <time>2012-09-05T08:24:56.83</time>
      </trkpt>
      <trkpt lat="45.57497" lon="4.97202">
        <ele>290</ele>
        <time>2012-09-05T08:24:57.76</time>
      </trkpt>
      <trkpt lat="45.57499" lon="4.97192">
        <ele>290</ele>
        <time>2012-09-05T08:24:58.79</time>
      </trkpt>
      <trkpt lat="45.57501" lon="4.97181">
        <ele>290</ele>
        <time>2012-09-05T08:24:59.78</time>
      </trkpt>
      <trkpt lat="45.57503" lon="4.9717">
        <ele>290</ele>
        <time>2012-09-05T08:25:00.77</time>
      </trkpt>
      <trkpt lat="45.57505" lon="4.97159">
        <ele>289.5</ele>
        <time>2012-09-05T08:25:01.89</time>
      </trkpt>
      <trkpt lat="45.57506" lon="4.97149">
        <ele>290.5</ele>
        <time>2012-09-05T08:25:02.75</time>
      </trkpt>
      <trkpt lat="45.57507" lon="4.97138">
        <ele>291</ele>
        <time>2012-09-05T08:25:03.77</time>
      </trkpt>
      <trkpt lat="45.57507" lon="4.97126">
        <ele>290.5</ele>
        <time>2012-09-05T08:25:04.75</time>
      </trkpt>
      <trkpt lat="45.57508" lon="4.97115">
        <ele>290.5</ele>
        <time>2012-09-05T08:25:05.73</time>
      </trkpt>
      <trkpt lat="45.57508" lon="4.97104">
        <ele>290.5</ele>
        <time>2012-09-05T08:25:06.71</time>
      </trkpt>
      <trkpt lat="45.57508" lon="4.97093">
        <ele>290.5</ele>
        <time>2012-09-05T08:25:07.97</time>
      </trkpt>
      <trkpt lat="45.57508" lon="4.97081">
        <ele>290.5</ele>
        <time>2012-09-05T08:25:08.72</time>
      </trkpt>
      <trkpt lat="45.57508" lon="4.9707">
        <ele>290.5</ele>
        <time>2012-09-05T08:25:09.73</time>
      </trkpt>
      <trkpt lat="45.57508" lon="4.97059">
        <ele>290.5</ele>
        <time>2012-09-05T08:25:10.69</time>
      </trkpt>
      <trkpt lat="45.57507" lon="4.97048">
        <ele>290</ele>
        <time>2012-09-05T08:25:11.73</time>
      </trkpt>
      <trkpt lat="45.57507" lon="4.97037">
        <ele>290</ele>
        <time>2012-09-05T08:25:12.69</time>
      </trkpt>
      <trkpt lat="45.57507" lon="4.97026">
        <ele>289.5</ele>
        <time>2012-09-05T08:25:13.71</time>
      </trkpt>
      <trkpt lat="45.57506" lon="4.97015">
        <ele>289.5</ele>
        <time>2012-09-05T08:25:14.67</time>
      </trkpt>
      <trkpt lat="45.57506" lon="4.97004">
        <ele>289</ele>
        <time>2012-09-05T08:25:15.70</time>
      </trkpt>
      <trkpt lat="45.57506" lon="4.96993">
        <ele>289.5</ele>
        <time>2012-09-05T08:25:16.69</time>
      </trkpt>
      <trkpt lat="45.57506" lon="4.96982">
        <ele>290</ele>
        <time>2012-09-05T08:25:17.68</time>
      </trkpt>
      <trkpt lat="45.57507" lon="4.96972">
        <ele>290.5</ele>
        <time>2012-09-05T08:25:18.66</time>
      </trkpt>
      <trkpt lat="45.57507" lon="4.96961">
        <ele>291</ele>
        <time>2012-09-05T08:25:19.68</time>
      </trkpt>
      <trkpt lat="45.57508" lon="4.9695">
        <ele>291.5</ele>
        <time>2012-09-05T08:25:20.67</time>
      </trkpt>
      <trkpt lat="45.57509" lon="4.96939">
        <ele>291</ele>
        <time>2012-09-05T08:25:21.67</time>
      </trkpt>
      <trkpt lat="45.5751" lon="4.96928">
        <ele>291</ele>
        <time>2012-09-05T08:25:22.71</time>
      </trkpt>
      <trkpt lat="45.57512" lon="4.96916">
        <ele>290.5</ele>
        <time>2012-09-05T08:25:23.76</time>
      </trkpt>
      <trkpt lat="45.57513" lon="4.96905">
        <ele>291</ele>
        <time>2012-09-05T08:25:24.62</time>
      </trkpt>
      <trkpt lat="45.57514" lon="4.96894">
        <ele>291</ele>
        <time>2012-09-05T08:25:25.66</time>
      </trkpt>
      <trkpt lat="45.57516" lon="4.96883">
        <ele>291</ele>
        <time>2012-09-05T08:25:26.61</time>
      </trkpt>
      <trkpt lat="45.57517" lon="4.96872">
        <ele>291</ele>
        <time>2012-09-05T08:25:27.64</time>
      </trkpt>
      <trkpt lat="45.57519" lon="4.96861">
        <ele>291.5</ele>
        <time>2012-09-05T08:25:28.61</time>
      </trkpt>
      <trkpt lat="45.57521" lon="4.9685">
        <ele>291.5</ele>
        <time>2012-09-05T08:25:29.63</time>
      </trkpt>
      <trkpt lat="45.57522" lon="4.96839">
        <ele>291</ele>
        <time>2012-09-05T08:25:30.63</time>
      </trkpt>
      <trkpt lat="45.57523" lon="4.96828">
        <ele>290.5</ele>
        <time>2012-09-05T08:25:31.59</time>
      </trkpt>
      <trkpt lat="45.57525" lon="4.96817">
        <ele>290.5</ele>
        <time>2012-09-05T08:25:32.69</time>
      </trkpt>
      <trkpt lat="45.57525" lon="4.96805">
        <ele>289.5</ele>
        <time>2012-09-05T08:25:33.71</time>
      </trkpt>
      <trkpt lat="45.57526" lon="4.96794">
        <ele>290</ele>
        <time>2012-09-05T08:25:34.56</time>
      </trkpt>
      <trkpt lat="45.57526" lon="4.96784">
        <ele>290</ele>
        <time>2012-09-05T08:25:35.58</time>
      </trkpt>
      <trkpt lat="45.57525" lon="4.96773">
        <ele>289.5</ele>
        <time>2012-09-05T08:25:36.58</time>
      </trkpt>
      <trkpt lat="45.57524" lon="4.96762">
        <ele>289.5</ele>
        <time>2012-09-05T08:25:37.63</time>
      </trkpt>
      <trkpt lat="45.57523" lon="4.96751">
        <ele>290</ele>
        <time>2012-09-05T08:25:38.54</time>
      </trkpt>
      <trkpt lat="45.57522" lon="4.9674">
        <ele>290</ele>
        <time>2012-09-05T08:25:39.56</time>
      </trkpt>
      <trkpt lat="45.57521" lon="4.9673">
        <ele>289.5</ele>
        <time>2012-09-05T08:25:40.53</time>
      </trkpt>
      <trkpt lat="45.5752" lon="4.96719">
        <ele>289</ele>
        <time>2012-09-05T08:25:41.55</time>
      </trkpt>
      <trkpt lat="45.57518" lon="4.96708">
        <ele>288.5</ele>
        <time>2012-09-05T08:25:42.52</time>
      </trkpt>
      <trkpt lat="45.57517" lon="4.96698">
        <ele>288</ele>
        <time>2012-09-05T08:25:43.61</time>
      </trkpt>
      <trkpt lat="45.57515" lon="4.96688">
        <ele>288.5</ele>
        <time>2012-09-05T08:25:44.72</time>
      </trkpt>
      <trkpt lat="45.57513" lon="4.96678">
        <ele>289</ele>
        <time>2012-09-05T08:25:45.50</time>
      </trkpt>
      <trkpt lat="45.57511" lon="4.96668">
        <ele>289</ele>
        <time>2012-09-05T08:25:46.56</time>
      </trkpt>
      <trkpt lat="45.57509" lon="4.96658">
        <ele>289</ele>
        <time>2012-09-05T08:25:47.49</time>
      </trkpt>
      <trkpt lat="45.57506" lon="4.96648">
        <ele>288.5</ele>
        <time>2012-09-05T08:25:48.51</time>
      </trkpt>
      <trkpt lat="45.57503" lon="4.96638">
        <ele>288</ele>
        <time>2012-09-05T08:25:49.51</time>
      </trkpt>
      <trkpt lat="45.575" lon="4.96628">
        <ele>287.5</ele>
        <time>2012-09-05T08:25:50.50</time>
      </trkpt>
      <trkpt lat="45.57496" lon="4.96618">
        <ele>287.5</ele>
        <time>2012-09-05T08:25:51.48</time>
      </trkpt>
      <trkpt lat="45.57492" lon="4.96609">
        <ele>288</ele>
        <time>2012-09-05T08:25:52.50</time>
      </trkpt>
      <trkpt lat="45.57488" lon="4.966">
        <ele>288</ele>
        <time>2012-09-05T08:25:53.49</time>
      </trkpt>
      <trkpt lat="45.57484" lon="4.96591">
        <ele>288</ele>
        <time>2012-09-05T08:25:54.49</time>
      </trkpt>
      <trkpt lat="45.5748" lon="4.96582">
        <ele>288.5</ele>
        <time>2012-09-05T08:25:55.47</time>
      </trkpt>
      <trkpt lat="45.57477" lon="4.96573">
        <ele>288.5</ele>
        <time>2012-09-05T08:25:56.45</time>
      </trkpt>
      <trkpt lat="45.57473" lon="4.96563">
        <ele>288.5</ele>
        <time>2012-09-05T08:25:57.45</time>
      </trkpt>
      <trkpt lat="45.57469" lon="4.96555">
        <ele>289</ele>
        <time>2012-09-05T08:25:58.46</time>
      </trkpt>
      <trkpt lat="45.57466" lon="4.96545">
        <ele>288.5</ele>
        <time>2012-09-05T08:25:59.43</time>
      </trkpt>
      <trkpt lat="45.57462" lon="4.96536">
        <ele>288.5</ele>
        <time>2012-09-05T08:26:00.49</time>
      </trkpt>
      <trkpt lat="45.57458" lon="4.96526">
        <ele>289</ele>
        <time>2012-09-05T08:26:01.42</time>
      </trkpt>
      <trkpt lat="45.57455" lon="4.96517">
        <ele>290</ele>
        <time>2012-09-05T08:26:02.45</time>
      </trkpt>
      <trkpt lat="45.57451" lon="4.96509">
        <ele>292</ele>
        <time>2012-09-05T08:26:03.44</time>
      </trkpt>
      <trkpt lat="45.57448" lon="4.965">
        <ele>292</ele>
        <time>2012-09-05T08:26:04.41</time>
      </trkpt>
      <trkpt lat="45.57446" lon="4.96489">
        <ele>291</ele>
        <time>2012-09-05T08:26:05.43</time>
      </trkpt>
      <trkpt lat="45.57443" lon="4.96479">
        <ele>290.5</ele>
        <time>2012-09-05T08:26:06.42</time>
      </trkpt>
      <trkpt lat="45.5744" lon="4.9647">
        <ele>290.5</ele>
        <time>2012-09-05T08:26:07.42</time>
      </trkpt>
      <trkpt lat="45.57438" lon="4.96461">
        <ele>290.5</ele>
        <time>2012-09-05T08:26:08.41</time>
      </trkpt>
      <trkpt lat="45.57436" lon="4.96452">
        <ele>291</ele>
        <time>2012-09-05T08:26:09.41</time>
      </trkpt>
      <trkpt lat="45.57434" lon="4.96444">
        <ele>293</ele>
        <time>2012-09-05T08:26:10.37</time>
      </trkpt>
      <trkpt lat="45.57431" lon="4.96435">
        <ele>292.5</ele>
        <time>2012-09-05T08:26:11.39</time>
      </trkpt>
      <trkpt lat="45.5743" lon="4.96425">
        <ele>291.5</ele>
        <time>2012-09-05T08:26:12.39</time>
      </trkpt>
      <trkpt lat="45.57428" lon="4.96414">
        <ele>289.5</ele>
        <time>2012-09-05T08:26:13.43</time>
      </trkpt>
      <trkpt lat="45.57426" lon="4.96403">
        <ele>287</ele>
        <time>2012-09-05T08:26:14.36</time>
      </trkpt>
      <trkpt lat="45.57425" lon="4.96395">
        <ele>287.5</ele>
        <time>2012-09-05T08:26:15.39</time>
      </trkpt>
      <trkpt lat="45.57423" lon="4.96387">
        <ele>289.5</ele>
        <time>2012-09-05T08:26:16.44</time>
      </trkpt>
      <trkpt lat="45.57421" lon="4.96378">
        <ele>290.5</ele>
        <time>2012-09-05T08:26:17.36</time>
      </trkpt>
      <trkpt lat="45.57419" lon="4.9637">
        <ele>292</ele>
        <time>2012-09-05T08:26:18.38</time>
      </trkpt>
      <trkpt lat="45.57416" lon="4.96364">
        <ele>291.5</ele>
        <time>2012-09-05T08:26:19.38</time>
      </trkpt>
      <trkpt lat="45.5741" lon="4.96346">
        <ele>288.5</ele>
        <time>2012-09-05T08:26:21.38</time>
      </trkpt>
      <trkpt lat="45.57408" lon="4.96337">
        <ele>290</ele>
        <time>2012-09-05T08:26:22.34</time>
      </trkpt>
      <trkpt lat="45.57404" lon="4.96322">
        <ele>289</ele>
        <time>2012-09-05T08:26:24.37</time>
      </trkpt>
      <trkpt lat="45.57401" lon="4.96313">
        <ele>289</ele>
        <time>2012-09-05T08:26:25.33</time>
      </trkpt>
      <trkpt lat="45.57398" lon="4.96301">
        <ele>289</ele>
        <time>2012-09-05T08:26:26.60</time>
      </trkpt>
      <trkpt lat="45.57395" lon="4.9629">
        <ele>288.5</ele>
        <time>2012-09-05T08:26:27.31</time>
      </trkpt>
      <trkpt lat="45.57391" lon="4.96282">
        <ele>288</ele>
        <time>2012-09-05T08:26:28.34</time>
      </trkpt>
      <trkpt lat="45.57387" lon="4.96258">
        <ele>288</ele>
        <time>2012-09-05T08:26:30.34</time>
      </trkpt>
      <trkpt lat="45.57384" lon="4.96247">
        <ele>288</ele>
        <time>2012-09-05T08:26:31.30</time>
      </trkpt>
      <trkpt lat="45.57382" lon="4.96236">
        <ele>288</ele>
        <time>2012-09-05T08:26:32.34</time>
      </trkpt>
      <trkpt lat="45.57379" lon="4.96224">
        <ele>288</ele>
        <time>2012-09-05T08:26:33.32</time>
      </trkpt>
      <trkpt lat="45.57377" lon="4.96214">
        <ele>288</ele>
        <time>2012-09-05T08:26:34.28</time>
      </trkpt>
      <trkpt lat="45.57375" lon="4.96203">
        <ele>288</ele>
        <time>2012-09-05T08:26:35.31</time>
      </trkpt>
      <trkpt lat="45.57373" lon="4.96194">
        <ele>288</ele>
        <time>2012-09-05T08:26:36.29</time>
      </trkpt>
      <trkpt lat="45.57371" lon="4.96183">
        <ele>287.5</ele>
        <time>2012-09-05T08:26:37.30</time>
      </trkpt>
      <trkpt lat="45.57369" lon="4.96173">
        <ele>287.5</ele>
        <time>2012-09-05T08:26:38.29</time>
      </trkpt>
      <trkpt lat="45.57367" lon="4.96162">
        <ele>287</ele>
        <time>2012-09-05T08:26:39.29</time>
      </trkpt>
      <trkpt lat="45.57366" lon="4.96152">
        <ele>287</ele>
        <time>2012-09-05T08:26:40.25</time>
      </trkpt>
      <trkpt lat="45.57364" lon="4.96143">
        <ele>288</ele>
        <time>2012-09-05T08:26:41.28</time>
      </trkpt>
      <trkpt lat="45.57362" lon="4.96133">
        <ele>289</ele>
        <time>2012-09-05T08:26:42.27</time>
      </trkpt>
      <trkpt lat="45.57359" lon="4.96123">
        <ele>288.5</ele>
        <time>2012-09-05T08:26:43.27</time>
      </trkpt>
      <trkpt lat="45.57358" lon="4.96113">
        <ele>288.5</ele>
        <time>2012-09-05T08:26:44.23</time>
      </trkpt>
      <trkpt lat="45.57356" lon="4.96103">
        <ele>288</ele>
        <time>2012-09-05T08:26:45.27</time>
      </trkpt>
      <trkpt lat="45.57354" lon="4.96093">
        <ele>287.5</ele>
        <time>2012-09-05T08:26:46.23</time>
      </trkpt>
      <trkpt lat="45.57353" lon="4.96084">
        <ele>287</ele>
        <time>2012-09-05T08:26:47.25</time>
      </trkpt>
      <trkpt lat="45.57351" lon="4.96075">
        <ele>287</ele>
        <time>2012-09-05T08:26:48.21</time>
      </trkpt>
      <trkpt lat="45.57349" lon="4.96065">
        <ele>286.5</ele>
        <time>2012-09-05T08:26:49.23</time>
      </trkpt>
      <trkpt lat="45.57347" lon="4.96056">
        <ele>286</ele>
        <time>2012-09-05T08:26:50.23</time>
      </trkpt>
      <trkpt lat="45.57346" lon="4.96047">
        <ele>286</ele>
        <time>2012-09-05T08:26:51.22</time>
      </trkpt>
      <trkpt lat="45.57344" lon="4.96038">
        <ele>286.5</ele>
        <time>2012-09-05T08:26:52.19</time>
      </trkpt>
      <trkpt lat="45.57342" lon="4.96028">
        <ele>286.5</ele>
        <time>2012-09-05T08:26:53.21</time>
      </trkpt>
      <trkpt lat="45.57341" lon="4.96019">
        <ele>287</ele>
        <time>2012-09-05T08:26:54.17</time>
      </trkpt>
      <trkpt lat="45.57339" lon="4.9601">
        <ele>287.5</ele>
        <time>2012-09-05T08:26:55.17</time>
      </trkpt>
      <trkpt lat="45.57337" lon="4.96">
        <ele>286.5</ele>
        <time>2012-09-05T08:26:56.20</time>
      </trkpt>
      <trkpt lat="45.57336" lon="4.95992">
        <ele>287</ele>
        <time>2012-09-05T08:26:57.16</time>
      </trkpt>
      <trkpt lat="45.57334" lon="4.95983">
        <ele>287</ele>
        <time>2012-09-05T08:26:58.19</time>
      </trkpt>
      <trkpt lat="45.57332" lon="4.95975">
        <ele>288</ele>
        <time>2012-09-05T08:26:59.18</time>
      </trkpt>
      <trkpt lat="45.57331" lon="4.95966">
        <ele>288</ele>
        <time>2012-09-05T08:27:00.16</time>
      </trkpt>
      <trkpt lat="45.57329" lon="4.95956">
        <ele>288</ele>
        <time>2012-09-05T08:27:01.18</time>
      </trkpt>
      <trkpt lat="45.57328" lon="4.95947">
        <ele>288</ele>
        <time>2012-09-05T08:27:02.24</time>
      </trkpt>
      <trkpt lat="45.57327" lon="4.95938">
        <ele>288</ele>
        <time>2012-09-05T08:27:03.30</time>
      </trkpt>
      <trkpt lat="45.57326" lon="4.95929">
        <ele>289</ele>
        <time>2012-09-05T08:27:04.13</time>
      </trkpt>
      <trkpt lat="45.57323" lon="4.95922">
        <ele>289.5</ele>
        <time>2012-09-05T08:27:05.19</time>
      </trkpt>
      <trkpt lat="45.57322" lon="4.95915">
        <ele>290</ele>
        <time>2012-09-05T08:27:06.24</time>
      </trkpt>
      <trkpt lat="45.5732" lon="4.95907">
        <ele>290</ele>
        <time>2012-09-05T08:27:07.28</time>
      </trkpt>
      <trkpt lat="45.57319" lon="4.95898">
        <ele>290</ele>
        <time>2012-09-05T08:27:08.35</time>
      </trkpt>
      <trkpt lat="45.57318" lon="4.95891">
        <ele>289.5</ele>
        <time>2012-09-05T08:27:09.11</time>
      </trkpt>
      <trkpt lat="45.57316" lon="4.95883">
        <ele>290</ele>
        <time>2012-09-05T08:27:10.13</time>
      </trkpt>
      <trkpt lat="45.57315" lon="4.95875">
        <ele>291</ele>
        <time>2012-09-05T08:27:11.11</time>
      </trkpt>
      <trkpt lat="45.57313" lon="4.95867">
        <ele>291</ele>
        <time>2012-09-05T08:27:12.12</time>
      </trkpt>
      <trkpt lat="45.57312" lon="4.95859">
        <ele>291</ele>
        <time>2012-09-05T08:27:13.11</time>
      </trkpt>
      <trkpt lat="45.57311" lon="4.95851">
        <ele>289.5</ele>
        <time>2012-09-05T08:27:14.09</time>
      </trkpt>
      <trkpt lat="45.57309" lon="4.95843">
        <ele>290.5</ele>
        <time>2012-09-05T08:27:15.13</time>
      </trkpt>
      <trkpt lat="45.57308" lon="4.95835">
        <ele>290.5</ele>
        <time>2012-09-05T08:27:16.10</time>
      </trkpt>
      <trkpt lat="45.57306" lon="4.95826">
        <ele>289.5</ele>
        <time>2012-09-05T08:27:17.09</time>
      </trkpt>
      <trkpt lat="45.57305" lon="4.95817">
        <ele>289</ele>
        <time>2012-09-05T08:27:18.07</time>
      </trkpt>
      <trkpt lat="45.57303" lon="4.95808">
        <ele>288.5</ele>
        <time>2012-09-05T08:27:19.09</time>
      </trkpt>
      <trkpt lat="45.57301" lon="4.958">
        <ele>288.5</ele>
        <time>2012-09-05T08:27:20.09</time>
      </trkpt>
      <trkpt lat="45.573" lon="4.95792">
        <ele>288.5</ele>
        <time>2012-09-05T08:27:21.08</time>
      </trkpt>
      <trkpt lat="45.57298" lon="4.95784">
        <ele>288.5</ele>
        <time>2012-09-05T08:27:22.08</time>
      </trkpt>
      <trkpt lat="45.57296" lon="4.95776">
        <ele>288</ele>
        <time>2012-09-05T08:27:23.05</time>
      </trkpt>
      <trkpt lat="45.57295" lon="4.9577">
        <ele>287.5</ele>
        <time>2012-09-05T08:27:24.08</time>
      </trkpt>
      <trkpt lat="45.57294" lon="4.95765">
        <ele>287</ele>
        <time>2012-09-05T08:27:25.07</time>
      </trkpt>
      <trkpt lat="45.57294" lon="4.95762">
        <ele>287.5</ele>
        <time>2012-09-05T08:27:26.05</time>
      </trkpt>
      <trkpt lat="45.57294" lon="4.95758">
        <ele>287</ele>
        <time>2012-09-05T08:27:27.02</time>
      </trkpt>
      <trkpt lat="45.57294" lon="4.95756">
        <ele>287</ele>
        <time>2012-09-05T08:27:28.04</time>
      </trkpt>
      <trkpt lat="45.57293" lon="4.95752">
        <ele>286.5</ele>
        <time>2012-09-05T08:27:29.04</time>
      </trkpt>
      <trkpt lat="45.57291" lon="4.95749">
        <ele>286.5</ele>
        <time>2012-09-05T08:27:30.03</time>
      </trkpt>
      <trkpt lat="45.57289" lon="4.95747">
        <ele>286</ele>
        <time>2012-09-05T08:27:31.01</time>
      </trkpt>
      <trkpt lat="45.57287" lon="4.95745">
        <ele>285</ele>
        <time>2012-09-05T08:27:32.01</time>
      </trkpt>
      <trkpt lat="45.57285" lon="4.95744">
        <ele>284.5</ele>
        <time>2012-09-05T08:27:33.02</time>
      </trkpt>
      <trkpt lat="45.57283" lon="4.95743">
        <ele>284</ele>
        <time>2012-09-05T08:27:34.02</time>
      </trkpt>
      <trkpt lat="45.5728" lon="4.95741">
        <ele>284</ele>
        <time>2012-09-05T08:27:34.99</time>
      </trkpt>
      <trkpt lat="45.57277" lon="4.9574">
        <ele>284</ele>
        <time>2012-09-05T08:27:35.99</time>
      </trkpt>
      <trkpt lat="45.57274" lon="4.9574">
        <ele>283</ele>
        <time>2012-09-05T08:27:36.99</time>
      </trkpt>
      <trkpt lat="45.57271" lon="4.95739">
        <ele>283</ele>
        <time>2012-09-05T08:27:38.00</time>
      </trkpt>
      <trkpt lat="45.57268" lon="4.95739">
        <ele>282</ele>
        <time>2012-09-05T08:27:38.99</time>
      </trkpt>
      <trkpt lat="45.57265" lon="4.95739">
        <ele>282</ele>
        <time>2012-09-05T08:27:39.97</time>
      </trkpt>
      <trkpt lat="45.57261" lon="4.95739">
        <ele>281.5</ele>
        <time>2012-09-05T08:27:40.98</time>
      </trkpt>
      <trkpt lat="45.57257" lon="4.9574">
        <ele>282</ele>
        <time>2012-09-05T08:27:41.98</time>
      </trkpt>
      <trkpt lat="45.57253" lon="4.95741">
        <ele>282</ele>
        <time>2012-09-05T08:27:42.97</time>
      </trkpt>
      <trkpt lat="45.57249" lon="4.95741">
        <ele>281.5</ele>
        <time>2012-09-05T08:27:43.95</time>
      </trkpt>
      <trkpt lat="45.57245" lon="4.95742">
        <ele>282</ele>
        <time>2012-09-05T08:27:44.96</time>
      </trkpt>
      <trkpt lat="45.57242" lon="4.95743">
        <ele>282.5</ele>
        <time>2012-09-05T08:27:45.96</time>
      </trkpt>
      <trkpt lat="45.57238" lon="4.95745">
        <ele>282</ele>
        <time>2012-09-05T08:27:46.95</time>
      </trkpt>
      <trkpt lat="45.57234" lon="4.95746">
        <ele>282.5</ele>
        <time>2012-09-05T08:27:47.92</time>
      </trkpt>
      <trkpt lat="45.5723" lon="4.95747">
        <ele>282.5</ele>
        <time>2012-09-05T08:27:48.94</time>
      </trkpt>
      <trkpt lat="45.57226" lon="4.95748">
        <ele>282.5</ele>
        <time>2012-09-05T08:27:49.92</time>
      </trkpt>
      <trkpt lat="45.57223" lon="4.9575">
        <ele>282.5</ele>
        <time>2012-09-05T08:27:50.93</time>
      </trkpt>
      <trkpt lat="45.57218" lon="4.95751">
        <ele>282.5</ele>
        <time>2012-09-05T08:27:51.89</time>
      </trkpt>
      <trkpt lat="45.57215" lon="4.95752">
        <ele>282.5</ele>
        <time>2012-09-05T08:27:52.91</time>
      </trkpt>
      <trkpt lat="45.5721" lon="4.95753">
        <ele>282.5</ele>
        <time>2012-09-05T08:27:53.88</time>
      </trkpt>
      <trkpt lat="45.57206" lon="4.95755">
        <ele>283</ele>
        <time>2012-09-05T08:27:54.92</time>
      </trkpt>
      <trkpt lat="45.57203" lon="4.95756">
        <ele>283</ele>
        <time>2012-09-05T08:27:55.88</time>
      </trkpt>
      <trkpt lat="45.57199" lon="4.95757">
        <ele>284</ele>
        <time>2012-09-05T08:27:56.90</time>
      </trkpt>
      <trkpt lat="45.57194" lon="4.95758">
        <ele>284</ele>
        <time>2012-09-05T08:27:57.97</time>
      </trkpt>
      <trkpt lat="45.57191" lon="4.95759">
        <ele>283.5</ele>
        <time>2012-09-05T08:27:58.86</time>
      </trkpt>
      <trkpt lat="45.57187" lon="4.95759">
        <ele>284.5</ele>
        <time>2012-09-05T08:27:59.89</time>
      </trkpt>
      <trkpt lat="45.57182" lon="4.95759">
        <ele>285</ele>
        <time>2012-09-05T08:28:00.89</time>
      </trkpt>
      <trkpt lat="45.57178" lon="4.95758">
        <ele>285.5</ele>
        <time>2012-09-05T08:28:01.85</time>
      </trkpt>
      <trkpt lat="45.57175" lon="4.95756">
        <ele>286</ele>
        <time>2012-09-05T08:28:02.88</time>
      </trkpt>
      <trkpt lat="45.57172" lon="4.95754">
        <ele>285.5</ele>
        <time>2012-09-05T08:28:03.88</time>
      </trkpt>
      <trkpt lat="45.57169" lon="4.95751">
        <ele>285.5</ele>
        <time>2012-09-05T08:28:04.87</time>
      </trkpt>
      <trkpt lat="45.57166" lon="4.95748">
        <ele>286</ele>
        <time>2012-09-05T08:28:05.85</time>
      </trkpt>
      <trkpt lat="45.57163" lon="4.95744">
        <ele>286.5</ele>
        <time>2012-09-05T08:28:06.86</time>
      </trkpt>
      <trkpt lat="45.57161" lon="4.9574">
        <ele>287.5</ele>
        <time>2012-09-05T08:28:07.86</time>
      </trkpt>
      <trkpt lat="45.57159" lon="4.95736">
        <ele>288</ele>
        <time>2012-09-05T08:28:08.85</time>
      </trkpt>
      <trkpt lat="45.57158" lon="4.95732">
        <ele>288.5</ele>
        <time>2012-09-05T08:28:09.86</time>
      </trkpt>
      <trkpt lat="45.57156" lon="4.95728">
        <ele>288.5</ele>
        <time>2012-09-05T08:28:10.92</time>
      </trkpt>
      <trkpt lat="45.57155" lon="4.95723">
        <ele>288.5</ele>
        <time>2012-09-05T08:28:11.82</time>
      </trkpt>
      <trkpt lat="45.57153" lon="4.9572">
        <ele>289.5</ele>
        <time>2012-09-05T08:28:12.88</time>
      </trkpt>
      <trkpt lat="45.57152" lon="4.95715">
        <ele>290</ele>
        <time>2012-09-05T08:28:13.81</time>
      </trkpt>
      <trkpt lat="45.57151" lon="4.95711">
        <ele>291</ele>
        <time>2012-09-05T08:28:14.83</time>
      </trkpt>
      <trkpt lat="45.5715" lon="4.95707">
        <ele>291.5</ele>
        <time>2012-09-05T08:28:15.81</time>
      </trkpt>
      <trkpt lat="45.57149" lon="4.95702">
        <ele>292</ele>
        <time>2012-09-05T08:28:16.82</time>
      </trkpt>
      <trkpt lat="45.57147" lon="4.95698">
        <ele>292.5</ele>
        <time>2012-09-05T08:28:17.78</time>
      </trkpt>
      <trkpt lat="45.57145" lon="4.95694">
        <ele>293</ele>
        <time>2012-09-05T08:28:18.81</time>
      </trkpt>
      <trkpt lat="45.57143" lon="4.9569">
        <ele>293.5</ele>
        <time>2012-09-05T08:28:19.77</time>
      </trkpt>
      <trkpt lat="45.5714" lon="4.95687">
        <ele>294</ele>
        <time>2012-09-05T08:28:20.80</time>
      </trkpt>
      <trkpt lat="45.57137" lon="4.95684">
        <ele>294.5</ele>
        <time>2012-09-05T08:28:21.76</time>
      </trkpt>
      <trkpt lat="45.57135" lon="4.95681">
        <ele>294.5</ele>
        <time>2012-09-05T08:28:22.79</time>
      </trkpt>
      <trkpt lat="45.57132" lon="4.9568">
        <ele>295</ele>
        <time>2012-09-05T08:28:23.75</time>
      </trkpt>
      <trkpt lat="45.57128" lon="4.95678">
        <ele>295.5</ele>
        <time>2012-09-05T08:28:24.77</time>
      </trkpt>
      <trkpt lat="45.57125" lon="4.95677">
        <ele>295.5</ele>
        <time>2012-09-05T08:28:25.75</time>
      </trkpt>
      <trkpt lat="45.5712" lon="4.95677">
        <ele>295</ele>
        <time>2012-09-05T08:28:26.77</time>
      </trkpt>
      <trkpt lat="45.57117" lon="4.95676">
        <ele>295</ele>
        <time>2012-09-05T08:28:27.73</time>
      </trkpt>
      <trkpt lat="45.57114" lon="4.95676">
        <ele>295.5</ele>
        <time>2012-09-05T08:28:28.76</time>
      </trkpt>
      <trkpt lat="45.5711" lon="4.95676">
        <ele>296</ele>
        <time>2012-09-05T08:28:29.73</time>
      </trkpt>
      <trkpt lat="45.57107" lon="4.95677">
        <ele>296</ele>
        <time>2012-09-05T08:28:30.74</time>
      </trkpt>
      <trkpt lat="45.57103" lon="4.95677">
        <ele>296.5</ele>
        <time>2012-09-05T08:28:31.71</time>
      </trkpt>
      <trkpt lat="45.571" lon="4.95678">
        <ele>296</ele>
        <time>2012-09-05T08:28:32.73</time>
      </trkpt>
      <trkpt lat="45.57097" lon="4.95679">
        <ele>296.5</ele>
        <time>2012-09-05T08:28:33.71</time>
      </trkpt>
      <trkpt lat="45.57094" lon="4.9568">
        <ele>296.5</ele>
        <time>2012-09-05T08:28:34.72</time>
      </trkpt>
      <trkpt lat="45.57091" lon="4.95681">
        <ele>297</ele>
        <time>2012-09-05T08:28:35.70</time>
      </trkpt>
      <trkpt lat="45.57088" lon="4.95682">
        <ele>297.5</ele>
        <time>2012-09-05T08:28:36.69</time>
      </trkpt>
      <trkpt lat="45.57084" lon="4.95684">
        <ele>298</ele>
        <time>2012-09-05T08:28:37.72</time>
      </trkpt>
      <trkpt lat="45.57081" lon="4.95686">
        <ele>298</ele>
        <time>2012-09-05T08:28:38.69</time>
      </trkpt>
      <trkpt lat="45.57078" lon="4.95687">
        <ele>298.5</ele>
        <time>2012-09-05T08:28:39.68</time>
      </trkpt>
      <trkpt lat="45.57075" lon="4.95688">
        <ele>300.5</ele>
        <time>2012-09-05T08:28:40.68</time>
      </trkpt>
      <trkpt lat="45.57072" lon="4.9569">
        <ele>302</ele>
        <time>2012-09-05T08:28:41.67</time>
      </trkpt>
      <trkpt lat="45.57068" lon="4.95692">
        <ele>303</ele>
        <time>2012-09-05T08:28:42.67</time>
      </trkpt>
      <trkpt lat="45.57065" lon="4.95694">
        <ele>303.5</ele>
        <time>2012-09-05T08:28:43.66</time>
      </trkpt>
      <trkpt lat="45.57062" lon="4.95697">
        <ele>303.5</ele>
        <time>2012-09-05T08:28:44.66</time>
      </trkpt>
      <trkpt lat="45.57059" lon="4.95699">
        <ele>304</ele>
        <time>2012-09-05T08:28:45.65</time>
      </trkpt>
      <trkpt lat="45.57056" lon="4.95702">
        <ele>304</ele>
        <time>2012-09-05T08:28:46.87</time>
      </trkpt>
      <trkpt lat="45.57053" lon="4.95703">
        <ele>304</ele>
        <time>2012-09-05T08:28:47.64</time>
      </trkpt>
      <trkpt lat="45.57049" lon="4.95704">
        <ele>304</ele>
        <time>2012-09-05T08:28:48.66</time>
      </trkpt>
      <trkpt lat="45.57046" lon="4.95705">
        <ele>304</ele>
        <time>2012-09-05T08:28:49.66</time>
      </trkpt>
      <trkpt lat="45.57042" lon="4.95704">
        <ele>304.5</ele>
        <time>2012-09-05T08:28:50.63</time>
      </trkpt>
      <trkpt lat="45.57039" lon="4.95703">
        <ele>304</ele>
        <time>2012-09-05T08:28:51.66</time>
      </trkpt>
      <trkpt lat="45.57036" lon="4.957">
        <ele>304.5</ele>
        <time>2012-09-05T08:28:52.62</time>
      </trkpt>
      <trkpt lat="45.57033" lon="4.95697">
        <ele>305</ele>
        <time>2012-09-05T08:28:53.65</time>
      </trkpt>
      <trkpt lat="45.5703" lon="4.95694">
        <ele>305.5</ele>
        <time>2012-09-05T08:28:54.62</time>
      </trkpt>
      <trkpt lat="45.57028" lon="4.9569">
        <ele>307</ele>
        <time>2012-09-05T08:28:55.64</time>
      </trkpt>
      <trkpt lat="45.57027" lon="4.95685">
        <ele>307.5</ele>
        <time>2012-09-05T08:28:56.60</time>
      </trkpt>
      <trkpt lat="45.57026" lon="4.95681">
        <ele>307.5</ele>
        <time>2012-09-05T08:28:57.64</time>
      </trkpt>
      <trkpt lat="45.57025" lon="4.95675">
        <ele>308</ele>
        <time>2012-09-05T08:28:58.60</time>
      </trkpt>
      <trkpt lat="45.57026" lon="4.95669">
        <ele>307.5</ele>
        <time>2012-09-05T08:28:59.61</time>
      </trkpt>
      <trkpt lat="45.57027" lon="4.95664">
        <ele>307.5</ele>
        <time>2012-09-05T08:29:00.59</time>
      </trkpt>
      <trkpt lat="45.57028" lon="4.95659">
        <ele>307</ele>
        <time>2012-09-05T08:29:01.59</time>
      </trkpt>
      <trkpt lat="45.5703" lon="4.95655">
        <ele>307</ele>
        <time>2012-09-05T08:29:02.61</time>
      </trkpt>
      <trkpt lat="45.57032" lon="4.95652">
        <ele>307.5</ele>
        <time>2012-09-05T08:29:03.60</time>
      </trkpt>
      <trkpt lat="45.57035" lon="4.95649">
        <ele>309</ele>
        <time>2012-09-05T08:29:04.58</time>
      </trkpt>
      <trkpt lat="45.57037" lon="4.95646">
        <ele>309</ele>
        <time>2012-09-05T08:29:05.59</time>
      </trkpt>
      <trkpt lat="45.5704" lon="4.95643">
        <ele>309.5</ele>
        <time>2012-09-05T08:29:06.59</time>
      </trkpt>
      <trkpt lat="45.57042" lon="4.95641">
        <ele>311</ele>
        <time>2012-09-05T08:29:07.56</time>
      </trkpt>
      <trkpt lat="45.57044" lon="4.9564">
        <ele>313</ele>
        <time>2012-09-05T08:29:08.58</time>
      </trkpt>
      <trkpt lat="45.57047" lon="4.95638">
        <ele>313</ele>
        <time>2012-09-05T08:29:09.55</time>
      </trkpt>
      <trkpt lat="45.57049" lon="4.95636">
        <ele>314.5</ele>
        <time>2012-09-05T08:29:10.57</time>
      </trkpt>
      <trkpt lat="45.57052" lon="4.95633">
        <ele>315.5</ele>
        <time>2012-09-05T08:29:11.57</time>
      </trkpt>
      <trkpt lat="45.57055" lon="4.95629">
        <ele>315.5</ele>
        <time>2012-09-05T08:29:12.54</time>
      </trkpt>
      <trkpt lat="45.57057" lon="4.95626">
        <ele>317</ele>
        <time>2012-09-05T08:29:13.57</time>
      </trkpt>
      <trkpt lat="45.57059" lon="4.95622">
        <ele>317.5</ele>
        <time>2012-09-05T08:29:14.53</time>
      </trkpt>
      <trkpt lat="45.5706" lon="4.95619">
        <ele>319</ele>
        <time>2012-09-05T08:29:15.56</time>
      </trkpt>
      <trkpt lat="45.57062" lon="4.95615">
        <ele>321</ele>
        <time>2012-09-05T08:29:16.53</time>
      </trkpt>
      <trkpt lat="45.57063" lon="4.95609">
        <ele>320</ele>
        <time>2012-09-05T08:29:17.56</time>
      </trkpt>
      <trkpt lat="45.57063" lon="4.95604">
        <ele>320</ele>
        <time>2012-09-05T08:29:18.52</time>
      </trkpt>
      <trkpt lat="45.57063" lon="4.956">
        <ele>321.5</ele>
        <time>2012-09-05T08:29:19.55</time>
      </trkpt>
      <trkpt lat="45.57062" lon="4.95595">
        <ele>322</ele>
        <time>2012-09-05T08:29:20.54</time>
      </trkpt>
      <trkpt lat="45.57061" lon="4.95591">
        <ele>322.5</ele>
        <time>2012-09-05T08:29:21.51</time>
      </trkpt>
      <trkpt lat="45.5706" lon="4.95587">
        <ele>324</ele>
        <time>2012-09-05T08:29:22.53</time>
      </trkpt>
      <trkpt lat="45.57059" lon="4.95583">
        <ele>325.5</ele>
        <time>2012-09-05T08:29:23.52</time>
      </trkpt>
      <trkpt lat="45.57057" lon="4.9558">
        <ele>327.5</ele>
        <time>2012-09-05T08:29:24.49</time>
      </trkpt>
      <trkpt lat="45.57055" lon="4.95579">
        <ele>327.5</ele>
        <time>2012-09-05T08:29:25.54</time>
      </trkpt>
      <trkpt lat="45.57048" lon="4.95559">
        <ele>329.5</ele>
        <time>2012-09-05T08:29:29.90</time>
      </trkpt>
      <trkpt lat="45.57044" lon="4.95557">
        <ele>329.5</ele>
        <time>2012-09-05T08:29:30.90</time>
      </trkpt>
      <trkpt lat="45.57043" lon="4.95553">
        <ele>329</ele>
        <time>2012-09-05T08:29:31.87</time>
      </trkpt>
      <trkpt lat="45.57042" lon="4.95551">
        <ele>330</ele>
        <time>2012-09-05T08:29:32.90</time>
      </trkpt>
      <trkpt lat="45.57034" lon="4.95549">
        <ele>332</ele>
        <time>2012-09-05T08:29:34.88</time>
      </trkpt>
      <trkpt lat="45.57029" lon="4.95548">
        <ele>333</ele>
        <time>2012-09-05T08:29:35.86</time>
      </trkpt>
      <trkpt lat="45.57024" lon="4.95547">
        <ele>333.5</ele>
        <time>2012-09-05T08:29:36.86</time>
      </trkpt>
      <trkpt lat="45.57014" lon="4.95546">
        <ele>336</ele>
        <time>2012-09-05T08:29:38.89</time>
      </trkpt>
      <trkpt lat="45.5701" lon="4.95547">
        <ele>337.5</ele>
        <time>2012-09-05T08:29:39.84</time>
      </trkpt>
      <trkpt lat="45.57007" lon="4.95547">
        <ele>339</ele>
        <time>2012-09-05T08:29:40.87</time>
      </trkpt>
      <trkpt lat="45.57003" lon="4.95546">
        <ele>339.5</ele>
        <time>2012-09-05T08:29:41.86</time>
      </trkpt>
      <trkpt lat="45.56999" lon="4.95546">
        <ele>341</ele>
        <time>2012-09-05T08:29:42.86</time>
      </trkpt>
      <trkpt lat="45.56996" lon="4.95546">
        <ele>342</ele>
        <time>2012-09-05T08:29:43.83</time>
      </trkpt>
      <trkpt lat="45.56993" lon="4.95546">
        <ele>343</ele>
        <time>2012-09-05T08:29:44.88</time>
      </trkpt>
      <trkpt lat="45.56984" lon="4.95548">
        <ele>345</ele>
        <time>2012-09-05T08:29:46.85</time>
      </trkpt>
      <trkpt lat="45.5698" lon="4.95548">
        <ele>345.5</ele>
        <time>2012-09-05T08:29:47.90</time>
      </trkpt>
      <trkpt lat="45.56977" lon="4.95547">
        <ele>347</ele>
        <time>2012-09-05T08:29:48.80</time>
      </trkpt>
      <trkpt lat="45.56973" lon="4.95548">
        <ele>348.5</ele>
        <time>2012-09-05T08:29:49.83</time>
      </trkpt>
      <trkpt lat="45.5697" lon="4.95548">
        <ele>350</ele>
        <time>2012-09-05T08:29:50.89</time>
      </trkpt>
      <trkpt lat="45.56966" lon="4.95549">
        <ele>351.5</ele>
        <time>2012-09-05T08:29:51.78</time>
      </trkpt>
      <trkpt lat="45.56962" lon="4.95549">
        <ele>353.5</ele>
        <time>2012-09-05T08:29:52.79</time>
      </trkpt>
      <trkpt lat="45.5696" lon="4.95546">
        <ele>353.5</ele>
        <time>2012-09-05T08:29:53.78</time>
      </trkpt>
      <trkpt lat="45.56957" lon="4.95546">
        <ele>355.5</ele>
        <time>2012-09-05T08:29:54.77</time>
      </trkpt>
      <trkpt lat="45.56954" lon="4.95547">
        <ele>357</ele>
        <time>2012-09-05T08:29:55.80</time>
      </trkpt>
      <trkpt lat="45.56949" lon="4.95544">
        <ele>357.5</ele>
        <time>2012-09-05T08:29:56.81</time>
      </trkpt>
      <trkpt lat="45.56946" lon="4.95545">
        <ele>361.5</ele>
        <time>2012-09-05T08:29:58.80</time>
      </trkpt>
      <trkpt lat="45.56941" lon="4.95547">
        <ele>362.5</ele>
        <time>2012-09-05T08:29:59.77</time>
      </trkpt>
      <trkpt lat="45.56938" lon="4.95549">
        <ele>363</ele>
        <time>2012-09-05T08:30:00.77</time>
      </trkpt>
      <trkpt lat="45.56928" lon="4.95553">
        <ele>365</ele>
        <time>2012-09-05T08:30:02.75</time>
      </trkpt>
      <trkpt lat="45.56925" lon="4.95557">
        <ele>365</ele>
        <time>2012-09-05T08:30:03.76</time>
      </trkpt>
      <trkpt lat="45.56907" lon="4.95563">
        <ele>369</ele>
        <time>2012-09-05T08:30:06.91</time>
      </trkpt>
      <trkpt lat="45.56903" lon="4.95563">
        <ele>370.5</ele>
        <time>2012-09-05T08:30:07.91</time>
      </trkpt>
      <trkpt lat="45.56898" lon="4.95563">
        <ele>373</ele>
        <time>2012-09-05T08:30:08.97</time>
      </trkpt>
      <trkpt lat="45.56896" lon="4.95567">
        <ele>375</ele>
        <time>2012-09-05T08:30:09.87</time>
      </trkpt>
      <trkpt lat="45.56894" lon="4.95564">
        <ele>375</ele>
        <time>2012-09-05T08:30:10.90</time>
      </trkpt>
      <trkpt lat="45.56889" lon="4.95563">
        <ele>376</ele>
        <time>2012-09-05T08:30:11.88</time>
      </trkpt>
      <trkpt lat="45.56886" lon="4.95564">
        <ele>378</ele>
        <time>2012-09-05T08:30:12.87</time>
      </trkpt>
      <trkpt lat="45.56883" lon="4.95568">
        <ele>378</ele>
        <time>2012-09-05T08:30:13.85</time>
      </trkpt>
      <trkpt lat="45.56881" lon="4.95571">
        <ele>378</ele>
        <time>2012-09-05T08:30:14.88</time>
      </trkpt>
      <trkpt lat="45.56873" lon="4.95582">
        <ele>378</ele>
        <time>2012-09-05T08:30:16.84</time>
      </trkpt>
      <trkpt lat="45.56858" lon="4.95601">
        <ele>379</ele>
        <time>2012-09-05T08:30:19.88</time>
      </trkpt>
      <trkpt lat="45.56852" lon="4.95611">
        <ele>382</ele>
        <time>2012-09-05T08:30:21.88</time>
      </trkpt>
      <trkpt lat="45.5685" lon="4.95615">
        <ele>382.5</ele>
        <time>2012-09-05T08:30:22.93</time>
      </trkpt>
      <trkpt lat="45.56842" lon="4.95623">
        <ele>385</ele>
        <time>2012-09-05T08:30:24.87</time>
      </trkpt>
      <trkpt lat="45.56839" lon="4.95627">
        <ele>385</ele>
        <time>2012-09-05T08:30:25.87</time>
      </trkpt>
      <trkpt lat="45.56834" lon="4.95631">
        <ele>383.5</ele>
        <time>2012-09-05T08:30:27.37</time>
      </trkpt>
      <trkpt lat="45.56828" lon="4.95636">
        <ele>384</ele>
        <time>2012-09-05T08:30:28.87</time>
      </trkpt>
      <trkpt lat="45.56826" lon="4.95642">
        <ele>383</ele>
        <time>2012-09-05T08:30:29.90</time>
      </trkpt>
      <trkpt lat="45.56823" lon="4.95644">
        <ele>383.5</ele>
        <time>2012-09-05T08:30:30.86</time>
      </trkpt>
      <trkpt lat="45.5682" lon="4.95647">
        <ele>383.5</ele>
        <time>2012-09-05T08:30:31.91</time>
      </trkpt>
      <trkpt lat="45.56817" lon="4.95651">
        <ele>384</ele>
        <time>2012-09-05T08:30:32.85</time>
      </trkpt>
      <trkpt lat="45.56815" lon="4.95653">
        <ele>384.5</ele>
        <time>2012-09-05T08:30:33.88</time>
      </trkpt>
      <trkpt lat="45.56811" lon="4.95655">
        <ele>384.5</ele>
        <time>2012-09-05T08:30:34.85</time>
      </trkpt>
      <trkpt lat="45.56808" lon="4.95657">
        <ele>385</ele>
        <time>2012-09-05T08:30:35.87</time>
      </trkpt>
      <trkpt lat="45.56807" lon="4.9566">
        <ele>384</ele>
        <time>2012-09-05T08:30:36.86</time>
      </trkpt>
      <trkpt lat="45.56803" lon="4.95661">
        <ele>383.5</ele>
        <time>2012-09-05T08:30:37.85</time>
      </trkpt>
      <trkpt lat="45.56801" lon="4.95663">
        <ele>381.5</ele>
        <time>2012-09-05T08:30:38.82</time>
      </trkpt>
      <trkpt lat="45.56798" lon="4.95666">
        <ele>382</ele>
        <time>2012-09-05T08:30:39.84</time>
      </trkpt>
      <trkpt lat="45.56796" lon="4.95666">
        <ele>382</ele>
        <time>2012-09-05T08:30:40.80</time>
      </trkpt>
      <trkpt lat="45.56797" lon="4.95669">
        <ele>380</ele>
        <time>2012-09-05T08:30:41.83</time>
      </trkpt>
      <trkpt lat="45.56795" lon="4.9567">
        <ele>378</ele>
        <time>2012-09-05T08:30:42.82</time>
      </trkpt>
      <trkpt lat="45.56792" lon="4.95672">
        <ele>376.5</ele>
        <time>2012-09-05T08:30:43.79</time>
      </trkpt>
      <trkpt lat="45.56789" lon="4.95674">
        <ele>376.5</ele>
        <time>2012-09-05T08:30:44.82</time>
      </trkpt>
      <trkpt lat="45.56785" lon="4.95676">
        <ele>374.5</ele>
        <time>2012-09-05T08:30:45.80</time>
      </trkpt>
      <trkpt lat="45.56783" lon="4.95678">
        <ele>374</ele>
        <time>2012-09-05T08:30:46.81</time>
      </trkpt>
      <trkpt lat="45.56779" lon="4.9568">
        <ele>373.5</ele>
        <time>2012-09-05T08:30:47.78</time>
      </trkpt>
      <trkpt lat="45.56775" lon="4.95682">
        <ele>372</ele>
        <time>2012-09-05T08:30:48.80</time>
      </trkpt>
      <trkpt lat="45.56771" lon="4.95685">
        <ele>372</ele>
        <time>2012-09-05T08:30:49.75</time>
      </trkpt>
      <trkpt lat="45.56767" lon="4.95687">
        <ele>371</ele>
        <time>2012-09-05T08:30:50.78</time>
      </trkpt>
      <trkpt lat="45.56763" lon="4.95689">
        <ele>370.5</ele>
        <time>2012-09-05T08:30:51.75</time>
      </trkpt>
      <trkpt lat="45.5676" lon="4.95691">
        <ele>371</ele>
        <time>2012-09-05T08:30:52.77</time>
      </trkpt>
      <trkpt lat="45.56756" lon="4.95693">
        <ele>369.5</ele>
        <time>2012-09-05T08:30:53.73</time>
      </trkpt>
      <trkpt lat="45.56753" lon="4.95694">
        <ele>369.5</ele>
        <time>2012-09-05T08:30:54.76</time>
      </trkpt>
      <trkpt lat="45.5675" lon="4.95697">
        <ele>370</ele>
        <time>2012-09-05T08:30:55.75</time>
      </trkpt>
      <trkpt lat="45.56747" lon="4.95699">
        <ele>370</ele>
        <time>2012-09-05T08:30:56.72</time>
      </trkpt>
      <trkpt lat="45.56743" lon="4.95701">
        <ele>370.5</ele>
        <time>2012-09-05T08:30:57.74</time>
      </trkpt>
      <trkpt lat="45.5674" lon="4.95703">
        <ele>371</ele>
        <time>2012-09-05T08:30:58.70</time>
      </trkpt>
      <trkpt lat="45.56737" lon="4.95705">
        <ele>371.5</ele>
        <time>2012-09-05T08:30:59.73</time>
      </trkpt>
      <trkpt lat="45.56733" lon="4.95709">
        <ele>371.5</ele>
        <time>2012-09-05T08:31:00.69</time>
      </trkpt>
      <trkpt lat="45.5673" lon="4.95711">
        <ele>371.5</ele>
        <time>2012-09-05T08:31:01.72</time>
      </trkpt>
      <trkpt lat="45.56727" lon="4.95713">
        <ele>372</ele>
        <time>2012-09-05T08:31:02.68</time>
      </trkpt>
      <trkpt lat="45.56723" lon="4.95715">
        <ele>372</ele>
        <time>2012-09-05T08:31:03.71</time>
      </trkpt>
      <trkpt lat="45.56721" lon="4.95718">
        <ele>371.5</ele>
        <time>2012-09-05T08:31:04.68</time>
      </trkpt>
      <trkpt lat="45.56717" lon="4.9572">
        <ele>370.5</ele>
        <time>2012-09-05T08:31:05.70</time>
      </trkpt>
      <trkpt lat="45.56715" lon="4.95722">
        <ele>371</ele>
        <time>2012-09-05T08:31:06.67</time>
      </trkpt>
      <trkpt lat="45.56712" lon="4.95725">
        <ele>371.5</ele>
        <time>2012-09-05T08:31:07.69</time>
      </trkpt>
      <trkpt lat="45.5671" lon="4.95728">
        <ele>372.5</ele>
        <time>2012-09-05T08:31:08.69</time>
      </trkpt>
      <trkpt lat="45.56708" lon="4.9573">
        <ele>372.5</ele>
        <time>2012-09-05T08:31:09.66</time>
      </trkpt>
      <trkpt lat="45.56705" lon="4.95733">
        <ele>373</ele>
        <time>2012-09-05T08:31:10.65</time>
      </trkpt>
      <trkpt lat="45.56702" lon="4.95736">
        <ele>370</ele>
        <time>2012-09-05T08:31:11.68</time>
      </trkpt>
      <trkpt lat="45.56699" lon="4.95737">
        <ele>369.5</ele>
        <time>2012-09-05T08:31:12.64</time>
      </trkpt>
      <trkpt lat="45.56695" lon="4.9574">
        <ele>369</ele>
        <time>2012-09-05T08:31:13.65</time>
      </trkpt>
      <trkpt lat="45.56692" lon="4.95744">
        <ele>368</ele>
        <time>2012-09-05T08:31:14.63</time>
      </trkpt>
      <trkpt lat="45.5669" lon="4.95747">
        <ele>368</ele>
        <time>2012-09-05T08:31:15.62</time>
      </trkpt>
      <trkpt lat="45.56687" lon="4.95749">
        <ele>369</ele>
        <time>2012-09-05T08:31:16.64</time>
      </trkpt>
      <trkpt lat="45.56685" lon="4.95752">
        <ele>369</ele>
        <time>2012-09-05T08:31:17.63</time>
      </trkpt>
      <trkpt lat="45.56681" lon="4.95754">
        <ele>369.5</ele>
        <time>2012-09-05T08:31:18.61</time>
      </trkpt>
      <trkpt lat="45.56679" lon="4.95756">
        <ele>370</ele>
        <time>2012-09-05T08:31:19.61</time>
      </trkpt>
      <trkpt lat="45.56675" lon="4.95758">
        <ele>370.5</ele>
        <time>2012-09-05T08:31:20.62</time>
      </trkpt>
      <trkpt lat="45.56672" lon="4.95761">
        <ele>370</ele>
        <time>2012-09-05T08:31:21.61</time>
      </trkpt>
      <trkpt lat="45.56668" lon="4.95762">
        <ele>371</ele>
        <time>2012-09-05T08:31:22.58</time>
      </trkpt>
      <trkpt lat="45.56664" lon="4.95763">
        <ele>371.5</ele>
        <time>2012-09-05T08:31:23.60</time>
      </trkpt>
      <trkpt lat="45.5666" lon="4.95764">
        <ele>371.5</ele>
        <time>2012-09-05T08:31:24.59</time>
      </trkpt>
      <trkpt lat="45.56657" lon="4.95763">
        <ele>371.5</ele>
        <time>2012-09-05T08:31:25.59</time>
      </trkpt>
      <trkpt lat="45.56653" lon="4.95761">
        <ele>372</ele>
        <time>2012-09-05T08:31:26.55</time>
      </trkpt>
      <trkpt lat="45.5665" lon="4.9576">
        <ele>373</ele>
        <time>2012-09-05T08:31:27.57</time>
      </trkpt>
      <trkpt lat="45.56647" lon="4.95757">
        <ele>374</ele>
        <time>2012-09-05T08:31:28.53</time>
      </trkpt>
      <trkpt lat="45.56644" lon="4.95753">
        <ele>374</ele>
        <time>2012-09-05T08:31:29.56</time>
      </trkpt>
      <trkpt lat="45.56642" lon="4.9575">
        <ele>373.5</ele>
        <time>2012-09-05T08:31:30.53</time>
      </trkpt>
      <trkpt lat="45.5664" lon="4.95746">
        <ele>373.5</ele>
        <time>2012-09-05T08:31:31.56</time>
      </trkpt>
      <trkpt lat="45.56638" lon="4.95741">
        <ele>374</ele>
        <time>2012-09-05T08:31:32.52</time>
      </trkpt>
      <trkpt lat="45.56638" lon="4.95736">
        <ele>374.5</ele>
        <time>2012-09-05T08:31:33.55</time>
      </trkpt>
      <trkpt lat="45.56638" lon="4.95732">
        <ele>375</ele>
        <time>2012-09-05T08:31:34.54</time>
      </trkpt>
      <trkpt lat="45.56637" lon="4.95727">
        <ele>375.5</ele>
        <time>2012-09-05T08:31:35.51</time>
      </trkpt>
      <trkpt lat="45.56636" lon="4.95722">
        <ele>376</ele>
        <time>2012-09-05T08:31:36.53</time>
      </trkpt>
      <trkpt lat="45.56635" lon="4.95717">
        <ele>376</ele>
        <time>2012-09-05T08:31:37.52</time>
      </trkpt>
      <trkpt lat="45.56633" lon="4.95706">
        <ele>375.5</ele>
        <time>2012-09-05T08:31:39.52</time>
      </trkpt>
      <trkpt lat="45.56632" lon="4.957">
        <ele>375</ele>
        <time>2012-09-05T08:31:40.48</time>
      </trkpt>
      <trkpt lat="45.56631" lon="4.95695">
        <ele>376.5</ele>
        <time>2012-09-05T08:31:41.48</time>
      </trkpt>
      <trkpt lat="45.56629" lon="4.9569">
        <ele>376.5</ele>
        <time>2012-09-05T08:31:42.50</time>
      </trkpt>
      <trkpt lat="45.56626" lon="4.95685">
        <ele>376.5</ele>
        <time>2012-09-05T08:31:43.46</time>
      </trkpt>
      <trkpt lat="45.56623" lon="4.95681">
        <ele>376.5</ele>
        <time>2012-09-05T08:31:44.49</time>
      </trkpt>
      <trkpt lat="45.56621" lon="4.95676">
        <ele>375.5</ele>
        <time>2012-09-05T08:31:45.54</time>
      </trkpt>
      <trkpt lat="45.56617" lon="4.95672">
        <ele>374.5</ele>
        <time>2012-09-05T08:31:46.79</time>
      </trkpt>
      <trkpt lat="45.56614" lon="4.95667">
        <ele>373</ele>
        <time>2012-09-05T08:31:47.44</time>
      </trkpt>
      <trkpt lat="45.5661" lon="4.95663">
        <ele>371.5</ele>
        <time>2012-09-05T08:31:48.48</time>
      </trkpt>
      <trkpt lat="45.56606" lon="4.95659">
        <ele>370</ele>
        <time>2012-09-05T08:31:49.44</time>
      </trkpt>
      <trkpt lat="45.56603" lon="4.95655">
        <ele>369.5</ele>
        <time>2012-09-05T08:31:50.49</time>
      </trkpt>
      <trkpt lat="45.56599" lon="4.95652">
        <ele>369</ele>
        <time>2012-09-05T08:31:51.43</time>
      </trkpt>
      <trkpt lat="45.56595" lon="4.95648">
        <ele>369</ele>
        <time>2012-09-05T08:31:52.46</time>
      </trkpt>
      <trkpt lat="45.56591" lon="4.95645">
        <ele>368.5</ele>
        <time>2012-09-05T08:31:53.42</time>
      </trkpt>
      <trkpt lat="45.56587" lon="4.95641">
        <ele>368</ele>
        <time>2012-09-05T08:31:54.46</time>
      </trkpt>
      <trkpt lat="45.56583" lon="4.95638">
        <ele>368</ele>
        <time>2012-09-05T08:31:55.42</time>
      </trkpt>
      <trkpt lat="45.56579" lon="4.95635">
        <ele>367.5</ele>
        <time>2012-09-05T08:31:56.44</time>
      </trkpt>
      <trkpt lat="45.56576" lon="4.95629">
        <ele>366.5</ele>
        <time>2012-09-05T08:31:57.42</time>
      </trkpt>
      <trkpt lat="45.56575" lon="4.95622">
        <ele>365</ele>
        <time>2012-09-05T08:31:58.48</time>
      </trkpt>
      <trkpt lat="45.56576" lon="4.95615">
        <ele>365</ele>
        <time>2012-09-05T08:31:59.40</time>
      </trkpt>
      <trkpt lat="45.56576" lon="4.95609">
        <ele>364</ele>
        <time>2012-09-05T08:32:00.86</time>
      </trkpt>
      <trkpt lat="45.56577" lon="4.95596">
        <ele>363</ele>
        <time>2012-09-05T08:32:02.42</time>
      </trkpt>
      <trkpt lat="45.56578" lon="4.95589">
        <ele>362</ele>
        <time>2012-09-05T08:32:03.64</time>
      </trkpt>
      <trkpt lat="45.56579" lon="4.95583">
        <ele>361.5</ele>
        <time>2012-09-05T08:32:04.38</time>
      </trkpt>
      <trkpt lat="45.5658" lon="4.95577">
        <ele>360.5</ele>
        <time>2012-09-05T08:32:05.44</time>
      </trkpt>
      <trkpt lat="45.56581" lon="4.9557">
        <ele>360.5</ele>
        <time>2012-09-05T08:32:06.37</time>
      </trkpt>
      <trkpt lat="45.56582" lon="4.95564">
        <ele>361</ele>
        <time>2012-09-05T08:32:07.39</time>
      </trkpt>
      <trkpt lat="45.56583" lon="4.95558">
        <ele>361</ele>
        <time>2012-09-05T08:32:08.40</time>
      </trkpt>
      <trkpt lat="45.56583" lon="4.95553">
        <ele>361</ele>
        <time>2012-09-05T08:32:09.37</time>
      </trkpt>
      <trkpt lat="45.56585" lon="4.95547">
        <ele>361</ele>
        <time>2012-09-05T08:32:10.39</time>
      </trkpt>
      <trkpt lat="45.56586" lon="4.95541">
        <ele>361.5</ele>
        <time>2012-09-05T08:32:11.35</time>
      </trkpt>
      <trkpt lat="45.56587" lon="4.95536">
        <ele>363</ele>
        <time>2012-09-05T08:32:12.38</time>
      </trkpt>
      <trkpt lat="45.56588" lon="4.9553">
        <ele>364</ele>
        <time>2012-09-05T08:32:13.37</time>
      </trkpt>
      <trkpt lat="45.56588" lon="4.95525">
        <ele>364.5</ele>
        <time>2012-09-05T08:32:14.34</time>
      </trkpt>
      <trkpt lat="45.56589" lon="4.95519">
        <ele>364.5</ele>
        <time>2012-09-05T08:32:15.36</time>
      </trkpt>
      <trkpt lat="45.5659" lon="4.95513">
        <ele>365</ele>
        <time>2012-09-05T08:32:16.34</time>
      </trkpt>
      <trkpt lat="45.56591" lon="4.95509">
        <ele>365.5</ele>
        <time>2012-09-05T08:32:17.35</time>
      </trkpt>
      <trkpt lat="45.56592" lon="4.95504">
        <ele>366</ele>
        <time>2012-09-05T08:32:18.31</time>
      </trkpt>
      <trkpt lat="45.56593" lon="4.95499">
        <ele>365.5</ele>
        <time>2012-09-05T08:32:19.33</time>
      </trkpt>
      <trkpt lat="45.56594" lon="4.95495">
        <ele>365</ele>
        <time>2012-09-05T08:32:20.30</time>
      </trkpt>
      <trkpt lat="45.56594" lon="4.95491">
        <ele>365</ele>
        <time>2012-09-05T08:32:21.33</time>
      </trkpt>
      <trkpt lat="45.56595" lon="4.95486">
        <ele>365.5</ele>
        <time>2012-09-05T08:32:22.29</time>
      </trkpt>
      <trkpt lat="45.56596" lon="4.95482">
        <ele>365</ele>
        <time>2012-09-05T08:32:23.32</time>
      </trkpt>
      <trkpt lat="45.56597" lon="4.95479">
        <ele>366</ele>
        <time>2012-09-05T08:32:24.28</time>
      </trkpt>
      <trkpt lat="45.56597" lon="4.95476">
        <ele>367</ele>
        <time>2012-09-05T08:32:25.28</time>
      </trkpt>
      <trkpt lat="45.56598" lon="4.95472">
        <ele>367</ele>
        <time>2012-09-05T08:32:26.31</time>
      </trkpt>
      <trkpt lat="45.56599" lon="4.95468">
        <ele>368</ele>
        <time>2012-09-05T08:32:27.28</time>
      </trkpt>
      <trkpt lat="45.56595" lon="4.95457">
        <ele>366.5</ele>
        <time>2012-09-05T08:32:29.27</time>
      </trkpt>
      <trkpt lat="45.56595" lon="4.95453">
        <ele>366.5</ele>
        <time>2012-09-05T08:32:30.30</time>
      </trkpt>
      <trkpt lat="45.56595" lon="4.95449">
        <ele>366.5</ele>
        <time>2012-09-05T08:32:31.27</time>
      </trkpt>
      <trkpt lat="45.56596" lon="4.95446">
        <ele>368</ele>
        <time>2012-09-05T08:32:32.32</time>
      </trkpt>
      <trkpt lat="45.56598" lon="4.95442">
        <ele>368</ele>
        <time>2012-09-05T08:32:33.25</time>
      </trkpt>
      <trkpt lat="45.56599" lon="4.95438">
        <ele>368.5</ele>
        <time>2012-09-05T08:32:34.28</time>
      </trkpt>
      <trkpt lat="45.566" lon="4.95433">
        <ele>368</ele>
        <time>2012-09-05T08:32:35.35</time>
      </trkpt>
      <trkpt lat="45.566" lon="4.95431">
        <ele>370</ele>
        <time>2012-09-05T08:32:36.40</time>
      </trkpt>
      <trkpt lat="45.566" lon="4.95427">
        <ele>370</ele>
        <time>2012-09-05T08:32:37.23</time>
      </trkpt>
      <trkpt lat="45.56602" lon="4.95425">
        <ele>371</ele>
        <time>2012-09-05T08:32:38.26</time>
      </trkpt>
      <trkpt lat="45.56602" lon="4.95422">
        <ele>372.5</ele>
        <time>2012-09-05T08:32:39.23</time>
      </trkpt>
      <trkpt lat="45.56604" lon="4.95419">
        <ele>372.5</ele>
        <time>2012-09-05T08:32:40.25</time>
      </trkpt>
      <trkpt lat="45.56604" lon="4.95415">
        <ele>373.5</ele>
        <time>2012-09-05T08:32:41.21</time>
      </trkpt>
      <trkpt lat="45.56605" lon="4.95413">
        <ele>373.5</ele>
        <time>2012-09-05T08:32:42.25</time>
      </trkpt>
      <trkpt lat="45.56606" lon="4.9541">
        <ele>374</ele>
        <time>2012-09-05T08:32:43.21</time>
      </trkpt>
      <trkpt lat="45.56607" lon="4.95407">
        <ele>374</ele>
        <time>2012-09-05T08:32:44.42</time>
      </trkpt>
      <trkpt lat="45.56607" lon="4.95404">
        <ele>374.5</ele>
        <time>2012-09-05T08:32:45.19</time>
      </trkpt>
      <trkpt lat="45.56607" lon="4.95401">
        <ele>375.5</ele>
        <time>2012-09-05T08:32:46.21</time>
      </trkpt>
      <trkpt lat="45.56608" lon="4.95398">
        <ele>377</ele>
        <time>2012-09-05T08:32:47.27</time>
      </trkpt>
      <trkpt lat="45.56608" lon="4.95394">
        <ele>377</ele>
        <time>2012-09-05T08:32:48.32</time>
      </trkpt>
      <trkpt lat="45.56608" lon="4.95392">
        <ele>379</ele>
        <time>2012-09-05T08:32:49.38</time>
      </trkpt>
      <trkpt lat="45.56608" lon="4.95388">
        <ele>379.5</ele>
        <time>2012-09-05T08:32:50.43</time>
      </trkpt>
      <trkpt lat="45.56609" lon="4.95385">
        <ele>380</ele>
        <time>2012-09-05T08:32:51.48</time>
      </trkpt>
      <trkpt lat="45.56609" lon="4.95381">
        <ele>380</ele>
        <time>2012-09-05T08:32:52.54</time>
      </trkpt>
      <trkpt lat="45.56609" lon="4.9537">
        <ele>380</ele>
        <time>2012-09-05T08:32:54.32</time>
      </trkpt>
      <trkpt lat="45.56613" lon="4.95362">
        <ele>380</ele>
        <time>2012-09-05T08:32:56.53</time>
      </trkpt>
      <trkpt lat="45.56611" lon="4.95355">
        <ele>381</ele>
        <time>2012-09-05T08:32:58.12</time>
      </trkpt>
      <trkpt lat="45.56612" lon="4.95346">
        <ele>382</ele>
        <time>2012-09-05T08:33:00.11</time>
      </trkpt>
      <trkpt lat="45.5661" lon="4.95341">
        <ele>382.5</ele>
        <time>2012-09-05T08:33:02.11</time>
      </trkpt>
      <trkpt lat="45.56608" lon="4.95336">
        <ele>383</ele>
        <time>2012-09-05T08:33:03.21</time>
      </trkpt>
      <trkpt lat="45.56608" lon="4.95332">
        <ele>383.5</ele>
        <time>2012-09-05T08:33:04.29</time>
      </trkpt>
      <trkpt lat="45.56607" lon="4.95329">
        <ele>382.5</ele>
        <time>2012-09-05T08:33:05.37</time>
      </trkpt>
      <trkpt lat="45.56606" lon="4.95328">
        <ele>384.5</ele>
        <time>2012-09-05T08:33:06.44</time>
      </trkpt>
      <trkpt lat="45.56604" lon="4.95318">
        <ele>385</ele>
        <time>2012-09-05T08:33:08.25</time>
      </trkpt>
      <trkpt lat="45.56603" lon="4.95316">
        <ele>385.5</ele>
        <time>2012-09-05T08:33:09.37</time>
      </trkpt>
      <trkpt lat="45.56602" lon="4.95313">
        <ele>386</ele>
        <time>2012-09-05T08:33:10.42</time>
      </trkpt>
      <trkpt lat="45.566" lon="4.95312">
        <ele>386.5</ele>
        <time>2012-09-05T08:33:11.77</time>
      </trkpt>
      <trkpt lat="45.56597" lon="4.95306">
        <ele>387.5</ele>
        <time>2012-09-05T08:33:13.48</time>
      </trkpt>
      <trkpt lat="45.56594" lon="4.95301">
        <ele>390</ele>
        <time>2012-09-05T08:33:15.10</time>
      </trkpt>
      <trkpt lat="45.56593" lon="4.95301">
        <ele>391</ele>
        <time>2012-09-05T08:33:16.21</time>
      </trkpt>
      <trkpt lat="45.56591" lon="4.95299">
        <ele>392</ele>
        <time>2012-09-05T08:33:17.06</time>
      </trkpt>
      <trkpt lat="45.5659" lon="4.95297">
        <ele>393</ele>
        <time>2012-09-05T08:33:18.12</time>
      </trkpt>
      <trkpt lat="45.56588" lon="4.95294">
        <ele>393.5</ele>
        <time>2012-09-05T08:33:19.18</time>
      </trkpt>
      <trkpt lat="45.56587" lon="4.95292">
        <ele>395</ele>
        <time>2012-09-05T08:33:20.24</time>
      </trkpt>
      <trkpt lat="45.56586" lon="4.95289">
        <ele>395.5</ele>
        <time>2012-09-05T08:33:21.29</time>
      </trkpt>
      <trkpt lat="45.56585" lon="4.95287">
        <ele>396</ele>
        <time>2012-09-05T08:33:22.35</time>
      </trkpt>
      <trkpt lat="45.56584" lon="4.95285">
        <ele>397.5</ele>
        <time>2012-09-05T08:33:23.41</time>
      </trkpt>
      <trkpt lat="45.56583" lon="4.95284">
        <ele>399</ele>
        <time>2012-09-05T08:33:25.02</time>
      </trkpt>
      <trkpt lat="45.56579" lon="4.95276">
        <ele>401.5</ele>
        <time>2012-09-05T08:33:27.14</time>
      </trkpt>
      <trkpt lat="45.56579" lon="4.95275">
        <ele>402.5</ele>
        <time>2012-09-05T08:33:28.20</time>
      </trkpt>
      <trkpt lat="45.56577" lon="4.95273">
        <ele>403</ele>
        <time>2012-09-05T08:33:29.31</time>
      </trkpt>
      <trkpt lat="45.56575" lon="4.95271">
        <ele>404.5</ele>
        <time>2012-09-05T08:33:30.36</time>
      </trkpt>
      <trkpt lat="45.56571" lon="4.95265">
        <ele>405</ele>
        <time>2012-09-05T08:33:32.01</time>
      </trkpt>
      <trkpt lat="45.56568" lon="4.95263">
        <ele>406</ele>
        <time>2012-09-05T08:33:33.08</time>
      </trkpt>
      <trkpt lat="45.56566" lon="4.95259">
        <ele>406.5</ele>
        <time>2012-09-05T08:33:34.19</time>
      </trkpt>
      <trkpt lat="45.56565" lon="4.95257">
        <ele>407</ele>
        <time>2012-09-05T08:33:35.26</time>
      </trkpt>
      <trkpt lat="45.56563" lon="4.95255">
        <ele>408</ele>
        <time>2012-09-05T08:33:36.38</time>
      </trkpt>
      <trkpt lat="45.56557" lon="4.9525">
        <ele>408.5</ele>
        <time>2012-09-05T08:33:37.98</time>
      </trkpt>
      <trkpt lat="45.56555" lon="4.95248">
        <ele>409</ele>
        <time>2012-09-05T08:33:39.09</time>
      </trkpt>
      <trkpt lat="45.56553" lon="4.95247">
        <ele>410.5</ele>
        <time>2012-09-05T08:33:40.15</time>
      </trkpt>
      <trkpt lat="45.56552" lon="4.95246">
        <ele>412.5</ele>
        <time>2012-09-05T08:33:41.20</time>
      </trkpt>
      <trkpt lat="45.56549" lon="4.95244">
        <ele>414</ele>
        <time>2012-09-05T08:33:42.26</time>
      </trkpt>
      <trkpt lat="45.56547" lon="4.95244">
        <ele>415.5</ele>
        <time>2012-09-05T08:33:43.32</time>
      </trkpt>
      <trkpt lat="45.56544" lon="4.95242">
        <ele>418</ele>
        <time>2012-09-05T08:33:45.34</time>
      </trkpt>
      <trkpt lat="45.5654" lon="4.9524">
        <ele>422</ele>
        <time>2012-09-05T08:33:46.98</time>
      </trkpt>
      <trkpt lat="45.56538" lon="4.9524">
        <ele>423.5</ele>
        <time>2012-09-05T08:33:48.04</time>
      </trkpt>
      <trkpt lat="45.56537" lon="4.95239">
        <ele>425.5</ele>
        <time>2012-09-05T08:33:49.09</time>
      </trkpt>
      <trkpt lat="45.56536" lon="4.95238">
        <ele>427</ele>
        <time>2012-09-05T08:33:50.14</time>
      </trkpt>
      <trkpt lat="45.56534" lon="4.95236">
        <ele>429</ele>
        <time>2012-09-05T08:33:51.19</time>
      </trkpt>
      <trkpt lat="45.56534" lon="4.95236">
        <ele>429</ele>
        <time>2012-09-05T08:33:52.24</time>
      </trkpt>
      <trkpt lat="45.56515" lon="4.95213">
        <ele>435</ele>
        <time>2012-09-05T08:33:57.02</time>
      </trkpt>
      <trkpt lat="45.5651" lon="4.95207">
        <ele>436</ele>
        <time>2012-09-05T08:33:59.22</time>
      </trkpt>
      <trkpt lat="45.56501" lon="4.95208">
        <ele>436</ele>
        <time>2012-09-05T08:34:00.90</time>
      </trkpt>
      <trkpt lat="45.56496" lon="4.95207">
        <ele>438.5</ele>
        <time>2012-09-05T08:34:02.89</time>
      </trkpt>
      <trkpt lat="45.56495" lon="4.95205">
        <ele>438</ele>
        <time>2012-09-05T08:34:03.95</time>
      </trkpt>
      <trkpt lat="45.56495" lon="4.95204">
        <ele>438</ele>
        <time>2012-09-05T08:34:05.01</time>
      </trkpt>
      <trkpt lat="45.56493" lon="4.95202">
        <ele>439</ele>
        <time>2012-09-05T08:34:06.06</time>
      </trkpt>
      <trkpt lat="45.56489" lon="4.95197">
        <ele>441</ele>
        <time>2012-09-05T08:34:07.95</time>
      </trkpt>
      <trkpt lat="45.56487" lon="4.95196">
        <ele>443.5</ele>
        <time>2012-09-05T08:34:09.04</time>
      </trkpt>
      <trkpt lat="45.56485" lon="4.95195">
        <ele>443.5</ele>
        <time>2012-09-05T08:34:10.16</time>
      </trkpt>
      <trkpt lat="45.56483" lon="4.95193">
        <ele>443</ele>
        <time>2012-09-05T08:34:11.22</time>
      </trkpt>
      <trkpt lat="45.56477" lon="4.95187">
        <ele>443</ele>
        <time>2012-09-05T08:34:12.85</time>
      </trkpt>
      <trkpt lat="45.56476" lon="4.9519">
        <ele>445.5</ele>
        <time>2012-09-05T08:34:13.85</time>
      </trkpt>
      <trkpt lat="45.56474" lon="4.95188">
        <ele>446.5</ele>
        <time>2012-09-05T08:34:14.84</time>
      </trkpt>
      <trkpt lat="45.56471" lon="4.95188">
        <ele>447.5</ele>
        <time>2012-09-05T08:34:15.83</time>
      </trkpt>
      <trkpt lat="45.56469" lon="4.95187">
        <ele>449</ele>
        <time>2012-09-05T08:34:16.88</time>
      </trkpt>
      <trkpt lat="45.56464" lon="4.95182">
        <ele>450.5</ele>
        <time>2012-09-05T08:34:18.82</time>
      </trkpt>
      <trkpt lat="45.56462" lon="4.95181">
        <ele>451.5</ele>
        <time>2012-09-05T08:34:19.79</time>
      </trkpt>
      <trkpt lat="45.56461" lon="4.95179">
        <ele>453</ele>
        <time>2012-09-05T08:34:20.81</time>
      </trkpt>
      <trkpt lat="45.56459" lon="4.95178">
        <ele>453.5</ele>
        <time>2012-09-05T08:34:21.81</time>
      </trkpt>
      <trkpt lat="45.56457" lon="4.95174">
        <ele>455.5</ele>
        <time>2012-09-05T08:34:22.78</time>
      </trkpt>
      <trkpt lat="45.56454" lon="4.95173">
        <ele>457.5</ele>
        <time>2012-09-05T08:34:23.78</time>
      </trkpt>
      <trkpt lat="45.56452" lon="4.95171">
        <ele>459.5</ele>
        <time>2012-09-05T08:34:24.79</time>
      </trkpt>
      <trkpt lat="45.5645" lon="4.9517">
        <ele>461.5</ele>
        <time>2012-09-05T08:34:25.77</time>
      </trkpt>
      <trkpt lat="45.56447" lon="4.95169">
        <ele>463</ele>
        <time>2012-09-05T08:34:26.81</time>
      </trkpt>
      <trkpt lat="45.56445" lon="4.95168">
        <ele>464</ele>
        <time>2012-09-05T08:34:27.75</time>
      </trkpt>
      <trkpt lat="45.56441" lon="4.95165">
        <ele>464.5</ele>
        <time>2012-09-05T08:34:28.77</time>
      </trkpt>
      <trkpt lat="45.56439" lon="4.95162">
        <ele>465.5</ele>
        <time>2012-09-05T08:34:29.84</time>
      </trkpt>
      <trkpt lat="45.56436" lon="4.9516">
        <ele>466</ele>
        <time>2012-09-05T08:34:30.74</time>
      </trkpt>
      <trkpt lat="45.56433" lon="4.95156">
        <ele>467</ele>
        <time>2012-09-05T08:34:31.76</time>
      </trkpt>
      <trkpt lat="45.56432" lon="4.95154">
        <ele>465.5</ele>
        <time>2012-09-05T08:34:32.77</time>
      </trkpt>
      <trkpt lat="45.5643" lon="4.95152">
        <ele>466.5</ele>
        <time>2012-09-05T08:34:33.74</time>
      </trkpt>
      <trkpt lat="45.56428" lon="4.9515">
        <ele>467.5</ele>
        <time>2012-09-05T08:34:34.74</time>
      </trkpt>
      <trkpt lat="45.56425" lon="4.95145">
        <ele>464</ele>
        <time>2012-09-05T08:34:35.72</time>
      </trkpt>
      <trkpt lat="45.56422" lon="4.95141">
        <ele>464.5</ele>
        <time>2012-09-05T08:34:36.73</time>
      </trkpt>
      <trkpt lat="45.5642" lon="4.95138">
        <ele>461.5</ele>
        <time>2012-09-05T08:34:37.73</time>
      </trkpt>
      <trkpt lat="45.56417" lon="4.95133">
        <ele>457.5</ele>
        <time>2012-09-05T08:34:38.73</time>
      </trkpt>
      <trkpt lat="45.56414" lon="4.95129">
        <ele>454</ele>
        <time>2012-09-05T08:34:39.79</time>
      </trkpt>
      <trkpt lat="45.56411" lon="4.95125">
        <ele>451</ele>
        <time>2012-09-05T08:34:40.68</time>
      </trkpt>
      <trkpt lat="45.56408" lon="4.9512">
        <ele>447</ele>
        <time>2012-09-05T08:34:41.71</time>
      </trkpt>
      <trkpt lat="45.56405" lon="4.95116">
        <ele>444</ele>
        <time>2012-09-05T08:34:42.68</time>
      </trkpt>
      <trkpt lat="45.56402" lon="4.95111">
        <ele>443.5</ele>
        <time>2012-09-05T08:34:43.73</time>
      </trkpt>
      <trkpt lat="45.56399" lon="4.95107">
        <ele>443</ele>
        <time>2012-09-05T08:34:44.69</time>
      </trkpt>
      <trkpt lat="45.56396" lon="4.95103">
        <ele>442.5</ele>
        <time>2012-09-05T08:34:45.68</time>
      </trkpt>
      <trkpt lat="45.56393" lon="4.95099">
        <ele>442</ele>
        <time>2012-09-05T08:34:46.68</time>
      </trkpt>
      <trkpt lat="45.5639" lon="4.95095">
        <ele>442</ele>
        <time>2012-09-05T08:34:47.82</time>
      </trkpt>
      <trkpt lat="45.56387" lon="4.95091">
        <ele>441.5</ele>
        <time>2012-09-05T08:34:48.64</time>
      </trkpt>
      <trkpt lat="45.56384" lon="4.95087">
        <ele>441.5</ele>
        <time>2012-09-05T08:34:49.64</time>
      </trkpt>
      <trkpt lat="45.56381" lon="4.95083">
        <ele>441</ele>
        <time>2012-09-05T08:34:50.78</time>
      </trkpt>
      <trkpt lat="45.56378" lon="4.95079">
        <ele>441</ele>
        <time>2012-09-05T08:34:51.62</time>
      </trkpt>
      <trkpt lat="45.56375" lon="4.95075">
        <ele>441</ele>
        <time>2012-09-05T08:34:52.65</time>
      </trkpt>
      <trkpt lat="45.56373" lon="4.95071">
        <ele>440</ele>
        <time>2012-09-05T08:34:53.62</time>
      </trkpt>
      <trkpt lat="45.5637" lon="4.95067">
        <ele>439.5</ele>
        <time>2012-09-05T08:34:54.61</time>
      </trkpt>
      <trkpt lat="45.56367" lon="4.95064">
        <ele>437</ele>
        <time>2012-09-05T08:34:56.05</time>
      </trkpt>
      <trkpt lat="45.56361" lon="4.95055">
        <ele>436.5</ele>
        <time>2012-09-05T08:34:57.58</time>
      </trkpt>
      <trkpt lat="45.56359" lon="4.95051">
        <ele>436.5</ele>
        <time>2012-09-05T08:34:58.61</time>
      </trkpt>
      <trkpt lat="45.56356" lon="4.95048">
        <ele>436.5</ele>
        <time>2012-09-05T08:34:59.58</time>
      </trkpt>
      <trkpt lat="45.56352" lon="4.95045">
        <ele>437</ele>
        <time>2012-09-05T08:35:00.60</time>
      </trkpt>
      <trkpt lat="45.56349" lon="4.95041">
        <ele>437</ele>
        <time>2012-09-05T08:35:01.57</time>
      </trkpt>
      <trkpt lat="45.56346" lon="4.95038">
        <ele>437</ele>
        <time>2012-09-05T08:35:02.61</time>
      </trkpt>
      <trkpt lat="45.56343" lon="4.95035">
        <ele>436.5</ele>
        <time>2012-09-05T08:35:03.67</time>
      </trkpt>
      <trkpt lat="45.56339" lon="4.95032">
        <ele>437</ele>
        <time>2012-09-05T08:35:04.55</time>
      </trkpt>
      <trkpt lat="45.56335" lon="4.95029">
        <ele>437</ele>
        <time>2012-09-05T08:35:05.57</time>
      </trkpt>
      <trkpt lat="45.56331" lon="4.95026">
        <ele>437</ele>
        <time>2012-09-05T08:35:06.54</time>
      </trkpt>
      <trkpt lat="45.56327" lon="4.95023">
        <ele>436.5</ele>
        <time>2012-09-05T08:35:07.54</time>
      </trkpt>
      <trkpt lat="45.56323" lon="4.95021">
        <ele>436.5</ele>
        <time>2012-09-05T08:35:08.59</time>
      </trkpt>
      <trkpt lat="45.56318" lon="4.95019">
        <ele>436</ele>
        <time>2012-09-05T08:35:09.52</time>
      </trkpt>
      <trkpt lat="45.56314" lon="4.95017">
        <ele>436</ele>
        <time>2012-09-05T08:35:10.57</time>
      </trkpt>
      <trkpt lat="45.5631" lon="4.95015">
        <ele>435.5</ele>
        <time>2012-09-05T08:35:11.51</time>
      </trkpt>
      <trkpt lat="45.56305" lon="4.95013">
        <ele>435</ele>
        <time>2012-09-05T08:35:12.57</time>
      </trkpt>
      <trkpt lat="45.563" lon="4.95011">
        <ele>435</ele>
        <time>2012-09-05T08:35:13.75</time>
      </trkpt>
      <trkpt lat="45.56295" lon="4.9501">
        <ele>434.5</ele>
        <time>2012-09-05T08:35:14.52</time>
      </trkpt>
      <trkpt lat="45.5629" lon="4.95008">
        <ele>433</ele>
        <time>2012-09-05T08:35:15.58</time>
      </trkpt>
      <trkpt lat="45.56286" lon="4.95005">
        <ele>433</ele>
        <time>2012-09-05T08:35:16.63</time>
      </trkpt>
      <trkpt lat="45.56282" lon="4.95003">
        <ele>433</ele>
        <time>2012-09-05T08:35:17.48</time>
      </trkpt>
      <trkpt lat="45.56278" lon="4.95001">
        <ele>432.5</ele>
        <time>2012-09-05T08:35:18.51</time>
      </trkpt>
      <trkpt lat="45.56273" lon="4.94999">
        <ele>432.5</ele>
        <time>2012-09-05T08:35:19.57</time>
      </trkpt>
      <trkpt lat="45.56269" lon="4.94998">
        <ele>432</ele>
        <time>2012-09-05T08:35:20.48</time>
      </trkpt>
      <trkpt lat="45.56264" lon="4.94996">
        <ele>432</ele>
        <time>2012-09-05T08:35:21.49</time>
      </trkpt>
      <trkpt lat="45.5626" lon="4.94994">
        <ele>432</ele>
        <time>2012-09-05T08:35:22.45</time>
      </trkpt>
      <trkpt lat="45.56255" lon="4.94993">
        <ele>431.5</ele>
        <time>2012-09-05T08:35:23.47</time>
      </trkpt>
      <trkpt lat="45.56251" lon="4.94991">
        <ele>431.5</ele>
        <time>2012-09-05T08:35:24.43</time>
      </trkpt>
      <trkpt lat="45.56247" lon="4.94989">
        <ele>431</ele>
        <time>2012-09-05T08:35:25.46</time>
      </trkpt>
      <trkpt lat="45.56242" lon="4.94988">
        <ele>431</ele>
        <time>2012-09-05T08:35:26.43</time>
      </trkpt>
      <trkpt lat="45.56238" lon="4.94986">
        <ele>430.5</ele>
        <time>2012-09-05T08:35:27.45</time>
      </trkpt>
      <trkpt lat="45.56234" lon="4.94984">
        <ele>430.5</ele>
        <time>2012-09-05T08:35:28.42</time>
      </trkpt>
      <trkpt lat="45.56229" lon="4.94983">
        <ele>430</ele>
        <time>2012-09-05T08:35:29.45</time>
      </trkpt>
      <trkpt lat="45.56225" lon="4.94982">
        <ele>430</ele>
        <time>2012-09-05T08:35:30.41</time>
      </trkpt>
      <trkpt lat="45.56223" lon="4.94979">
        <ele>427</ele>
        <time>2012-09-05T08:35:31.42</time>
      </trkpt>
      <trkpt lat="45.56218" lon="4.94977">
        <ele>425</ele>
        <time>2012-09-05T08:35:32.40</time>
      </trkpt>
      <trkpt lat="45.56213" lon="4.94974">
        <ele>424.5</ele>
        <time>2012-09-05T08:35:33.42</time>
      </trkpt>
      <trkpt lat="45.56209" lon="4.94972">
        <ele>425</ele>
        <time>2012-09-05T08:35:34.42</time>
      </trkpt>
      <trkpt lat="45.56205" lon="4.9497">
        <ele>425</ele>
        <time>2012-09-05T08:35:35.39</time>
      </trkpt>
      <trkpt lat="45.562" lon="4.94968">
        <ele>422</ele>
        <time>2012-09-05T08:35:36.41</time>
      </trkpt>
      <trkpt lat="45.56196" lon="4.94965">
        <ele>420.5</ele>
        <time>2012-09-05T08:35:37.37</time>
      </trkpt>
      <trkpt lat="45.56191" lon="4.94961">
        <ele>420</ele>
        <time>2012-09-05T08:35:38.39</time>
      </trkpt>
      <trkpt lat="45.56187" lon="4.94958">
        <ele>419.5</ele>
        <time>2012-09-05T08:35:39.36</time>
      </trkpt>
      <trkpt lat="45.56183" lon="4.94955">
        <ele>419.5</ele>
        <time>2012-09-05T08:35:40.38</time>
      </trkpt>
      <trkpt lat="45.5618" lon="4.94951">
        <ele>419.5</ele>
        <time>2012-09-05T08:35:41.34</time>
      </trkpt>
      <trkpt lat="45.56176" lon="4.94948">
        <ele>419.5</ele>
        <time>2012-09-05T08:35:42.36</time>
      </trkpt>
      <trkpt lat="45.56172" lon="4.94944">
        <ele>419</ele>
        <time>2012-09-05T08:35:43.43</time>
      </trkpt>
      <trkpt lat="45.56168" lon="4.9494">
        <ele>419</ele>
        <time>2012-09-05T08:35:44.34</time>
      </trkpt>
      <trkpt lat="45.56165" lon="4.94936">
        <ele>419</ele>
        <time>2012-09-05T08:35:45.32</time>
      </trkpt>
      <trkpt lat="45.56162" lon="4.94932">
        <ele>418.5</ele>
        <time>2012-09-05T08:35:46.39</time>
      </trkpt>
      <trkpt lat="45.56158" lon="4.94928">
        <ele>418</ele>
        <time>2012-09-05T08:35:47.31</time>
      </trkpt>
      <trkpt lat="45.56155" lon="4.94924">
        <ele>418</ele>
        <time>2012-09-05T08:35:48.33</time>
      </trkpt>
      <trkpt lat="45.56151" lon="4.94919">
        <ele>417.5</ele>
        <time>2012-09-05T08:35:49.40</time>
      </trkpt>
      <trkpt lat="45.56148" lon="4.94915">
        <ele>416.5</ele>
        <time>2012-09-05T08:35:50.32</time>
      </trkpt>
      <trkpt lat="45.56145" lon="4.9491">
        <ele>416.5</ele>
        <time>2012-09-05T08:35:51.38</time>
      </trkpt>
      <trkpt lat="45.56142" lon="4.94906">
        <ele>416</ele>
        <time>2012-09-05T08:35:52.28</time>
      </trkpt>
      <trkpt lat="45.56139" lon="4.94901">
        <ele>416</ele>
        <time>2012-09-05T08:35:53.63</time>
      </trkpt>
      <trkpt lat="45.56134" lon="4.94891">
        <ele>416</ele>
        <time>2012-09-05T08:35:55.30</time>
      </trkpt>
      <trkpt lat="45.56131" lon="4.94886">
        <ele>416</ele>
        <time>2012-09-05T08:35:56.30</time>
      </trkpt>
      <trkpt lat="45.56129" lon="4.94881">
        <ele>416</ele>
        <time>2012-09-05T08:35:57.37</time>
      </trkpt>
      <trkpt lat="45.56126" lon="4.94876">
        <ele>416</ele>
        <time>2012-09-05T08:35:58.26</time>
      </trkpt>
      <trkpt lat="45.56124" lon="4.9487">
        <ele>416</ele>
        <time>2012-09-05T08:35:59.27</time>
      </trkpt>
      <trkpt lat="45.56122" lon="4.94865">
        <ele>415.5</ele>
        <time>2012-09-05T08:36:00.29</time>
      </trkpt>
      <trkpt lat="45.56119" lon="4.9486">
        <ele>415.5</ele>
        <time>2012-09-05T08:36:01.26</time>
      </trkpt>
      <trkpt lat="45.56117" lon="4.94855">
        <ele>415.5</ele>
        <time>2012-09-05T08:36:02.30</time>
      </trkpt>
      <trkpt lat="45.56115" lon="4.9485">
        <ele>415.5</ele>
        <time>2012-09-05T08:36:03.24</time>
      </trkpt>
      <trkpt lat="45.56113" lon="4.94845">
        <ele>415.5</ele>
        <time>2012-09-05T08:36:04.27</time>
      </trkpt>
      <trkpt lat="45.56111" lon="4.9484">
        <ele>415</ele>
        <time>2012-09-05T08:36:05.24</time>
      </trkpt>
      <trkpt lat="45.56108" lon="4.94835">
        <ele>414</ele>
        <time>2012-09-05T08:36:06.28</time>
      </trkpt>
      <trkpt lat="45.56106" lon="4.94831">
        <ele>412</ele>
        <time>2012-09-05T08:36:07.35</time>
      </trkpt>
      <trkpt lat="45.56104" lon="4.94827">
        <ele>412</ele>
        <time>2012-09-05T08:36:08.22</time>
      </trkpt>
      <trkpt lat="45.56102" lon="4.94822">
        <ele>412</ele>
        <time>2012-09-05T08:36:09.24</time>
      </trkpt>
      <trkpt lat="45.561" lon="4.94817">
        <ele>411.5</ele>
        <time>2012-09-05T08:36:10.21</time>
      </trkpt>
      <trkpt lat="45.56098" lon="4.94813">
        <ele>411.5</ele>
        <time>2012-09-05T08:36:11.23</time>
      </trkpt>
      <trkpt lat="45.56096" lon="4.94808">
        <ele>409.5</ele>
        <time>2012-09-05T08:36:12.19</time>
      </trkpt>
      <trkpt lat="45.56094" lon="4.94804">
        <ele>408.5</ele>
        <time>2012-09-05T08:36:13.22</time>
      </trkpt>
      <trkpt lat="45.56092" lon="4.94799">
        <ele>407.5</ele>
        <time>2012-09-05T08:36:14.19</time>
      </trkpt>
      <trkpt lat="45.56089" lon="4.94795">
        <ele>406</ele>
        <time>2012-09-05T08:36:15.21</time>
      </trkpt>
      <trkpt lat="45.56087" lon="4.9479">
        <ele>405.5</ele>
        <time>2012-09-05T08:36:16.17</time>
      </trkpt>
      <trkpt lat="45.56086" lon="4.94785">
        <ele>403.5</ele>
        <time>2012-09-05T08:36:17.20</time>
      </trkpt>
      <trkpt lat="45.56084" lon="4.94781">
        <ele>402.5</ele>
        <time>2012-09-05T08:36:18.17</time>
      </trkpt>
      <trkpt lat="45.56082" lon="4.94776">
        <ele>401</ele>
        <time>2012-09-05T08:36:19.18</time>
      </trkpt>
      <trkpt lat="45.5608" lon="4.94772">
        <ele>401</ele>
        <time>2012-09-05T08:36:20.16</time>
      </trkpt>
      <trkpt lat="45.56079" lon="4.94767">
        <ele>400.5</ele>
        <time>2012-09-05T08:36:21.16</time>
      </trkpt>
      <trkpt lat="45.56077" lon="4.94762">
        <ele>398.5</ele>
        <time>2012-09-05T08:36:22.18</time>
      </trkpt>
      <trkpt lat="45.56075" lon="4.94758">
        <ele>398</ele>
        <time>2012-09-05T08:36:23.16</time>
      </trkpt>
      <trkpt lat="45.56074" lon="4.94753">
        <ele>397.5</ele>
        <time>2012-09-05T08:36:24.15</time>
      </trkpt>
      <trkpt lat="45.56073" lon="4.94747">
        <ele>397.5</ele>
        <time>2012-09-05T08:36:25.15</time>
      </trkpt>
      <trkpt lat="45.56072" lon="4.94742">
        <ele>397.5</ele>
        <time>2012-09-05T08:36:26.17</time>
      </trkpt>
      <trkpt lat="45.56071" lon="4.94736">
        <ele>396.5</ele>
        <time>2012-09-05T08:36:27.14</time>
      </trkpt>
      <trkpt lat="45.5607" lon="4.94731">
        <ele>396</ele>
        <time>2012-09-05T08:36:28.16</time>
      </trkpt>
      <trkpt lat="45.56069" lon="4.94725">
        <ele>395.5</ele>
        <time>2012-09-05T08:36:29.12</time>
      </trkpt>
      <trkpt lat="45.56068" lon="4.9472">
        <ele>396</ele>
        <time>2012-09-05T08:36:30.14</time>
      </trkpt>
      <trkpt lat="45.56068" lon="4.94714">
        <ele>396.5</ele>
        <time>2012-09-05T08:36:31.14</time>
      </trkpt>
      <trkpt lat="45.56067" lon="4.94709">
        <ele>396.5</ele>
        <time>2012-09-05T08:36:32.11</time>
      </trkpt>
      <trkpt lat="45.56066" lon="4.94703">
        <ele>397.5</ele>
        <time>2012-09-05T08:36:33.14</time>
      </trkpt>
      <trkpt lat="45.56065" lon="4.94698">
        <ele>397</ele>
        <time>2012-09-05T08:36:34.10</time>
      </trkpt>
      <trkpt lat="45.56064" lon="4.94693">
        <ele>397</ele>
        <time>2012-09-05T08:36:35.13</time>
      </trkpt>
      <trkpt lat="45.56064" lon="4.94687">
        <ele>397</ele>
        <time>2012-09-05T08:36:36.10</time>
      </trkpt>
      <trkpt lat="45.56064" lon="4.94682">
        <ele>397.5</ele>
        <time>2012-09-05T08:36:37.57</time>
      </trkpt>
      <trkpt lat="45.56064" lon="4.94672">
        <ele>397.5</ele>
        <time>2012-09-05T08:36:39.20</time>
      </trkpt>
      <trkpt lat="45.56064" lon="4.94667">
        <ele>397.5</ele>
        <time>2012-09-05T08:36:40.07</time>
      </trkpt>
      <trkpt lat="45.56065" lon="4.94661">
        <ele>398</ele>
        <time>2012-09-05T08:36:41.10</time>
      </trkpt>
      <trkpt lat="45.56065" lon="4.94655">
        <ele>398</ele>
        <time>2012-09-05T08:36:42.06</time>
      </trkpt>
      <trkpt lat="45.56066" lon="4.94649">
        <ele>397</ele>
        <time>2012-09-05T08:36:43.08</time>
      </trkpt>
      <trkpt lat="45.56067" lon="4.94643">
        <ele>396.5</ele>
        <time>2012-09-05T08:36:44.05</time>
      </trkpt>
      <trkpt lat="45.56068" lon="4.94637">
        <ele>396.5</ele>
        <time>2012-09-05T08:36:45.07</time>
      </trkpt>
      <trkpt lat="45.5607" lon="4.9463">
        <ele>396.5</ele>
        <time>2012-09-05T08:36:46.05</time>
      </trkpt>
      <trkpt lat="45.56071" lon="4.94622">
        <ele>395.5</ele>
        <time>2012-09-05T08:36:47.11</time>
      </trkpt>
      <trkpt lat="45.56073" lon="4.94615">
        <ele>395.5</ele>
        <time>2012-09-05T08:36:48.03</time>
      </trkpt>
      <trkpt lat="45.56076" lon="4.94607">
        <ele>395</ele>
        <time>2012-09-05T08:36:49.05</time>
      </trkpt>
      <trkpt lat="45.56079" lon="4.94599">
        <ele>393.5</ele>
        <time>2012-09-05T08:36:50.02</time>
      </trkpt>
      <trkpt lat="45.56081" lon="4.9459">
        <ele>393</ele>
        <time>2012-09-05T08:36:51.01</time>
      </trkpt>
      <trkpt lat="45.56084" lon="4.94582">
        <ele>392.5</ele>
        <time>2012-09-05T08:36:52.04</time>
      </trkpt>
      <trkpt lat="45.56087" lon="4.94573">
        <ele>392</ele>
        <time>2012-09-05T08:36:53.01</time>
      </trkpt>
      <trkpt lat="45.56089" lon="4.94564">
        <ele>391.5</ele>
        <time>2012-09-05T08:36:54.03</time>
      </trkpt>
      <trkpt lat="45.56092" lon="4.94555">
        <ele>391</ele>
        <time>2012-09-05T08:36:54.99</time>
      </trkpt>
      <trkpt lat="45.56095" lon="4.94546">
        <ele>390.5</ele>
        <time>2012-09-05T08:36:56.01</time>
      </trkpt>
      <trkpt lat="45.56099" lon="4.94536">
        <ele>390</ele>
        <time>2012-09-05T08:36:56.99</time>
      </trkpt>
      <trkpt lat="45.56102" lon="4.94526">
        <ele>389</ele>
        <time>2012-09-05T08:36:58.00</time>
      </trkpt>
      <trkpt lat="45.56106" lon="4.94516">
        <ele>388.5</ele>
        <time>2012-09-05T08:36:58.98</time>
      </trkpt>
      <trkpt lat="45.56109" lon="4.94506">
        <ele>388</ele>
        <time>2012-09-05T08:36:59.98</time>
      </trkpt>
      <trkpt lat="45.56113" lon="4.94495">
        <ele>387.5</ele>
        <time>2012-09-05T08:37:01.00</time>
      </trkpt>
      <trkpt lat="45.56117" lon="4.94485">
        <ele>387</ele>
        <time>2012-09-05T08:37:02.30</time>
      </trkpt>
      <trkpt lat="45.56121" lon="4.94474">
        <ele>386</ele>
        <time>2012-09-05T08:37:02.95</time>
      </trkpt>
      <trkpt lat="45.56124" lon="4.94464">
        <ele>385.5</ele>
        <time>2012-09-05T08:37:03.99</time>
      </trkpt>
      <trkpt lat="45.56127" lon="4.94453">
        <ele>384.5</ele>
        <time>2012-09-05T08:37:04.96</time>
      </trkpt>
      <trkpt lat="45.56129" lon="4.94443">
        <ele>385</ele>
        <time>2012-09-05T08:37:05.98</time>
      </trkpt>
      <trkpt lat="45.56132" lon="4.94431">
        <ele>384</ele>
        <time>2012-09-05T08:37:06.95</time>
      </trkpt>
      <trkpt lat="45.56133" lon="4.9442">
        <ele>384.5</ele>
        <time>2012-09-05T08:37:07.97</time>
      </trkpt>
      <trkpt lat="45.56133" lon="4.94408">
        <ele>384.5</ele>
        <time>2012-09-05T08:37:08.94</time>
      </trkpt>
      <trkpt lat="45.56133" lon="4.94395">
        <ele>384.5</ele>
        <time>2012-09-05T08:37:09.96</time>
      </trkpt>
      <trkpt lat="45.56131" lon="4.94384">
        <ele>384</ele>
        <time>2012-09-05T08:37:10.92</time>
      </trkpt>
      <trkpt lat="45.5613" lon="4.94372">
        <ele>383.5</ele>
        <time>2012-09-05T08:37:11.95</time>
      </trkpt>
      <trkpt lat="45.56128" lon="4.9436">
        <ele>383</ele>
        <time>2012-09-05T08:37:12.91</time>
      </trkpt>
      <trkpt lat="45.56126" lon="4.94348">
        <ele>383</ele>
        <time>2012-09-05T08:37:13.94</time>
      </trkpt>
      <trkpt lat="45.56124" lon="4.94336">
        <ele>383</ele>
        <time>2012-09-05T08:37:14.90</time>
      </trkpt>
      <trkpt lat="45.56121" lon="4.94324">
        <ele>382.5</ele>
        <time>2012-09-05T08:37:15.97</time>
      </trkpt>
      <trkpt lat="45.56118" lon="4.94312">
        <ele>383</ele>
        <time>2012-09-05T08:37:17.10</time>
      </trkpt>
      <trkpt lat="45.56115" lon="4.94301">
        <ele>383</ele>
        <time>2012-09-05T08:37:17.89</time>
      </trkpt>
      <trkpt lat="45.56112" lon="4.9429">
        <ele>383</ele>
        <time>2012-09-05T08:37:18.92</time>
      </trkpt>
      <trkpt lat="45.56109" lon="4.94279">
        <ele>382.5</ele>
        <time>2012-09-05T08:37:19.89</time>
      </trkpt>
      <trkpt lat="45.56106" lon="4.94269">
        <ele>382.5</ele>
        <time>2012-09-05T08:37:20.88</time>
      </trkpt>
      <trkpt lat="45.56104" lon="4.9426">
        <ele>382.5</ele>
        <time>2012-09-05T08:37:21.99</time>
      </trkpt>
      <trkpt lat="45.56101" lon="4.94251">
        <ele>383</ele>
        <time>2012-09-05T08:37:22.86</time>
      </trkpt>
      <trkpt lat="45.56098" lon="4.94243">
        <ele>383.5</ele>
        <time>2012-09-05T08:37:24.31</time>
      </trkpt>
      <trkpt lat="45.56095" lon="4.94228">
        <ele>384</ele>
        <time>2012-09-05T08:37:25.87</time>
      </trkpt>
      <trkpt lat="45.56093" lon="4.9422">
        <ele>384</ele>
        <time>2012-09-05T08:37:26.84</time>
      </trkpt>
      <trkpt lat="45.56092" lon="4.94211">
        <ele>383.5</ele>
        <time>2012-09-05T08:37:28.18</time>
      </trkpt>
      <trkpt lat="45.56088" lon="4.94195">
        <ele>384</ele>
        <time>2012-09-05T08:37:29.85</time>
      </trkpt>
      <trkpt lat="45.56087" lon="4.94186">
        <ele>384.5</ele>
        <time>2012-09-05T08:37:30.92</time>
      </trkpt>
      <trkpt lat="45.56087" lon="4.94177">
        <ele>384.5</ele>
        <time>2012-09-05T08:37:31.80</time>
      </trkpt>
      <trkpt lat="45.56087" lon="4.94168">
        <ele>384</ele>
        <time>2012-09-05T08:37:32.83</time>
      </trkpt>
      <trkpt lat="45.56087" lon="4.94159">
        <ele>384.5</ele>
        <time>2012-09-05T08:37:33.90</time>
      </trkpt>
      <trkpt lat="45.56088" lon="4.94149">
        <ele>384</ele>
        <time>2012-09-05T08:37:34.78</time>
      </trkpt>
      <trkpt lat="45.56089" lon="4.94141">
        <ele>384</ele>
        <time>2012-09-05T08:37:35.81</time>
      </trkpt>
      <trkpt lat="45.5609" lon="4.94134">
        <ele>384</ele>
        <time>2012-09-05T08:37:36.77</time>
      </trkpt>
      <trkpt lat="45.56091" lon="4.94126">
        <ele>384.5</ele>
        <time>2012-09-05T08:37:37.80</time>
      </trkpt>
      <trkpt lat="45.56092" lon="4.94117">
        <ele>384.5</ele>
        <time>2012-09-05T08:37:38.93</time>
      </trkpt>
      <trkpt lat="45.56094" lon="4.94107">
        <ele>384.5</ele>
        <time>2012-09-05T08:37:39.76</time>
      </trkpt>
      <trkpt lat="45.56096" lon="4.94097">
        <ele>384</ele>
        <time>2012-09-05T08:37:40.78</time>
      </trkpt>
      <trkpt lat="45.56098" lon="4.94089">
        <ele>384.5</ele>
        <time>2012-09-05T08:37:42.17</time>
      </trkpt>
      <trkpt lat="45.56102" lon="4.9407">
        <ele>384.5</ele>
        <time>2012-09-05T08:37:43.78</time>
      </trkpt>
      <trkpt lat="45.56104" lon="4.94061">
        <ele>384.5</ele>
        <time>2012-09-05T08:37:44.74</time>
      </trkpt>
      <trkpt lat="45.56106" lon="4.94053">
        <ele>385</ele>
        <time>2012-09-05T08:37:45.76</time>
      </trkpt>
      <trkpt lat="45.56108" lon="4.94043">
        <ele>385</ele>
        <time>2012-09-05T08:37:46.73</time>
      </trkpt>
      <trkpt lat="45.5611" lon="4.94034">
        <ele>384.5</ele>
        <time>2012-09-05T08:37:47.79</time>
      </trkpt>
      <trkpt lat="45.56112" lon="4.94025">
        <ele>384.5</ele>
        <time>2012-09-05T08:37:48.72</time>
      </trkpt>
      <trkpt lat="45.56114" lon="4.94016">
        <ele>385</ele>
        <time>2012-09-05T08:37:49.77</time>
      </trkpt>
      <trkpt lat="45.56115" lon="4.94007">
        <ele>384.5</ele>
        <time>2012-09-05T08:37:51.05</time>
      </trkpt>
      <trkpt lat="45.56118" lon="4.93998">
        <ele>385</ele>
        <time>2012-09-05T08:37:51.70</time>
      </trkpt>
      <trkpt lat="45.5612" lon="4.93989">
        <ele>385</ele>
        <time>2012-09-05T08:37:52.73</time>
      </trkpt>
      <trkpt lat="45.56122" lon="4.9398">
        <ele>385</ele>
        <time>2012-09-05T08:37:53.80</time>
      </trkpt>
      <trkpt lat="45.56124" lon="4.93971">
        <ele>385.5</ele>
        <time>2012-09-05T08:37:54.69</time>
      </trkpt>
      <trkpt lat="45.56126" lon="4.93962">
        <ele>385.5</ele>
        <time>2012-09-05T08:37:55.74</time>
      </trkpt>
      <trkpt lat="45.56128" lon="4.93953">
        <ele>385</ele>
        <time>2012-09-05T08:37:56.69</time>
      </trkpt>
      <trkpt lat="45.5613" lon="4.93944">
        <ele>384.5</ele>
        <time>2012-09-05T08:37:57.71</time>
      </trkpt>
      <trkpt lat="45.56132" lon="4.93936">
        <ele>384.5</ele>
        <time>2012-09-05T08:37:58.78</time>
      </trkpt>
      <trkpt lat="45.56134" lon="4.93927">
        <ele>384</ele>
        <time>2012-09-05T08:37:59.85</time>
      </trkpt>
      <trkpt lat="45.56136" lon="4.93918">
        <ele>384</ele>
        <time>2012-09-05T08:38:00.66</time>
      </trkpt>
      <trkpt lat="45.56138" lon="4.93909">
        <ele>383.5</ele>
        <time>2012-09-05T08:38:01.70</time>
      </trkpt>
      <trkpt lat="45.5614" lon="4.939">
        <ele>383.5</ele>
        <time>2012-09-05T08:38:02.78</time>
      </trkpt>
      <trkpt lat="45.56143" lon="4.93891">
        <ele>383</ele>
        <time>2012-09-05T08:38:03.64</time>
      </trkpt>
      <trkpt lat="45.56145" lon="4.93882">
        <ele>383</ele>
        <time>2012-09-05T08:38:04.67</time>
      </trkpt>
      <trkpt lat="45.56148" lon="4.93874">
        <ele>382.5</ele>
        <time>2012-09-05T08:38:05.74</time>
      </trkpt>
      <trkpt lat="45.5615" lon="4.93866">
        <ele>382.5</ele>
        <time>2012-09-05T08:38:06.62</time>
      </trkpt>
      <trkpt lat="45.56153" lon="4.93858">
        <ele>382.5</ele>
        <time>2012-09-05T08:38:07.67</time>
      </trkpt>
      <trkpt lat="45.56156" lon="4.93849">
        <ele>382</ele>
        <time>2012-09-05T08:38:08.61</time>
      </trkpt>
      <trkpt lat="45.56159" lon="4.93841">
        <ele>381.5</ele>
        <time>2012-09-05T08:38:09.64</time>
      </trkpt>
      <trkpt lat="45.56162" lon="4.93833">
        <ele>381.5</ele>
        <time>2012-09-05T08:38:10.70</time>
      </trkpt>
      <trkpt lat="45.56165" lon="4.93825">
        <ele>381</ele>
        <time>2012-09-05T08:38:11.60</time>
      </trkpt>
      <trkpt lat="45.56169" lon="4.93817">
        <ele>381</ele>
        <time>2012-09-05T08:38:12.61</time>
      </trkpt>
      <trkpt lat="45.56172" lon="4.93809">
        <ele>381</ele>
        <time>2012-09-05T08:38:13.65</time>
      </trkpt>
      <trkpt lat="45.56175" lon="4.93801">
        <ele>381.5</ele>
        <time>2012-09-05T08:38:14.58</time>
      </trkpt>
      <trkpt lat="45.56178" lon="4.93794">
        <ele>381.5</ele>
        <time>2012-09-05T08:38:15.61</time>
      </trkpt>
      <trkpt lat="45.56181" lon="4.93786">
        <ele>381</ele>
        <time>2012-09-05T08:38:16.58</time>
      </trkpt>
      <trkpt lat="45.56184" lon="4.93778">
        <ele>381</ele>
        <time>2012-09-05T08:38:17.60</time>
      </trkpt>
      <trkpt lat="45.56186" lon="4.9377">
        <ele>380.5</ele>
        <time>2012-09-05T08:38:18.69</time>
      </trkpt>
      <trkpt lat="45.56188" lon="4.93762">
        <ele>380.5</ele>
        <time>2012-09-05T08:38:19.59</time>
      </trkpt>
      <trkpt lat="45.5619" lon="4.93754">
        <ele>380</ele>
        <time>2012-09-05T08:38:20.57</time>
      </trkpt>
      <trkpt lat="45.56192" lon="4.93745">
        <ele>380</ele>
        <time>2012-09-05T08:38:21.57</time>
      </trkpt>
      <trkpt lat="45.56193" lon="4.93737">
        <ele>380</ele>
        <time>2012-09-05T08:38:22.59</time>
      </trkpt>
      <trkpt lat="45.56194" lon="4.93729">
        <ele>380</ele>
        <time>2012-09-05T08:38:23.56</time>
      </trkpt>
      <trkpt lat="45.56195" lon="4.93719">
        <ele>380</ele>
        <time>2012-09-05T08:38:24.58</time>
      </trkpt>
      <trkpt lat="45.56197" lon="4.9371">
        <ele>379.5</ele>
        <time>2012-09-05T08:38:25.60</time>
      </trkpt>
      <trkpt lat="45.56198" lon="4.93701">
        <ele>379</ele>
        <time>2012-09-05T08:38:26.55</time>
      </trkpt>
      <trkpt lat="45.56199" lon="4.93691">
        <ele>378.5</ele>
        <time>2012-09-05T08:38:27.57</time>
      </trkpt>
      <trkpt lat="45.56201" lon="4.9368">
        <ele>378</ele>
        <time>2012-09-05T08:38:28.54</time>
      </trkpt>
      <trkpt lat="45.56202" lon="4.9367">
        <ele>378</ele>
        <time>2012-09-05T08:38:29.53</time>
      </trkpt>
      <trkpt lat="45.56203" lon="4.93659">
        <ele>378</ele>
        <time>2012-09-05T08:38:30.55</time>
      </trkpt>
      <trkpt lat="45.56204" lon="4.93648">
        <ele>377.5</ele>
        <time>2012-09-05T08:38:31.58</time>
      </trkpt>
      <trkpt lat="45.56204" lon="4.93638">
        <ele>377</ele>
        <time>2012-09-05T08:38:32.52</time>
      </trkpt>
      <trkpt lat="45.56204" lon="4.93627">
        <ele>376.5</ele>
        <time>2012-09-05T08:38:33.54</time>
      </trkpt>
      <trkpt lat="45.56204" lon="4.93617">
        <ele>376.5</ele>
        <time>2012-09-05T08:38:34.51</time>
      </trkpt>
      <trkpt lat="45.56204" lon="4.93607">
        <ele>376.5</ele>
        <time>2012-09-05T08:38:35.54</time>
      </trkpt>
      <trkpt lat="45.56204" lon="4.93597">
        <ele>376.5</ele>
        <time>2012-09-05T08:38:36.50</time>
      </trkpt>
      <trkpt lat="45.56204" lon="4.93587">
        <ele>376</ele>
        <time>2012-09-05T08:38:37.55</time>
      </trkpt>
      <trkpt lat="45.56204" lon="4.93576">
        <ele>375.5</ele>
        <time>2012-09-05T08:38:38.48</time>
      </trkpt>
      <trkpt lat="45.56205" lon="4.93565">
        <ele>375.5</ele>
        <time>2012-09-05T08:38:39.51</time>
      </trkpt>
      <trkpt lat="45.56205" lon="4.93554">
        <ele>375</ele>
        <time>2012-09-05T08:38:40.48</time>
      </trkpt>
      <trkpt lat="45.56205" lon="4.93544">
        <ele>375</ele>
        <time>2012-09-05T08:38:41.50</time>
      </trkpt>
      <trkpt lat="45.56205" lon="4.93533">
        <ele>374.5</ele>
        <time>2012-09-05T08:38:42.46</time>
      </trkpt>
      <trkpt lat="45.56205" lon="4.93523">
        <ele>374.5</ele>
        <time>2012-09-05T08:38:43.61</time>
      </trkpt>
      <trkpt lat="45.56205" lon="4.93512">
        <ele>374.5</ele>
        <time>2012-09-05T08:38:44.46</time>
      </trkpt>
      <trkpt lat="45.56206" lon="4.93502">
        <ele>374.5</ele>
        <time>2012-09-05T08:38:45.53</time>
      </trkpt>
      <trkpt lat="45.56206" lon="4.93491">
        <ele>374.5</ele>
        <time>2012-09-05T08:38:46.63</time>
      </trkpt>
      <trkpt lat="45.56206" lon="4.9348">
        <ele>374.5</ele>
        <time>2012-09-05T08:38:47.45</time>
      </trkpt>
      <trkpt lat="45.56206" lon="4.9347">
        <ele>374</ele>
        <time>2012-09-05T08:38:48.47</time>
      </trkpt>
      <trkpt lat="45.56206" lon="4.93459">
        <ele>374</ele>
        <time>2012-09-05T08:38:49.46</time>
      </trkpt>
      <trkpt lat="45.56206" lon="4.93449">
        <ele>374.5</ele>
        <time>2012-09-05T08:38:50.44</time>
      </trkpt>
      <trkpt lat="45.56207" lon="4.9344">
        <ele>374.5</ele>
        <time>2012-09-05T08:38:51.43</time>
      </trkpt>
      <trkpt lat="45.56207" lon="4.9343">
        <ele>374</ele>
        <time>2012-09-05T08:38:52.46</time>
      </trkpt>
      <trkpt lat="45.56207" lon="4.93421">
        <ele>374</ele>
        <time>2012-09-05T08:38:53.43</time>
      </trkpt>
      <trkpt lat="45.56207" lon="4.93412">
        <ele>374</ele>
        <time>2012-09-05T08:38:54.51</time>
      </trkpt>
      <trkpt lat="45.56207" lon="4.93403">
        <ele>374</ele>
        <time>2012-09-05T08:38:55.43</time>
      </trkpt>
      <trkpt lat="45.56207" lon="4.93394">
        <ele>373.5</ele>
        <time>2012-09-05T08:38:56.43</time>
      </trkpt>
      <trkpt lat="45.56208" lon="4.93385">
        <ele>373.5</ele>
        <time>2012-09-05T08:38:57.44</time>
      </trkpt>
      <trkpt lat="45.56208" lon="4.93376">
        <ele>373</ele>
        <time>2012-09-05T08:38:58.41</time>
      </trkpt>
      <trkpt lat="45.56208" lon="4.93367">
        <ele>372.5</ele>
        <time>2012-09-05T08:38:59.43</time>
      </trkpt>
      <trkpt lat="45.56208" lon="4.93357">
        <ele>372.5</ele>
        <time>2012-09-05T08:39:00.40</time>
      </trkpt>
      <trkpt lat="45.56208" lon="4.93348">
        <ele>372.5</ele>
        <time>2012-09-05T08:39:01.43</time>
      </trkpt>
      <trkpt lat="45.56207" lon="4.93339">
        <ele>372.5</ele>
        <time>2012-09-05T08:39:02.40</time>
      </trkpt>
      <trkpt lat="45.56207" lon="4.9333">
        <ele>372.5</ele>
        <time>2012-09-05T08:39:03.40</time>
      </trkpt>
      <trkpt lat="45.56206" lon="4.9332">
        <ele>372</ele>
        <time>2012-09-05T08:39:04.40</time>
      </trkpt>
      <trkpt lat="45.56205" lon="4.9331">
        <ele>372</ele>
        <time>2012-09-05T08:39:05.41</time>
      </trkpt>
      <trkpt lat="45.56205" lon="4.93301">
        <ele>372</ele>
        <time>2012-09-05T08:39:06.38</time>
      </trkpt>
      <trkpt lat="45.56204" lon="4.93291">
        <ele>371.5</ele>
        <time>2012-09-05T08:39:07.44</time>
      </trkpt>
      <trkpt lat="45.56203" lon="4.93281">
        <ele>371.5</ele>
        <time>2012-09-05T08:39:08.35</time>
      </trkpt>
      <trkpt lat="45.56201" lon="4.93271">
        <ele>371</ele>
        <time>2012-09-05T08:39:09.36</time>
      </trkpt>
      <trkpt lat="45.562" lon="4.93262">
        <ele>371</ele>
        <time>2012-09-05T08:39:10.37</time>
      </trkpt>
      <trkpt lat="45.56199" lon="4.93252">
        <ele>371.5</ele>
        <time>2012-09-05T08:39:11.34</time>
      </trkpt>
      <trkpt lat="45.56198" lon="4.93243">
        <ele>371.5</ele>
        <time>2012-09-05T08:39:12.36</time>
      </trkpt>
      <trkpt lat="45.56197" lon="4.93233">
        <ele>371.5</ele>
        <time>2012-09-05T08:39:13.32</time>
      </trkpt>
      <trkpt lat="45.56196" lon="4.93224">
        <ele>372</ele>
        <time>2012-09-05T08:39:14.35</time>
      </trkpt>
      <trkpt lat="45.56195" lon="4.93216">
        <ele>372.5</ele>
        <time>2012-09-05T08:39:15.32</time>
      </trkpt>
      <trkpt lat="45.56194" lon="4.93208">
        <ele>373</ele>
        <time>2012-09-05T08:39:16.34</time>
      </trkpt>
      <trkpt lat="45.56192" lon="4.932">
        <ele>373.5</ele>
        <time>2012-09-05T08:39:17.30</time>
      </trkpt>
      <trkpt lat="45.56191" lon="4.93193">
        <ele>373.5</ele>
        <time>2012-09-05T08:39:18.38</time>
      </trkpt>
      <trkpt lat="45.56191" lon="4.93185">
        <ele>374</ele>
        <time>2012-09-05T08:39:19.29</time>
      </trkpt>
      <trkpt lat="45.56189" lon="4.93178">
        <ele>374.5</ele>
        <time>2012-09-05T08:39:20.36</time>
      </trkpt>
      <trkpt lat="45.56189" lon="4.93171">
        <ele>375</ele>
        <time>2012-09-05T08:39:21.44</time>
      </trkpt>
      <trkpt lat="45.56187" lon="4.93164">
        <ele>376</ele>
        <time>2012-09-05T08:39:22.51</time>
      </trkpt>
      <trkpt lat="45.56186" lon="4.93159">
        <ele>376</ele>
        <time>2012-09-05T08:39:23.58</time>
      </trkpt>
      <trkpt lat="45.56184" lon="4.93153">
        <ele>376.5</ele>
        <time>2012-09-05T08:39:24.65</time>
      </trkpt>
      <trkpt lat="45.56182" lon="4.93139">
        <ele>376.5</ele>
        <time>2012-09-05T08:39:26.30</time>
      </trkpt>
      <trkpt lat="45.56181" lon="4.93133">
        <ele>376.5</ele>
        <time>2012-09-05T08:39:27.37</time>
      </trkpt>
      <trkpt lat="45.5618" lon="4.93125">
        <ele>376.5</ele>
        <time>2012-09-05T08:39:28.26</time>
      </trkpt>
      <trkpt lat="45.56179" lon="4.93118">
        <ele>377</ele>
        <time>2012-09-05T08:39:29.29</time>
      </trkpt>
      <trkpt lat="45.56178" lon="4.93112">
        <ele>377</ele>
        <time>2012-09-05T08:39:30.46</time>
      </trkpt>
      <trkpt lat="45.56177" lon="4.93105">
        <ele>377</ele>
        <time>2012-09-05T08:39:31.25</time>
      </trkpt>
      <trkpt lat="45.56176" lon="4.93099">
        <ele>377.5</ele>
        <time>2012-09-05T08:39:32.33</time>
      </trkpt>
      <trkpt lat="45.56175" lon="4.93092">
        <ele>377.5</ele>
        <time>2012-09-05T08:39:33.23</time>
      </trkpt>
      <trkpt lat="45.56174" lon="4.93085">
        <ele>378</ele>
        <time>2012-09-05T08:39:34.26</time>
      </trkpt>
      <trkpt lat="45.56173" lon="4.93078">
        <ele>377.5</ele>
        <time>2012-09-05T08:39:35.22</time>
      </trkpt>
      <trkpt lat="45.56172" lon="4.93071">
        <ele>377.5</ele>
        <time>2012-09-05T08:39:36.25</time>
      </trkpt>
      <trkpt lat="45.56171" lon="4.93064">
        <ele>377.5</ele>
        <time>2012-09-05T08:39:37.22</time>
      </trkpt>
      <trkpt lat="45.5617" lon="4.93056">
        <ele>377</ele>
        <time>2012-09-05T08:39:38.24</time>
      </trkpt>
      <trkpt lat="45.5617" lon="4.93049">
        <ele>377</ele>
        <time>2012-09-05T08:39:39.20</time>
      </trkpt>
      <trkpt lat="45.56169" lon="4.93041">
        <ele>376.5</ele>
        <time>2012-09-05T08:39:40.23</time>
      </trkpt>
      <trkpt lat="45.56167" lon="4.93033">
        <ele>377</ele>
        <time>2012-09-05T08:39:41.19</time>
      </trkpt>
      <trkpt lat="45.56166" lon="4.93025">
        <ele>377</ele>
        <time>2012-09-05T08:39:42.21</time>
      </trkpt>
      <trkpt lat="45.56165" lon="4.93018">
        <ele>377.5</ele>
        <time>2012-09-05T08:39:43.17</time>
      </trkpt>
      <trkpt lat="45.56164" lon="4.9301">
        <ele>377</ele>
        <time>2012-09-05T08:39:44.24</time>
      </trkpt>
      <trkpt lat="45.56163" lon="4.93002">
        <ele>377.5</ele>
        <time>2012-09-05T08:39:45.30</time>
      </trkpt>
      <trkpt lat="45.56161" lon="4.92994">
        <ele>377</ele>
        <time>2012-09-05T08:39:46.15</time>
      </trkpt>
      <trkpt lat="45.5616" lon="4.92986">
        <ele>376.5</ele>
        <time>2012-09-05T08:39:47.19</time>
      </trkpt>
      <trkpt lat="45.56159" lon="4.92978">
        <ele>376.5</ele>
        <time>2012-09-05T08:39:48.15</time>
      </trkpt>
      <trkpt lat="45.56157" lon="4.92969">
        <ele>376</ele>
        <time>2012-09-05T08:39:49.18</time>
      </trkpt>
      <trkpt lat="45.56156" lon="4.92961">
        <ele>376.5</ele>
        <time>2012-09-05T08:39:50.15</time>
      </trkpt>
      <trkpt lat="45.56155" lon="4.92953">
        <ele>377</ele>
        <time>2012-09-05T08:39:51.17</time>
      </trkpt>
      <trkpt lat="45.56153" lon="4.92944">
        <ele>376.5</ele>
        <time>2012-09-05T08:39:52.13</time>
      </trkpt>
      <trkpt lat="45.56152" lon="4.92936">
        <ele>376.5</ele>
        <time>2012-09-05T08:39:53.16</time>
      </trkpt>
      <trkpt lat="45.5615" lon="4.92928">
        <ele>376</ele>
        <time>2012-09-05T08:39:54.13</time>
      </trkpt>
      <trkpt lat="45.56148" lon="4.9292">
        <ele>375.5</ele>
        <time>2012-09-05T08:39:55.15</time>
      </trkpt>
      <trkpt lat="45.56147" lon="4.92911">
        <ele>375</ele>
        <time>2012-09-05T08:39:56.11</time>
      </trkpt>
      <trkpt lat="45.56146" lon="4.92903">
        <ele>375</ele>
        <time>2012-09-05T08:39:57.13</time>
      </trkpt>
      <trkpt lat="45.56144" lon="4.92896">
        <ele>374.5</ele>
        <time>2012-09-05T08:39:58.10</time>
      </trkpt>
      <trkpt lat="45.56143" lon="4.92889">
        <ele>374.5</ele>
        <time>2012-09-05T08:39:59.12</time>
      </trkpt>
      <trkpt lat="45.56141" lon="4.92882">
        <ele>374.5</ele>
        <time>2012-09-05T08:40:00.10</time>
      </trkpt>
      <trkpt lat="45.56139" lon="4.92874">
        <ele>374.5</ele>
        <time>2012-09-05T08:40:01.10</time>
      </trkpt>
      <trkpt lat="45.56138" lon="4.92867">
        <ele>374</ele>
        <time>2012-09-05T08:40:02.12</time>
      </trkpt>
      <trkpt lat="45.56136" lon="4.92859">
        <ele>374</ele>
        <time>2012-09-05T08:40:03.08</time>
      </trkpt>
      <trkpt lat="45.56134" lon="4.92851">
        <ele>374.5</ele>
        <time>2012-09-05T08:40:04.10</time>
      </trkpt>
      <trkpt lat="45.56132" lon="4.92843">
        <ele>374</ele>
        <time>2012-09-05T08:40:05.06</time>
      </trkpt>
      <trkpt lat="45.5613" lon="4.92836">
        <ele>374</ele>
        <time>2012-09-05T08:40:06.13</time>
      </trkpt>
      <trkpt lat="45.56128" lon="4.92828">
        <ele>374</ele>
        <time>2012-09-05T08:40:07.05</time>
      </trkpt>
      <trkpt lat="45.56125" lon="4.9282">
        <ele>374.5</ele>
        <time>2012-09-05T08:40:08.08</time>
      </trkpt>
      <trkpt lat="45.56123" lon="4.92813">
        <ele>374.5</ele>
        <time>2012-09-05T08:40:09.04</time>
      </trkpt>
      <trkpt lat="45.56122" lon="4.92805">
        <ele>374.5</ele>
        <time>2012-09-05T08:40:10.06</time>
      </trkpt>
      <trkpt lat="45.5612" lon="4.92797">
        <ele>374</ele>
        <time>2012-09-05T08:40:11.14</time>
      </trkpt>
      <trkpt lat="45.56118" lon="4.92788">
        <ele>374.5</ele>
        <time>2012-09-05T08:40:12.02</time>
      </trkpt>
      <trkpt lat="45.56115" lon="4.92781">
        <ele>374.5</ele>
        <time>2012-09-05T08:40:13.05</time>
      </trkpt>
      <trkpt lat="45.56113" lon="4.92773">
        <ele>374</ele>
        <time>2012-09-05T08:40:14.13</time>
      </trkpt>
      <trkpt lat="45.56111" lon="4.92764">
        <ele>373.5</ele>
        <time>2012-09-05T08:40:15.01</time>
      </trkpt>
      <trkpt lat="45.56109" lon="4.92755">
        <ele>373</ele>
        <time>2012-09-05T08:40:16.03</time>
      </trkpt>
      <trkpt lat="45.56106" lon="4.92746">
        <ele>373</ele>
        <time>2012-09-05T08:40:17.10</time>
      </trkpt>
      <trkpt lat="45.56104" lon="4.92737">
        <ele>372.5</ele>
        <time>2012-09-05T08:40:18.16</time>
      </trkpt>
      <trkpt lat="45.56102" lon="4.92728">
        <ele>372.5</ele>
        <time>2012-09-05T08:40:18.98</time>
      </trkpt>
      <trkpt lat="45.56099" lon="4.92719">
        <ele>372.5</ele>
        <time>2012-09-05T08:40:20.01</time>
      </trkpt>
      <trkpt lat="45.56097" lon="4.92709">
        <ele>372.5</ele>
        <time>2012-09-05T08:40:20.98</time>
      </trkpt>
      <trkpt lat="45.56095" lon="4.927">
        <ele>372</ele>
        <time>2012-09-05T08:40:22.29</time>
      </trkpt>
      <trkpt lat="45.56092" lon="4.92691">
        <ele>371.5</ele>
        <time>2012-09-05T08:40:22.96</time>
      </trkpt>
      <trkpt lat="45.5609" lon="4.92681">
        <ele>371.5</ele>
        <time>2012-09-05T08:40:24.00</time>
      </trkpt>
      <trkpt lat="45.56087" lon="4.92671">
        <ele>371.5</ele>
        <time>2012-09-05T08:40:25.26</time>
      </trkpt>
      <trkpt lat="45.56085" lon="4.92662">
        <ele>371.5</ele>
        <time>2012-09-05T08:40:25.95</time>
      </trkpt>
      <trkpt lat="45.56082" lon="4.92651">
        <ele>371</ele>
        <time>2012-09-05T08:40:26.96</time>
      </trkpt>
      <trkpt lat="45.56079" lon="4.92641">
        <ele>371</ele>
        <time>2012-09-05T08:40:28.04</time>
      </trkpt>
      <trkpt lat="45.56076" lon="4.92631">
        <ele>370</ele>
        <time>2012-09-05T08:40:28.93</time>
      </trkpt>
      <trkpt lat="45.56073" lon="4.92621">
        <ele>370</ele>
        <time>2012-09-05T08:40:29.96</time>
      </trkpt>
      <trkpt lat="45.56071" lon="4.9261">
        <ele>370</ele>
        <time>2012-09-05T08:40:31.03</time>
      </trkpt>
      <trkpt lat="45.56067" lon="4.926">
        <ele>369.5</ele>
        <time>2012-09-05T08:40:31.91</time>
      </trkpt>
      <trkpt lat="45.56064" lon="4.92589">
        <ele>369.5</ele>
        <time>2012-09-05T08:40:32.94</time>
      </trkpt>
      <trkpt lat="45.56061" lon="4.92579">
        <ele>369.5</ele>
        <time>2012-09-05T08:40:34.01</time>
      </trkpt>
      <trkpt lat="45.56059" lon="4.92568">
        <ele>369.5</ele>
        <time>2012-09-05T08:40:34.89</time>
      </trkpt>
      <trkpt lat="45.56056" lon="4.92558">
        <ele>369</ele>
        <time>2012-09-05T08:40:35.91</time>
      </trkpt>
      <trkpt lat="45.56052" lon="4.92548">
        <ele>369</ele>
        <time>2012-09-05T08:40:37.28</time>
      </trkpt>
      <trkpt lat="45.56046" lon="4.92528">
        <ele>369</ele>
        <time>2012-09-05T08:40:38.91</time>
      </trkpt>
      <trkpt lat="45.56043" lon="4.92518">
        <ele>369</ele>
        <time>2012-09-05T08:40:39.87</time>
      </trkpt>
      <trkpt lat="45.5604" lon="4.92508">
        <ele>369</ele>
        <time>2012-09-05T08:40:40.90</time>
      </trkpt>
      <trkpt lat="45.56037" lon="4.92498">
        <ele>369.5</ele>
        <time>2012-09-05T08:40:41.97</time>
      </trkpt>
      <trkpt lat="45.56035" lon="4.92489">
        <ele>369.5</ele>
        <time>2012-09-05T08:40:42.86</time>
      </trkpt>
      <trkpt lat="45.56032" lon="4.92478">
        <ele>369.5</ele>
        <time>2012-09-05T08:40:43.93</time>
      </trkpt>
      <trkpt lat="45.56029" lon="4.92468">
        <ele>369.5</ele>
        <time>2012-09-05T08:40:44.85</time>
      </trkpt>
      <trkpt lat="45.56026" lon="4.92458">
        <ele>369</ele>
        <time>2012-09-05T08:40:45.88</time>
      </trkpt>
      <trkpt lat="45.56023" lon="4.92448">
        <ele>369.5</ele>
        <time>2012-09-05T08:40:46.85</time>
      </trkpt>
      <trkpt lat="45.5602" lon="4.92438">
        <ele>369.5</ele>
        <time>2012-09-05T08:40:48.20</time>
      </trkpt>
      <trkpt lat="45.56014" lon="4.92418">
        <ele>369.5</ele>
        <time>2012-09-05T08:40:49.94</time>
      </trkpt>
      <trkpt lat="45.56011" lon="4.92408">
        <ele>369.5</ele>
        <time>2012-09-05T08:40:50.82</time>
      </trkpt>
      <trkpt lat="45.56007" lon="4.92399">
        <ele>369</ele>
        <time>2012-09-05T08:40:51.86</time>
      </trkpt>
      <trkpt lat="45.56004" lon="4.9239">
        <ele>369.5</ele>
        <time>2012-09-05T08:40:52.82</time>
      </trkpt>
      <trkpt lat="45.56001" lon="4.9238">
        <ele>369.5</ele>
        <time>2012-09-05T08:40:53.90</time>
      </trkpt>
      <trkpt lat="45.55998" lon="4.9237">
        <ele>369.5</ele>
        <time>2012-09-05T08:40:54.98</time>
      </trkpt>
      <trkpt lat="45.55994" lon="4.92361">
        <ele>369</ele>
        <time>2012-09-05T08:40:55.81</time>
      </trkpt>
      <trkpt lat="45.55991" lon="4.92351">
        <ele>369.5</ele>
        <time>2012-09-05T08:40:56.82</time>
      </trkpt>
      <trkpt lat="45.55987" lon="4.92341">
        <ele>369</ele>
        <time>2012-09-05T08:40:57.84</time>
      </trkpt>
      <trkpt lat="45.55984" lon="4.92332">
        <ele>369</ele>
        <time>2012-09-05T08:40:58.92</time>
      </trkpt>
      <trkpt lat="45.5598" lon="4.92322">
        <ele>369.5</ele>
        <time>2012-09-05T08:40:59.99</time>
      </trkpt>
      <trkpt lat="45.55976" lon="4.92313">
        <ele>369</ele>
        <time>2012-09-05T08:41:00.79</time>
      </trkpt>
      <trkpt lat="45.55972" lon="4.92303">
        <ele>369</ele>
        <time>2012-09-05T08:41:01.87</time>
      </trkpt>
      <trkpt lat="45.55968" lon="4.92292">
        <ele>369</ele>
        <time>2012-09-05T08:41:03.01</time>
      </trkpt>
      <trkpt lat="45.55965" lon="4.92282">
        <ele>369</ele>
        <time>2012-09-05T08:41:03.77</time>
      </trkpt>
      <trkpt lat="45.55961" lon="4.92271">
        <ele>369</ele>
        <time>2012-09-05T08:41:04.84</time>
      </trkpt>
      <trkpt lat="45.55958" lon="4.92261">
        <ele>368.5</ele>
        <time>2012-09-05T08:41:05.76</time>
      </trkpt>
      <trkpt lat="45.55954" lon="4.92251">
        <ele>369</ele>
        <time>2012-09-05T08:41:06.79</time>
      </trkpt>
      <trkpt lat="45.55951" lon="4.9224">
        <ele>369</ele>
        <time>2012-09-05T08:41:07.76</time>
      </trkpt>
      <trkpt lat="45.55948" lon="4.92229">
        <ele>369</ele>
        <time>2012-09-05T08:41:08.83</time>
      </trkpt>
      <trkpt lat="45.55945" lon="4.92218">
        <ele>369.5</ele>
        <time>2012-09-05T08:41:09.90</time>
      </trkpt>
      <trkpt lat="45.55942" lon="4.92207">
        <ele>369</ele>
        <time>2012-09-05T08:41:10.73</time>
      </trkpt>
      <trkpt lat="45.55939" lon="4.92196">
        <ele>369</ele>
        <time>2012-09-05T08:41:11.94</time>
      </trkpt>
      <trkpt lat="45.55936" lon="4.92185">
        <ele>368.5</ele>
        <time>2012-09-05T08:41:12.72</time>
      </trkpt>
      <trkpt lat="45.55933" lon="4.92174">
        <ele>368.5</ele>
        <time>2012-09-05T08:41:13.75</time>
      </trkpt>
      <trkpt lat="45.5593" lon="4.92163">
        <ele>369</ele>
        <time>2012-09-05T08:41:14.84</time>
      </trkpt>
      <trkpt lat="45.55926" lon="4.92152">
        <ele>369</ele>
        <time>2012-09-05T08:41:15.71</time>
      </trkpt>
      <trkpt lat="45.55923" lon="4.92141">
        <ele>368.5</ele>
        <time>2012-09-05T08:41:16.82</time>
      </trkpt>
      <trkpt lat="45.5592" lon="4.9213">
        <ele>367.5</ele>
        <time>2012-09-05T08:41:17.70</time>
      </trkpt>
      <trkpt lat="45.55916" lon="4.92119">
        <ele>368</ele>
        <time>2012-09-05T08:41:18.71</time>
      </trkpt>
      <trkpt lat="45.55914" lon="4.92109">
        <ele>368</ele>
        <time>2012-09-05T08:41:19.80</time>
      </trkpt>
      <trkpt lat="45.55911" lon="4.92099">
        <ele>368.5</ele>
        <time>2012-09-05T08:41:20.86</time>
      </trkpt>
      <trkpt lat="45.55909" lon="4.92089">
        <ele>369</ele>
        <time>2012-09-05T08:41:22.07</time>
      </trkpt>
      <trkpt lat="45.55904" lon="4.92069">
        <ele>369.5</ele>
        <time>2012-09-05T08:41:23.72</time>
      </trkpt>
      <trkpt lat="45.55901" lon="4.92059">
        <ele>369.5</ele>
        <time>2012-09-05T08:41:24.78</time>
      </trkpt>
      <trkpt lat="45.55898" lon="4.9205">
        <ele>369.5</ele>
        <time>2012-09-05T08:41:25.67</time>
      </trkpt>
      <trkpt lat="45.55896" lon="4.9204">
        <ele>369.5</ele>
        <time>2012-09-05T08:41:26.75</time>
      </trkpt>
      <trkpt lat="45.55893" lon="4.92031">
        <ele>369</ele>
        <time>2012-09-05T08:41:27.82</time>
      </trkpt>
      <trkpt lat="45.55892" lon="4.92022">
        <ele>369.5</ele>
        <time>2012-09-05T08:41:28.88</time>
      </trkpt>
      <trkpt lat="45.55889" lon="4.92013">
        <ele>369.5</ele>
        <time>2012-09-05T08:41:29.65</time>
      </trkpt>
      <trkpt lat="45.55889" lon="4.92004">
        <ele>369</ele>
        <time>2012-09-05T08:41:30.68</time>
      </trkpt>
      <trkpt lat="45.5589" lon="4.91997">
        <ele>368.5</ele>
        <time>2012-09-05T08:41:31.64</time>
      </trkpt>
      <trkpt lat="45.55894" lon="4.91993">
        <ele>369</ele>
        <time>2012-09-05T08:41:32.67</time>
      </trkpt>
      <trkpt lat="45.55899" lon="4.91988">
        <ele>367.5</ele>
        <time>2012-09-05T08:41:33.74</time>
      </trkpt>
      <trkpt lat="45.55905" lon="4.91983">
        <ele>367.5</ele>
        <time>2012-09-05T08:41:34.95</time>
      </trkpt>
      <trkpt lat="45.5591" lon="4.91979">
        <ele>367.5</ele>
        <time>2012-09-05T08:41:35.62</time>
      </trkpt>
      <trkpt lat="45.55915" lon="4.91974">
        <ele>367</ele>
        <time>2012-09-05T08:41:36.65</time>
      </trkpt>
      <trkpt lat="45.55926" lon="4.91963">
        <ele>366.5</ele>
        <time>2012-09-05T08:41:38.65</time>
      </trkpt>
      <trkpt lat="45.55932" lon="4.91958">
        <ele>366</ele>
        <time>2012-09-05T08:41:39.61</time>
      </trkpt>
      <trkpt lat="45.55936" lon="4.91952">
        <ele>365.5</ele>
        <time>2012-09-05T08:41:40.62</time>
      </trkpt>
      <trkpt lat="45.55941" lon="4.91946">
        <ele>365.5</ele>
        <time>2012-09-05T08:41:41.63</time>
      </trkpt>
      <trkpt lat="45.55946" lon="4.91939">
        <ele>365</ele>
        <time>2012-09-05T08:41:42.60</time>
      </trkpt>
      <trkpt lat="45.5595" lon="4.91933">
        <ele>365</ele>
        <time>2012-09-05T08:41:43.60</time>
      </trkpt>
      <trkpt lat="45.55954" lon="4.91926">
        <ele>365.5</ele>
        <time>2012-09-05T08:41:44.60</time>
      </trkpt>
      <trkpt lat="45.55958" lon="4.9192">
        <ele>365</ele>
        <time>2012-09-05T08:41:45.99</time>
      </trkpt>
      <trkpt lat="45.55966" lon="4.91907">
        <ele>365</ele>
        <time>2012-09-05T08:41:47.61</time>
      </trkpt>
      <trkpt lat="45.5597" lon="4.919">
        <ele>365</ele>
        <time>2012-09-05T08:41:48.57</time>
      </trkpt>
      <trkpt lat="45.55974" lon="4.91894">
        <ele>364.5</ele>
        <time>2012-09-05T08:41:49.64</time>
      </trkpt>
      <trkpt lat="45.55978" lon="4.91887">
        <ele>364.5</ele>
        <time>2012-09-05T08:41:50.56</time>
      </trkpt>
      <trkpt lat="45.55982" lon="4.91881">
        <ele>364.5</ele>
        <time>2012-09-05T08:41:51.59</time>
      </trkpt>
      <trkpt lat="45.55986" lon="4.91875">
        <ele>365.5</ele>
        <time>2012-09-05T08:41:52.67</time>
      </trkpt>
      <trkpt lat="45.5599" lon="4.91868">
        <ele>365.5</ele>
        <time>2012-09-05T08:41:53.54</time>
      </trkpt>
      <trkpt lat="45.55994" lon="4.91862">
        <ele>365.5</ele>
        <time>2012-09-05T08:41:54.57</time>
      </trkpt>
      <trkpt lat="45.55999" lon="4.91856">
        <ele>365.5</ele>
        <time>2012-09-05T08:41:55.73</time>
      </trkpt>
      <trkpt lat="45.56003" lon="4.91849">
        <ele>365.5</ele>
        <time>2012-09-05T08:41:56.52</time>
      </trkpt>
      <trkpt lat="45.56008" lon="4.91844">
        <ele>365.5</ele>
        <time>2012-09-05T08:41:57.53</time>
      </trkpt>
      <trkpt lat="45.56013" lon="4.91838">
        <ele>365</ele>
        <time>2012-09-05T08:41:58.54</time>
      </trkpt>
      <trkpt lat="45.56019" lon="4.91833">
        <ele>364.5</ele>
        <time>2012-09-05T08:41:59.51</time>
      </trkpt>
      <trkpt lat="45.56025" lon="4.91827">
        <ele>364</ele>
        <time>2012-09-05T08:42:00.53</time>
      </trkpt>
      <trkpt lat="45.56031" lon="4.91822">
        <ele>363</ele>
        <time>2012-09-05T08:42:01.61</time>
      </trkpt>
      <trkpt lat="45.56037" lon="4.91816">
        <ele>362</ele>
        <time>2012-09-05T08:42:02.84</time>
      </trkpt>
      <trkpt lat="45.5605" lon="4.91804">
        <ele>360</ele>
        <time>2012-09-05T08:42:04.52</time>
      </trkpt>
      <trkpt lat="45.56058" lon="4.91797">
        <ele>359</ele>
        <time>2012-09-05T08:42:05.76</time>
      </trkpt>
      <trkpt lat="45.56066" lon="4.91791">
        <ele>357.5</ele>
        <time>2012-09-05T08:42:06.91</time>
      </trkpt>
      <trkpt lat="45.56084" lon="4.91776">
        <ele>354.5</ele>
        <time>2012-09-05T08:42:08.49</time>
      </trkpt>
      <trkpt lat="45.56093" lon="4.91767">
        <ele>352.5</ele>
        <time>2012-09-05T08:42:09.67</time>
      </trkpt>
      <trkpt lat="45.56103" lon="4.91758">
        <ele>351</ele>
        <time>2012-09-05T08:42:10.45</time>
      </trkpt>
      <trkpt lat="45.56113" lon="4.91747">
        <ele>349</ele>
        <time>2012-09-05T08:42:11.48</time>
      </trkpt>
      <trkpt lat="45.56123" lon="4.91735">
        <ele>347.5</ele>
        <time>2012-09-05T08:42:12.44</time>
      </trkpt>
      <trkpt lat="45.56132" lon="4.91724">
        <ele>346</ele>
        <time>2012-09-05T08:42:13.84</time>
      </trkpt>
      <trkpt lat="45.56149" lon="4.91703">
        <ele>343.5</ele>
        <time>2012-09-05T08:42:15.47</time>
      </trkpt>
      <trkpt lat="45.56158" lon="4.91693">
        <ele>342.5</ele>
        <time>2012-09-05T08:42:16.55</time>
      </trkpt>
      <trkpt lat="45.56167" lon="4.91684">
        <ele>342</ele>
        <time>2012-09-05T08:42:17.42</time>
      </trkpt>
      <trkpt lat="45.56177" lon="4.91675">
        <ele>340.5</ele>
        <time>2012-09-05T08:42:18.45</time>
      </trkpt>
      <trkpt lat="45.56186" lon="4.9167">
        <ele>341</ele>
        <time>2012-09-05T08:42:19.41</time>
      </trkpt>
      <trkpt lat="45.56195" lon="4.91665">
        <ele>340</ele>
        <time>2012-09-05T08:42:20.44</time>
      </trkpt>
      <trkpt lat="45.56204" lon="4.91661">
        <ele>339.5</ele>
        <time>2012-09-05T08:42:21.41</time>
      </trkpt>
      <trkpt lat="45.56211" lon="4.91657">
        <ele>339.5</ele>
        <time>2012-09-05T08:42:22.44</time>
      </trkpt>
      <trkpt lat="45.5622" lon="4.91653">
        <ele>339</ele>
        <time>2012-09-05T08:42:23.78</time>
      </trkpt>
      <trkpt lat="45.56235" lon="4.91646">
        <ele>338.5</ele>
        <time>2012-09-05T08:42:25.42</time>
      </trkpt>
      <trkpt lat="45.56243" lon="4.91642">
        <ele>338</ele>
        <time>2012-09-05T08:42:26.39</time>
      </trkpt>
      <trkpt lat="45.56249" lon="4.91635">
        <ele>338.5</ele>
        <time>2012-09-05T08:42:27.46</time>
      </trkpt>
      <trkpt lat="45.56254" lon="4.91626">
        <ele>338.5</ele>
        <time>2012-09-05T08:42:28.37</time>
      </trkpt>
      <trkpt lat="45.56257" lon="4.91616">
        <ele>338</ele>
        <time>2012-09-05T08:42:29.40</time>
      </trkpt>
      <trkpt lat="45.56258" lon="4.91605">
        <ele>337.5</ele>
        <time>2012-09-05T08:42:30.37</time>
      </trkpt>
      <trkpt lat="45.56257" lon="4.91593">
        <ele>337</ele>
        <time>2012-09-05T08:42:31.36</time>
      </trkpt>
      <trkpt lat="45.56253" lon="4.91582">
        <ele>337</ele>
        <time>2012-09-05T08:42:32.36</time>
      </trkpt>
      <trkpt lat="45.56251" lon="4.9157">
        <ele>336</ele>
        <time>2012-09-05T08:42:33.38</time>
      </trkpt>
      <trkpt lat="45.56248" lon="4.91558">
        <ele>335</ele>
        <time>2012-09-05T08:42:34.45</time>
      </trkpt>
      <trkpt lat="45.56245" lon="4.91546">
        <ele>335</ele>
        <time>2012-09-05T08:42:35.34</time>
      </trkpt>
      <trkpt lat="45.56244" lon="4.91532">
        <ele>334</ele>
        <time>2012-09-05T08:42:36.35</time>
      </trkpt>
      <trkpt lat="45.56245" lon="4.91518">
        <ele>333</ele>
        <time>2012-09-05T08:42:37.37</time>
      </trkpt>
      <trkpt lat="45.56246" lon="4.91504">
        <ele>332.5</ele>
        <time>2012-09-05T08:42:38.34</time>
      </trkpt>
      <trkpt lat="45.5625" lon="4.91488">
        <ele>330.5</ele>
        <time>2012-09-05T08:42:39.36</time>
      </trkpt>
      <trkpt lat="45.56255" lon="4.91474">
        <ele>330</ele>
        <time>2012-09-05T08:42:40.33</time>
      </trkpt>
      <trkpt lat="45.5626" lon="4.91461">
        <ele>329.5</ele>
        <time>2012-09-05T08:42:41.36</time>
      </trkpt>
      <trkpt lat="45.56265" lon="4.91447">
        <ele>329</ele>
        <time>2012-09-05T08:42:42.33</time>
      </trkpt>
      <trkpt lat="45.56271" lon="4.91433">
        <ele>328</ele>
        <time>2012-09-05T08:42:43.35</time>
      </trkpt>
      <trkpt lat="45.56278" lon="4.9142">
        <ele>327</ele>
        <time>2012-09-05T08:42:44.31</time>
      </trkpt>
      <trkpt lat="45.56286" lon="4.91408">
        <ele>326.5</ele>
        <time>2012-09-05T08:42:45.31</time>
      </trkpt>
      <trkpt lat="45.56293" lon="4.91396">
        <ele>326</ele>
        <time>2012-09-05T08:42:46.33</time>
      </trkpt>
      <trkpt lat="45.56301" lon="4.91384">
        <ele>325.5</ele>
        <time>2012-09-05T08:42:47.29</time>
      </trkpt>
      <trkpt lat="45.56309" lon="4.91373">
        <ele>325.5</ele>
        <time>2012-09-05T08:42:48.32</time>
      </trkpt>
      <trkpt lat="45.56317" lon="4.91361">
        <ele>325</ele>
        <time>2012-09-05T08:42:49.51</time>
      </trkpt>
      <trkpt lat="45.56325" lon="4.9135">
        <ele>324.5</ele>
        <time>2012-09-05T08:42:50.27</time>
      </trkpt>
      <trkpt lat="45.56333" lon="4.91338">
        <ele>325</ele>
        <time>2012-09-05T08:42:51.47</time>
      </trkpt>
      <trkpt lat="45.5634" lon="4.91327">
        <ele>324.5</ele>
        <time>2012-09-05T08:42:52.26</time>
      </trkpt>
      <trkpt lat="45.56347" lon="4.91315">
        <ele>324</ele>
        <time>2012-09-05T08:42:53.29</time>
      </trkpt>
      <trkpt lat="45.56355" lon="4.91303">
        <ele>323.5</ele>
        <time>2012-09-05T08:42:54.27</time>
      </trkpt>
      <trkpt lat="45.56362" lon="4.91291">
        <ele>323</ele>
        <time>2012-09-05T08:42:55.25</time>
      </trkpt>
      <trkpt lat="45.5637" lon="4.91278">
        <ele>322</ele>
        <time>2012-09-05T08:42:56.41</time>
      </trkpt>
      <trkpt lat="45.56378" lon="4.91265">
        <ele>320.5</ele>
        <time>2012-09-05T08:42:57.23</time>
      </trkpt>
      <trkpt lat="45.56385" lon="4.91252">
        <ele>320</ele>
        <time>2012-09-05T08:42:58.31</time>
      </trkpt>
      <trkpt lat="45.56393" lon="4.91239">
        <ele>318.5</ele>
        <time>2012-09-05T08:42:59.22</time>
      </trkpt>
      <trkpt lat="45.564" lon="4.91225">
        <ele>317.5</ele>
        <time>2012-09-05T08:43:00.24</time>
      </trkpt>
      <trkpt lat="45.56408" lon="4.91211">
        <ele>316.5</ele>
        <time>2012-09-05T08:43:01.21</time>
      </trkpt>
      <trkpt lat="45.56416" lon="4.91198">
        <ele>315.5</ele>
        <time>2012-09-05T08:43:02.22</time>
      </trkpt>
      <trkpt lat="45.56424" lon="4.91184">
        <ele>314.5</ele>
        <time>2012-09-05T08:43:03.24</time>
      </trkpt>
      <trkpt lat="45.56432" lon="4.91171">
        <ele>313.5</ele>
        <time>2012-09-05T08:43:04.21</time>
      </trkpt>
      <trkpt lat="45.5644" lon="4.91157">
        <ele>313</ele>
        <time>2012-09-05T08:43:05.23</time>
      </trkpt>
      <trkpt lat="45.56449" lon="4.91145">
        <ele>311.5</ele>
        <time>2012-09-05T08:43:06.31</time>
      </trkpt>
      <trkpt lat="45.56459" lon="4.91133">
        <ele>310.5</ele>
        <time>2012-09-05T08:43:07.19</time>
      </trkpt>
      <trkpt lat="45.56469" lon="4.91122">
        <ele>309.5</ele>
        <time>2012-09-05T08:43:08.22</time>
      </trkpt>
      <trkpt lat="45.5648" lon="4.91112">
        <ele>308</ele>
        <time>2012-09-05T08:43:09.19</time>
      </trkpt>
      <trkpt lat="45.56492" lon="4.91103">
        <ele>307</ele>
        <time>2012-09-05T08:43:10.18</time>
      </trkpt>
      <trkpt lat="45.56504" lon="4.91095">
        <ele>305.5</ele>
        <time>2012-09-05T08:43:11.18</time>
      </trkpt>
      <trkpt lat="45.56516" lon="4.91088">
        <ele>304</ele>
        <time>2012-09-05T08:43:12.20</time>
      </trkpt>
      <trkpt lat="45.56529" lon="4.91081">
        <ele>303</ele>
        <time>2012-09-05T08:43:13.17</time>
      </trkpt>
      <trkpt lat="45.56541" lon="4.91075">
        <ele>302</ele>
        <time>2012-09-05T08:43:14.20</time>
      </trkpt>
      <trkpt lat="45.56554" lon="4.91069">
        <ele>301</ele>
        <time>2012-09-05T08:43:15.16</time>
      </trkpt>
      <trkpt lat="45.56567" lon="4.91062">
        <ele>300.5</ele>
        <time>2012-09-05T08:43:16.24</time>
      </trkpt>
      <trkpt lat="45.56578" lon="4.91055">
        <ele>299.5</ele>
        <time>2012-09-05T08:43:17.15</time>
      </trkpt>
      <trkpt lat="45.5659" lon="4.91049">
        <ele>299</ele>
        <time>2012-09-05T08:43:18.18</time>
      </trkpt>
      <trkpt lat="45.56601" lon="4.91042">
        <ele>298</ele>
        <time>2012-09-05T08:43:19.14</time>
      </trkpt>
      <trkpt lat="45.56611" lon="4.91038">
        <ele>298</ele>
        <time>2012-09-05T08:43:20.17</time>
      </trkpt>
      <trkpt lat="45.5662" lon="4.91036">
        <ele>297.5</ele>
        <time>2012-09-05T08:43:21.14</time>
      </trkpt>
      <trkpt lat="45.56628" lon="4.91034">
        <ele>297.5</ele>
        <time>2012-09-05T08:43:22.16</time>
      </trkpt>
      <trkpt lat="45.56636" lon="4.9103">
        <ele>298</ele>
        <time>2012-09-05T08:43:23.12</time>
      </trkpt>
      <trkpt lat="45.56642" lon="4.91022">
        <ele>297.5</ele>
        <time>2012-09-05T08:43:24.29</time>
      </trkpt>
      <trkpt lat="45.56648" lon="4.91013">
        <ele>297</ele>
        <time>2012-09-05T08:43:25.11</time>
      </trkpt>
      <trkpt lat="45.56653" lon="4.91003">
        <ele>296.5</ele>
        <time>2012-09-05T08:43:26.13</time>
      </trkpt>
      <trkpt lat="45.56661" lon="4.90995">
        <ele>295.5</ele>
        <time>2012-09-05T08:43:27.42</time>
      </trkpt>
      <trkpt lat="45.56669" lon="4.90991">
        <ele>294.5</ele>
        <time>2012-09-05T08:43:28.09</time>
      </trkpt>
      <trkpt lat="45.56678" lon="4.90989">
        <ele>294</ele>
        <time>2012-09-05T08:43:29.12</time>
      </trkpt>
      <trkpt lat="45.56686" lon="4.90988">
        <ele>294</ele>
        <time>2012-09-05T08:43:30.09</time>
      </trkpt>
      <trkpt lat="45.56695" lon="4.90988">
        <ele>294</ele>
        <time>2012-09-05T08:43:31.11</time>
      </trkpt>
      <trkpt lat="45.56704" lon="4.90989">
        <ele>293</ele>
        <time>2012-09-05T08:43:32.07</time>
      </trkpt>
      <trkpt lat="45.56712" lon="4.9099">
        <ele>293</ele>
        <time>2012-09-05T08:43:33.10</time>
      </trkpt>
      <trkpt lat="45.56721" lon="4.90992">
        <ele>292.5</ele>
        <time>2012-09-05T08:43:34.07</time>
      </trkpt>
      <trkpt lat="45.5673" lon="4.90993">
        <ele>292</ele>
        <time>2012-09-05T08:43:35.09</time>
      </trkpt>
      <trkpt lat="45.56739" lon="4.90995">
        <ele>291</ele>
        <time>2012-09-05T08:43:36.05</time>
      </trkpt>
      <trkpt lat="45.56748" lon="4.90997">
        <ele>290.5</ele>
        <time>2012-09-05T08:43:37.06</time>
      </trkpt>
      <trkpt lat="45.56757" lon="4.91">
        <ele>290</ele>
        <time>2012-09-05T08:43:38.08</time>
      </trkpt>
      <trkpt lat="45.56765" lon="4.91002">
        <ele>289.5</ele>
        <time>2012-09-05T08:43:39.04</time>
      </trkpt>
      <trkpt lat="45.56774" lon="4.91006">
        <ele>289</ele>
        <time>2012-09-05T08:43:40.11</time>
      </trkpt>
      <trkpt lat="45.56782" lon="4.9101">
        <ele>288.5</ele>
        <time>2012-09-05T08:43:41.25</time>
      </trkpt>
      <trkpt lat="45.56791" lon="4.91014">
        <ele>287</ele>
        <time>2012-09-05T08:43:42.02</time>
      </trkpt>
      <trkpt lat="45.56799" lon="4.91019">
        <ele>286.5</ele>
        <time>2012-09-05T08:43:43.04</time>
      </trkpt>
      <trkpt lat="45.56807" lon="4.91023">
        <ele>286.5</ele>
        <time>2012-09-05T08:43:44.01</time>
      </trkpt>
      <trkpt lat="45.56815" lon="4.91028">
        <ele>286.5</ele>
        <time>2012-09-05T08:43:45.02</time>
      </trkpt>
      <trkpt lat="45.56823" lon="4.91032">
        <ele>286.5</ele>
        <time>2012-09-05T08:43:46.41</time>
      </trkpt>
      <trkpt lat="45.56838" lon="4.91041">
        <ele>285.5</ele>
        <time>2012-09-05T08:43:48.03</time>
      </trkpt>
      <trkpt lat="45.56845" lon="4.91045">
        <ele>286</ele>
        <time>2012-09-05T08:43:48.99</time>
      </trkpt>
      <trkpt lat="45.56852" lon="4.91048">
        <ele>286.5</ele>
        <time>2012-09-05T08:43:50.00</time>
      </trkpt>
      <trkpt lat="45.56859" lon="4.91052">
        <ele>286</ele>
        <time>2012-09-05T08:43:51.08</time>
      </trkpt>
      <trkpt lat="45.56866" lon="4.91054">
        <ele>286.5</ele>
        <time>2012-09-05T08:43:52.39</time>
      </trkpt>
      <trkpt lat="45.56879" lon="4.91057">
        <ele>288</ele>
        <time>2012-09-05T08:43:54.00</time>
      </trkpt>
      <trkpt lat="45.56885" lon="4.91059">
        <ele>288</ele>
        <time>2012-09-05T08:43:54.98</time>
      </trkpt>
      <trkpt lat="45.56892" lon="4.9106">
        <ele>288.5</ele>
        <time>2012-09-05T08:43:56.00</time>
      </trkpt>
      <trkpt lat="45.56898" lon="4.91061">
        <ele>289</ele>
        <time>2012-09-05T08:43:56.97</time>
      </trkpt>
      <trkpt lat="45.56904" lon="4.91062">
        <ele>289.5</ele>
        <time>2012-09-05T08:43:57.97</time>
      </trkpt>
      <trkpt lat="45.5691" lon="4.91064">
        <ele>290</ele>
        <time>2012-09-05T08:43:58.99</time>
      </trkpt>
      <trkpt lat="45.56915" lon="4.91065">
        <ele>290.5</ele>
        <time>2012-09-05T08:44:00.37</time>
      </trkpt>
      <trkpt lat="45.56926" lon="4.91066">
        <ele>291</ele>
        <time>2012-09-05T08:44:01.98</time>
      </trkpt>
      <trkpt lat="45.5693" lon="4.91067">
        <ele>291</ele>
        <time>2012-09-05T08:44:03.38</time>
      </trkpt>
      <trkpt lat="45.56939" lon="4.9107">
        <ele>291.5</ele>
        <time>2012-09-05T08:44:04.94</time>
      </trkpt>
      <trkpt lat="45.56943" lon="4.91071">
        <ele>291.5</ele>
        <time>2012-09-05T08:44:05.98</time>
      </trkpt>
      <trkpt lat="45.56947" lon="4.91073">
        <ele>292.5</ele>
        <time>2012-09-05T08:44:06.93</time>
      </trkpt>
      <trkpt lat="45.5695" lon="4.91075">
        <ele>293</ele>
        <time>2012-09-05T08:44:07.96</time>
      </trkpt>
      <trkpt lat="45.56954" lon="4.91076">
        <ele>293</ele>
        <time>2012-09-05T08:44:08.92</time>
      </trkpt>
      <trkpt lat="45.56957" lon="4.91078">
        <ele>293.5</ele>
        <time>2012-09-05T08:44:09.95</time>
      </trkpt>
      <trkpt lat="45.5696" lon="4.91079">
        <ele>294</ele>
        <time>2012-09-05T08:44:10.91</time>
      </trkpt>
      <trkpt lat="45.56963" lon="4.91082">
        <ele>294</ele>
        <time>2012-09-05T08:44:11.94</time>
      </trkpt>
      <trkpt lat="45.56967" lon="4.91084">
        <ele>295</ele>
        <time>2012-09-05T08:44:13.06</time>
      </trkpt>
      <trkpt lat="45.5697" lon="4.91086">
        <ele>295</ele>
        <time>2012-09-05T08:44:14.14</time>
      </trkpt>
      <trkpt lat="45.56974" lon="4.91088">
        <ele>295.5</ele>
        <time>2012-09-05T08:44:14.94</time>
      </trkpt>
      <trkpt lat="45.56979" lon="4.91091">
        <ele>296</ele>
        <time>2012-09-05T08:44:15.99</time>
      </trkpt>
      <trkpt lat="45.56983" lon="4.91096">
        <ele>296</ele>
        <time>2012-09-05T08:44:17.08</time>
      </trkpt>
      <trkpt lat="45.56988" lon="4.91099">
        <ele>296</ele>
        <time>2012-09-05T08:44:18.18</time>
      </trkpt>
      <trkpt lat="45.56993" lon="4.91102">
        <ele>296</ele>
        <time>2012-09-05T08:44:18.88</time>
      </trkpt>
      <trkpt lat="45.56998" lon="4.91106">
        <ele>296.5</ele>
        <time>2012-09-05T08:44:19.88</time>
      </trkpt>
      <trkpt lat="45.57003" lon="4.9111">
        <ele>297</ele>
        <time>2012-09-05T08:44:20.88</time>
      </trkpt>
      <trkpt lat="45.57008" lon="4.91114">
        <ele>297.5</ele>
        <time>2012-09-05T08:44:21.88</time>
      </trkpt>
      <trkpt lat="45.57013" lon="4.91117">
        <ele>297.5</ele>
        <time>2012-09-05T08:44:22.96</time>
      </trkpt>
      <trkpt lat="45.57017" lon="4.91122">
        <ele>297.5</ele>
        <time>2012-09-05T08:44:24.04</time>
      </trkpt>
      <trkpt lat="45.57022" lon="4.91125">
        <ele>297.5</ele>
        <time>2012-09-05T08:44:24.87</time>
      </trkpt>
      <trkpt lat="45.57027" lon="4.91129">
        <ele>298</ele>
        <time>2012-09-05T08:44:25.87</time>
      </trkpt>
      <trkpt lat="45.57032" lon="4.91133">
        <ele>299</ele>
        <time>2012-09-05T08:44:26.86</time>
      </trkpt>
      <trkpt lat="45.57036" lon="4.91137">
        <ele>299</ele>
        <time>2012-09-05T08:44:27.86</time>
      </trkpt>
      <trkpt lat="45.5704" lon="4.9114">
        <ele>299.5</ele>
        <time>2012-09-05T08:44:29.02</time>
      </trkpt>
      <trkpt lat="45.57045" lon="4.91144">
        <ele>300</ele>
        <time>2012-09-05T08:44:29.85</time>
      </trkpt>
      <trkpt lat="45.5705" lon="4.91147">
        <ele>300.5</ele>
        <time>2012-09-05T08:44:30.92</time>
      </trkpt>
      <trkpt lat="45.57054" lon="4.91151">
        <ele>300.5</ele>
        <time>2012-09-05T08:44:31.99</time>
      </trkpt>
      <trkpt lat="45.57059" lon="4.91154">
        <ele>300.5</ele>
        <time>2012-09-05T08:44:33.07</time>
      </trkpt>
      <trkpt lat="45.57064" lon="4.91158">
        <ele>301.5</ele>
        <time>2012-09-05T08:44:34.22</time>
      </trkpt>
      <trkpt lat="45.57073" lon="4.91166">
        <ele>302.5</ele>
        <time>2012-09-05T08:44:36.24</time>
      </trkpt>
      <trkpt lat="45.57082" lon="4.91173">
        <ele>303</ele>
        <time>2012-09-05T08:44:37.86</time>
      </trkpt>
      <trkpt lat="45.57086" lon="4.91177">
        <ele>303.5</ele>
        <time>2012-09-05T08:44:38.82</time>
      </trkpt>
      <trkpt lat="45.5709" lon="4.91181">
        <ele>303.5</ele>
        <time>2012-09-05T08:44:39.84</time>
      </trkpt>
      <trkpt lat="45.57094" lon="4.91185">
        <ele>304.5</ele>
        <time>2012-09-05T08:44:40.81</time>
      </trkpt>
      <trkpt lat="45.57098" lon="4.91188">
        <ele>304.5</ele>
        <time>2012-09-05T08:44:41.81</time>
      </trkpt>
      <trkpt lat="45.57102" lon="4.91191">
        <ele>304.5</ele>
        <time>2012-09-05T08:44:42.82</time>
      </trkpt>
      <trkpt lat="45.57106" lon="4.91195">
        <ele>304</ele>
        <time>2012-09-05T08:44:43.78</time>
      </trkpt>
      <trkpt lat="45.5711" lon="4.91198">
        <ele>304.5</ele>
        <time>2012-09-05T08:44:44.78</time>
      </trkpt>
      <trkpt lat="45.57114" lon="4.91201">
        <ele>305</ele>
        <time>2012-09-05T08:44:45.78</time>
      </trkpt>
      <trkpt lat="45.57117" lon="4.91204">
        <ele>305.5</ele>
        <time>2012-09-05T08:44:46.79</time>
      </trkpt>
      <trkpt lat="45.57122" lon="4.91207">
        <ele>305.5</ele>
        <time>2012-09-05T08:44:47.76</time>
      </trkpt>
      <trkpt lat="45.57125" lon="4.91211">
        <ele>305.5</ele>
        <time>2012-09-05T08:44:48.78</time>
      </trkpt>
      <trkpt lat="45.57129" lon="4.91213">
        <ele>305.5</ele>
        <time>2012-09-05T08:44:49.86</time>
      </trkpt>
      <trkpt lat="45.57133" lon="4.91216">
        <ele>305.5</ele>
        <time>2012-09-05T08:44:50.74</time>
      </trkpt>
      <trkpt lat="45.57137" lon="4.91219">
        <ele>306</ele>
        <time>2012-09-05T08:44:51.77</time>
      </trkpt>
      <trkpt lat="45.57141" lon="4.91222">
        <ele>306</ele>
        <time>2012-09-05T08:44:52.74</time>
      </trkpt>
      <trkpt lat="45.57145" lon="4.91224">
        <ele>306</ele>
        <time>2012-09-05T08:44:53.73</time>
      </trkpt>
      <trkpt lat="45.57149" lon="4.91226">
        <ele>306</ele>
        <time>2012-09-05T08:44:54.73</time>
      </trkpt>
      <trkpt lat="45.57153" lon="4.91229">
        <ele>306.5</ele>
        <time>2012-09-05T08:44:55.74</time>
      </trkpt>
      <trkpt lat="45.57157" lon="4.91231">
        <ele>307</ele>
        <time>2012-09-05T08:44:56.70</time>
      </trkpt>
      <trkpt lat="45.57161" lon="4.91232">
        <ele>307</ele>
        <time>2012-09-05T08:44:57.73</time>
      </trkpt>
      <trkpt lat="45.57165" lon="4.91234">
        <ele>307</ele>
        <time>2012-09-05T08:44:58.80</time>
      </trkpt>
      <trkpt lat="45.57169" lon="4.91235">
        <ele>307.5</ele>
        <time>2012-09-05T08:44:59.88</time>
      </trkpt>
      <trkpt lat="45.57174" lon="4.91237">
        <ele>307.5</ele>
        <time>2012-09-05T08:45:00.96</time>
      </trkpt>
      <trkpt lat="45.57177" lon="4.91239">
        <ele>308.5</ele>
        <time>2012-09-05T08:45:02.06</time>
      </trkpt>
      <trkpt lat="45.57184" lon="4.91241">
        <ele>309</ele>
        <time>2012-09-05T08:45:03.70</time>
      </trkpt>
      <trkpt lat="45.57188" lon="4.91242">
        <ele>309.5</ele>
        <time>2012-09-05T08:45:04.67</time>
      </trkpt>
      <trkpt lat="45.57191" lon="4.91243">
        <ele>309</ele>
        <time>2012-09-05T08:45:05.68</time>
      </trkpt>
      <trkpt lat="45.57194" lon="4.91244">
        <ele>309</ele>
        <time>2012-09-05T08:45:06.66</time>
      </trkpt>
      <trkpt lat="45.57197" lon="4.91246">
        <ele>309</ele>
        <time>2012-09-05T08:45:07.66</time>
      </trkpt>
      <trkpt lat="45.572" lon="4.91247">
        <ele>309.5</ele>
        <time>2012-09-05T08:45:08.68</time>
      </trkpt>
      <trkpt lat="45.57203" lon="4.91249">
        <ele>309.5</ele>
        <time>2012-09-05T08:45:09.64</time>
      </trkpt>
      <trkpt lat="45.57206" lon="4.9125">
        <ele>309.5</ele>
        <time>2012-09-05T08:45:10.67</time>
      </trkpt>
      <trkpt lat="45.57209" lon="4.91252">
        <ele>310</ele>
        <time>2012-09-05T08:45:11.63</time>
      </trkpt>
      <trkpt lat="45.57212" lon="4.91253">
        <ele>309.5</ele>
        <time>2012-09-05T08:45:12.67</time>
      </trkpt>
      <trkpt lat="45.57216" lon="4.91254">
        <ele>310</ele>
        <time>2012-09-05T08:45:13.62</time>
      </trkpt>
      <trkpt lat="45.57219" lon="4.91255">
        <ele>310</ele>
        <time>2012-09-05T08:45:14.65</time>
      </trkpt>
      <trkpt lat="45.57222" lon="4.91256">
        <ele>310</ele>
        <time>2012-09-05T08:45:15.61</time>
      </trkpt>
      <trkpt lat="45.57226" lon="4.91258">
        <ele>310.5</ele>
        <time>2012-09-05T08:45:16.63</time>
      </trkpt>
      <trkpt lat="45.5723" lon="4.91259">
        <ele>310.5</ele>
        <time>2012-09-05T08:45:17.61</time>
      </trkpt>
      <trkpt lat="45.57234" lon="4.91261">
        <ele>310.5</ele>
        <time>2012-09-05T08:45:18.62</time>
      </trkpt>
      <trkpt lat="45.57237" lon="4.91262">
        <ele>310.5</ele>
        <time>2012-09-05T08:45:19.60</time>
      </trkpt>
      <trkpt lat="45.57241" lon="4.91264">
        <ele>311</ele>
        <time>2012-09-05T08:45:20.59</time>
      </trkpt>
      <trkpt lat="45.57245" lon="4.91265">
        <ele>311</ele>
        <time>2012-09-05T08:45:21.62</time>
      </trkpt>
      <trkpt lat="45.57248" lon="4.91266">
        <ele>310.5</ele>
        <time>2012-09-05T08:45:22.58</time>
      </trkpt>
      <trkpt lat="45.57252" lon="4.91268">
        <ele>311</ele>
        <time>2012-09-05T08:45:23.61</time>
      </trkpt>
      <trkpt lat="45.57256" lon="4.9127">
        <ele>311</ele>
        <time>2012-09-05T08:45:24.57</time>
      </trkpt>
      <trkpt lat="45.5726" lon="4.91272">
        <ele>311.5</ele>
        <time>2012-09-05T08:45:25.60</time>
      </trkpt>
      <trkpt lat="45.57263" lon="4.91274">
        <ele>312</ele>
        <time>2012-09-05T08:45:26.57</time>
      </trkpt>
      <trkpt lat="45.57267" lon="4.91276">
        <ele>312</ele>
        <time>2012-09-05T08:45:27.56</time>
      </trkpt>
      <trkpt lat="45.5727" lon="4.91277">
        <ele>311.5</ele>
        <time>2012-09-05T08:45:28.63</time>
      </trkpt>
      <trkpt lat="45.57274" lon="4.91278">
        <ele>312</ele>
        <time>2012-09-05T08:45:29.54</time>
      </trkpt>
      <trkpt lat="45.57277" lon="4.91279">
        <ele>312</ele>
        <time>2012-09-05T08:45:30.57</time>
      </trkpt>
      <trkpt lat="45.57281" lon="4.91281">
        <ele>312.5</ele>
        <time>2012-09-05T08:45:31.53</time>
      </trkpt>
      <trkpt lat="45.57284" lon="4.91283">
        <ele>312.5</ele>
        <time>2012-09-05T08:45:32.53</time>
      </trkpt>
      <trkpt lat="45.57288" lon="4.91285">
        <ele>312.5</ele>
        <time>2012-09-05T08:45:33.52</time>
      </trkpt>
      <trkpt lat="45.57292" lon="4.91286">
        <ele>312.5</ele>
        <time>2012-09-05T08:45:34.52</time>
      </trkpt>
      <trkpt lat="45.57296" lon="4.91287">
        <ele>313</ele>
        <time>2012-09-05T08:45:35.54</time>
      </trkpt>
      <trkpt lat="45.573" lon="4.91289">
        <ele>313</ele>
        <time>2012-09-05T08:45:36.51</time>
      </trkpt>
      <trkpt lat="45.57305" lon="4.9129">
        <ele>312.5</ele>
        <time>2012-09-05T08:45:37.51</time>
      </trkpt>
      <trkpt lat="45.57309" lon="4.91292">
        <ele>312.5</ele>
        <time>2012-09-05T08:45:38.53</time>
      </trkpt>
      <trkpt lat="45.57313" lon="4.91294">
        <ele>312</ele>
        <time>2012-09-05T08:45:39.50</time>
      </trkpt>
      <trkpt lat="45.57319" lon="4.91295">
        <ele>312</ele>
        <time>2012-09-05T08:45:40.74</time>
      </trkpt>
      <trkpt lat="45.57324" lon="4.91297">
        <ele>311</ele>
        <time>2012-09-05T08:45:41.48</time>
      </trkpt>
      <trkpt lat="45.57329" lon="4.91298">
        <ele>310.5</ele>
        <time>2012-09-05T08:45:42.49</time>
      </trkpt>
      <trkpt lat="45.57334" lon="4.913">
        <ele>309.5</ele>
        <time>2012-09-05T08:45:43.50</time>
      </trkpt>
      <trkpt lat="45.57338" lon="4.91302">
        <ele>310</ele>
        <time>2012-09-05T08:45:44.47</time>
      </trkpt>
      <trkpt lat="45.57343" lon="4.91304">
        <ele>309.5</ele>
        <time>2012-09-05T08:45:45.47</time>
      </trkpt>
      <trkpt lat="45.57348" lon="4.91306">
        <ele>309</ele>
        <time>2012-09-05T08:45:46.46</time>
      </trkpt>
      <trkpt lat="45.57352" lon="4.91308">
        <ele>309</ele>
        <time>2012-09-05T08:45:47.48</time>
      </trkpt>
      <trkpt lat="45.57357" lon="4.9131">
        <ele>309</ele>
        <time>2012-09-05T08:45:48.60</time>
      </trkpt>
      <trkpt lat="45.57362" lon="4.91313">
        <ele>309</ele>
        <time>2012-09-05T08:45:49.43</time>
      </trkpt>
      <trkpt lat="45.57367" lon="4.91314">
        <ele>308.5</ele>
        <time>2012-09-05T08:45:50.46</time>
      </trkpt>
      <trkpt lat="45.57371" lon="4.91317">
        <ele>309</ele>
        <time>2012-09-05T08:45:51.44</time>
      </trkpt>
      <trkpt lat="45.57376" lon="4.91318">
        <ele>308.5</ele>
        <time>2012-09-05T08:45:52.42</time>
      </trkpt>
      <trkpt lat="45.57381" lon="4.9132">
        <ele>308</ele>
        <time>2012-09-05T08:45:53.44</time>
      </trkpt>
      <trkpt lat="45.57387" lon="4.91321">
        <ele>307.5</ele>
        <time>2012-09-05T08:45:54.40</time>
      </trkpt>
      <trkpt lat="45.57393" lon="4.91322">
        <ele>307.5</ele>
        <time>2012-09-05T08:45:55.42</time>
      </trkpt>
      <trkpt lat="45.57399" lon="4.91324">
        <ele>306.5</ele>
        <time>2012-09-05T08:45:56.76</time>
      </trkpt>
      <trkpt lat="45.57411" lon="4.91327">
        <ele>306.5</ele>
        <time>2012-09-05T08:45:58.44</time>
      </trkpt>
      <trkpt lat="45.57417" lon="4.91329">
        <ele>307</ele>
        <time>2012-09-05T08:45:59.52</time>
      </trkpt>
      <trkpt lat="45.57424" lon="4.91331">
        <ele>306.5</ele>
        <time>2012-09-05T08:46:00.38</time>
      </trkpt>
      <trkpt lat="45.57431" lon="4.91333">
        <ele>306</ele>
        <time>2012-09-05T08:46:01.41</time>
      </trkpt>
      <trkpt lat="45.57438" lon="4.91335">
        <ele>306.5</ele>
        <time>2012-09-05T08:46:02.38</time>
      </trkpt>
      <trkpt lat="45.57446" lon="4.91337">
        <ele>306</ele>
        <time>2012-09-05T08:46:03.45</time>
      </trkpt>
      <trkpt lat="45.57453" lon="4.91338">
        <ele>305.5</ele>
        <time>2012-09-05T08:46:04.64</time>
      </trkpt>
      <trkpt lat="45.57461" lon="4.9134">
        <ele>305.5</ele>
        <time>2012-09-05T08:46:05.36</time>
      </trkpt>
      <trkpt lat="45.5747" lon="4.91341">
        <ele>304.5</ele>
        <time>2012-09-05T08:46:06.84</time>
      </trkpt>
      <trkpt lat="45.57487" lon="4.91343">
        <ele>303</ele>
        <time>2012-09-05T08:46:08.37</time>
      </trkpt>
      <trkpt lat="45.57497" lon="4.91344">
        <ele>301.5</ele>
        <time>2012-09-05T08:46:09.65</time>
      </trkpt>
      <trkpt lat="45.57506" lon="4.91344">
        <ele>301.5</ele>
        <time>2012-09-05T08:46:10.33</time>
      </trkpt>
      <trkpt lat="45.57516" lon="4.91343">
        <ele>303.5</ele>
        <time>2012-09-05T08:46:11.36</time>
      </trkpt>
      <trkpt lat="45.57526" lon="4.91343">
        <ele>302.5</ele>
        <time>2012-09-05T08:46:12.32</time>
      </trkpt>
      <trkpt lat="45.57537" lon="4.91343">
        <ele>303</ele>
        <time>2012-09-05T08:46:13.35</time>
      </trkpt>
      <trkpt lat="45.57548" lon="4.91343">
        <ele>302.5</ele>
        <time>2012-09-05T08:46:14.32</time>
      </trkpt>
      <trkpt lat="45.57558" lon="4.91343">
        <ele>302.5</ele>
        <time>2012-09-05T08:46:15.41</time>
      </trkpt>
      <trkpt lat="45.57581" lon="4.91343">
        <ele>304</ele>
        <time>2012-09-05T08:46:17.35</time>
      </trkpt>
      <trkpt lat="45.57604" lon="4.91345">
        <ele>304.5</ele>
        <time>2012-09-05T08:46:19.35</time>
      </trkpt>
      <trkpt lat="45.57615" lon="4.91343">
        <ele>305.5</ele>
        <time>2012-09-05T08:46:20.42</time>
      </trkpt>
      <trkpt lat="45.57625" lon="4.91345">
        <ele>305.5</ele>
        <time>2012-09-05T08:46:21.30</time>
      </trkpt>
      <trkpt lat="45.57637" lon="4.91346">
        <ele>305.5</ele>
        <time>2012-09-05T08:46:22.37</time>
      </trkpt>
      <trkpt lat="45.57649" lon="4.91348">
        <ele>305</ele>
        <time>2012-09-05T08:46:23.48</time>
      </trkpt>
      <trkpt lat="45.57662" lon="4.9135">
        <ele>306.5</ele>
        <time>2012-09-05T08:46:24.29</time>
      </trkpt>
      <trkpt lat="45.57674" lon="4.91352">
        <ele>308.5</ele>
        <time>2012-09-05T08:46:25.29</time>
      </trkpt>
      <trkpt lat="45.57701" lon="4.9137">
        <ele>308.5</ele>
        <time>2012-09-05T08:46:33.91</time>
      </trkpt>
      <trkpt lat="45.57772" lon="4.914">
        <ele>316</ele>
        <time>2012-09-05T08:46:37.91</time>
      </trkpt>
      <trkpt lat="45.57781" lon="4.91411">
        <ele>317.5</ele>
        <time>2012-09-05T08:46:38.91</time>
      </trkpt>
      <trkpt lat="45.5779" lon="4.9142">
        <ele>319</ele>
        <time>2012-09-05T08:46:39.88</time>
      </trkpt>
      <trkpt lat="45.57808" lon="4.91444">
        <ele>317</ele>
        <time>2012-09-05T08:46:41.90</time>
      </trkpt>
      <trkpt lat="45.57815" lon="4.91459">
        <ele>316.5</ele>
        <time>2012-09-05T08:46:42.99</time>
      </trkpt>
      <trkpt lat="45.57824" lon="4.91467">
        <ele>316</ele>
        <time>2012-09-05T08:46:44.07</time>
      </trkpt>
      <trkpt lat="45.57833" lon="4.91479">
        <ele>313.5</ele>
        <time>2012-09-05T08:46:44.88</time>
      </trkpt>
      <trkpt lat="45.57843" lon="4.91488">
        <ele>311</ele>
        <time>2012-09-05T08:46:45.85</time>
      </trkpt>
      <trkpt lat="45.57855" lon="4.91494">
        <ele>309.5</ele>
        <time>2012-09-05T08:46:46.94</time>
      </trkpt>
      <trkpt lat="45.57866" lon="4.91497">
        <ele>309</ele>
        <time>2012-09-05T08:46:47.84</time>
      </trkpt>
      <trkpt lat="45.57878" lon="4.915">
        <ele>307.5</ele>
        <time>2012-09-05T08:46:48.84</time>
      </trkpt>
      <trkpt lat="45.57889" lon="4.91502">
        <ele>306.5</ele>
        <time>2012-09-05T08:46:49.84</time>
      </trkpt>
      <trkpt lat="45.579" lon="4.91505">
        <ele>305.5</ele>
        <time>2012-09-05T08:46:50.86</time>
      </trkpt>
      <trkpt lat="45.57912" lon="4.91508">
        <ele>304.5</ele>
        <time>2012-09-05T08:46:51.84</time>
      </trkpt>
      <trkpt lat="45.57923" lon="4.91512">
        <ele>303</ele>
        <time>2012-09-05T08:46:52.85</time>
      </trkpt>
      <trkpt lat="45.57934" lon="4.91515">
        <ele>303</ele>
        <time>2012-09-05T08:46:53.81</time>
      </trkpt>
      <trkpt lat="45.57945" lon="4.91519">
        <ele>301.5</ele>
        <time>2012-09-05T08:46:54.82</time>
      </trkpt>
      <trkpt lat="45.57956" lon="4.91523">
        <ele>300.5</ele>
        <time>2012-09-05T08:46:55.84</time>
      </trkpt>
      <trkpt lat="45.57967" lon="4.91526">
        <ele>300.5</ele>
        <time>2012-09-05T08:46:56.80</time>
      </trkpt>
      <trkpt lat="45.57978" lon="4.91528">
        <ele>300</ele>
        <time>2012-09-05T08:46:57.83</time>
      </trkpt>
      <trkpt lat="45.57989" lon="4.91531">
        <ele>299</ele>
        <time>2012-09-05T08:46:58.79</time>
      </trkpt>
      <trkpt lat="45.57999" lon="4.91534">
        <ele>299.5</ele>
        <time>2012-09-05T08:46:59.81</time>
      </trkpt>
      <trkpt lat="45.58009" lon="4.91537">
        <ele>300</ele>
        <time>2012-09-05T08:47:00.79</time>
      </trkpt>
      <trkpt lat="45.58019" lon="4.9154">
        <ele>299</ele>
        <time>2012-09-05T08:47:01.78</time>
      </trkpt>
      <trkpt lat="45.58029" lon="4.91542">
        <ele>299.5</ele>
        <time>2012-09-05T08:47:02.81</time>
      </trkpt>
      <trkpt lat="45.58039" lon="4.91543">
        <ele>299.5</ele>
        <time>2012-09-05T08:47:03.77</time>
      </trkpt>
      <trkpt lat="45.58048" lon="4.91544">
        <ele>300</ele>
        <time>2012-09-05T08:47:04.80</time>
      </trkpt>
      <trkpt lat="45.58056" lon="4.91545">
        <ele>300.5</ele>
        <time>2012-09-05T08:47:05.76</time>
      </trkpt>
      <trkpt lat="45.58064" lon="4.91546">
        <ele>300</ele>
        <time>2012-09-05T08:47:06.79</time>
      </trkpt>
      <trkpt lat="45.58072" lon="4.91546">
        <ele>300</ele>
        <time>2012-09-05T08:47:07.75</time>
      </trkpt>
      <trkpt lat="45.58079" lon="4.91546">
        <ele>299.5</ele>
        <time>2012-09-05T08:47:08.84</time>
      </trkpt>
      <trkpt lat="45.58088" lon="4.91547">
        <ele>299.5</ele>
        <time>2012-09-05T08:47:09.74</time>
      </trkpt>
      <trkpt lat="45.58096" lon="4.91546">
        <ele>299</ele>
        <time>2012-09-05T08:47:10.77</time>
      </trkpt>
      <trkpt lat="45.58104" lon="4.91546">
        <ele>298.5</ele>
        <time>2012-09-05T08:47:11.73</time>
      </trkpt>
      <trkpt lat="45.58113" lon="4.91545">
        <ele>298.5</ele>
        <time>2012-09-05T08:47:12.75</time>
      </trkpt>
      <trkpt lat="45.5812" lon="4.91545">
        <ele>297.5</ele>
        <time>2012-09-05T08:47:13.72</time>
      </trkpt>
      <trkpt lat="45.58128" lon="4.91545">
        <ele>296.5</ele>
        <time>2012-09-05T08:47:14.71</time>
      </trkpt>
      <trkpt lat="45.58135" lon="4.91545">
        <ele>296.5</ele>
        <time>2012-09-05T08:47:15.71</time>
      </trkpt>
      <trkpt lat="45.58143" lon="4.91544">
        <ele>296</ele>
        <time>2012-09-05T08:47:16.70</time>
      </trkpt>
      <trkpt lat="45.58151" lon="4.91545">
        <ele>295.5</ele>
        <time>2012-09-05T08:47:17.73</time>
      </trkpt>
      <trkpt lat="45.5816" lon="4.91544">
        <ele>294.5</ele>
        <time>2012-09-05T08:47:18.69</time>
      </trkpt>
      <trkpt lat="45.58167" lon="4.91545">
        <ele>294</ele>
        <time>2012-09-05T08:47:19.69</time>
      </trkpt>
      <trkpt lat="45.58175" lon="4.91545">
        <ele>294.5</ele>
        <time>2012-09-05T08:47:20.70</time>
      </trkpt>
      <trkpt lat="45.58183" lon="4.91544">
        <ele>293</ele>
        <time>2012-09-05T08:47:21.72</time>
      </trkpt>
      <trkpt lat="45.58191" lon="4.91544">
        <ele>292.5</ele>
        <time>2012-09-05T08:47:22.69</time>
      </trkpt>
      <trkpt lat="45.58198" lon="4.91543">
        <ele>292.5</ele>
        <time>2012-09-05T08:47:23.69</time>
      </trkpt>
      <trkpt lat="45.58205" lon="4.91542">
        <ele>293</ele>
        <time>2012-09-05T08:47:24.68</time>
      </trkpt>
      <trkpt lat="45.58213" lon="4.91542">
        <ele>292</ele>
        <time>2012-09-05T08:47:25.70</time>
      </trkpt>
      <trkpt lat="45.58221" lon="4.91542">
        <ele>291.5</ele>
        <time>2012-09-05T08:47:26.67</time>
      </trkpt>
      <trkpt lat="45.58229" lon="4.91542">
        <ele>291.5</ele>
        <time>2012-09-05T08:47:27.69</time>
      </trkpt>
      <trkpt lat="45.58236" lon="4.91542">
        <ele>290.5</ele>
        <time>2012-09-05T08:47:28.65</time>
      </trkpt>
      <trkpt lat="45.58243" lon="4.91542">
        <ele>289.5</ele>
        <time>2012-09-05T08:47:29.65</time>
      </trkpt>
      <trkpt lat="45.58251" lon="4.91542">
        <ele>289</ele>
        <time>2012-09-05T08:47:30.66</time>
      </trkpt>
      <trkpt lat="45.58258" lon="4.91542">
        <ele>288.5</ele>
        <time>2012-09-05T08:47:31.63</time>
      </trkpt>
      <trkpt lat="45.58266" lon="4.91543">
        <ele>287.5</ele>
        <time>2012-09-05T08:47:32.66</time>
      </trkpt>
      <trkpt lat="45.58273" lon="4.91543">
        <ele>286.5</ele>
        <time>2012-09-05T08:47:33.62</time>
      </trkpt>
      <trkpt lat="45.5828" lon="4.91543">
        <ele>286</ele>
        <time>2012-09-05T08:47:34.69</time>
      </trkpt>
      <trkpt lat="45.58287" lon="4.91544">
        <ele>285.5</ele>
        <time>2012-09-05T08:47:35.77</time>
      </trkpt>
      <trkpt lat="45.58294" lon="4.91543">
        <ele>284.5</ele>
        <time>2012-09-05T08:47:36.62</time>
      </trkpt>
      <trkpt lat="45.58301" lon="4.91541">
        <ele>283.5</ele>
        <time>2012-09-05T08:47:37.62</time>
      </trkpt>
      <trkpt lat="45.58308" lon="4.91539">
        <ele>283.5</ele>
        <time>2012-09-05T08:47:38.64</time>
      </trkpt>
      <trkpt lat="45.58314" lon="4.91537">
        <ele>283.5</ele>
        <time>2012-09-05T08:47:39.61</time>
      </trkpt>
      <trkpt lat="45.58321" lon="4.91536">
        <ele>283.5</ele>
        <time>2012-09-05T08:47:40.62</time>
      </trkpt>
      <trkpt lat="45.58328" lon="4.91536">
        <ele>283.5</ele>
        <time>2012-09-05T08:47:41.60</time>
      </trkpt>
      <trkpt lat="45.58335" lon="4.91535">
        <ele>283.5</ele>
        <time>2012-09-05T08:47:42.59</time>
      </trkpt>
      <trkpt lat="45.58342" lon="4.91534">
        <ele>282.5</ele>
        <time>2012-09-05T08:47:43.62</time>
      </trkpt>
      <trkpt lat="45.58348" lon="4.91534">
        <ele>282.5</ele>
        <time>2012-09-05T08:47:44.58</time>
      </trkpt>
      <trkpt lat="45.58355" lon="4.91534">
        <ele>282.5</ele>
        <time>2012-09-05T08:47:45.58</time>
      </trkpt>
      <trkpt lat="45.58362" lon="4.91533">
        <ele>281</ele>
        <time>2012-09-05T08:47:46.57</time>
      </trkpt>
      <trkpt lat="45.58369" lon="4.91532">
        <ele>280</ele>
        <time>2012-09-05T08:47:47.60</time>
      </trkpt>
      <trkpt lat="45.58376" lon="4.91532">
        <ele>280.5</ele>
        <time>2012-09-05T08:47:48.56</time>
      </trkpt>
      <trkpt lat="45.58383" lon="4.91531">
        <ele>280.5</ele>
        <time>2012-09-05T08:47:49.60</time>
      </trkpt>
      <trkpt lat="45.58389" lon="4.9153">
        <ele>280</ele>
        <time>2012-09-05T08:47:50.56</time>
      </trkpt>
      <trkpt lat="45.58396" lon="4.9153">
        <ele>280.5</ele>
        <time>2012-09-05T08:47:51.60</time>
      </trkpt>
      <trkpt lat="45.58403" lon="4.91528">
        <ele>280</ele>
        <time>2012-09-05T08:47:52.56</time>
      </trkpt>
      <trkpt lat="45.58409" lon="4.91526">
        <ele>279</ele>
        <time>2012-09-05T08:47:53.59</time>
      </trkpt>
      <trkpt lat="45.58416" lon="4.91524">
        <ele>278.5</ele>
        <time>2012-09-05T08:47:54.55</time>
      </trkpt>
      <trkpt lat="45.58422" lon="4.91522">
        <ele>278.5</ele>
        <time>2012-09-05T08:47:55.56</time>
      </trkpt>
      <trkpt lat="45.58429" lon="4.91522">
        <ele>278</ele>
        <time>2012-09-05T08:47:56.58</time>
      </trkpt>
      <trkpt lat="45.58435" lon="4.9152">
        <ele>278.5</ele>
        <time>2012-09-05T08:47:57.54</time>
      </trkpt>
      <trkpt lat="45.58441" lon="4.91518">
        <ele>278</ele>
        <time>2012-09-05T08:47:58.54</time>
      </trkpt>
      <trkpt lat="45.58447" lon="4.91516">
        <ele>277.5</ele>
        <time>2012-09-05T08:47:59.53</time>
      </trkpt>
      <trkpt lat="45.58453" lon="4.91515">
        <ele>277.5</ele>
        <time>2012-09-05T08:48:00.56</time>
      </trkpt>
      <trkpt lat="45.58459" lon="4.91514">
        <ele>277.5</ele>
        <time>2012-09-05T08:48:01.52</time>
      </trkpt>
      <trkpt lat="45.58466" lon="4.91512">
        <ele>277</ele>
        <time>2012-09-05T08:48:02.52</time>
      </trkpt>
      <trkpt lat="45.58472" lon="4.91511">
        <ele>277</ele>
        <time>2012-09-05T08:48:03.52</time>
      </trkpt>
      <trkpt lat="45.58478" lon="4.91508">
        <ele>276</ele>
        <time>2012-09-05T08:48:04.54</time>
      </trkpt>
      <trkpt lat="45.58484" lon="4.91506">
        <ele>275.5</ele>
        <time>2012-09-05T08:48:05.51</time>
      </trkpt>
      <trkpt lat="45.5849" lon="4.91503">
        <ele>275</ele>
        <time>2012-09-05T08:48:06.59</time>
      </trkpt>
      <trkpt lat="45.58496" lon="4.915">
        <ele>275</ele>
        <time>2012-09-05T08:48:07.49</time>
      </trkpt>
      <trkpt lat="45.58501" lon="4.91496">
        <ele>275</ele>
        <time>2012-09-05T08:48:08.50</time>
      </trkpt>
      <trkpt lat="45.58505" lon="4.9149">
        <ele>275.5</ele>
        <time>2012-09-05T08:48:09.52</time>
      </trkpt>
      <trkpt lat="45.5851" lon="4.91484">
        <ele>275.5</ele>
        <time>2012-09-05T08:48:10.60</time>
      </trkpt>
      <trkpt lat="45.58515" lon="4.91481">
        <ele>276</ele>
        <time>2012-09-05T08:48:11.47</time>
      </trkpt>
      <trkpt lat="45.5852" lon="4.91479">
        <ele>276</ele>
        <time>2012-09-05T08:48:12.64</time>
      </trkpt>
      <trkpt lat="45.58526" lon="4.91477">
        <ele>276</ele>
        <time>2012-09-05T08:48:13.46</time>
      </trkpt>
      <trkpt lat="45.58532" lon="4.91473">
        <ele>275.5</ele>
        <time>2012-09-05T08:48:14.49</time>
      </trkpt>
      <trkpt lat="45.58536" lon="4.91467">
        <ele>275</ele>
        <time>2012-09-05T08:48:15.45</time>
      </trkpt>
      <trkpt lat="45.5854" lon="4.9146">
        <ele>275</ele>
        <time>2012-09-05T08:48:16.54</time>
      </trkpt>
      <trkpt lat="45.58541" lon="4.91452">
        <ele>275.5</ele>
        <time>2012-09-05T08:48:17.62</time>
      </trkpt>
      <trkpt lat="45.58542" lon="4.91445">
        <ele>276</ele>
        <time>2012-09-05T08:48:18.70</time>
      </trkpt>
      <trkpt lat="45.58544" lon="4.91437">
        <ele>276</ele>
        <time>2012-09-05T08:48:19.77</time>
      </trkpt>
      <trkpt lat="45.58552" lon="4.91429">
        <ele>275</ele>
        <time>2012-09-05T08:48:21.44</time>
      </trkpt>
      <trkpt lat="45.58557" lon="4.91423">
        <ele>275</ele>
        <time>2012-09-05T08:48:22.47</time>
      </trkpt>
      <trkpt lat="45.58562" lon="4.9142">
        <ele>275.5</ele>
        <time>2012-09-05T08:48:23.55</time>
      </trkpt>
      <trkpt lat="45.58564" lon="4.91416">
        <ele>275.5</ele>
        <time>2012-09-05T08:48:24.64</time>
      </trkpt>
      <trkpt lat="45.58576" lon="4.91415">
        <ele>277</ele>
        <time>2012-09-05T08:48:26.47</time>
      </trkpt>
      <trkpt lat="45.58582" lon="4.91413">
        <ele>277</ele>
        <time>2012-09-05T08:48:27.55</time>
      </trkpt>
      <trkpt lat="45.58588" lon="4.91411">
        <ele>277</ele>
        <time>2012-09-05T08:48:28.41</time>
      </trkpt>
      <trkpt lat="45.58594" lon="4.9141">
        <ele>277</ele>
        <time>2012-09-05T08:48:29.42</time>
      </trkpt>
      <trkpt lat="45.58599" lon="4.91408">
        <ele>277.5</ele>
        <time>2012-09-05T08:48:30.50</time>
      </trkpt>
      <trkpt lat="45.58605" lon="4.91406">
        <ele>277.5</ele>
        <time>2012-09-05T08:48:31.39</time>
      </trkpt>
      <trkpt lat="45.5861" lon="4.91404">
        <ele>278</ele>
        <time>2012-09-05T08:48:32.45</time>
      </trkpt>
      <trkpt lat="45.58615" lon="4.91402">
        <ele>279</ele>
        <time>2012-09-05T08:48:33.38</time>
      </trkpt>
      <trkpt lat="45.58621" lon="4.914">
        <ele>279</ele>
        <time>2012-09-05T08:48:34.40</time>
      </trkpt>
      <trkpt lat="45.58627" lon="4.91399">
        <ele>279</ele>
        <time>2012-09-05T08:48:35.40</time>
      </trkpt>
      <trkpt lat="45.58633" lon="4.91398">
        <ele>279</ele>
        <time>2012-09-05T08:48:36.37</time>
      </trkpt>
      <trkpt lat="45.58639" lon="4.91396">
        <ele>279.5</ele>
        <time>2012-09-05T08:48:37.37</time>
      </trkpt>
      <trkpt lat="45.58645" lon="4.91395">
        <ele>280.5</ele>
        <time>2012-09-05T08:48:38.43</time>
      </trkpt>
      <trkpt lat="45.58651" lon="4.91394">
        <ele>280</ele>
        <time>2012-09-05T08:48:39.35</time>
      </trkpt>
      <trkpt lat="45.58657" lon="4.91393">
        <ele>280</ele>
        <time>2012-09-05T08:48:40.42</time>
      </trkpt>
      <trkpt lat="45.58663" lon="4.91393">
        <ele>280</ele>
        <time>2012-09-05T08:48:41.34</time>
      </trkpt>
      <trkpt lat="45.58669" lon="4.91393">
        <ele>280</ele>
        <time>2012-09-05T08:48:42.35</time>
      </trkpt>
      <trkpt lat="45.58674" lon="4.91394">
        <ele>280</ele>
        <time>2012-09-05T08:48:43.36</time>
      </trkpt>
      <trkpt lat="45.58679" lon="4.91394">
        <ele>280</ele>
        <time>2012-09-05T08:48:44.39</time>
      </trkpt>
      <trkpt lat="45.58685" lon="4.91395">
        <ele>280</ele>
        <time>2012-09-05T08:48:45.32</time>
      </trkpt>
      <trkpt lat="45.5869" lon="4.91395">
        <ele>281.5</ele>
        <time>2012-09-05T08:48:46.33</time>
      </trkpt>
      <trkpt lat="45.58695" lon="4.91399">
        <ele>283</ele>
        <time>2012-09-05T08:48:48.34</time>
      </trkpt>
      <trkpt lat="45.58702" lon="4.91405">
        <ele>283</ele>
        <time>2012-09-05T08:48:50.35</time>
      </trkpt>
      <trkpt lat="45.58708" lon="4.91408">
        <ele>283.5</ele>
        <time>2012-09-05T08:48:51.43</time>
      </trkpt>
      <trkpt lat="45.58715" lon="4.9141">
        <ele>284</ele>
        <time>2012-09-05T08:48:52.30</time>
      </trkpt>
      <trkpt lat="45.58721" lon="4.91412">
        <ele>284</ele>
        <time>2012-09-05T08:48:53.32</time>
      </trkpt>
      <trkpt lat="45.58728" lon="4.91415">
        <ele>283.5</ele>
        <time>2012-09-05T08:48:54.30</time>
      </trkpt>
      <trkpt lat="45.58733" lon="4.91417">
        <ele>283.5</ele>
        <time>2012-09-05T08:48:55.29</time>
      </trkpt>
      <trkpt lat="45.58738" lon="4.91418">
        <ele>284.5</ele>
        <time>2012-09-05T08:48:56.34</time>
      </trkpt>
      <trkpt lat="45.58743" lon="4.91421">
        <ele>285</ele>
        <time>2012-09-05T08:48:57.27</time>
      </trkpt>
      <trkpt lat="45.58748" lon="4.91424">
        <ele>285</ele>
        <time>2012-09-05T08:48:58.35</time>
      </trkpt>
      <trkpt lat="45.58754" lon="4.91427">
        <ele>285</ele>
        <time>2012-09-05T08:48:59.27</time>
      </trkpt>
      <trkpt lat="45.58759" lon="4.91429">
        <ele>285.5</ele>
        <time>2012-09-05T08:49:00.29</time>
      </trkpt>
      <trkpt lat="45.58764" lon="4.91432">
        <ele>285.5</ele>
        <time>2012-09-05T08:49:01.26</time>
      </trkpt>
      <trkpt lat="45.5877" lon="4.91433">
        <ele>286</ele>
        <time>2012-09-05T08:49:02.32</time>
      </trkpt>
      <trkpt lat="45.58775" lon="4.91435">
        <ele>286.5</ele>
        <time>2012-09-05T08:49:03.24</time>
      </trkpt>
      <trkpt lat="45.5878" lon="4.91436">
        <ele>288</ele>
        <time>2012-09-05T08:49:04.24</time>
      </trkpt>
      <trkpt lat="45.58785" lon="4.91437">
        <ele>288.5</ele>
        <time>2012-09-05T08:49:05.25</time>
      </trkpt>
      <trkpt lat="45.5879" lon="4.91439">
        <ele>288.5</ele>
        <time>2012-09-05T08:49:06.22</time>
      </trkpt>
      <trkpt lat="45.58795" lon="4.9144">
        <ele>289</ele>
        <time>2012-09-05T08:49:07.24</time>
      </trkpt>
      <trkpt lat="45.588" lon="4.91441">
        <ele>288.5</ele>
        <time>2012-09-05T08:49:08.32</time>
      </trkpt>
      <trkpt lat="45.58805" lon="4.91442">
        <ele>289</ele>
        <time>2012-09-05T08:49:09.40</time>
      </trkpt>
      <trkpt lat="45.5881" lon="4.91444">
        <ele>289.5</ele>
        <time>2012-09-05T08:49:10.20</time>
      </trkpt>
      <trkpt lat="45.58816" lon="4.91446">
        <ele>289</ele>
        <time>2012-09-05T08:49:11.28</time>
      </trkpt>
      <trkpt lat="45.58822" lon="4.91449">
        <ele>289</ele>
        <time>2012-09-05T08:49:12.19</time>
      </trkpt>
      <trkpt lat="45.58828" lon="4.91451">
        <ele>289</ele>
        <time>2012-09-05T08:49:13.22</time>
      </trkpt>
      <trkpt lat="45.58833" lon="4.91453">
        <ele>289</ele>
        <time>2012-09-05T08:49:14.18</time>
      </trkpt>
      <trkpt lat="45.58839" lon="4.91454">
        <ele>289</ele>
        <time>2012-09-05T08:49:15.25</time>
      </trkpt>
      <trkpt lat="45.58845" lon="4.91456">
        <ele>289.5</ele>
        <time>2012-09-05T08:49:16.16</time>
      </trkpt>
      <trkpt lat="45.5885" lon="4.91458">
        <ele>290</ele>
        <time>2012-09-05T08:49:17.59</time>
      </trkpt>
      <trkpt lat="45.58861" lon="4.91462">
        <ele>291</ele>
        <time>2012-09-05T08:49:19.14</time>
      </trkpt>
      <trkpt lat="45.58867" lon="4.91463">
        <ele>291</ele>
        <time>2012-09-05T08:49:20.22</time>
      </trkpt>
      <trkpt lat="45.58872" lon="4.91464">
        <ele>290.5</ele>
        <time>2012-09-05T08:49:21.13</time>
      </trkpt>
      <trkpt lat="45.58877" lon="4.91465">
        <ele>291.5</ele>
        <time>2012-09-05T08:49:22.14</time>
      </trkpt>
      <trkpt lat="45.58882" lon="4.91466">
        <ele>292</ele>
        <time>2012-09-05T08:49:23.16</time>
      </trkpt>
      <trkpt lat="45.58887" lon="4.91467">
        <ele>292</ele>
        <time>2012-09-05T08:49:24.12</time>
      </trkpt>
      <trkpt lat="45.58892" lon="4.91468">
        <ele>291</ele>
        <time>2012-09-05T08:49:25.20</time>
      </trkpt>
      <trkpt lat="45.58896" lon="4.91469">
        <ele>292</ele>
        <time>2012-09-05T08:49:26.10</time>
      </trkpt>
      <trkpt lat="45.58901" lon="4.9147">
        <ele>292.5</ele>
        <time>2012-09-05T08:49:27.13</time>
      </trkpt>
      <trkpt lat="45.58906" lon="4.9147">
        <ele>292</ele>
        <time>2012-09-05T08:49:28.09</time>
      </trkpt>
      <trkpt lat="45.58911" lon="4.91472">
        <ele>292.5</ele>
        <time>2012-09-05T08:49:29.22</time>
      </trkpt>
      <trkpt lat="45.58915" lon="4.91473">
        <ele>294.5</ele>
        <time>2012-09-05T08:49:30.07</time>
      </trkpt>
      <trkpt lat="45.58919" lon="4.91474">
        <ele>296</ele>
        <time>2012-09-05T08:49:31.10</time>
      </trkpt>
      <trkpt lat="45.58923" lon="4.91475">
        <ele>297.5</ele>
        <time>2012-09-05T08:49:32.06</time>
      </trkpt>
      <trkpt lat="45.58927" lon="4.91478">
        <ele>299</ele>
        <time>2012-09-05T08:49:33.09</time>
      </trkpt>
      <trkpt lat="45.58931" lon="4.91482">
        <ele>300</ele>
        <time>2012-09-05T08:49:34.05</time>
      </trkpt>
      <trkpt lat="45.58936" lon="4.91483">
        <ele>302</ele>
        <time>2012-09-05T08:49:35.06</time>
      </trkpt>
      <trkpt lat="45.58941" lon="4.91484">
        <ele>303</ele>
        <time>2012-09-05T08:49:36.13</time>
      </trkpt>
      <trkpt lat="45.58945" lon="4.91486">
        <ele>303.5</ele>
        <time>2012-09-05T08:49:37.02</time>
      </trkpt>
      <trkpt lat="45.5895" lon="4.91487">
        <ele>304</ele>
        <time>2012-09-05T08:49:38.09</time>
      </trkpt>
      <trkpt lat="45.58954" lon="4.91488">
        <ele>304</ele>
        <time>2012-09-05T08:49:39.02</time>
      </trkpt>
      <trkpt lat="45.58959" lon="4.91489">
        <ele>304</ele>
        <time>2012-09-05T08:49:40.05</time>
      </trkpt>
      <trkpt lat="45.58963" lon="4.91489">
        <ele>304.5</ele>
        <time>2012-09-05T08:49:41.02</time>
      </trkpt>
      <trkpt lat="45.58968" lon="4.9149">
        <ele>304.5</ele>
        <time>2012-09-05T08:49:42.02</time>
      </trkpt>
      <trkpt lat="45.58972" lon="4.91492">
        <ele>304.5</ele>
        <time>2012-09-05T08:49:43.10</time>
      </trkpt>
      <trkpt lat="45.58976" lon="4.91493">
        <ele>304.5</ele>
        <time>2012-09-05T08:49:43.99</time>
      </trkpt>
      <trkpt lat="45.5898" lon="4.91495">
        <ele>305</ele>
        <time>2012-09-05T08:49:45.08</time>
      </trkpt>
      <trkpt lat="45.58983" lon="4.91496">
        <ele>306</ele>
        <time>2012-09-05T08:49:46.18</time>
      </trkpt>
      <trkpt lat="45.58988" lon="4.91498">
        <ele>306</ele>
        <time>2012-09-05T08:49:47.38</time>
      </trkpt>
      <trkpt lat="45.58996" lon="4.91501">
        <ele>306</ele>
        <time>2012-09-05T08:49:49.01</time>
      </trkpt>
      <trkpt lat="45.59" lon="4.91502">
        <ele>305</ele>
        <time>2012-09-05T08:49:50.08</time>
      </trkpt>
      <trkpt lat="45.59005" lon="4.91504">
        <ele>305</ele>
        <time>2012-09-05T08:49:50.96</time>
      </trkpt>
      <trkpt lat="45.59009" lon="4.91505">
        <ele>305.5</ele>
        <time>2012-09-05T08:49:51.96</time>
      </trkpt>
      <trkpt lat="45.59013" lon="4.91507">
        <ele>305.5</ele>
        <time>2012-09-05T08:49:52.99</time>
      </trkpt>
      <trkpt lat="45.59018" lon="4.9151">
        <ele>305.5</ele>
        <time>2012-09-05T08:49:53.95</time>
      </trkpt>
      <trkpt lat="45.59022" lon="4.91512">
        <ele>305.5</ele>
        <time>2012-09-05T08:49:54.98</time>
      </trkpt>
      <trkpt lat="45.59027" lon="4.91513">
        <ele>305</ele>
        <time>2012-09-05T08:49:55.94</time>
      </trkpt>
      <trkpt lat="45.59031" lon="4.91516">
        <ele>305.5</ele>
        <time>2012-09-05T08:49:56.97</time>
      </trkpt>
      <trkpt lat="45.59036" lon="4.91518">
        <ele>305.5</ele>
        <time>2012-09-05T08:49:57.93</time>
      </trkpt>
      <trkpt lat="45.59041" lon="4.91519">
        <ele>304.5</ele>
        <time>2012-09-05T08:49:58.96</time>
      </trkpt>
      <trkpt lat="45.59045" lon="4.91521">
        <ele>304.5</ele>
        <time>2012-09-05T08:49:59.92</time>
      </trkpt>
      <trkpt lat="45.5905" lon="4.91523">
        <ele>304</ele>
        <time>2012-09-05T08:50:00.94</time>
      </trkpt>
      <trkpt lat="45.59054" lon="4.91524">
        <ele>303</ele>
        <time>2012-09-05T08:50:01.91</time>
      </trkpt>
      <trkpt lat="45.59059" lon="4.91525">
        <ele>303</ele>
        <time>2012-09-05T08:50:03.02</time>
      </trkpt>
      <trkpt lat="45.59064" lon="4.91527">
        <ele>302</ele>
        <time>2012-09-05T08:50:03.89</time>
      </trkpt>
      <trkpt lat="45.59068" lon="4.91528">
        <ele>302</ele>
        <time>2012-09-05T08:50:04.89</time>
      </trkpt>
      <trkpt lat="45.59073" lon="4.9153">
        <ele>300.5</ele>
        <time>2012-09-05T08:50:05.91</time>
      </trkpt>
      <trkpt lat="45.59077" lon="4.91531">
        <ele>300.5</ele>
        <time>2012-09-05T08:50:06.87</time>
      </trkpt>
      <trkpt lat="45.59082" lon="4.91533">
        <ele>301</ele>
        <time>2012-09-05T08:50:07.87</time>
      </trkpt>
      <trkpt lat="45.59086" lon="4.91534">
        <ele>301.5</ele>
        <time>2012-09-05T08:50:08.86</time>
      </trkpt>
      <trkpt lat="45.59091" lon="4.91535">
        <ele>301</ele>
        <time>2012-09-05T08:50:09.88</time>
      </trkpt>
      <trkpt lat="45.59095" lon="4.91534">
        <ele>301</ele>
        <time>2012-09-05T08:50:10.85</time>
      </trkpt>
      <trkpt lat="45.59099" lon="4.91531">
        <ele>301</ele>
        <time>2012-09-05T08:50:11.87</time>
      </trkpt>
      <trkpt lat="45.59102" lon="4.91528">
        <ele>302</ele>
        <time>2012-09-05T08:50:12.83</time>
      </trkpt>
      <trkpt lat="45.59105" lon="4.91527">
        <ele>301.5</ele>
        <time>2012-09-05T08:50:13.83</time>
      </trkpt>
      <trkpt lat="45.59107" lon="4.91523">
        <ele>302</ele>
        <time>2012-09-05T08:50:14.92</time>
      </trkpt>
      <trkpt lat="45.59109" lon="4.91517">
        <ele>302.5</ele>
        <time>2012-09-05T08:50:16.05</time>
      </trkpt>
      <trkpt lat="45.5911" lon="4.91511">
        <ele>300.5</ele>
        <time>2012-09-05T08:50:16.82</time>
      </trkpt>
      <trkpt lat="45.5911" lon="4.91506">
        <ele>300</ele>
        <time>2012-09-05T08:50:17.83</time>
      </trkpt>
      <trkpt lat="45.5911" lon="4.915">
        <ele>300</ele>
        <time>2012-09-05T08:50:18.85</time>
      </trkpt>
      <trkpt lat="45.59112" lon="4.91494">
        <ele>299.5</ele>
        <time>2012-09-05T08:50:19.81</time>
      </trkpt>
      <trkpt lat="45.59112" lon="4.91489">
        <ele>299</ele>
        <time>2012-09-05T08:50:20.84</time>
      </trkpt>
      <trkpt lat="45.59113" lon="4.91484">
        <ele>299.5</ele>
        <time>2012-09-05T08:50:21.80</time>
      </trkpt>
      <trkpt lat="45.59115" lon="4.91478">
        <ele>299.5</ele>
        <time>2012-09-05T08:50:22.83</time>
      </trkpt>
      <trkpt lat="45.59116" lon="4.91472">
        <ele>299.5</ele>
        <time>2012-09-05T08:50:23.80</time>
      </trkpt>
      <trkpt lat="45.59117" lon="4.91466">
        <ele>299.5</ele>
        <time>2012-09-05T08:50:24.82</time>
      </trkpt>
      <trkpt lat="45.59118" lon="4.9146">
        <ele>298.5</ele>
        <time>2012-09-05T08:50:25.79</time>
      </trkpt>
      <trkpt lat="45.59118" lon="4.91455">
        <ele>298</ele>
        <time>2012-09-05T08:50:26.82</time>
      </trkpt>
      <trkpt lat="45.59119" lon="4.91449">
        <ele>299</ele>
        <time>2012-09-05T08:50:27.77</time>
      </trkpt>
      <trkpt lat="45.59115" lon="4.91433">
        <ele>298</ele>
        <time>2012-09-05T08:50:29.80</time>
      </trkpt>
      <trkpt lat="45.59118" lon="4.91424">
        <ele>298</ele>
        <time>2012-09-05T08:50:30.92</time>
      </trkpt>
      <trkpt lat="45.59119" lon="4.91416">
        <ele>298</ele>
        <time>2012-09-05T08:50:31.79</time>
      </trkpt>
      <trkpt lat="45.59119" lon="4.91407">
        <ele>299</ele>
        <time>2012-09-05T08:50:32.77</time>
      </trkpt>
      <trkpt lat="45.59121" lon="4.91399">
        <ele>299</ele>
        <time>2012-09-05T08:50:33.76</time>
      </trkpt>
      <trkpt lat="45.59121" lon="4.9139">
        <ele>299</ele>
        <time>2012-09-05T08:50:34.79</time>
      </trkpt>
      <trkpt lat="45.59122" lon="4.9138">
        <ele>298.5</ele>
        <time>2012-09-05T08:50:35.76</time>
      </trkpt>
      <trkpt lat="45.59124" lon="4.9137">
        <ele>298.5</ele>
        <time>2012-09-05T08:50:36.75</time>
      </trkpt>
      <trkpt lat="45.59125" lon="4.91361">
        <ele>298.5</ele>
        <time>2012-09-05T08:50:37.81</time>
      </trkpt>
      <trkpt lat="45.59127" lon="4.91353">
        <ele>299</ele>
        <time>2012-09-05T08:50:38.74</time>
      </trkpt>
      <trkpt lat="45.59128" lon="4.91343">
        <ele>298.5</ele>
        <time>2012-09-05T08:50:39.77</time>
      </trkpt>
      <trkpt lat="45.5913" lon="4.91334">
        <ele>298</ele>
        <time>2012-09-05T08:50:40.73</time>
      </trkpt>
      <trkpt lat="45.59131" lon="4.91324">
        <ele>297.5</ele>
        <time>2012-09-05T08:50:41.76</time>
      </trkpt>
      <trkpt lat="45.59132" lon="4.91315">
        <ele>297.5</ele>
        <time>2012-09-05T08:50:42.71</time>
      </trkpt>
      <trkpt lat="45.59134" lon="4.91307">
        <ele>297.5</ele>
        <time>2012-09-05T08:50:43.74</time>
      </trkpt>
      <trkpt lat="45.59134" lon="4.91298">
        <ele>297</ele>
        <time>2012-09-05T08:50:44.71</time>
      </trkpt>
      <trkpt lat="45.59135" lon="4.91289">
        <ele>297</ele>
        <time>2012-09-05T08:50:45.74</time>
      </trkpt>
      <trkpt lat="45.59135" lon="4.9128">
        <ele>296.5</ele>
        <time>2012-09-05T08:50:46.70</time>
      </trkpt>
      <trkpt lat="45.59136" lon="4.91271">
        <ele>296.5</ele>
        <time>2012-09-05T08:50:47.71</time>
      </trkpt>
      <trkpt lat="45.59137" lon="4.91263">
        <ele>296.5</ele>
        <time>2012-09-05T08:50:48.70</time>
      </trkpt>
      <trkpt lat="45.59138" lon="4.91254">
        <ele>296</ele>
        <time>2012-09-05T08:50:49.72</time>
      </trkpt>
      <trkpt lat="45.59139" lon="4.91245">
        <ele>295.5</ele>
        <time>2012-09-05T08:50:50.69</time>
      </trkpt>
      <trkpt lat="45.59139" lon="4.91236">
        <ele>295.5</ele>
        <time>2012-09-05T08:50:51.73</time>
      </trkpt>
      <trkpt lat="45.5914" lon="4.91228">
        <ele>295</ele>
        <time>2012-09-05T08:50:52.69</time>
      </trkpt>
      <trkpt lat="45.59141" lon="4.9122">
        <ele>295</ele>
        <time>2012-09-05T08:50:53.71</time>
      </trkpt>
      <trkpt lat="45.59141" lon="4.91212">
        <ele>295</ele>
        <time>2012-09-05T08:50:54.68</time>
      </trkpt>
      <trkpt lat="45.59142" lon="4.91204">
        <ele>295</ele>
        <time>2012-09-05T08:50:55.73</time>
      </trkpt>
      <trkpt lat="45.59142" lon="4.91197">
        <ele>294.5</ele>
        <time>2012-09-05T08:50:56.67</time>
      </trkpt>
      <trkpt lat="45.59142" lon="4.91189">
        <ele>294.5</ele>
        <time>2012-09-05T08:50:57.70</time>
      </trkpt>
      <trkpt lat="45.59143" lon="4.91182">
        <ele>294.5</ele>
        <time>2012-09-05T08:50:58.66</time>
      </trkpt>
      <trkpt lat="45.59144" lon="4.91174">
        <ele>294</ele>
        <time>2012-09-05T08:50:59.66</time>
      </trkpt>
      <trkpt lat="45.59144" lon="4.91167">
        <ele>294.5</ele>
        <time>2012-09-05T08:51:00.65</time>
      </trkpt>
      <trkpt lat="45.59145" lon="4.9116">
        <ele>295</ele>
        <time>2012-09-05T08:51:01.70</time>
      </trkpt>
      <trkpt lat="45.59145" lon="4.91153">
        <ele>296</ele>
        <time>2012-09-05T08:51:02.64</time>
      </trkpt>
      <trkpt lat="45.59146" lon="4.91145">
        <ele>296.5</ele>
        <time>2012-09-05T08:51:03.68</time>
      </trkpt>
      <trkpt lat="45.59147" lon="4.91137">
        <ele>296.5</ele>
        <time>2012-09-05T08:51:04.66</time>
      </trkpt>
      <trkpt lat="45.59147" lon="4.9113">
        <ele>297</ele>
        <time>2012-09-05T08:51:05.64</time>
      </trkpt>
      <trkpt lat="45.59148" lon="4.91122">
        <ele>297</ele>
        <time>2012-09-05T08:51:07.03</time>
      </trkpt>
      <trkpt lat="45.59149" lon="4.91106">
        <ele>297.5</ele>
        <time>2012-09-05T08:51:08.66</time>
      </trkpt>
      <trkpt lat="45.59149" lon="4.91099">
        <ele>297.5</ele>
        <time>2012-09-05T08:51:09.63</time>
      </trkpt>
      <trkpt lat="45.59149" lon="4.91092">
        <ele>298</ele>
        <time>2012-09-05T08:51:10.64</time>
      </trkpt>
      <trkpt lat="45.5915" lon="4.91086">
        <ele>299</ele>
        <time>2012-09-05T08:51:11.61</time>
      </trkpt>
      <trkpt lat="45.59151" lon="4.9108">
        <ele>298</ele>
        <time>2012-09-05T08:51:12.61</time>
      </trkpt>
      <trkpt lat="45.59151" lon="4.91061">
        <ele>297</ele>
        <time>2012-09-05T08:51:14.63</time>
      </trkpt>
      <trkpt lat="45.5915" lon="4.91054">
        <ele>297</ele>
        <time>2012-09-05T08:51:15.59</time>
      </trkpt>
      <trkpt lat="45.5915" lon="4.91048">
        <ele>297.5</ele>
        <time>2012-09-05T08:51:16.62</time>
      </trkpt>
      <trkpt lat="45.5915" lon="4.9104">
        <ele>297.5</ele>
        <time>2012-09-05T08:51:17.58</time>
      </trkpt>
      <trkpt lat="45.59151" lon="4.91032">
        <ele>298</ele>
        <time>2012-09-05T08:51:18.61</time>
      </trkpt>
      <trkpt lat="45.59151" lon="4.91024">
        <ele>298.5</ele>
        <time>2012-09-05T08:51:19.59</time>
      </trkpt>
      <trkpt lat="45.59151" lon="4.91017">
        <ele>299.5</ele>
        <time>2012-09-05T08:51:20.58</time>
      </trkpt>
      <trkpt lat="45.59151" lon="4.91009">
        <ele>299.5</ele>
        <time>2012-09-05T08:51:21.57</time>
      </trkpt>
      <trkpt lat="45.59151" lon="4.91002">
        <ele>299</ele>
        <time>2012-09-05T08:51:22.60</time>
      </trkpt>
      <trkpt lat="45.59151" lon="4.90995">
        <ele>298.5</ele>
        <time>2012-09-05T08:51:23.57</time>
      </trkpt>
      <trkpt lat="45.5915" lon="4.90988">
        <ele>297</ele>
        <time>2012-09-05T08:51:24.57</time>
      </trkpt>
      <trkpt lat="45.5915" lon="4.90982">
        <ele>296.5</ele>
        <time>2012-09-05T08:51:25.61</time>
      </trkpt>
      <trkpt lat="45.59149" lon="4.90976">
        <ele>296</ele>
        <time>2012-09-05T08:51:26.56</time>
      </trkpt>
      <trkpt lat="45.59147" lon="4.9097">
        <ele>296.5</ele>
        <time>2012-09-05T08:51:27.58</time>
      </trkpt>
      <trkpt lat="45.59145" lon="4.90966">
        <ele>296.5</ele>
        <time>2012-09-05T08:51:28.55</time>
      </trkpt>
      <trkpt lat="45.59142" lon="4.90962">
        <ele>296.5</ele>
        <time>2012-09-05T08:51:29.59</time>
      </trkpt>
      <trkpt lat="45.59139" lon="4.90958">
        <ele>295.5</ele>
        <time>2012-09-05T08:51:30.53</time>
      </trkpt>
      <trkpt lat="45.59134" lon="4.90955">
        <ele>295</ele>
        <time>2012-09-05T08:51:31.59</time>
      </trkpt>
      <trkpt lat="45.5913" lon="4.90951">
        <ele>295</ele>
        <time>2012-09-05T08:51:32.52</time>
      </trkpt>
      <trkpt lat="45.59126" lon="4.90945">
        <ele>294.5</ele>
        <time>2012-09-05T08:51:33.55</time>
      </trkpt>
      <trkpt lat="45.59124" lon="4.90938">
        <ele>294</ele>
        <time>2012-09-05T08:51:34.51</time>
      </trkpt>
      <trkpt lat="45.59123" lon="4.90929">
        <ele>294</ele>
        <time>2012-09-05T08:51:35.54</time>
      </trkpt>
      <trkpt lat="45.59124" lon="4.90922">
        <ele>294</ele>
        <time>2012-09-05T08:51:36.51</time>
      </trkpt>
      <trkpt lat="45.59125" lon="4.90916">
        <ele>294</ele>
        <time>2012-09-05T08:51:37.55</time>
      </trkpt>
      <trkpt lat="45.59127" lon="4.90903">
        <ele>294</ele>
        <time>2012-09-05T08:51:39.52</time>
      </trkpt>
      <trkpt lat="45.59126" lon="4.90896">
        <ele>294</ele>
        <time>2012-09-05T08:51:40.52</time>
      </trkpt>
      <trkpt lat="45.59124" lon="4.90891">
        <ele>294</ele>
        <time>2012-09-05T08:51:41.49</time>
      </trkpt>
      <trkpt lat="45.59121" lon="4.90887">
        <ele>294.5</ele>
        <time>2012-09-05T08:51:42.66</time>
      </trkpt>
      <trkpt lat="45.59116" lon="4.90884">
        <ele>294.5</ele>
        <time>2012-09-05T08:51:43.46</time>
      </trkpt>
      <trkpt lat="45.59111" lon="4.90882">
        <ele>294</ele>
        <time>2012-09-05T08:51:44.49</time>
      </trkpt>
      <trkpt lat="45.59105" lon="4.9088">
        <ele>293</ele>
        <time>2012-09-05T08:51:45.45</time>
      </trkpt>
      <trkpt lat="45.59099" lon="4.90878">
        <ele>292.5</ele>
        <time>2012-09-05T08:51:46.45</time>
      </trkpt>
      <trkpt lat="45.59092" lon="4.90877">
        <ele>291.5</ele>
        <time>2012-09-05T08:51:47.48</time>
      </trkpt>
      <trkpt lat="45.59085" lon="4.90875">
        <ele>290.5</ele>
        <time>2012-09-05T08:51:48.43</time>
      </trkpt>
      <trkpt lat="45.59078" lon="4.90873">
        <ele>289</ele>
        <time>2012-09-05T08:51:49.45</time>
      </trkpt>
      <trkpt lat="45.5907" lon="4.90871">
        <ele>288.5</ele>
        <time>2012-09-05T08:51:50.41</time>
      </trkpt>
      <trkpt lat="45.59063" lon="4.90869">
        <ele>288</ele>
        <time>2012-09-05T08:51:51.43</time>
      </trkpt>
      <trkpt lat="45.59055" lon="4.90868">
        <ele>287.5</ele>
        <time>2012-09-05T08:51:52.39</time>
      </trkpt>
      <trkpt lat="45.59049" lon="4.90867">
        <ele>286.5</ele>
        <time>2012-09-05T08:51:53.43</time>
      </trkpt>
      <trkpt lat="45.59043" lon="4.90865">
        <ele>286.5</ele>
        <time>2012-09-05T08:51:54.39</time>
      </trkpt>
      <trkpt lat="45.59037" lon="4.90864">
        <ele>286</ele>
        <time>2012-09-05T08:51:55.41</time>
      </trkpt>
      <trkpt lat="45.59032" lon="4.90863">
        <ele>285.5</ele>
        <time>2012-09-05T08:51:56.38</time>
      </trkpt>
      <trkpt lat="45.59028" lon="4.90863">
        <ele>284.5</ele>
        <time>2012-09-05T08:51:57.38</time>
      </trkpt>
      <trkpt lat="45.59024" lon="4.90863">
        <ele>284</ele>
        <time>2012-09-05T08:51:58.41</time>
      </trkpt>
      <trkpt lat="45.59021" lon="4.90865">
        <ele>284</ele>
        <time>2012-09-05T08:51:59.37</time>
      </trkpt>
      <trkpt lat="45.59019" lon="4.90867">
        <ele>285</ele>
        <time>2012-09-05T08:52:00.40</time>
      </trkpt>
      <trkpt lat="45.59018" lon="4.90869">
        <ele>285</ele>
        <time>2012-09-05T08:52:01.49</time>
      </trkpt>
      <trkpt lat="45.59017" lon="4.90872">
        <ele>284.5</ele>
        <time>2012-09-05T08:52:02.36</time>
      </trkpt>
      <trkpt lat="45.59016" lon="4.90875">
        <ele>284</ele>
        <time>2012-09-05T08:52:03.39</time>
      </trkpt>
      <trkpt lat="45.59015" lon="4.90879">
        <ele>283.5</ele>
        <time>2012-09-05T08:52:04.80</time>
      </trkpt>
      <trkpt lat="45.59013" lon="4.90887">
        <ele>283.5</ele>
        <time>2012-09-05T08:52:06.37</time>
      </trkpt>
      <trkpt lat="45.59013" lon="4.9089">
        <ele>283.5</ele>
        <time>2012-09-05T08:52:07.34</time>
      </trkpt>
      <trkpt lat="45.59012" lon="4.90894">
        <ele>283</ele>
        <time>2012-09-05T08:52:08.36</time>
      </trkpt>
      <trkpt lat="45.59012" lon="4.90897">
        <ele>283</ele>
        <time>2012-09-05T08:52:09.33</time>
      </trkpt>
      <trkpt lat="45.59011" lon="4.90901">
        <ele>282.5</ele>
        <time>2012-09-05T08:52:10.36</time>
      </trkpt>
      <trkpt lat="45.59012" lon="4.90903">
        <ele>283</ele>
        <time>2012-09-05T08:52:11.33</time>
      </trkpt>
      <trkpt lat="45.59013" lon="4.90906">
        <ele>283.5</ele>
        <time>2012-09-05T08:52:12.35</time>
      </trkpt>
      <trkpt lat="45.59015" lon="4.90908">
        <ele>283</ele>
        <time>2012-09-05T08:52:13.32</time>
      </trkpt>
      <trkpt lat="45.59017" lon="4.90909">
        <ele>282.5</ele>
        <time>2012-09-05T08:52:14.31</time>
      </trkpt>
      <trkpt lat="45.59018" lon="4.90909">
        <ele>282</ele>
        <time>2012-09-05T08:52:15.34</time>
      </trkpt>
      <trkpt lat="45.59021" lon="4.9091">
        <ele>282</ele>
        <time>2012-09-05T08:52:16.31</time>
      </trkpt>
      <trkpt lat="45.59023" lon="4.90911">
        <ele>282</ele>
        <time>2012-09-05T08:52:17.33</time>
      </trkpt>
      <trkpt lat="45.59025" lon="4.90912">
        <ele>282</ele>
        <time>2012-09-05T08:52:18.29</time>
      </trkpt>
      <trkpt lat="45.59027" lon="4.90914">
        <ele>282.5</ele>
        <time>2012-09-05T08:52:19.32</time>
      </trkpt>
      <trkpt lat="45.59029" lon="4.90915">
        <ele>282</ele>
        <time>2012-09-05T08:52:20.29</time>
      </trkpt>
      <trkpt lat="45.59031" lon="4.90915">
        <ele>282.5</ele>
        <time>2012-09-05T08:52:21.31</time>
      </trkpt>
      <trkpt lat="45.59033" lon="4.90916">
        <ele>283.5</ele>
        <time>2012-09-05T08:52:22.28</time>
      </trkpt>
      <trkpt lat="45.59035" lon="4.90917">
        <ele>283.5</ele>
        <time>2012-09-05T08:52:23.31</time>
      </trkpt>
      <trkpt lat="45.59038" lon="4.90918">
        <ele>283.5</ele>
        <time>2012-09-05T08:52:24.27</time>
      </trkpt>
      <trkpt lat="45.59039" lon="4.90919">
        <ele>283.5</ele>
        <time>2012-09-05T08:52:25.30</time>
      </trkpt>
      <trkpt lat="45.59041" lon="4.9092">
        <ele>284.5</ele>
        <time>2012-09-05T08:52:26.26</time>
      </trkpt>
      <trkpt lat="45.59043" lon="4.90921">
        <ele>284</ele>
        <time>2012-09-05T08:52:27.27</time>
      </trkpt>
      <trkpt lat="45.59045" lon="4.90922">
        <ele>283.5</ele>
        <time>2012-09-05T08:52:28.28</time>
      </trkpt>
      <trkpt lat="45.59047" lon="4.90923">
        <ele>285</ele>
        <time>2012-09-05T08:52:29.38</time>
      </trkpt>
      <trkpt lat="45.59049" lon="4.90924">
        <ele>285</ele>
        <time>2012-09-05T08:52:30.24</time>
      </trkpt>
      <trkpt lat="45.59051" lon="4.90925">
        <ele>286.5</ele>
        <time>2012-09-05T08:52:31.33</time>
      </trkpt>
      <trkpt lat="45.59053" lon="4.90924">
        <ele>286</ele>
        <time>2012-09-05T08:52:32.23</time>
      </trkpt>
      <trkpt lat="45.59055" lon="4.90924">
        <ele>286</ele>
        <time>2012-09-05T08:52:33.25</time>
      </trkpt>
      <trkpt lat="45.59056" lon="4.90924">
        <ele>287</ele>
        <time>2012-09-05T08:52:34.32</time>
      </trkpt>
      <trkpt lat="45.59058" lon="4.90924">
        <ele>286</ele>
        <time>2012-09-05T08:52:35.40</time>
      </trkpt>
      <trkpt lat="45.5906" lon="4.90924">
        <ele>286.5</ele>
        <time>2012-09-05T08:52:36.20</time>
      </trkpt>
      <trkpt lat="45.59062" lon="4.90925">
        <ele>287.5</ele>
        <time>2012-09-05T08:52:37.29</time>
      </trkpt>
      <trkpt lat="45.59066" lon="4.90925">
        <ele>286.5</ele>
        <time>2012-09-05T08:52:38.20</time>
      </trkpt>
      <trkpt lat="45.59068" lon="4.90927">
        <ele>286.5</ele>
        <time>2012-09-05T08:52:40.23</time>
      </trkpt>
      <trkpt lat="45.59069" lon="4.90927">
        <ele>285.5</ele>
        <time>2012-09-05T08:52:41.20</time>
      </trkpt>
      <trkpt lat="45.59069" lon="4.90927">
        <ele>285</ele>
        <time>2012-09-05T08:52:42.21</time>
      </trkpt>
      <trkpt lat="45.59069" lon="4.90927">
        <ele>285</ele>
        <time>2012-09-05T08:52:43.51</time>
      </trkpt>
      <trkpt lat="45.59069" lon="4.90927">
        <ele>286.5</ele>
        <time>2012-09-05T08:52:44.59</time>
      </trkpt>
      <trkpt lat="45.59069" lon="4.90927">
        <ele>287</ele>
        <time>2012-09-05T08:52:46.19</time>
      </trkpt>
      <trkpt lat="45.59069" lon="4.90927">
        <ele>287</ele>
        <time>2012-09-05T08:52:47.28</time>
      </trkpt>
      <trkpt lat="45.59069" lon="4.90927">
        <ele>287</ele>
        <time>2012-09-05T08:52:48.16</time>
      </trkpt>
      <trkpt lat="45.59069" lon="4.90927">
        <ele>287</ele>
        <time>2012-09-05T08:52:49.19</time>
      </trkpt>
      <trkpt lat="45.59069" lon="4.90927">
        <ele>287</ele>
        <time>2012-09-05T08:52:50.18</time>
      </trkpt>
      <trkpt lat="45.59069" lon="4.90927">
        <ele>287</ele>
        <time>2012-09-05T08:52:51.18</time>
      </trkpt>
      <trkpt lat="45.59069" lon="4.90927">
        <ele>287</ele>
        <time>2012-09-05T08:52:52.16</time>
      </trkpt>
      <trkpt lat="45.59069" lon="4.90927">
        <ele>287</ele>
        <time>2012-09-05T08:52:53.17</time>
      </trkpt>
      <trkpt lat="45.59069" lon="4.90927">
        <ele>287</ele>
        <time>2012-09-05T08:52:54.17</time>
      </trkpt>
      <trkpt lat="45.59069" lon="4.90927">
        <ele>287</ele>
        <time>2012-09-05T08:52:55.21</time>
      </trkpt>
      <trkpt lat="45.59069" lon="4.90927">
        <ele>286.5</ele>
        <time>2012-09-05T08:52:56.16</time>
      </trkpt>
      <trkpt lat="45.59069" lon="4.90927">
        <ele>286.5</ele>
        <time>2012-09-05T08:52:57.15</time>
      </trkpt>
      <trkpt lat="45.59069" lon="4.90927">
        <ele>286.5</ele>
        <time>2012-09-05T08:52:58.15</time>
      </trkpt>
      <trkpt lat="45.59069" lon="4.90927">
        <ele>286.5</ele>
        <time>2012-09-05T08:52:59.15</time>
      </trkpt>
      <trkpt lat="45.59069" lon="4.90927">
        <ele>286.5</ele>
        <time>2012-09-05T08:53:00.14</time>
      </trkpt>
      <trkpt lat="45.59069" lon="4.90927">
        <ele>286.5</ele>
        <time>2012-09-05T08:53:01.17</time>
      </trkpt>
      <trkpt lat="45.59069" lon="4.90928">
        <ele>285.5</ele>
        <time>2012-09-05T08:53:02.12</time>
      </trkpt>
      <trkpt lat="45.59068" lon="4.90928">
        <ele>285.5</ele>
        <time>2012-09-05T08:53:03.12</time>
      </trkpt>
      <trkpt lat="45.59069" lon="4.90928">
        <ele>285.5</ele>
        <time>2012-09-05T08:53:04.13</time>
      </trkpt>
      <trkpt lat="45.59068" lon="4.90928">
        <ele>285.5</ele>
        <time>2012-09-05T08:53:05.12</time>
      </trkpt>
      <trkpt lat="45.59068" lon="4.90928">
        <ele>285.5</ele>
        <time>2012-09-05T08:53:06.13</time>
      </trkpt>
      <trkpt lat="45.59069" lon="4.90928">
        <ele>285.5</ele>
        <time>2012-09-05T08:53:07.13</time>
      </trkpt>
      <trkpt lat="45.59069" lon="4.90928">
        <ele>285.5</ele>
        <time>2012-09-05T08:53:08.11</time>
      </trkpt>
      <trkpt lat="45.59069" lon="4.90928">
        <ele>285.5</ele>
        <time>2012-09-05T08:53:09.10</time>
      </trkpt>
      <trkpt lat="45.59069" lon="4.90928">
        <ele>285.5</ele>
        <time>2012-09-05T08:53:10.09</time>
      </trkpt>
      <trkpt lat="45.59069" lon="4.90928">
        <ele>285.5</ele>
        <time>2012-09-05T08:53:11.09</time>
      </trkpt>
      <trkpt lat="45.59069" lon="4.90928">
        <ele>285.5</ele>
        <time>2012-09-05T08:53:12.08</time>
      </trkpt>
      <trkpt lat="45.59069" lon="4.90928">
        <ele>285.5</ele>
        <time>2012-09-05T08:53:13.08</time>
      </trkpt>
      <trkpt lat="45.59069" lon="4.90928">
        <ele>285.5</ele>
        <time>2012-09-05T08:53:14.07</time>
      </trkpt>
      <trkpt lat="45.59069" lon="4.90928">
        <ele>285.5</ele>
        <time>2012-09-05T08:53:15.05</time>
      </trkpt>
      <trkpt lat="45.59069" lon="4.90928">
        <ele>285</ele>
        <time>2012-09-05T08:53:16.06</time>
      </trkpt>
      <trkpt lat="45.59069" lon="4.90928">
        <ele>285</ele>
        <time>2012-09-05T08:53:17.04</time>
      </trkpt>
      <trkpt lat="45.59069" lon="4.90928">
        <ele>285</ele>
        <time>2012-09-05T08:53:18.04</time>
      </trkpt>
      <trkpt lat="45.59069" lon="4.90928">
        <ele>285</ele>
        <time>2012-09-05T08:53:19.03</time>
      </trkpt>
      <trkpt lat="45.59069" lon="4.90928">
        <ele>285</ele>
        <time>2012-09-05T08:53:20.03</time>
      </trkpt>
      <trkpt lat="45.59069" lon="4.90928">
        <ele>285</ele>
        <time>2012-09-05T08:53:21.03</time>
      </trkpt>
      <trkpt lat="45.59069" lon="4.90928">
        <ele>285</ele>
        <time>2012-09-05T08:53:22.03</time>
      </trkpt>
      <trkpt lat="45.59069" lon="4.90929">
        <ele>285</ele>
        <time>2012-09-05T08:53:23.02</time>
      </trkpt>
      <trkpt lat="45.59069" lon="4.90929">
        <ele>285</ele>
        <time>2012-09-05T08:53:24.02</time>
      </trkpt>
      <trkpt lat="45.59069" lon="4.90929">
        <ele>285</ele>
        <time>2012-09-05T08:53:25.06</time>
      </trkpt>
      <trkpt lat="45.59069" lon="4.90929">
        <ele>285</ele>
        <time>2012-09-05T08:53:25.99</time>
      </trkpt>
      <trkpt lat="45.59069" lon="4.90929">
        <ele>285</ele>
        <time>2012-09-05T08:53:27.00</time>
      </trkpt>
      <trkpt lat="45.59069" lon="4.90929">
        <ele>285</ele>
        <time>2012-09-05T08:53:27.98</time>
      </trkpt>
      <trkpt lat="45.59069" lon="4.90929">
        <ele>285</ele>
        <time>2012-09-05T08:53:28.98</time>
      </trkpt>
      <trkpt lat="45.59069" lon="4.90929">
        <ele>285</ele>
        <time>2012-09-05T08:53:29.97</time>
      </trkpt>
      <trkpt lat="45.59069" lon="4.90929">
        <ele>285</ele>
        <time>2012-09-05T08:53:31.00</time>
      </trkpt>
      <trkpt lat="45.59069" lon="4.90929">
        <ele>285</ele>
        <time>2012-09-05T08:53:31.97</time>
      </trkpt>
      <trkpt lat="45.59069" lon="4.90929">
        <ele>285</ele>
        <time>2012-09-05T08:53:32.97</time>
      </trkpt>
      <trkpt lat="45.59069" lon="4.90929">
        <ele>285</ele>
        <time>2012-09-05T08:53:33.96</time>
      </trkpt>
      <trkpt lat="45.59069" lon="4.90929">
        <ele>285</ele>
        <time>2012-09-05T08:53:34.96</time>
      </trkpt>
      <trkpt lat="45.59069" lon="4.90929">
        <ele>285</ele>
        <time>2012-09-05T08:53:35.95</time>
      </trkpt>
      <trkpt lat="45.59069" lon="4.90929">
        <ele>285</ele>
        <time>2012-09-05T08:53:36.97</time>
      </trkpt>
      <trkpt lat="45.59069" lon="4.90928">
        <ele>286</ele>
        <time>2012-09-05T08:53:37.94</time>
      </trkpt>
      <trkpt lat="45.59068" lon="4.90928">
        <ele>285.5</ele>
        <time>2012-09-05T08:53:38.93</time>
      </trkpt>
      <trkpt lat="45.59069" lon="4.90928">
        <ele>285.5</ele>
        <time>2012-09-05T08:53:39.93</time>
      </trkpt>
      <trkpt lat="45.59069" lon="4.90928">
        <ele>285.5</ele>
        <time>2012-09-05T08:53:40.92</time>
      </trkpt>
      <trkpt lat="45.59069" lon="4.90929">
        <ele>285.5</ele>
        <time>2012-09-05T08:53:41.92</time>
      </trkpt>
      <trkpt lat="45.59069" lon="4.90928">
        <ele>285.5</ele>
        <time>2012-09-05T08:53:42.93</time>
      </trkpt>
      <trkpt lat="45.59069" lon="4.90928">
        <ele>285.5</ele>
        <time>2012-09-05T08:53:43.91</time>
      </trkpt>
      <trkpt lat="45.59069" lon="4.90928">
        <ele>285</ele>
        <time>2012-09-05T08:53:44.90</time>
      </trkpt>
      <trkpt lat="45.59069" lon="4.90928">
        <ele>285</ele>
        <time>2012-09-05T08:53:45.90</time>
      </trkpt>
      <trkpt lat="45.59069" lon="4.90928">
        <ele>285.5</ele>
        <time>2012-09-05T08:53:46.90</time>
      </trkpt>
      <trkpt lat="45.59069" lon="4.90928">
        <ele>286</ele>
        <time>2012-09-05T08:53:47.90</time>
      </trkpt>
      <trkpt lat="45.59069" lon="4.90928">
        <ele>286.5</ele>
        <time>2012-09-05T08:53:48.91</time>
      </trkpt>
      <trkpt lat="45.59069" lon="4.90927">
        <ele>287.5</ele>
        <time>2012-09-05T08:53:49.89</time>
      </trkpt>
      <trkpt lat="45.5907" lon="4.90927">
        <ele>287.5</ele>
        <time>2012-09-05T08:53:50.89</time>
      </trkpt>
      <trkpt lat="45.5907" lon="4.90926">
        <ele>288.5</ele>
        <time>2012-09-05T08:53:51.88</time>
      </trkpt>
      <trkpt lat="45.5907" lon="4.90926">
        <ele>288</ele>
        <time>2012-09-05T08:53:52.87</time>
      </trkpt>
      <trkpt lat="45.5907" lon="4.90926">
        <ele>288</ele>
        <time>2012-09-05T08:53:53.87</time>
      </trkpt>
      <trkpt lat="45.5907" lon="4.90925">
        <ele>288</ele>
        <time>2012-09-05T08:53:54.88</time>
      </trkpt>
      <trkpt lat="45.5907" lon="4.90925">
        <ele>288</ele>
        <time>2012-09-05T08:53:55.85</time>
      </trkpt>
      <trkpt lat="45.59069" lon="4.90923">
        <ele>288.5</ele>
        <time>2012-09-05T08:53:56.85</time>
      </trkpt>
      <trkpt lat="45.59069" lon="4.90923">
        <ele>288</ele>
        <time>2012-09-05T08:53:57.85</time>
      </trkpt>
      <trkpt lat="45.59069" lon="4.90923">
        <ele>287.5</ele>
        <time>2012-09-05T08:53:58.84</time>
      </trkpt>
      <trkpt lat="45.59068" lon="4.90922">
        <ele>288</ele>
        <time>2012-09-05T08:53:59.83</time>
      </trkpt>
      <trkpt lat="45.59067" lon="4.90922">
        <ele>287.5</ele>
        <time>2012-09-05T08:54:00.86</time>
      </trkpt>
      <trkpt lat="45.59067" lon="4.90921">
        <ele>288</ele>
        <time>2012-09-05T08:54:01.82</time>
      </trkpt>
      <trkpt lat="45.59066" lon="4.90921">
        <ele>288.5</ele>
        <time>2012-09-05T08:54:02.83</time>
      </trkpt>
      <trkpt lat="45.59065" lon="4.90921">
        <ele>289</ele>
        <time>2012-09-05T08:54:03.83</time>
      </trkpt>
      <trkpt lat="45.59064" lon="4.90921">
        <ele>289</ele>
        <time>2012-09-05T08:54:04.82</time>
      </trkpt>
      <trkpt lat="45.59063" lon="4.90921">
        <ele>289.5</ele>
        <time>2012-09-05T08:54:05.85</time>
      </trkpt>
      <trkpt lat="45.59063" lon="4.90922">
        <ele>289</ele>
        <time>2012-09-05T08:54:06.84</time>
      </trkpt>
      <trkpt lat="45.59062" lon="4.90924">
        <ele>288</ele>
        <time>2012-09-05T08:54:07.80</time>
      </trkpt>
      <trkpt lat="45.59061" lon="4.90924">
        <ele>288.5</ele>
        <time>2012-09-05T08:54:08.80</time>
      </trkpt>
      <trkpt lat="45.59061" lon="4.90925">
        <ele>288.5</ele>
        <time>2012-09-05T08:54:09.79</time>
      </trkpt>
      <trkpt lat="45.5906" lon="4.90925">
        <ele>288.5</ele>
        <time>2012-09-05T08:54:10.79</time>
      </trkpt>
      <trkpt lat="45.5906" lon="4.90925">
        <ele>288.5</ele>
        <time>2012-09-05T08:54:11.79</time>
      </trkpt>
      <trkpt lat="45.5906" lon="4.90926">
        <ele>288.5</ele>
        <time>2012-09-05T08:54:12.78</time>
      </trkpt>
      <trkpt lat="45.5906" lon="4.90927">
        <ele>287</ele>
        <time>2012-09-05T08:54:13.77</time>
      </trkpt>
      <trkpt lat="45.5906" lon="4.90927">
        <ele>287</ele>
        <time>2012-09-05T08:54:14.76</time>
      </trkpt>
      <trkpt lat="45.5906" lon="4.90927">
        <ele>287</ele>
        <time>2012-09-05T08:54:15.77</time>
      </trkpt>
      <trkpt lat="45.5906" lon="4.90927">
        <ele>287</ele>
        <time>2012-09-05T08:54:16.76</time>
      </trkpt>
      <trkpt lat="45.5906" lon="4.90927">
        <ele>287</ele>
        <time>2012-09-05T08:54:17.72</time>
      </trkpt>
      <trkpt lat="45.5906" lon="4.90927">
        <ele>287</ele>
        <time>2012-09-05T08:54:18.71</time>
      </trkpt>
      <trkpt lat="45.5906" lon="4.90927">
        <ele>287</ele>
        <time>2012-09-05T08:54:19.71</time>
      </trkpt>
      <trkpt lat="45.5906" lon="4.90927">
        <ele>286.5</ele>
        <time>2012-09-05T08:54:20.69</time>
      </trkpt>
      <trkpt lat="45.5906" lon="4.90927">
        <ele>286.5</ele>
        <time>2012-09-05T08:54:21.92</time>
      </trkpt>
      <trkpt lat="45.59059" lon="4.90927">
        <ele>286</ele>
        <time>2012-09-05T08:54:22.74</time>
      </trkpt>
    </trkseg>
  </trk>
</gpx>